Observation Tools

Red maple Photo courtesy of Wikipedia, en.wikipedia.org.

Red maple (Acer rubrum)


Also Known As: Swamp maple, Scarlet maple, Soft maple
Plant Family: Maple (Aceraceae)
Project BudBurst Plant Group: Deciduous Trees and Shrubs

Identification Hints: There are many native and ornamental maples. Red maples are distinctive in having the red flowers emerge a week or more before the leaves. Silver maple (A. saccharinum) has greenish-yellow flowers that emerge well before the leaves and has large 5-lobed leaves with whitish undersides (only 3 main lobes in red maple). The other ornamental maples generally have green undersides of leaves (as contrasted with white or gray in red maple) and usually do not have red flowers.

Did you Know? Because of its brilliant red color in the fall, Red maple is prized as an ornamental. The sap can be used for producing maple syrup, however its sap has only about half of the sugar content as sugar maple. Native Americans used red maple bark as an analgesic, wash for inflamed eyes and cataracts, and as a remedy for hives and muscular aches.


Live Map for Red maple

Other years available for viewing:

Below you can view all observations that have been reported in for Red maple (If the map below is empty then there have not been any observations reported.)

Use the navigation buttons on the left to zoom in/out and pan around. Click on each place marker to get detail information about that observation.

Leaf/Needles/Stalk = Leaf/Needles/Stalk Flower = Flower Pollen = Pollen Fruiting = Fruiting Color = Color

--Back to Top--

close help window button

The table below displays all the data that has been submitted to Project BudBurst. By default, the data is sorted by the date on which the phenophase occurred. Clicking the up and down arrows next to each column name allows you to sort on any value. If there have been more than 10 observations submitted, you can choose how many to display at a time using the "Show __ entries" control. You can also page through the data using the previous and next buttons at the bottom right of the table.

The Search box allows you to search all of the data. Searching by date, species, phenophase, etc. is easy—just start typing and the table will immediately change to contain only observations that contain your search phrase. Do you want to see only 2012 observations? Just type "2012" in the search box. Only want to see maples? Enter "Acer." You can combine searches, too! Searching for "acer 2012" will narrow your results to only the maples that were observed in 2012 (assuming that any observations exist, of course).

Once you have your results in the order desired, you can use any of the buttons above the search box to copy the results to the clipboard; save them as a text, or spreadsheet; or even print them from your browser!

Observational data for Red maple:

help button
Date Contributor Common Name Species Phenophase Latitude Longitude Obs#
Thu Feb 07 00:00:00 GMT 2008 lizsoutendijk Red maple Acer rubrum First Flower 32.780900000000000 -95.378600000000000 4
Sat Feb 16 00:00:00 GMT 2008 lizsoutendijk Red maple Acer rubrum Full Flower 32.780900000000000 -95.378600000000000 5
Thu Feb 07 00:00:00 GMT 2008 hortfarm Red maple Acer rubrum First Flower 33.885800000000000 -83.420500000000000 6
Sat Feb 16 00:00:00 GMT 2008 hortfarm Red maple Acer rubrum Full Flower 33.885800000000000 -83.420500000000000 7
Thu Feb 14 00:00:00 GMT 2008 jde937 Red maple Acer rubrum First Flower 35.776100000000000 -78.752300000000000 18
Mon Feb 18 00:00:00 GMT 2008 anonymous Red maple Acer rubrum First Leaf 38.289800000000000 -77.524200000000000 75
Wed Feb 20 00:00:00 GMT 2008 markcase Red maple Acer rubrum First Flower 35.951300000000000 -79.854500000000000 81
Fri Feb 15 00:00:00 GMT 2008 ncaquarium-ri Red maple Acer rubrum First Flower 35.927500000000000 -75.723500000000000 83
Wed Feb 20 00:00:00 GMT 2008 ncaquarium-ri Red maple Acer rubrum Full Flower 35.927500000000000 -75.723500000000000 84
Sat Feb 16 00:00:00 GMT 2008 Safetybob Red maple Acer rubrum First Leaf 30.865600000000000 -88.195600000000000 116
Tue Feb 26 00:00:00 GMT 2008 anonymous Red maple Acer rubrum First Leaf 33.220000000000000 -80.800000000000000 150
Sun Feb 17 00:00:00 GMT 2008 wildwoods Red maple Acer rubrum First Leaf 34.643200000000000 -94.199800000000000 171
Mon Mar 03 00:00:00 GMT 2008 cpartain Red maple Acer rubrum First Flower 39.362200000000000 -76.680500000000000 226
Wed Feb 20 00:00:00 GMT 2008 rainer Red maple Acer rubrum First Flower 36.295500000000000 -80.141700000000000 280
Sat Feb 23 00:00:00 GMT 2008 rainer Red maple Acer rubrum Full Flower 36.295500000000000 -80.141700000000000 281
Sat Mar 01 00:00:00 GMT 2008 anonymous Red maple Acer rubrum First Leaf 36.000000000000000 -80.000000000000000 282
Wed Feb 20 00:00:00 GMT 2008 thanrose Red maple Acer rubrum First Flower 29.172600000000000 -81.018500000000000 351
Sat Feb 23 00:00:00 GMT 2008 thanrose Red maple Acer rubrum Full Flower 29.172600000000000 -81.018500000000000 352
Fri Mar 07 00:00:00 GMT 2008 rainer Red maple Acer rubrum End of Flowering 36.295500000000000 -80.141700000000000 383
Wed Mar 05 00:00:00 GMT 2008 nielsenm Red maple Acer rubrum First Leaf 39.305000000000000 -121.159000000000000 446
Mon Mar 03 00:00:00 GMT 2008 naturalist Red maple Acer rubrum First Flower 36.070000000000000 -79.500000000000000 483
Fri Feb 29 00:00:00 GMT 2008 naturalist Red maple Acer rubrum First Leaf 36.070000000000000 -79.500000000000000 484
Sat Mar 01 00:00:00 GMT 2008 naturalist Red maple Acer rubrum First Flower 30.510000000000000 -80.220000000000000 487
Wed Mar 05 00:00:00 GMT 2008 naturalist Red maple Acer rubrum First Flower 33.500000000000000 -81.980000000000000 514
Fri Mar 07 00:00:00 GMT 2008 wvtroutbum Red maple Acer rubrum First Flower 38.402700000000000 -81.747800000000000 604
Wed Mar 12 00:00:00 GMT 2008 Yvonne Orkin Red maple Acer rubrum Full Flower 38.953900000000000 -75.933100000000000 643
Wed Mar 19 00:00:00 GMT 2008 Uncle Bear Red maple Acer rubrum First Leaf 35.733400000000000 -81.333200000000000 660
Fri Feb 29 00:00:00 GMT 2008 naturalist Red maple Acer rubrum First Flower 35.220000000000000 -80.800000000000000 663
Mon Mar 10 00:00:00 GMT 2008 naturalist Red maple Acer rubrum Full Flower 35.220000000000000 -80.800000000000000 664
Mon Mar 17 00:00:00 GMT 2008 naturalist Red maple Acer rubrum First Ripe Fruit 35.220000000000000 -80.800000000000000 665
Mon Mar 10 00:00:00 GMT 2008 naturalist Red maple Acer rubrum Full Flower 30.510000000000000 -80.220000000000000 666
Tue Mar 18 00:00:00 GMT 2008 naturalist Red maple Acer rubrum First Ripe Fruit 30.510000000000000 -80.220000000000000 667
Mon Mar 10 00:00:00 GMT 2008 naturalist Red maple Acer rubrum Full Flower 36.070000000000000 -79.500000000000000 668
Tue Mar 18 00:00:00 GMT 2008 naturalist Red maple Acer rubrum First Ripe Fruit 36.070000000000000 -79.500000000000000 669
Mon Mar 10 00:00:00 GMT 2008 naturalist Red maple Acer rubrum Full Flower 33.500000000000000 -81.980000000000000 670
Sat Mar 15 00:00:00 GMT 2008 naturalist Red maple Acer rubrum First Ripe Fruit 33.500000000000000 -81.980000000000000 671
Mon Mar 17 00:00:00 GMT 2008 Joe Cool Red maple Acer rubrum First Leaf 28.981700000000000 -95.940900000000000 699
Wed Mar 19 00:00:00 GMT 2008 Joe Cool Red maple Acer rubrum All Leaves Unfolded 28.981700000000000 -95.940900000000000 700
Mon Mar 17 00:00:00 GMT 2008 cpartain Red maple Acer rubrum First Flower 39.286700000000000 -76.608700000000000 715
Thu Mar 20 00:00:00 GMT 2008 naturelover07 Red maple Acer rubrum Full Flower 33.816200000000000 -83.950600000000000 748
Sat Mar 15 00:00:00 GMT 2008 otter19 Red maple Acer rubrum First Flower 35.760900000000000 -81.332400000000000 860
Sat Mar 22 00:00:00 GMT 2008 otter19 Red maple Acer rubrum Full Flower 35.760900000000000 -81.332400000000000 861
Mon Mar 24 00:00:00 GMT 2008 anonymous Red maple Acer rubrum First Leaf 38.917900000000000 -77.267800000000000 882
Mon Mar 10 00:00:00 GMT 2008 nielsenm Red maple Acer rubrum First Flower 39.305000000000000 -121.159000000000000 925
Sat Mar 15 00:00:00 GMT 2008 nielsenm Red maple Acer rubrum Full Flower 39.305000000000000 -121.159000000000000 926
Sun Mar 23 00:00:00 GMT 2008 wvtroutbum Red maple Acer rubrum Full Flower 38.402700000000000 -81.747800000000000 986
Sun Mar 30 00:00:00 GMT 2008 drhartel Red maple Acer rubrum First Ripe Fruit 34.053600000000000 -83.123100000000000 1028
Thu Mar 20 00:00:00 GMT 2008 sheltonirisd Red maple Acer rubrum First Flower 35.796400000000000 -84.687000000000000 1067
Wed Mar 12 00:00:00 GMT 2008 drhartel Red maple Acer rubrum First Ripe Fruit 33.942600000000000 -83.373700000000000 1169
Mon Mar 10 00:00:00 GMT 2008 marshdoc Red maple Acer rubrum First Leaf 34.263100000000000 -83.744700000000000 1318
Mon Mar 10 00:00:00 GMT 2008 marshdoc Red maple Acer rubrum First Flower 34.263100000000000 -83.744700000000000 1319
Mon Mar 17 00:00:00 GMT 2008 marshdoc Red maple Acer rubrum Full Flower 34.263100000000000 -83.744700000000000 1320
Mon Mar 31 00:00:00 GMT 2008 marshdoc Red maple Acer rubrum End of Flowering 34.263100000000000 -83.744700000000000 1321
Sun Apr 06 00:00:00 GMT 2008 anonymous Red maple Acer rubrum First Leaf 39.340600000000000 -85.203900000000000 1377
Tue Apr 08 00:00:00 GMT 2008 naturalist Red maple Acer rubrum End of Flowering 35.220000000000000 -80.800000000000000 1382
Tue Apr 08 00:00:00 GMT 2008 gmdwilcox Red maple Acer rubrum First Leaf 39.340600000000000 -85.203900000000000 1383
Fri Apr 04 00:00:00 GMT 2008 dkovarik Red maple Acer rubrum First Leaf 47.702900000000000 -122.354000000000000 1445
Thu Apr 10 00:00:00 GMT 2008 Lynora Red maple Acer rubrum First Flower 42.043400000000000 -87.894600000000000 1502
Thu Apr 10 00:00:00 GMT 2008 srstebbi Red maple Acer rubrum First Flower 43.020400000000000 -76.126700000000000 1515
Mon Apr 07 00:00:00 GMT 2008 mcavener Red maple Acer rubrum Full Flower 40.790000000000000 -77.880000000000000 1603
Thu Apr 03 00:00:00 GMT 2008 jenulsh@northhempstead.com Red maple Acer rubrum First Leaf 40.705500000000000 -73.448900000000000 1621
Wed Apr 09 00:00:00 GMT 2008 ajmr Red maple Acer rubrum First Flower 42.285800000000000 -71.337300000000000 1654
Sun Apr 13 00:00:00 GMT 2008 petewsh61 Red maple Acer rubrum First Flower 42.431700000000000 -72.553800000000000 1655
Sun Apr 13 00:00:00 GMT 2008 srstebbi Red maple Acer rubrum Full Flower 43.020400000000000 -76.126700000000000 1659
Thu Apr 10 00:00:00 GMT 2008 dkovarik Red maple Acer rubrum All Leaves Unfolded 47.702900000000000 -122.354000000000000 1673
Sat Apr 12 00:00:00 GMT 2008 Yvonne Orkin Red maple Acer rubrum First Ripe Fruit 38.953900000000000 -75.933100000000000 1674
Tue Apr 08 00:00:00 GMT 2008 engle-hills Red maple Acer rubrum All Leaves Unfolded 37.122100000000000 -76.448600000000000 1739
Thu Mar 27 00:00:00 GMT 2008 Morganarie Red maple Acer rubrum First Leaf 43.444000000000000 -84.015900000000000 1753
Wed Apr 16 00:00:00 GMT 2008 jlewis5 Red maple Acer rubrum First Flower 42.158200000000000 -76.953800000000000 1812
Thu Apr 17 00:00:00 GMT 2008 ribarnica Red maple Acer rubrum First Flower 42.809400000000000 -87.819500000000000 1815
Thu Apr 17 00:00:00 GMT 2008 ribarnica Red maple Acer rubrum Full Flower 42.809400000000000 -87.819500000000000 1816
Thu Apr 17 00:00:00 GMT 2008 Uncle Bear Red maple Acer rubrum First Flower 35.733400000000000 -81.333200000000000 1817
Sat Apr 19 00:00:00 GMT 2008 janp Red maple Acer rubrum First Flower 43.068100000000000 -77.521500000000000 1901
Thu Apr 24 00:00:00 GMT 2008 anonymous Red maple Acer rubrum First Leaf 42.112600000000000 -87.981000000000000 2228
Sun Apr 20 00:00:00 GMT 2008 srstebbi Red maple Acer rubrum End of Flowering 43.020400000000000 -76.126700000000000 2266
Tue Apr 22 00:00:00 GMT 2008 hprice Red maple Acer rubrum First Leaf 41.684200000000000 -86.247200000000000 2409
Sat Apr 26 00:00:00 GMT 2008 hprice Red maple Acer rubrum All Leaves Unfolded 41.684200000000000 -86.247200000000000 2410
Sun Apr 13 00:00:00 GMT 2008 hprice Red maple Acer rubrum First Flower 41.684200000000000 -86.247200000000000 2411
Fri Apr 18 00:00:00 GMT 2008 hprice Red maple Acer rubrum Full Flower 41.684200000000000 -86.247200000000000 2412
Mon Apr 21 00:00:00 GMT 2008 hprice Red maple Acer rubrum End of Flowering 41.684200000000000 -86.247200000000000 2413
Mon Apr 28 00:00:00 GMT 2008 hblarson Red maple Acer rubrum End of Flowering 42.200100000000000 -88.401700000000000 2419
Tue Apr 22 00:00:00 GMT 2008 dthazzard Red maple Acer rubrum First Ripe Fruit 38.752500000000000 -76.956500000000000 2422
Sat Apr 26 00:00:00 GMT 2008 naturalist Red maple Acer rubrum All Leaves Unfolded 35.220000000000000 -80.800000000000000 2439
Fri May 16 00:00:00 GMT 2008 naturalist Red maple Acer rubrum All Leaves Unfolded 30.510000000000000 -80.220000000000000 2521
Tue Apr 15 00:00:00 GMT 2008 naturalist Red maple Acer rubrum All Leaves Unfolded 33.500000000000000 -81.980000000000000 2522
Mon Apr 21 00:00:00 GMT 2008 ironpeasantfarm Red maple Acer rubrum First Leaf 43.368100000000000 -71.099100000000000 2579
Sun Apr 27 00:00:00 GMT 2008 ironpeasantfarm Red maple Acer rubrum First Flower 43.368100000000000 -71.099100000000000 2580
Wed Apr 23 00:00:00 GMT 2008 IlexAcer Red maple Acer rubrum First Leaf 42.414800000000000 -71.215700000000000 2610
Tue Apr 22 00:00:00 GMT 2008 greemedogs Red maple Acer rubrum First Leaf 41.812100000000000 -72.844100000000000 2656
Sun May 04 00:00:00 GMT 2008 hblarson Red maple Acer rubrum First Leaf 42.200100000000000 -88.401700000000000 2797
Fri Apr 25 00:00:00 GMT 2008 alliebunge Red maple Acer rubrum First Leaf 43.673900000000000 -92.083300000000000 2975
Thu May 01 00:00:00 GMT 2008 thezeldavross Red maple Acer rubrum First Leaf 39.582700000000000 -77.603700000000000 3156
Sat May 03 00:00:00 GMT 2008 thezeldavross Red maple Acer rubrum All Leaves Unfolded 39.582700000000000 -77.603700000000000 3157
Wed Apr 30 00:00:00 GMT 2008 anonymous Red maple Acer rubrum First Leaf 42.000000000000000 -71.000000000000000 3741
Mon May 12 00:00:00 GMT 2008 anonymous Red maple Acer rubrum All Leaves Unfolded 42.000000000000000 -71.000000000000000 3742
Wed Apr 16 00:00:00 GMT 2008 anonymous Red maple Acer rubrum First Flower 42.000000000000000 -71.000000000000000 3743
Wed Apr 30 00:00:00 GMT 2008 anonymous Red maple Acer rubrum Full Flower 42.000000000000000 -71.000000000000000 3744
Mon May 12 00:00:00 GMT 2008 anonymous Red maple Acer rubrum End of Flowering 42.000000000000000 -71.000000000000000 3745
Sun May 25 00:00:00 GMT 2008 hblarson Red maple Acer rubrum First Ripe Fruit 42.200100000000000 -88.401700000000000 3802
Sat May 17 00:00:00 GMT 2008 cpartain Red maple Acer rubrum First Ripe Fruit 39.362200000000000 -76.680500000000000 3804
Wed Mar 19 00:00:00 GMT 2008 vanndawn Red maple Acer rubrum First Flower 38.912500000000000 -92.277500000000000 4371
Mon Mar 24 00:00:00 GMT 2008 vanndawn Red maple Acer rubrum Full Flower 38.912500000000000 -92.277500000000000 4372
Mon Apr 14 00:00:00 GMT 2008 vanndawn Red maple Acer rubrum End of Flowering 38.912500000000000 -92.277500000000000 4373
Tue May 06 00:00:00 GMT 2008 vanndawn Red maple Acer rubrum First Ripe Fruit 38.912500000000000 -92.277500000000000 4374
Tue Nov 18 00:00:00 GMT 2008 anonymous Red maple Acer rubrum First Leaf 42.444600000000000 -76.499300000000000 4759
Sun Apr 20 00:00:00 GMT 2008 anonymous Red maple Acer rubrum First Leaf 40.699000000000000 -79.741700000000000 4847
Wed Apr 30 00:00:00 GMT 2008 anonymous Red maple Acer rubrum All Leaves Unfolded 40.699000000000000 -79.741700000000000 4848
Tue Apr 08 00:00:00 GMT 2008 anonymous Red maple Acer rubrum First Flower 40.699000000000000 -79.741700000000000 4849
Wed Apr 16 00:00:00 GMT 2008 anonymous Red maple Acer rubrum Full Flower 40.699000000000000 -79.741700000000000 4850
Sun Apr 20 00:00:00 GMT 2008 anonymous Red maple Acer rubrum End of Flowering 40.699000000000000 -79.741700000000000 4851
Wed Jan 16 00:00:00 GMT 2008 annhightower Red maple Acer rubrum First Flower 29.791900000000000 -95.578800000000000 4859
Tue Feb 24 00:00:00 GMT 2009 anonymous Red maple Acer rubrum Full Flower 33.760000000000000 -84.315800000000000 4914
Sun Feb 15 00:00:00 GMT 2009 anonymous Red maple Acer rubrum First Flower 34.293000000000000 -94.180900000000000 4916
Fri Feb 27 00:00:00 GMT 2009 anonymous Red maple Acer rubrum First Flower 38.776700000000000 -76.564600000000000 4920
Wed Mar 04 00:00:00 GMT 2009 acooke Red maple Acer rubrum First Flower 35.879100000000000 -79.071500000000000 4987
Wed Mar 11 00:00:00 GMT 2009 acooke Red maple Acer rubrum Full Flower 35.879100000000000 -79.071500000000000 4988
Tue Mar 10 00:00:00 GMT 2009 cmgrant@mymail.aacc.edu Red maple Acer rubrum First Flower 39.167200000000000 -76.750400000000000 4996
Fri Mar 13 00:00:00 GMT 2009 cmgrant@mymail.aacc.edu Red maple Acer rubrum Full Flower 39.167200000000000 -76.750400000000000 4997
Wed Mar 11 00:00:00 GMT 2009 momck Red maple Acer rubrum First Flower 40.064400000000000 -80.717900000000000 4998
Tue Mar 10 00:00:00 GMT 2009 lmkelley Red maple Acer rubrum Full Flower 42.304700000000000 -71.122900000000000 4990
Sun May 11 00:00:00 GMT 2008 gardeningguy Red maple Acer rubrum First Leaf 41.137200000000000 -104.740000000000000 5028
Fri May 16 00:00:00 GMT 2008 gardeningguy Red maple Acer rubrum All Leaves Unfolded 41.137200000000000 -104.740000000000000 5029
Fri May 30 00:00:00 GMT 2008 gardeningguy Red maple Acer rubrum First Flower 41.137200000000000 -104.740000000000000 5030
Sun Jun 08 00:00:00 GMT 2008 gardeningguy Red maple Acer rubrum Full Flower 41.137200000000000 -104.740000000000000 5031
Sun Jun 22 00:00:00 GMT 2008 gardeningguy Red maple Acer rubrum End of Flowering 41.137200000000000 -104.740000000000000 5032
Fri Sep 12 00:00:00 GMT 2008 gardeningguy Red maple Acer rubrum First Ripe Fruit 41.137200000000000 -104.740000000000000 5033
Sun Jun 08 00:00:00 GMT 2008 gardeningguy Red maple Acer rubrum 50% Color 41.137200000000000 -104.740000000000000 5034
Mon May 19 00:00:00 GMT 2008 gardeningguy Red maple Acer rubrum First Leaf 41.137200000000000 -104.740000000000000 5027
Thu Mar 12 00:00:00 GMT 2009 forestguardian Red maple Acer rubrum First Flower 41.383900000000000 -73.914700000000000 5073
Mon Mar 16 00:00:00 GMT 2009 momck Red maple Acer rubrum Full Flower 40.064400000000000 -80.717900000000000 5047
Fri Mar 06 00:00:00 GMT 2009 michghi Red maple Acer rubrum First Leaf 41.974800000000000 -87.804600000000000 5053
Sat Mar 14 00:00:00 GMT 2009 duneslearningcenter Red maple Acer rubrum First Flower 41.602600000000000 -87.050500000000000 5085
Fri Mar 13 00:00:00 GMT 2009 dziekons Red maple Acer rubrum First Flower 36.342200000000000 -88.151900000000000 5094
Tue Mar 17 00:00:00 GMT 2009 dziekons Red maple Acer rubrum Full Flower 36.342200000000000 -88.151900000000000 5095
Fri Mar 13 00:00:00 GMT 2009 dziekons Red maple Acer rubrum First Flower 36.342200000000000 -88.151900000000000 5096
Tue Mar 17 00:00:00 GMT 2009 dziekons Red maple Acer rubrum Full Flower 36.342200000000000 -88.151900000000000 5097
Fri Mar 06 00:00:00 GMT 2009 annhightower Red maple Acer rubrum First Leaf 29.791900000000000 -95.578800000000000 5104
Fri Jan 23 00:00:00 GMT 2009 annhightower Red maple Acer rubrum First Flower 29.791900000000000 -95.578800000000000 5105
Fri Feb 06 00:00:00 GMT 2009 annhightower Red maple Acer rubrum Full Flower 29.791900000000000 -95.578800000000000 5106
Sat Mar 14 00:00:00 GMT 2009 billmiky Red maple Acer rubrum First Flower 40.663900000000000 -73.969900000000000 5108
Fri Mar 20 00:00:00 GMT 2009 amt27 Red maple Acer rubrum Full Flower 40.264700000000000 -74.955800000000000 5312
Thu Apr 02 00:00:00 GMT 2009 srstebbi Red maple Acer rubrum First Flower 43.020400000000000 -76.126700000000000 5370
Mon Mar 16 00:00:00 GMT 2009 taittems Red maple Acer rubrum First Flower 42.405600000000000 -82.911700000000000 5371
Tue Mar 17 00:00:00 GMT 2009 taittems Red maple Acer rubrum Full Flower 42.405600000000000 -82.911700000000000 5372
Fri Apr 03 00:00:00 GMT 2009 srstebbi Red maple Acer rubrum Full Flower 43.020400000000000 -76.126700000000000 5392
Fri Mar 20 00:00:00 GMT 2009 papilion Red maple Acer rubrum First Leaf 37.249900000000000 -76.658800000000000 5395
Sun Feb 15 00:00:00 GMT 2009 papilion Red maple Acer rubrum First Flower 37.249900000000000 -76.658800000000000 5396
Mon Feb 16 00:00:00 GMT 2009 papilion Red maple Acer rubrum Full Flower 37.249900000000000 -76.658800000000000 5397
Thu Feb 26 00:00:00 GMT 2009 papilion Red maple Acer rubrum End of Flowering 37.249900000000000 -76.658800000000000 5398
Wed Mar 04 00:00:00 GMT 2009 papilion Red maple Acer rubrum First Ripe Fruit 37.249900000000000 -76.658800000000000 5399
Sat Apr 04 00:00:00 GMT 2009 mdunn Red maple Acer rubrum First Leaf 35.757100000000000 -79.107000000000000 5442
Mon Apr 06 00:00:00 GMT 2009 retiredsgt Red maple Acer rubrum First Leaf 39.926500000000000 -76.650100000000000 5474
Sat Apr 04 00:00:00 GMT 2009 newquarterpark Red maple Acer rubrum First Leaf 37.282000000000000 -76.657600000000000 5601
Sat Mar 07 00:00:00 GMT 2009 newquarterpark Red maple Acer rubrum First Flower 37.282000000000000 -76.657600000000000 5602
Fri Mar 20 00:00:00 GMT 2009 newquarterpark Red maple Acer rubrum Full Flower 37.282000000000000 -76.657600000000000 5603
Thu Apr 02 00:00:00 GMT 2009 momck Red maple Acer rubrum End of Flowering 40.064400000000000 -80.717900000000000 5625
Sat Apr 04 00:00:00 GMT 2009 brm@hvc.rr.com Red maple Acer rubrum First Flower 41.422700000000000 -74.084600000000000 5681
Tue Apr 07 00:00:00 GMT 2009 brm@hvc.rr.com Red maple Acer rubrum Full Flower 41.422700000000000 -74.084600000000000 5682
Mon Mar 23 00:00:00 GMT 2009 anonymous Red maple Acer rubrum First Leaf 39.160000000000000 -86.490000000000000 5732
Thu Apr 16 00:00:00 GMT 2009 compobs Red maple Acer rubrum First Flower 45.379400000000000 -93.076700000000000 5778
Fri Apr 17 00:00:00 GMT 2009 compobs Red maple Acer rubrum Full Flower 45.379400000000000 -93.076700000000000 5779
Wed Apr 08 00:00:00 GMT 2009 papilion Red maple Acer rubrum All Leaves Unfolded 37.249900000000000 -76.658800000000000 5831
Sat Mar 21 00:00:00 GMT 2009 anonymous Red maple Acer rubrum First Leaf 39.153400000000000 -86.490800000000000 6055
Mon Apr 06 00:00:00 GMT 2009 anonymous Red maple Acer rubrum All Leaves Unfolded 39.153400000000000 -86.490800000000000 6056
Tue Feb 10 00:00:00 GMT 2009 anonymous Red maple Acer rubrum First Flower 39.165300000000000 -86.526400000000000 5835
Tue Feb 17 00:00:00 GMT 2009 anonymous Red maple Acer rubrum Full Flower 39.165300000000000 -86.526400000000000 5836
Wed Feb 25 00:00:00 GMT 2009 anonymous Red maple Acer rubrum End of Flowering 39.165300000000000 -86.526400000000000 5837
Wed Feb 25 00:00:00 GMT 2009 anonymous Red maple Acer rubrum First Ripe Fruit 39.165300000000000 -86.526400000000000 5838
Sun Mar 22 00:00:00 GMT 2009 anonymous Red maple Acer rubrum First Flower 39.160000000000000 -86.490000000000000 6243
Tue Mar 31 00:00:00 GMT 2009 anonymous Red maple Acer rubrum First Leaf 39.160000000000000 -86.490000000000000 6299
Mon Mar 23 00:00:00 GMT 2009 anonymous Red maple Acer rubrum First Flower 39.160000000000000 -86.460000000000000 6271
Mon Mar 30 00:00:00 GMT 2009 anonymous Red maple Acer rubrum Full Flower 39.160000000000000 -86.460000000000000 6272
Mon Apr 06 00:00:00 GMT 2009 anonymous Red maple Acer rubrum End of Flowering 39.160000000000000 -86.460000000000000 6273
Wed Apr 08 00:00:00 GMT 2009 jenulsh@northhempstead.com Red maple Acer rubrum First Flower 40.705500000000000 -73.448900000000000 6376
Mon Apr 20 00:00:00 GMT 2009 cbooth Red maple Acer rubrum All Leaves Unfolded 33.735900000000000 -84.376500000000000 6356
Fri Apr 17 00:00:00 GMT 2009 anonymous Red maple Acer rubrum First Leaf 39.000000000000000 -86.000000000000000 6366
Fri Mar 20 00:00:00 GMT 2009 anonymous Red maple Acer rubrum First Flower 39.000000000000000 -86.000000000000000 6367
Mon Mar 23 00:00:00 GMT 2009 anonymous Red maple Acer rubrum Full Flower 39.000000000000000 -86.000000000000000 6368
Tue Mar 24 00:00:00 GMT 2009 davisse Red maple Acer rubrum First Leaf 39.160000000000000 -86.490000000000000 6307
Thu Apr 23 00:00:00 GMT 2009 michghi Red maple Acer rubrum All Leaves Unfolded 41.974800000000000 -87.804600000000000 6449
Sat Apr 18 00:00:00 GMT 2009 kworthi274 Red maple Acer rubrum First Flower 41.441200000000000 -87.233500000000000 6504
Thu Apr 23 00:00:00 GMT 2009 giesap Red maple Acer rubrum First Leaf 42.437000000000000 -83.488200000000000 6466
Tue Apr 21 00:00:00 GMT 2009 chagen Red maple Acer rubrum First Leaf 40.165600000000000 -75.227200000000000 6478
Tue Apr 21 00:00:00 GMT 2009 youngdianne Red maple Acer rubrum First Leaf 43.548600000000000 -85.085600000000000 6609
Sat Apr 25 00:00:00 GMT 2009 srstebbi Red maple Acer rubrum End of Flowering 43.020400000000000 -76.126700000000000 6668
Thu Apr 23 00:00:00 GMT 2009 greemedogs Red maple Acer rubrum First Leaf 41.812100000000000 -72.844100000000000 6696
Fri Mar 27 00:00:00 GMT 2009 greemedogs Red maple Acer rubrum First Flower 41.812100000000000 -72.844100000000000 6697
Thu Apr 02 00:00:00 GMT 2009 greemedogs Red maple Acer rubrum Full Flower 41.812100000000000 -72.844100000000000 6698
Wed Apr 22 00:00:00 GMT 2009 greemedogs Red maple Acer rubrum End of Flowering 41.812100000000000 -72.844100000000000 6699
Sat Apr 25 00:00:00 GMT 2009 Mr. Buck's Class Red maple Acer rubrum First Leaf 44.551300000000000 -70.454600000000000 6775
Fri May 01 00:00:00 GMT 2009 CBG Scouts Red maple Acer rubrum First Flower 42.152400000000000 -87.785100000000000 6873
Fri May 01 00:00:00 GMT 2009 CBG Scouts Red maple Acer rubrum First Leaf 42.152400000000000 -87.785100000000000 6881
Fri May 01 00:00:00 GMT 2009 CBG Scouts Red maple Acer rubrum First Flower 42.152400000000000 -87.785700000000000 6883
Fri May 01 00:00:00 GMT 2009 CBG Scouts Red maple Acer rubrum Full Flower 42.152400000000000 -87.785100000000000 6880
Fri May 01 00:00:00 GMT 2009 momck Red maple Acer rubrum First Leaf 40.064400000000000 -80.717900000000000 6889
Sun May 03 00:00:00 GMT 2009 compobs Red maple Acer rubrum First Leaf 45.379400000000000 -93.076700000000000 7012
Sat Apr 25 00:00:00 GMT 2009 compobs Red maple Acer rubrum End of Flowering 45.379400000000000 -93.076700000000000 7013
Fri Mar 06 00:00:00 GMT 2009 michghi Red maple Acer rubrum First Flower 41.974800000000000 -87.804600000000000 7206
Wed Apr 15 00:00:00 GMT 2009 anonymous Red maple Acer rubrum First Leaf 42.647000000000000 -71.535600000000000 7169
Fri Apr 17 00:00:00 GMT 2009 anonymous Red maple Acer rubrum First Flower 42.647000000000000 -71.535600000000000 7170
Mon Apr 27 00:00:00 GMT 2009 anonymous Red maple Acer rubrum Full Flower 42.647000000000000 -71.535600000000000 7171
Mon May 11 00:00:00 GMT 2009 anonymous Red maple Acer rubrum End of Flowering 42.647000000000000 -71.535600000000000 7172
Thu Apr 30 00:00:00 GMT 2009 anonymous Red maple Acer rubrum First Leaf 42.647000000000000 -71.535600000000000 7165
Wed Apr 15 00:00:00 GMT 2009 anonymous Red maple Acer rubrum First Flower 42.647000000000000 -71.535600000000000 7166
Mon Apr 27 00:00:00 GMT 2009 anonymous Red maple Acer rubrum Full Flower 42.647000000000000 -71.535600000000000 7167
Fri May 08 00:00:00 GMT 2009 anonymous Red maple Acer rubrum End of Flowering 42.647000000000000 -71.535600000000000 7168
Fri Apr 17 00:00:00 GMT 2009 anonymous Red maple Acer rubrum First Leaf 42.647000000000000 -71.535600000000000 7179
Mon Apr 27 00:00:00 GMT 2009 anonymous Red maple Acer rubrum All Leaves Unfolded 42.647000000000000 -71.535600000000000 7180
Sat Apr 04 00:00:00 GMT 2009 anonymous Red maple Acer rubrum First Flower 42.647000000000000 -71.535600000000000 7181
Fri May 08 00:00:00 GMT 2009 anonymous Red maple Acer rubrum End of Flowering 42.647000000000000 -71.535600000000000 7182
Fri May 08 00:00:00 GMT 2009 anonymous Red maple Acer rubrum First Leaf 42.647000000000000 -71.535600000000000 7177
Fri May 08 00:00:00 GMT 2009 anonymous Red maple Acer rubrum All Leaves Unfolded 42.647000000000000 -71.535600000000000 7178
Mon Apr 27 00:00:00 GMT 2009 anonymous Red maple Acer rubrum First Leaf 42.647000000000000 -71.535600000000000 7196
Fri May 08 00:00:00 GMT 2009 anonymous Red maple Acer rubrum All Leaves Unfolded 42.647000000000000 -71.535600000000000 7197
Fri May 08 00:00:00 GMT 2009 anonymous Red maple Acer rubrum All Leaves Unfolded 42.647000000000000 -71.535600000000000 7198
Mon Apr 27 00:00:00 GMT 2009 anonymous Red maple Acer rubrum First Leaf 42.647000000000000 -71.535600000000000 7203
Fri May 08 00:00:00 GMT 2009 anonymous Red maple Acer rubrum All Leaves Unfolded 42.647000000000000 -71.535600000000000 7204
Sat May 09 00:00:00 GMT 2009 momck Red maple Acer rubrum All Leaves Unfolded 40.064400000000000 -80.717900000000000 7218
Tue Apr 28 00:00:00 GMT 2009 wasatchrider Red maple Acer rubrum First Leaf 41.902300000000000 -72.934800000000000 7323
Tue Apr 28 00:00:00 GMT 2009 wasatchrider Red maple Acer rubrum All Leaves Unfolded 41.902300000000000 -72.934800000000000 7324
Wed Apr 22 00:00:00 GMT 2009 anonymous Red maple Acer rubrum First Leaf 35.080200000000000 -80.775200000000000 7402
Wed Apr 29 00:00:00 GMT 2009 anonymous Red maple Acer rubrum All Leaves Unfolded 35.080200000000000 -80.775200000000000 7403
Tue Mar 31 00:00:00 GMT 2009 anonymous Red maple Acer rubrum First Flower 35.080200000000000 -80.775200000000000 7404
Wed Apr 08 00:00:00 GMT 2009 anonymous Red maple Acer rubrum Full Flower 35.080200000000000 -80.775200000000000 7405
Sun Mar 15 00:00:00 GMT 2009 mburtonharrell Red maple Acer rubrum First Leaf 35.074000000000000 -80.805500000000000 7406
Thu Apr 09 00:00:00 GMT 2009 mburtonharrell Red maple Acer rubrum All Leaves Unfolded 35.074000000000000 -80.805500000000000 7407
Fri Apr 03 00:00:00 GMT 2009 mburtonharrell Red maple Acer rubrum First Flower 35.074000000000000 -80.805500000000000 7408
Wed Apr 15 00:00:00 GMT 2009 mburtonharrell Red maple Acer rubrum Full Flower 35.074000000000000 -80.805500000000000 7409
Tue Apr 21 00:00:00 GMT 2009 mburtonharrell Red maple Acer rubrum End of Flowering 35.074000000000000 -80.805500000000000 7410
Mon Apr 27 00:00:00 GMT 2009 info@burlingtongolfcenter.com Red maple Acer rubrum First Leaf 41.776100000000000 -73.009600000000000 7513
Mon Apr 13 00:00:00 GMT 2009 info@burlingtongolfcenter.com Red maple Acer rubrum All Leaves Unfolded 41.776100000000000 -73.009600000000000 7514
Thu Mar 05 00:00:00 GMT 2009 cgale Red maple Acer rubrum First Leaf 44.974900000000000 -87.804600000000000 7519
Thu May 14 00:00:00 GMT 2009 cgale Red maple Acer rubrum All Leaves Unfolded 44.974900000000000 -87.804600000000000 7520
Thu May 14 00:00:00 GMT 2009 cgale Red maple Acer rubrum First Flower 44.974900000000000 -87.804600000000000 7521
Thu May 14 00:00:00 GMT 2009 derpsu Red maple Acer rubrum First Leaf 47.152300000000000 -114.016000000000000 7579
Sun May 10 00:00:00 GMT 2009 derpsu Red maple Acer rubrum All Leaves Unfolded 47.152300000000000 -114.016000000000000 7639
Fri May 15 00:00:00 GMT 2009 michghi Red maple Acer rubrum Full Flower 41.974800000000000 -87.804600000000000 7678
Tue May 12 00:00:00 GMT 2009 dutchearthmom Red maple Acer rubrum First Leaf 43.402700000000000 -76.430700000000000 7992
Wed May 20 00:00:00 GMT 2009 dutchearthmom Red maple Acer rubrum All Leaves Unfolded 43.402700000000000 -76.430700000000000 7993
Mon Apr 13 00:00:00 GMT 2009 andersnl Red maple Acer rubrum First Leaf 35.501800000000000 -80.859500000000000 8022
Fri May 15 00:00:00 GMT 2009 andersnl Red maple Acer rubrum All Leaves Unfolded 35.501800000000000 -80.859500000000000 8023
Sat May 23 00:00:00 GMT 2009 compobs Red maple Acer rubrum First Ripe Fruit 45.379400000000000 -93.076700000000000 8259
Sat Apr 18 00:00:00 GMT 2009 palaback Red maple Acer rubrum First Flower 46.866700000000000 -113.983000000000000 8636
Wed Sep 30 00:00:00 GMT 2009 palaback Red maple Acer rubrum 50% Color 46.866700000000000 -113.983000000000000 8637
Tue May 19 00:00:00 GMT 2009 palaback Red maple Acer rubrum First Leaf 46.866700000000000 -113.983000000000000 8744
Thu Sep 17 00:00:00 GMT 2009 NBoeyink Red maple Acer rubrum 50% Color 45.126200000000000 -95.087700000000000 8773
Tue Sep 15 00:00:00 GMT 2009 NBoeyink Red maple Acer rubrum 50% Leaf Fall 45.126200000000000 -95.087700000000000 8774
Wed Mar 10 00:00:00 GMT 2010 balthazar Red maple Acer rubrum Full Flower 45.323000000000000 -122.574000000000000 9147
Tue Mar 09 00:00:00 GMT 2010 balthazar Red maple Acer rubrum Full Flower 45.521100000000000 -122.625000000000000 9141
Sun Feb 28 00:00:00 GMT 2010 balthazar Red maple Acer rubrum First Flower 45.323000000000000 -122.574000000000000 9146
Wed Mar 03 00:00:00 GMT 2010 anonymous Red maple Acer rubrum First Flower 35.588300000000000 -81.980400000000000 9160
Thu Mar 04 00:00:00 GMT 2010 ashenk Red maple Acer rubrum First Flower 33.802700000000000 -83.308600000000000 9189
Thu Mar 18 00:00:00 GMT 2010 Jessica Red maple Acer rubrum Full Flower 38.870700000000000 -77.255300000000000 9196
Tue Mar 16 00:00:00 GMT 2010 sandrah Red maple Acer rubrum First Flower 39.954600000000000 -75.167000000000000 9238
Thu Mar 25 00:00:00 GMT 2010 greemedogs Red maple Acer rubrum Full Flower 41.812100000000000 -72.844100000000000 9259
Wed Mar 17 00:00:00 GMT 2010 swsk Red maple Acer rubrum First Flower 42.336200000000000 -71.225800000000000 9267
Wed Mar 24 00:00:00 GMT 2010 mrsbornholdt Red maple Acer rubrum First Leaf 41.974000000000000 -87.804700000000000 9289
Fri Mar 26 00:00:00 GMT 2010 Our Changing World Red maple Acer rubrum First Leaf 36.010200000000000 -79.024600000000000 9290
Tue Mar 30 00:00:00 GMT 2010 palaback Red maple Acer rubrum First Flower 46.836600000000000 -114.011000000000000 9336
Tue Mar 30 00:00:00 GMT 2010 gracebcb Red maple Acer rubrum First Flower 44.312800000000000 -72.773900000000000 9330
Fri Mar 19 00:00:00 GMT 2010 amt27 Red maple Acer rubrum First Flower 40.264700000000000 -74.955800000000000 9370
Wed Mar 24 00:00:00 GMT 2010 amt27 Red maple Acer rubrum Full Flower 40.264700000000000 -74.955800000000000 9371
Thu Apr 01 00:00:00 GMT 2010 robinsleith Red maple Acer rubrum Full Flower 42.288800000000000 -71.101100000000000 9369
Thu Apr 01 00:00:00 GMT 2010 Derek McKay Red maple Acer rubrum First Flower 45.317400000000000 -92.158900000000000 9376
Fri Apr 02 00:00:00 GMT 2010 jacktcb Red maple Acer rubrum First Flower 44.312800000000000 -72.773900000000000 9354
Fri Apr 02 00:00:00 GMT 2010 mstefanak@mahoning-health.org Red maple Acer rubrum Full Flower 41.155900000000000 -80.412900000000000 9415
Thu Mar 18 00:00:00 GMT 2010 mstefanak@mahoning-health.org Red maple Acer rubrum First Flower 41.155900000000000 -80.412900000000000 9414
Sat Apr 03 00:00:00 GMT 2010 Derek McKay Red maple Acer rubrum Full Flower 45.317400000000000 -92.158900000000000 9408
Thu Apr 01 00:00:00 GMT 2010 daboot_24 Red maple Acer rubrum First Flower 44.548900000000000 -70.451500000000000 9412
Wed Mar 31 00:00:00 GMT 2010 wmoore Red maple Acer rubrum First Flower 44.306800000000000 -72.645000000000000 9433
Sat Apr 03 00:00:00 GMT 2010 wmoore Red maple Acer rubrum Full Flower 44.306800000000000 -72.645000000000000 9434
Mon Apr 05 00:00:00 GMT 2010 henrehcb Red maple Acer rubrum Full Flower 44.312800000000000 -72.773900000000000 9437
Mon Apr 05 00:00:00 GMT 2010 anonymous Red maple Acer rubrum Full Flower 43.137900000000000 -72.509800000000000 9458
Mon Apr 05 00:00:00 GMT 2010 elliercb Red maple Acer rubrum Full Flower 44.312800000000000 -72.773900000000000 9436
Sat Apr 03 00:00:00 GMT 2010 anonymous Red maple Acer rubrum First Flower 42.038100000000000 -79.283300000000000 9461
Mon Apr 05 00:00:00 GMT 2010 daboot_24 Red maple Acer rubrum Full Flower 44.548900000000000 -70.451500000000000 9487
Mon Apr 05 00:00:00 GMT 2010 daboot_24 Red maple Acer rubrum Full Flower 44.548900000000000 -70.451500000000000 9486
Fri Mar 12 00:00:00 GMT 2010 anonymous Red maple Acer rubrum First Leaf 39.160600000000000 -86.532400000000000 9570
Fri Mar 12 00:00:00 GMT 2010 anonymous Red maple Acer rubrum First Leaf 39.160600000000000 -86.532400000000000 9580
Fri Mar 12 00:00:00 GMT 2010 anonymous Red maple Acer rubrum First Leaf 39.165300000000000 -86.526400000000000 9587
Sun Mar 21 00:00:00 GMT 2010 anonymous Red maple Acer rubrum All Leaves Unfolded 39.165300000000000 -86.526400000000000 9588
Fri Feb 19 00:00:00 GMT 2010 anonymous Red maple Acer rubrum First Flower 39.165300000000000 -86.526400000000000 9589
Fri Mar 05 00:00:00 GMT 2010 anonymous Red maple Acer rubrum Full Flower 39.165300000000000 -86.526400000000000 9590
Fri Mar 12 00:00:00 GMT 2010 anonymous Red maple Acer rubrum End of Flowering 39.165300000000000 -86.526400000000000 9591
Fri Mar 12 00:00:00 GMT 2010 anonymous Red maple Acer rubrum First Leaf 39.165300000000000 -86.526400000000000 9581
Sun Mar 21 00:00:00 GMT 2010 anonymous Red maple Acer rubrum All Leaves Unfolded 39.165300000000000 -86.526400000000000 9582
Fri Feb 19 00:00:00 GMT 2010 anonymous Red maple Acer rubrum First Flower 39.165300000000000 -86.526400000000000 9583
Fri Mar 05 00:00:00 GMT 2010 anonymous Red maple Acer rubrum Full Flower 39.165300000000000 -86.526400000000000 9584
Fri Mar 12 00:00:00 GMT 2010 anonymous Red maple Acer rubrum End of Flowering 39.165300000000000 -86.526400000000000 9585
Sun Mar 21 00:00:00 GMT 2010 anonymous Red maple Acer rubrum First Ripe Fruit 39.165300000000000 -86.526400000000000 9586
Wed Mar 10 00:00:00 GMT 2010 anonymous Red maple Acer rubrum First Leaf 39.180000000000000 -86.540700000000000 9721
Fri Apr 02 00:00:00 GMT 2010 anonymous Red maple Acer rubrum All Leaves Unfolded 39.180000000000000 -86.540700000000000 9722
Fri Apr 02 00:00:00 GMT 2010 anonymous Red maple Acer rubrum First Flower 39.180000000000000 -86.540700000000000 9723
Sat Apr 10 00:00:00 GMT 2010 anonymous Red maple Acer rubrum Full Flower 39.180000000000000 -86.540700000000000 9724
Mon Mar 08 00:00:00 GMT 2010 anonymous Red maple Acer rubrum First Leaf 39.180000000000000 -86.540700000000000 9704
Sun Apr 04 00:00:00 GMT 2010 anonymous Red maple Acer rubrum All Leaves Unfolded 39.180000000000000 -86.540700000000000 9705
Sun Apr 04 00:00:00 GMT 2010 anonymous Red maple Acer rubrum First Flower 39.180000000000000 -86.540700000000000 9706
Mon Apr 12 00:00:00 GMT 2010 anonymous Red maple Acer rubrum Full Flower 39.180000000000000 -86.540700000000000 9707
Mon Mar 08 00:00:00 GMT 2010 anonymous Red maple Acer rubrum First Leaf 39.180000000000000 -86.540700000000000 9708
Sun Apr 04 00:00:00 GMT 2010 anonymous Red maple Acer rubrum All Leaves Unfolded 39.180000000000000 -86.540700000000000 9709
Sun Apr 04 00:00:00 GMT 2010 anonymous Red maple Acer rubrum First Flower 39.180000000000000 -86.540700000000000 9710
Mon Apr 12 00:00:00 GMT 2010 anonymous Red maple Acer rubrum Full Flower 39.180000000000000 -86.540700000000000 9711
Mon Mar 08 00:00:00 GMT 2010 anonymous Red maple Acer rubrum First Leaf 39.180000000000000 -86.540700000000000 9712
Sun Apr 04 00:00:00 GMT 2010 anonymous Red maple Acer rubrum All Leaves Unfolded 39.180000000000000 -86.540700000000000 9713
Sun Apr 04 00:00:00 GMT 2010 anonymous Red maple Acer rubrum First Flower 39.180000000000000 -86.540700000000000 9714
Mon Apr 12 00:00:00 GMT 2010 anonymous Red maple Acer rubrum Full Flower 39.180000000000000 -86.540700000000000 9715
Wed Mar 17 00:00:00 GMT 2010 anonymous Red maple Acer rubrum First Leaf 39.170100000000000 -86.512700000000000 9745
Wed Apr 07 00:00:00 GMT 2010 anonymous Red maple Acer rubrum All Leaves Unfolded 39.170100000000000 -86.512700000000000 9746
Wed Feb 17 00:00:00 GMT 2010 anonymous Red maple Acer rubrum First Flower 39.170100000000000 -86.512700000000000 9747
Wed Mar 03 00:00:00 GMT 2010 anonymous Red maple Acer rubrum Full Flower 39.170100000000000 -86.512700000000000 9748
Wed Mar 17 00:00:00 GMT 2010 anonymous Red maple Acer rubrum First Leaf 39.170100000000000 -86.512700000000000 9762
Wed Apr 07 00:00:00 GMT 2010 anonymous Red maple Acer rubrum All Leaves Unfolded 39.170100000000000 -86.512700000000000 9763
Wed Feb 17 00:00:00 GMT 2010 anonymous Red maple Acer rubrum First Flower 39.170100000000000 -86.512700000000000 9764
Wed Mar 03 00:00:00 GMT 2010 anonymous Red maple Acer rubrum Full Flower 39.170100000000000 -86.512700000000000 9765
Sun Apr 04 00:00:00 GMT 2010 anonymous Red maple Acer rubrum First Leaf 39.155700000000000 -86.571100000000000 9851
Tue Apr 06 00:00:00 GMT 2010 anonymous Red maple Acer rubrum All Leaves Unfolded 39.155700000000000 -86.571100000000000 9852
Tue Apr 13 00:00:00 GMT 2010 mrsbornholdt Red maple Acer rubrum All Leaves Unfolded 41.974000000000000 -87.804700000000000 9875
Wed Mar 10 00:00:00 GMT 2010 anonymous Red maple Acer rubrum First Leaf 39.180000000000000 -86.540700000000000 9825
Fri Apr 02 00:00:00 GMT 2010 anonymous Red maple Acer rubrum All Leaves Unfolded 39.180000000000000 -86.540700000000000 9826
Wed Mar 10 00:00:00 GMT 2010 anonymous Red maple Acer rubrum First Flower 39.180000000000000 -86.540700000000000 9827
Fri Apr 02 00:00:00 GMT 2010 anonymous Red maple Acer rubrum Full Flower 39.180000000000000 -86.540700000000000 9828
Wed Mar 10 00:00:00 GMT 2010 miller7 Red maple Acer rubrum First Leaf 39.180000000000000 -86.540700000000000 9817
Fri Apr 02 00:00:00 GMT 2010 miller7 Red maple Acer rubrum All Leaves Unfolded 39.180000000000000 -86.540700000000000 9818
Wed Mar 10 00:00:00 GMT 2010 miller7 Red maple Acer rubrum First Flower 39.180000000000000 -86.540700000000000 9819
Fri Apr 02 00:00:00 GMT 2010 miller7 Red maple Acer rubrum Full Flower 39.180000000000000 -86.540700000000000 9820
Wed Mar 10 00:00:00 GMT 2010 anonymous Red maple Acer rubrum First Leaf 39.180000000000000 -86.540700000000000 9821
Fri Apr 02 00:00:00 GMT 2010 anonymous Red maple Acer rubrum All Leaves Unfolded 39.180000000000000 -86.540700000000000 9822
Wed Mar 10 00:00:00 GMT 2010 anonymous Red maple Acer rubrum First Flower 39.180000000000000 -86.540700000000000 9823
Fri Apr 02 00:00:00 GMT 2010 anonymous Red maple Acer rubrum Full Flower 39.180000000000000 -86.540700000000000 9824
Mon Apr 12 00:00:00 GMT 2010 Derek McKay Red maple Acer rubrum End of Flowering 45.317400000000000 -92.158900000000000 9951
Sat Apr 10 00:00:00 GMT 2010 lleavell Red maple Acer rubrum All Leaves Unfolded 33.933600000000000 -83.377600000000000 10067
Fri Apr 23 00:00:00 GMT 2010 wmoore Red maple Acer rubrum End of Flowering 44.312800000000000 -72.773900000000000 10090
Mon Apr 26 00:00:00 GMT 2010 wmoore Red maple Acer rubrum First Leaf 44.312800000000000 -72.773900000000000 10091
Mon Apr 26 00:00:00 GMT 2010 palaback Red maple Acer rubrum End of Flowering 46.866700000000000 -113.983000000000000 10188
Wed Apr 28 00:00:00 GMT 2010 Derek McKay Red maple Acer rubrum First Leaf 45.317400000000000 -92.158900000000000 10234
Tue May 04 00:00:00 GMT 2010 Derek McKay Red maple Acer rubrum All Leaves Unfolded 45.317400000000000 -92.158900000000000 10333
Sat May 01 00:00:00 GMT 2010 wmoore Red maple Acer rubrum All Leaves Unfolded 44.312800000000000 -72.773900000000000 10366
Tue Apr 27 00:00:00 GMT 2010 mrsbornholdt Red maple Acer rubrum First Flower 41.974000000000000 -87.804700000000000 10491
Tue Apr 27 00:00:00 GMT 2010 mrsbornholdt Red maple Acer rubrum Full Flower 41.974000000000000 -87.804700000000000 10492
Tue Apr 06 00:00:00 GMT 2010 anonymous Red maple Acer rubrum First Leaf 36.925400000000000 -80.021300000000000 10515
Thu Apr 15 00:00:00 GMT 2010 anonymous Red maple Acer rubrum All Leaves Unfolded 36.925400000000000 -80.021300000000000 10516
Tue Mar 30 00:00:00 GMT 2010 anonymous Red maple Acer rubrum First Flower 36.925400000000000 -80.021300000000000 10517
Tue Apr 06 00:00:00 GMT 2010 anonymous Red maple Acer rubrum Full Flower 36.925400000000000 -80.021300000000000 10518
Fri Mar 12 00:00:00 GMT 2010 anonymous Red maple Acer rubrum First Flower 36.927100000000000 -80.020900000000000 10511
Mon Mar 22 00:00:00 GMT 2010 anonymous Red maple Acer rubrum Full Flower 36.927100000000000 -80.020900000000000 10512
Thu Apr 08 00:00:00 GMT 2010 anonymous Red maple Acer rubrum End of Flowering 36.927100000000000 -80.020900000000000 10513
Tue Apr 06 00:00:00 GMT 2010 CBGTeacher Red maple Acer rubrum First Leaf 42.152000000000000 -87.791900000000000 10665
Thu Apr 08 00:00:00 GMT 2010 KShaw Red maple Acer rubrum First Leaf 38.926500000000000 -77.339500000000000 11038
Thu Apr 15 00:00:00 GMT 2010 KShaw Red maple Acer rubrum All Leaves Unfolded 38.926500000000000 -77.339500000000000 11039
Tue Mar 23 00:00:00 GMT 2010 KShaw Red maple Acer rubrum First Flower 38.926500000000000 -77.339500000000000 11040
Fri Mar 26 00:00:00 GMT 2010 KShaw Red maple Acer rubrum Full Flower 38.926500000000000 -77.339500000000000 11041
Fri Apr 09 00:00:00 GMT 2010 KShaw Red maple Acer rubrum End of Flowering 38.926500000000000 -77.339500000000000 11042
Sat Mar 20 00:00:00 GMT 2010 SusannahPrindle Red maple Acer rubrum First Flower 39.096700000000000 -77.023900000000000 11091
Sun Apr 25 00:00:00 GMT 2010 SusannahPrindle Red maple Acer rubrum First Ripe Fruit 39.096700000000000 -77.023900000000000 11092
Wed Oct 06 00:00:00 GMT 2010 shannon Red maple Acer rubrum 50% Color 36.925000000000000 -80.315400000000000 11262
Mon Oct 11 00:00:00 GMT 2010 shannon Red maple Acer rubrum 50% Leaf Fall 36.925000000000000 -80.315400000000000 11263
Thu Mar 11 00:00:00 GMT 2010 vanndawn Red maple Acer rubrum First Flower 38.912500000000000 -92.277500000000000 11278
Wed Mar 24 00:00:00 GMT 2010 vanndawn Red maple Acer rubrum Full Flower 38.912500000000000 -92.277500000000000 11279
Wed Apr 07 00:00:00 GMT 2010 vanndawn Red maple Acer rubrum First Ripe Fruit 38.912500000000000 -92.277500000000000 11280
Mon Mar 09 00:00:00 GMT 2009 vanndawn Red maple Acer rubrum First Flower 38.912500000000000 -92.277500000000000 11275
Tue Mar 31 00:00:00 GMT 2009 vanndawn Red maple Acer rubrum First Ripe Fruit 38.912500000000000 -92.277500000000000 11276
Wed Sep 02 00:00:00 GMT 2009 vanndawn Red maple Acer rubrum 50% Color 38.912500000000000 -92.277500000000000 11277
Wed Oct 13 00:00:00 GMT 2010 shannon Red maple Acer rubrum 50% Color 36.927700000000000 -80.314300000000000 11336
Mon Oct 18 00:00:00 GMT 2010 Derek McKay Red maple Acer rubrum 50% Leaf Fall 45.317400000000000 -92.158900000000000 11341
Sat Mar 20 00:00:00 GMT 2010 SusannahPrindle Red maple Acer rubrum First Flower 39.096700000000000 -77.023900000000000 11639
Sun Apr 25 00:00:00 GMT 2010 SusannahPrindle Red maple Acer rubrum First Ripe Fruit 39.096700000000000 -77.023900000000000 11640
Fri Oct 29 00:00:00 GMT 2010 SusannahPrindle Red maple Acer rubrum 50% Color 39.096700000000000 -77.023900000000000 11641
Wed Nov 17 00:00:00 GMT 2010 SusannahPrindle Red maple Acer rubrum 50% Leaf Fall 39.096700000000000 -77.023900000000000 11642
Sat Feb 19 00:00:00 GMT 2011 moranev Red maple Acer rubrum First Flower 35.920300000000000 -84.031600000000000 11701
Sat Mar 19 00:00:00 GMT 2011 palaback Red maple Acer rubrum First Flower 40.307500000000000 -105.084000000000000 11748
Sun Mar 20 00:00:00 GMT 2011 palaback Red maple Acer rubrum Full Flower 40.307500000000000 -105.084000000000000 11749
Tue Mar 08 00:00:00 GMT 2011 moranev Red maple Acer rubrum End of Flowering 35.920300000000000 -84.031600000000000 11766
Sat Mar 19 00:00:00 GMT 2011 moranev Red maple Acer rubrum First Ripe Fruit 35.920300000000000 -84.031600000000000 11767
Tue Feb 22 00:00:00 GMT 2011 moranev Red maple Acer rubrum First Leaf 35.920300000000000 -84.031600000000000 11774
Fri Mar 18 00:00:00 GMT 2011 amt27 Red maple Acer rubrum Full Flower 40.264700000000000 -74.955800000000000 11795
Fri Apr 01 00:00:00 GMT 2011 cummingl Red maple Acer rubrum First Flower 39.170700000000000 -86.520600000000000 11823
Fri Apr 08 00:00:00 GMT 2011 jenfolz Red maple Acer rubrum First Leaf 40.550000000000000 -82.600000000000000 11859
Fri Mar 25 00:00:00 GMT 2011 jenfolz Red maple Acer rubrum First Flower 40.550000000000000 -82.600000000000000 11860
Fri Apr 08 00:00:00 GMT 2011 jenfolz Red maple Acer rubrum Full Flower 40.550000000000000 -82.600000000000000 11861
Wed Mar 02 00:00:00 GMT 2011 shelbym Red maple Acer rubrum First Leaf 39.166000000000000 -86.520000000000000 11891
Wed Apr 06 00:00:00 GMT 2011 shelbym Red maple Acer rubrum All Leaves Unfolded 39.166000000000000 -86.520000000000000 11892
Wed Mar 09 00:00:00 GMT 2011 shelbym Red maple Acer rubrum 50% Color 39.166000000000000 -86.520000000000000 11893
Fri Apr 08 00:00:00 GMT 2011 kyyork Red maple Acer rubrum All Leaves Unfolded 39.171000000000000 -86.512000000000000 11870
Tue Mar 22 00:00:00 GMT 2011 carolmiserlian@yahoo.com Red maple Acer rubrum First Leaf 30.946300000000000 -95.242900000000000 11877
Wed Mar 30 00:00:00 GMT 2011 carolmiserlian@yahoo.com Red maple Acer rubrum All Leaves Unfolded 30.946300000000000 -95.242900000000000 11878
Mon Feb 14 00:00:00 GMT 2011 carolmiserlian@yahoo.com Red maple Acer rubrum First Flower 30.946300000000000 -95.242900000000000 11879
Thu Feb 17 00:00:00 GMT 2011 carolmiserlian@yahoo.com Red maple Acer rubrum Full Flower 30.946300000000000 -95.242900000000000 11880
Mon Apr 04 00:00:00 GMT 2011 kyyork Red maple Acer rubrum First Leaf 39.171000000000000 -86.512000000000000 11957
Mon Mar 28 00:00:00 GMT 2011 kyyork Red maple Acer rubrum 50% Color 39.171000000000000 -86.512000000000000 11958
Fri Apr 01 00:00:00 GMT 2011 cummingl Red maple Acer rubrum First Leaf 39.170700000000000 -86.520600000000000 11968
Mon Apr 11 00:00:00 GMT 2011 cummingl Red maple Acer rubrum Full Flower 39.170700000000000 -86.520600000000000 11966
Mon Mar 28 00:00:00 GMT 2011 cummingl Red maple Acer rubrum 50% Color 39.170700000000000 -86.520600000000000 11967
Mon Mar 07 00:00:00 GMT 2011 dstricke Red maple Acer rubrum First Leaf 39.160000000000000 -86.510000000000000 12072
Thu Mar 24 00:00:00 GMT 2011 dstricke Red maple Acer rubrum First Flower 39.160000000000000 -86.510000000000000 12073
Mon Apr 04 00:00:00 GMT 2011 dstricke Red maple Acer rubrum Full Fruiting 39.160000000000000 -86.510000000000000 12074
Mon Apr 04 00:00:00 GMT 2011 sieevans23 Red maple Acer rubrum First Leaf 39.167700000000000 -86.511900000000000 12086
Mon Mar 28 00:00:00 GMT 2011 sieevans23 Red maple Acer rubrum First Flower 39.167700000000000 -86.511900000000000 12087
Sun Mar 06 00:00:00 GMT 2011 treneelambert Red maple Acer rubrum First Leaf 39.170400000000000 -86.519100000000000 12090
Sun Mar 06 00:00:00 GMT 2011 treneelambert Red maple Acer rubrum First Flower 39.170400000000000 -86.519100000000000 12091
Mon Mar 21 00:00:00 GMT 2011 brummela Red maple Acer rubrum First Leaf 39.166600000000000 -86.525900000000000 12127
Mon Mar 28 00:00:00 GMT 2011 brummela Red maple Acer rubrum All Leaves Unfolded 39.166600000000000 -86.525900000000000 12128
Mon Apr 04 00:00:00 GMT 2011 brummela Red maple Acer rubrum First Flower 39.166600000000000 -86.525900000000000 12129
Fri Apr 08 00:00:00 GMT 2011 brummela Red maple Acer rubrum Full Flower 39.166600000000000 -86.525900000000000 12130
Mon Feb 28 00:00:00 GMT 2011 brummela Red maple Acer rubrum 50% Leaf Fall 39.166600000000000 -86.525900000000000 12131
Sun Mar 06 00:00:00 GMT 2011 Jesse1999 Red maple Acer rubrum First Leaf 40.500700000000000 -88.989300000000000 12137
Fri Mar 11 00:00:00 GMT 2011 Jesse1999 Red maple Acer rubrum All Leaves Unfolded 40.500700000000000 -88.989300000000000 12138
Mon Apr 11 00:00:00 GMT 2011 rolo Red maple Acer rubrum First Leaf 40.500700000000000 -88.989300000000000 12134
Mon Apr 11 00:00:00 GMT 2011 rolo Red maple Acer rubrum All Leaves Unfolded 40.500700000000000 -88.989300000000000 12135
Mon Apr 04 00:00:00 GMT 2011 rolo Red maple Acer rubrum First Flower 40.500700000000000 -88.989300000000000 12136
Wed Apr 13 00:00:00 GMT 2011 prettygirlrock Red maple Acer rubrum Leaves Unfolding (Early) 40.499500000000000 -88.989900000000000 12164
Tue Apr 19 00:00:00 GMT 2011 Joseph Boland Red maple Acer rubrum First Leaf 39.761200000000000 -105.230000000000000 12175
Wed Apr 27 00:00:00 GMT 2011 erin Red maple Acer rubrum First Leaf 40.300500000000000 -88.989300000000000 12216
Sat Apr 23 00:00:00 GMT 2011 Derek McKay Red maple Acer rubrum First Flower 45.317400000000000 -92.158900000000000 12223
Mon Apr 25 00:00:00 GMT 2011 Derek McKay Red maple Acer rubrum Full Flower 45.317400000000000 -92.158900000000000 12224
Mon May 02 00:00:00 GMT 2011 daboot_24 Red maple Acer rubrum First Leaf 44.548900000000000 -70.451500000000000 12262
Thu Apr 28 00:00:00 GMT 2011 daboot_24 Red maple Acer rubrum Full Flower 44.548900000000000 -70.451500000000000 12263
Sat Apr 02 00:00:00 GMT 2011 hselmer13 Red maple Acer rubrum First Leaf 43.411400000000000 -72.434200000000000 12272
Mon May 02 00:00:00 GMT 2011 erin Red maple Acer rubrum All Leaves Unfolded 40.300500000000000 -88.989300000000000 12248
Tue May 03 00:00:00 GMT 2011 Joseph Boland Red maple Acer rubrum All Leaves Unfolded 39.761200000000000 -105.230000000000000 12318
Sun Apr 03 00:00:00 GMT 2011 hselmer13 Red maple Acer rubrum All Leaves Unfolded 43.411400000000000 -72.434200000000000 12342
Fri Apr 29 00:00:00 GMT 2011 hammondka Red maple Acer rubrum First Leaf 42.391800000000000 -76.017900000000000 12378
Fri May 06 00:00:00 GMT 2011 hammondka Red maple Acer rubrum All Leaves Unfolded 42.391800000000000 -76.017900000000000 12379
Sat Apr 09 00:00:00 GMT 2011 moranev Red maple Acer rubrum Full Fruiting 35.920300000000000 -84.031600000000000 12389
Tue May 10 00:00:00 GMT 2011 ksipowicz_Environmental_Science_reporter12 Red maple Acer rubrum First Leaf 42.130400000000000 -88.024000000000000 12416
Fri May 20 00:00:00 GMT 2011 ksipowicz_Environmental_Science_reporter12 Red maple Acer rubrum All Leaves Unfolded 42.130400000000000 -88.024000000000000 12417
Sun May 15 00:00:00 GMT 2011 ksipowicz_Environmental_Science_reporter12 Red maple Acer rubrum First Flower 42.130400000000000 -88.024000000000000 12418
Fri May 20 00:00:00 GMT 2011 ksipowicz_Environmental_Science_reporter12 Red maple Acer rubrum Full Flower 42.130400000000000 -88.024000000000000 12419
Mon May 02 00:00:00 GMT 2011 alisha.galle Red maple Acer rubrum First Leaf 43.670000000000000 -92.970000000000000 12431
Mon May 09 00:00:00 GMT 2011 alisha.galle Red maple Acer rubrum All Leaves Unfolded 43.670000000000000 -92.970000000000000 12432
Wed May 05 00:00:00 GMT 2010 talericoad Red maple Acer rubrum First Leaf 42.110400000000000 -76.020400000000000 12482
Sat May 14 00:00:00 GMT 2011 Derek McKay Red maple Acer rubrum First Leaf 45.317400000000000 -92.158900000000000 12561
Thu May 19 00:00:00 GMT 2011 Derek McKay Red maple Acer rubrum All Leaves Unfolded 45.317400000000000 -92.158900000000000 12597
Thu Apr 14 00:00:00 GMT 2011 ksipowicz_Environmental_Science_reporter4 Red maple Acer rubrum First Leaf 42.130400000000000 -88.024000000000000 12625
Thu May 12 00:00:00 GMT 2011 ksipowicz_Environmental_Science_reporter4 Red maple Acer rubrum All Leaves Unfolded 42.130400000000000 -88.024000000000000 12626
Wed May 18 00:00:00 GMT 2011 ksipowicz_Environmental_Science_reporter4 Red maple Acer rubrum 50% Color 42.130400000000000 -88.024000000000000 12627
Tue Apr 05 00:00:00 GMT 2011 ksipowicz_Environmental_Science_reporter3 Red maple Acer rubrum First Leaf 42.130400000000000 -88.024000000000000 12642
Tue Apr 12 00:00:00 GMT 2011 ksipowicz_Environmental_Science_reporter3 Red maple Acer rubrum All Leaves Unfolded 42.130400000000000 -88.024000000000000 12643
Wed Apr 27 00:00:00 GMT 2011 ksipowicz_Environmental_Science_reporter3 Red maple Acer rubrum First Flower 42.130400000000000 -88.024000000000000 12644
Mon May 09 00:00:00 GMT 2011 ksipowicz_Environmental_Science_reporter3 Red maple Acer rubrum Full Flower 42.130400000000000 -88.024000000000000 12645
Sun May 15 00:00:00 GMT 2011 ksipowicz_Environmental_Science_reporter3 Red maple Acer rubrum First Ripe Fruit 42.130400000000000 -88.024000000000000 12646
Sun May 22 00:00:00 GMT 2011 ksipowicz_Environmental_Science_reporter3 Red maple Acer rubrum Full Fruiting 42.130400000000000 -88.024000000000000 12647
Sat Apr 30 00:00:00 GMT 2011 ks7701 Red maple Acer rubrum First Leaf 43.648700000000000 -92.994100000000000 12659
Tue May 17 00:00:00 GMT 2011 ks7701 Red maple Acer rubrum All Leaves Unfolded 43.648700000000000 -92.994100000000000 12660
Mon Apr 25 00:00:00 GMT 2011 lletellier_A_period_reporter1 Red maple Acer rubrum First Leaf 42.146500000000000 -72.605000000000000 12819
Mon May 02 00:00:00 GMT 2011 lletellier_A_period_reporter1 Red maple Acer rubrum All Leaves Unfolded 42.146500000000000 -72.605000000000000 12820
Sat Apr 23 00:00:00 GMT 2011 samira you Red maple Acer rubrum First Leaf 42.075600000000000 -72.591400000000000 12834
Sun May 01 00:00:00 GMT 2011 samira you Red maple Acer rubrum All Leaves Unfolded 42.075600000000000 -72.591400000000000 12835
Thu Apr 28 00:00:00 GMT 2011 lletellier_B-_Period_reporter4 Red maple Acer rubrum First Leaf 42.146500000000000 -72.605000000000000 12829
Mon May 02 00:00:00 GMT 2011 lletellier_B-_Period_reporter4 Red maple Acer rubrum All Leaves Unfolded 42.146500000000000 -72.605000000000000 12830
Thu May 12 00:00:00 GMT 2011 palaback Red maple Acer rubrum First Leaf 40.307500000000000 -105.084000000000000 12857
Sun May 29 00:00:00 GMT 2011 palaback Red maple Acer rubrum All Leaves Unfolded 40.307500000000000 -105.084000000000000 12858
Sat Mar 19 00:00:00 GMT 2011 palaback Red maple Acer rubrum First Flower 40.307500000000000 -105.084000000000000 12859
Sun Mar 20 00:00:00 GMT 2011 palaback Red maple Acer rubrum Full Flower 40.307500000000000 -105.084000000000000 12860
Wed Apr 27 00:00:00 GMT 2011 palaback Red maple Acer rubrum First Ripe Fruit 40.307500000000000 -105.084000000000000 12861
Fri Apr 29 00:00:00 GMT 2011 palaback Red maple Acer rubrum Full Fruiting 40.307500000000000 -105.084000000000000 12862
Wed Apr 20 00:00:00 GMT 2011 KShaw Red maple Acer rubrum First Leaf 38.926500000000000 -77.339500000000000 12990
Fri Mar 11 00:00:00 GMT 2011 KShaw Red maple Acer rubrum First Flower 38.926500000000000 -77.339500000000000 12991
Thu Mar 17 00:00:00 GMT 2011 KShaw Red maple Acer rubrum Full Flower 38.926500000000000 -77.339500000000000 12992
Thu Mar 17 00:00:00 GMT 2011 SusannahPrindle Red maple Acer rubrum First Flower 39.096700000000000 -77.023900000000000 13077
Fri Mar 18 00:00:00 GMT 2011 SusannahPrindle Red maple Acer rubrum Full Flower 39.096700000000000 -77.023900000000000 13078
Tue Apr 26 00:00:00 GMT 2011 SusannahPrindle Red maple Acer rubrum First Ripe Fruit 39.096700000000000 -77.023900000000000 13079
Sat Sep 17 00:00:00 GMT 2011 palaback Red maple Acer rubrum Leaves Changing Color (Early) 40.308300000000000 -105.081000000000000 13285
Mon Sep 19 00:00:00 GMT 2011 sandrah Red maple Acer rubrum 50% Color 39.954600000000000 -75.167000000000000 13296
Tue Sep 20 00:00:00 GMT 2011 rtaupier Red maple Acer rubrum Leaves Changing Color (Early) 36.927900000000000 -80.023500000000000 13310
Wed Sep 21 00:00:00 GMT 2011 kayrihavens Red maple Acer rubrum Leaves Changing Color (Early) 42.149800000000000 -87.763100000000000 13325
Thu Sep 22 00:00:00 GMT 2011 erikat Red maple Acer rubrum 50% Color 36.928800000000000 -80.023900000000000 13356
Fri Sep 23 00:00:00 GMT 2011 KDowell Red maple Acer rubrum Leaves Changing Color (Early) 39.453400000000000 -77.964400000000000 13386
Tue Sep 20 00:00:00 GMT 2011 psaunder Red maple Acer rubrum Leaves Changing Color (Early) 40.890900000000000 -82.261800000000000 13384
Tue Sep 20 00:00:00 GMT 2011 psaunder Red maple Acer rubrum Leaves Changing Color (Early) 40.890900000000000 -82.261800000000000 13383
Tue Sep 20 00:00:00 GMT 2011 psaunder Red maple Acer rubrum Leaves Changing Color (Early) 40.890900000000000 -82.261800000000000 13382
Sat Sep 24 00:00:00 GMT 2011 bethring Red maple Acer rubrum Leaves Changing Color (Early) 41.501500000000000 -87.464000000000000 13408
Sat Sep 24 00:00:00 GMT 2011 sandrah Red maple Acer rubrum Leaves Changing Color (Early) 44.248000000000000 -121.484000000000000 13421
Sat Sep 17 00:00:00 GMT 2011 AIDAN O'Connor Red maple Acer rubrum Leaves Unfolding (Late) 41.000000000000000 -87.000000000000000 13446
Tue Sep 20 00:00:00 GMT 2011 psaunder Red maple Acer rubrum Leaves Changing Color (Early) 40.766900000000000 -82.383500000000000 13430
Tue Sep 20 00:00:00 GMT 2011 psaunder Red maple Acer rubrum Leaves Changing Color (Early) 40.766900000000000 -82.383500000000000 13431
Thu Sep 29 00:00:00 GMT 2011 ericjlaufenberg@yahoo.com Red maple Acer rubrum Leaves Changing Color (Early) 43.000000000000000 -89.000000000000000 13460
Sat Oct 08 00:00:00 GMT 2011 palaback Red maple Acer rubrum Leaves Changing Color (Late) 42.303500000000000 -73.342100000000000 13525
Thu Oct 06 00:00:00 GMT 2011 palaback Red maple Acer rubrum Leaves Changing Color (Early) 41.735500000000000 -74.195300000000000 13529
Thu Oct 06 00:00:00 GMT 2011 palaback Red maple Acer rubrum Leaves Changing Color (Late) 41.708500000000000 -74.226000000000000 13526
Wed Oct 05 00:00:00 GMT 2011 palaback Red maple Acer rubrum Leaves Changing Color (Early) 41.785300000000000 -73.730400000000000 13533
Mon Oct 10 00:00:00 GMT 2011 palaback Red maple Acer rubrum Leaves Changing Color (Late) 43.402500000000000 -72.071700000000000 13537
Mon Oct 10 00:00:00 GMT 2011 palaback Red maple Acer rubrum Leaves Changing Color (Late) 43.000000000000000 -72.095800000000000 13539
Tue Oct 11 00:00:00 GMT 2011 Joseph Boland Red maple Acer rubrum 50% Color 39.761200000000000 -105.230000000000000 13554
Thu Oct 06 00:00:00 GMT 2011 vanndawn Red maple Acer rubrum 50% Color 38.912500000000000 -92.277500000000000 13610
Tue Oct 11 00:00:00 GMT 2011 palaback Red maple Acer rubrum Leaves Dropping (Early) 43.351200000000000 -72.040300000000000 13618
Tue Oct 11 00:00:00 GMT 2011 palaback Red maple Acer rubrum Leaves Changing Color (Late) 43.351200000000000 -72.040300000000000 13617
Tue Oct 11 00:00:00 GMT 2011 palaback Red maple Acer rubrum Leaves Changing Color (Late) 43.301600000000000 -71.866300000000000 13624
Wed Oct 12 00:00:00 GMT 2011 palaback Red maple Acer rubrum Leaves Changing Color (Middle) 43.363500000000000 -72.094500000000000 13632
Wed Oct 12 00:00:00 GMT 2011 palaback Red maple Acer rubrum Leaves Dropping (Middle) 43.363500000000000 -72.094500000000000 13633
Sat Oct 15 00:00:00 GMT 2011 palaback Red maple Acer rubrum Leaves Changing Color (Late) 40.305600000000000 -105.083000000000000 13685
Sat Oct 15 00:00:00 GMT 2011 palaback Red maple Acer rubrum 50% Color 40.307500000000000 -105.084000000000000 13686
Tue Oct 25 00:00:00 GMT 2011 Joseph Boland Red maple Acer rubrum 50% Leaf Fall 39.761200000000000 -105.230000000000000 13721
Thu Oct 27 00:00:00 GMT 2011 palaback Red maple Acer rubrum 50% Leaf Fall 40.307500000000000 -105.084000000000000 13844
Sat Oct 22 00:00:00 GMT 2011 SusannahPrindle Red maple Acer rubrum 50% Color 39.096700000000000 -77.023900000000000 13940
Sun Nov 13 00:00:00 GMT 2011 SusannahPrindle Red maple Acer rubrum 50% Leaf Fall 39.096700000000000 -77.023900000000000 13941
Wed Feb 01 00:00:00 GMT 2012 asale003 Red maple Acer rubrum First Flower 37.579400000000000 -76.442200000000000 14063
Mon Jan 30 00:00:00 GMT 2012 Hicklinjr Red maple Acer rubrum First Flower 35.181200000000000 -80.865800000000000 14070
Wed Feb 08 00:00:00 GMT 2012 Hicklinjr Red maple Acer rubrum Full Flower 35.181200000000000 -80.865800000000000 14071
Sun Feb 12 00:00:00 GMT 2012 foxtrot Red maple Acer rubrum Leaves Dropping (Late) 46.827400000000000 -96.889300000000000 14089
Wed Feb 29 00:00:00 GMT 2012 lettuce Red maple Acer rubrum First Flower 39.000000000000000 -94.580000000000000 14137
Fri Mar 02 00:00:00 GMT 2012 asale003 Red maple Acer rubrum Full Flower 37.579500000000000 -76.441200000000000 14156
Mon Feb 27 00:00:00 GMT 2012 PineyBranch Red maple Acer rubrum First Flower 39.008600000000000 -77.104700000000000 14158
Fri Mar 02 00:00:00 GMT 2012 PineyBranch Red maple Acer rubrum Full Flower 39.008600000000000 -77.104700000000000 14159
Sun Feb 26 00:00:00 GMT 2012 rsdutton Red maple Acer rubrum First Flower 33.918500000000000 -84.840900000000000 14161
Fri Mar 02 00:00:00 GMT 2012 MaAzCaMdVa Red maple Acer rubrum First Leaf 38.873400000000000 -77.203700000000000 14168
Wed Mar 07 00:00:00 GMT 2012 kayrihavens Red maple Acer rubrum First Flower 42.151900000000000 -87.785500000000000 14192
Sat Mar 10 00:00:00 GMT 2012 suevanpatten@gmail.com Red maple Acer rubrum First Leaf 37.959500000000000 -84.709100000000000 14201
Fri Mar 16 00:00:00 GMT 2012 palaback Red maple Acer rubrum First Flower 40.307500000000000 -105.084000000000000 14288
Sat Mar 17 00:00:00 GMT 2012 palaback Red maple Acer rubrum Full Flower 40.307500000000000 -105.084000000000000 14289
Fri Mar 16 00:00:00 GMT 2012 lettuce Red maple Acer rubrum First Ripe Fruit 39.000000000000000 -94.580000000000000 14319
Tue Mar 06 00:00:00 GMT 2012 jpspinicchia Red maple Acer rubrum First Leaf 38.271000000000000 -76.614100000000000 14314
Tue Mar 20 00:00:00 GMT 2012 RoseZT Red maple Acer rubrum First Flower 41.330800000000000 -72.683200000000000 14325
Wed Mar 21 00:00:00 GMT 2012 RoseZT Red maple Acer rubrum Full Flower 41.330800000000000 -72.683200000000000 14375
Tue Mar 13 00:00:00 GMT 2012 Joseph Boland Red maple Acer rubrum First Flower 39.761200000000000 -105.230000000000000 14398
Mon Mar 12 00:00:00 GMT 2012 RangerTorry Red maple Acer rubrum First Flower 36.145800000000000 -79.452400000000000 14395
Tue Mar 20 00:00:00 GMT 2012 MikeB45 Red maple Acer rubrum First Flower 39.640700000000000 -78.089600000000000 14456
Tue Mar 20 00:00:00 GMT 2012 Bobcats Red maple Acer rubrum First Flower 46.206000000000000 -85.757000000000000 14534
Sat Mar 24 00:00:00 GMT 2012 Bobcats Red maple Acer rubrum Full Flower 46.206000000000000 -85.757000000000000 14535
Thu Mar 22 00:00:00 GMT 2012 tuckerasso Red maple Acer rubrum First Leaf 37.231600000000000 -76.663600000000000 14703
Tue Mar 27 00:00:00 GMT 2012 tuckerasso Red maple Acer rubrum All Leaves Unfolded 37.231600000000000 -76.663600000000000 14704
Wed Feb 22 00:00:00 GMT 2012 tuckerasso Red maple Acer rubrum First Flower 37.231600000000000 -76.663600000000000 14705
Thu Mar 01 00:00:00 GMT 2012 tuckerasso Red maple Acer rubrum Full Flower 37.231600000000000 -76.663600000000000 14706
Tue Mar 27 00:00:00 GMT 2012 tuckerasso Red maple Acer rubrum First Ripe Fruit 37.231600000000000 -76.663600000000000 14707
Tue Mar 20 00:00:00 GMT 2012 mebrown Red maple Acer rubrum First Flower 36.085700000000000 -79.501200000000000 14725
Tue Apr 03 00:00:00 GMT 2012 rebecca_whitson Red maple Acer rubrum First Leaf 40.120300000000000 -76.036300000000000 14789
Sat Apr 07 00:00:00 GMT 2012 ckrais Red maple Acer rubrum Leaves Unfolding (Early) 40.929200000000000 -73.438000000000000 14833
Mon Apr 09 00:00:00 GMT 2012 Joseph Boland Red maple Acer rubrum First Leaf 39.761200000000000 -105.230000000000000 14894
Tue Apr 10 00:00:00 GMT 2012 tuckerasso Red maple Acer rubrum Full Fruiting 37.231600000000000 -76.663600000000000 14903
Tue Apr 10 00:00:00 GMT 2012 buckscience Red maple Acer rubrum Flowers (Early) 44.330400000000000 -70.271700000000000 14881
Wed Apr 11 00:00:00 GMT 2012 Project Red maple Acer rubrum Fruit (Late) 42.063800000000000 -87.673000000000000 14925
Thu Apr 12 00:00:00 GMT 2012 jim@beavercreekreserve Red maple Acer rubrum Fruit (Middle) 44.813400000000000 -91.269500000000000 14946
Thu Apr 12 00:00:00 GMT 2012 moni484 Red maple Acer rubrum Leaves Unfolding (Early) 42.047400000000000 -87.678500000000000 14964
Tue Apr 17 00:00:00 GMT 2012 Liz.uvm Red maple Acer rubrum Leaves Unfolding (Middle) 44.476000000000000 -73.198800000000000 15035
Tue Apr 17 00:00:00 GMT 2012 RoseZT Red maple Acer rubrum First Leaf 41.330800000000000 -72.683200000000000 15066
Wed Mar 28 00:00:00 GMT 2012 remeika@maine.rr.com Red maple Acer rubrum First Flower 43.887400000000000 -70.141200000000000 15090
Mon Apr 02 00:00:00 GMT 2012 remeika@maine.rr.com Red maple Acer rubrum Full Flower 43.887400000000000 -70.141200000000000 15091
Fri Apr 20 00:00:00 GMT 2012 Project Red maple Acer rubrum Leaves Unfolding (Middle) 42.063800000000000 -87.673000000000000 15132
Wed Apr 18 00:00:00 GMT 2012 Joseph Boland Red maple Acer rubrum All Leaves Unfolded 39.761200000000000 -105.230000000000000 15185
Tue Apr 17 00:00:00 GMT 2012 lduncan Red maple Acer rubrum Leaves Unfolding (Early) 34.674500000000000 -82.822200000000000 15191
Mon Apr 23 00:00:00 GMT 2012 palaback Red maple Acer rubrum First Leaf 40.307500000000000 -105.084000000000000 15211
Tue Apr 24 00:00:00 GMT 2012 Joseph Boland Red maple Acer rubrum Full Fruiting 39.761200000000000 -105.230000000000000 15240
Sat Apr 28 00:00:00 GMT 2012 EAGLE1973 Red maple Acer rubrum Leaves Unfolding (Early) 39.271300000000000 -80.270600000000000 15348
Mon Apr 23 00:00:00 GMT 2012 s_kat Red maple Acer rubrum First Leaf 42.679200000000000 -70.841200000000000 15422
Tue May 01 00:00:00 GMT 2012 s_kat Red maple Acer rubrum All Leaves Unfolded 42.679200000000000 -70.841200000000000 15423
Fri May 04 00:00:00 GMT 2012 EAGLE1973 Red maple Acer rubrum Leaves Unfolding (Late) 39.271300000000000 -80.270600000000000 15465
Mon May 07 00:00:00 GMT 2012 snewman14 Red maple Acer rubrum Leaves Unfolding (Late) 44.133900000000000 -90.187000000000000 15527
Tue May 15 00:00:00 GMT 2012 elygrade2 Red maple Acer rubrum Leaves Unfolding (Late) 47.900000000000000 -91.900000000000000 15728
Thu May 17 00:00:00 GMT 2012 elygrade2 Red maple Acer rubrum Leaves Unfolding (Late) 47.900000000000000 -91.900000000000000 15760
Thu May 17 00:00:00 GMT 2012 victocam Red maple Acer rubrum All Leaves Unfolded 40.667700000000000 -73.961800000000000 15770
Thu May 17 00:00:00 GMT 2012 victocam_Brooklyn_Homeschool_reporter4 Red maple Acer rubrum Leaves Unfolding (Late) 40.667700000000000 -73.961800000000000 15807
Thu May 17 00:00:00 GMT 2012 victocam_Brooklyn_Homeschool_reporter2 Red maple Acer rubrum All Leaves Unfolded 40.667700000000000 -73.961800000000000 15948
Thu May 17 00:00:00 GMT 2012 victocam_Brooklyn_Homeschool_reporter10 Red maple Acer rubrum All Leaves Unfolded 40.667700000000000 -73.961800000000000 15980
Sat Jun 16 00:00:00 GMT 2012 snewman14 Red maple Acer rubrum Leaves Unfolding (Late) 39.749100000000000 -104.941000000000000 16068
Fri Mar 30 00:00:00 GMT 2012 SusannahPrindle Red maple Acer rubrum First Leaf 39.096700000000000 -77.023900000000000 16200
Mon Apr 02 00:00:00 GMT 2012 SusannahPrindle Red maple Acer rubrum All Leaves Unfolded 39.096700000000000 -77.023900000000000 16201
Sat Mar 10 00:00:00 GMT 2012 SusannahPrindle Red maple Acer rubrum First Flower 39.096700000000000 -77.023900000000000 16202
Sun May 06 00:00:00 GMT 2012 remeika@maine.rr.com Red maple Acer rubrum First Leaf 43.887400000000000 -70.141200000000000 16356
Wed May 16 00:00:00 GMT 2012 remeika@maine.rr.com Red maple Acer rubrum All Leaves Unfolded 43.887400000000000 -70.141200000000000 16357
Thu May 10 00:00:00 GMT 2012 remeika@maine.rr.com Red maple Acer rubrum First Ripe Fruit 43.887400000000000 -70.141200000000000 16358
Sat May 26 00:00:00 GMT 2012 remeika@maine.rr.com Red maple Acer rubrum Full Fruiting 43.887400000000000 -70.141200000000000 16359
Sat Sep 01 00:00:00 GMT 2012 paleo20 Red maple Acer rubrum Leaves Dropping (Early) 42.605200000000000 -83.100300000000000 16436
Tue Sep 04 00:00:00 GMT 2012 msturm7 Red maple Acer rubrum Leaves Dropping (Early) 42.605600000000000 -83.150000000000000 16448
Tue Sep 04 00:00:00 GMT 2012 jomar.christian@comcast.net Red maple Acer rubrum Leaves Changing Color (Early) 42.583200000000000 -83.100400000000000 16449
Tue Sep 04 00:00:00 GMT 2012 joshuagale Red maple Acer rubrum Leaves Dropping (Early) 42.588000000000000 -83.104200000000000 16460
Tue Sep 04 00:00:00 GMT 2012 hnkukla18 Red maple Acer rubrum Leaves Changing Color (Late) 42.595200000000000 -83.097700000000000 16464
Tue Sep 04 00:00:00 GMT 2012 hailey_abro66 Red maple Acer rubrum Leaves Unfolding (Late) 42.634300000000000 -83.213500000000000 16479
Tue Sep 04 00:00:00 GMT 2012 claudiab2000 Red maple Acer rubrum Leaves Changing Color (Late) 39.984700000000000 -105.268000000000000 16475
Tue Sep 04 00:00:00 GMT 2012 anahgemk Red maple Acer rubrum Leaves Dropping (Early) 42.600000000000000 -83.150000000000000 16469
Tue Sep 04 00:00:00 GMT 2012 solo1830 Red maple Acer rubrum Leaves Changing Color (Early) 42.602600000000000 -83.099500000000000 16471
Tue Sep 04 00:00:00 GMT 2012 claudiab2000 Red maple Acer rubrum Leaves Dropping (Late) 39.984700000000000 -105.268000000000000 16472
Tue Sep 04 00:00:00 GMT 2012 hailey_abro66 Red maple Acer rubrum Leaves Changing Color (Early) 42.634300000000000 -83.213500000000000 16477
Tue Sep 04 00:00:00 GMT 2012 gilliessierra Red maple Acer rubrum Leaves Changing Color (Early) 42.609100000000000 -83.151400000000000 16468
Tue Sep 04 00:00:00 GMT 2012 hailey_abro66 Red maple Acer rubrum Leaves Changing Color (Late) 42.634300000000000 -83.213500000000000 16478
Tue Sep 04 00:00:00 GMT 2012 angela.wang Red maple Acer rubrum Leaves Dropping (Middle) 42.598300000000000 -83.123800000000000 16486
Tue Sep 04 00:00:00 GMT 2012 jazzie111700 Red maple Acer rubrum Leaves Changing Color (Early) 42.585400000000000 -83.118800000000000 16490
Tue Sep 04 00:00:00 GMT 2012 Bren1021 Red maple Acer rubrum Leaves Unfolding (Late) 42.605000000000000 -83.149000000000000 16493
Tue Sep 04 00:00:00 GMT 2012 laurenh0326 Red maple Acer rubrum Leaves Changing Color (Early) 42.605600000000000 -83.149900000000000 16496
Tue Sep 04 00:00:00 GMT 2012 dzelenak Red maple Acer rubrum Leaves Changing Color (Early) 42.608800000000000 -83.093100000000000 16511
Tue Sep 04 00:00:00 GMT 2012 lwjin18 Red maple Acer rubrum Fruit (Late) 42.598400000000000 -83.090500000000000 16514
Tue Sep 04 00:00:00 GMT 2012 killerbacon Red maple Acer rubrum Leaves Unfolding (Early) 42.603900000000000 -83.096600000000000 16437
Tue Sep 04 00:00:00 GMT 2012 ochan@lycos.com Red maple Acer rubrum Leaves Changing Color (Early) 42.599400000000000 -83.127100000000000 16441
Wed Sep 05 00:00:00 GMT 2012 lwjin18 Red maple Acer rubrum Leaves Dropping (Early) 42.598400000000000 -83.090500000000000 16521
Wed Sep 05 00:00:00 GMT 2012 astro67 Red maple Acer rubrum First Leaf 42.612000000000000 -83.098200000000000 16539
Tue Sep 11 00:00:00 GMT 2012 kayrihavens Red maple Acer rubrum Leaves Changing Color (Early) 43.040800000000000 -87.914000000000000 16578
Mon Sep 17 00:00:00 GMT 2012 MarcSturm Red maple Acer rubrum Leaves Dropping (Early) 42.605000000000000 -83.150000000000000 16612
Wed Sep 12 00:00:00 GMT 2012 sterlinhaymon Red maple Acer rubrum 50% Color 34.600000000000000 -83.050000000000000 16665
Wed Sep 12 00:00:00 GMT 2012 sterlinhaymon Red maple Acer rubrum 50% Leaf Fall 34.600000000000000 -83.050000000000000 16666
Wed Sep 12 00:00:00 GMT 2012 zachpcollins@hotmail.com Red maple Acer rubrum 50% Color 34.620000000000000 -83.050000000000000 16657
Wed Sep 12 00:00:00 GMT 2012 zachpcollins@hotmail.com Red maple Acer rubrum 50% Leaf Fall 34.620000000000000 -83.050000000000000 16658
Tue Sep 18 00:00:00 GMT 2012 jessica Red maple Acer rubrum Leaves Changing Color (Middle) 42.611200000000000 -83.093500000000000 16672
Tue Sep 18 00:00:00 GMT 2012 JennyOwens Red maple Acer rubrum 50% Color 34.620000000000000 -83.050000000000000 16634
Tue Sep 18 00:00:00 GMT 2012 jessica Red maple Acer rubrum Leaves Changing Color (Middle) 42.611200000000000 -83.093500000000000 16670
Tue Sep 18 00:00:00 GMT 2012 jessica Red maple Acer rubrum Leaves Changing Color (Middle) 42.611200000000000 -83.093500000000000 16671
Fri Sep 14 00:00:00 GMT 2012 4hrluker Red maple Acer rubrum 50% Color 36.220000000000000 -83.060000000000000 16640
Fri Sep 14 00:00:00 GMT 2012 wesley Red maple Acer rubrum 50% Leaf Fall 34.620000000000000 -83.050000000000000 16647
Fri Sep 14 00:00:00 GMT 2012 5caholbrooks Red maple Acer rubrum 50% Leaf Fall 34.620000000000000 -83.050000000000000 16648
Tue Sep 11 00:00:00 GMT 2012 andy lee Red maple Acer rubrum 50% Color 34.600000000000000 -83.100000000000000 16715
Thu Sep 13 00:00:00 GMT 2012 katelan cockman Red maple Acer rubrum 50% Color 34.610000000000000 -83.050000000000000 16710
Thu Sep 13 00:00:00 GMT 2012 katelan cockman Red maple Acer rubrum 50% Leaf Fall 34.610000000000000 -83.050000000000000 16711
Tue Sep 11 00:00:00 GMT 2012 brianna7frady Red maple Acer rubrum 50% Color 34.600000000000000 -83.100000000000000 16714
Thu Sep 20 00:00:00 GMT 2012 Cheryloakes50 Red maple Acer rubrum 50% Color 43.190000000000000 -70.360000000000000 16738
Sun Sep 30 00:00:00 GMT 2012 bpenuel Red maple Acer rubrum Leaves Changing Color (Middle) 39.969700000000000 -105.274000000000000 16760
Mon Apr 23 00:00:00 GMT 2012 palaback Red maple Acer rubrum All Leaves Unfolded 40.307500000000000 -105.084000000000000 16775
Fri Oct 12 00:00:00 GMT 2012 Lincoln Red maple Acer rubrum Leaves Changing Color (Middle) 42.328100000000000 -71.129200000000000 17008
Wed Oct 17 00:00:00 GMT 2012 bandjnewman Red maple Acer rubrum Leaves Dropping (Late) 46.810800000000000 -90.818200000000000 17032
Sun Oct 14 00:00:00 GMT 2012 Katherine Bennett Red maple Acer rubrum 50% Color 42.615100000000000 -71.928000000000000 17034
Sun Oct 14 00:00:00 GMT 2012 Katherine Bennett Red maple Acer rubrum 50% Color 42.615100000000000 -71.928000000000000 17033
Wed Oct 17 00:00:00 GMT 2012 Joseph Boland Red maple Acer rubrum 50% Leaf Fall 39.761200000000000 -105.230000000000000 17046
Sun Oct 21 00:00:00 GMT 2012 jeanrogers Red maple Acer rubrum 50% Leaf Fall 42.390200000000000 -71.500700000000000 17050
Fri Oct 26 00:00:00 GMT 2012 CourtneyBuchanan13 Red maple Acer rubrum Fruit (Late) 35.000000000000000 -82.000000000000000 17433
Mon Oct 29 00:00:00 GMT 2012 CourtneyBuchanan13 Red maple Acer rubrum Fruit (Late) 35.000000000000000 -82.000000000000000 17432
Fri Oct 26 00:00:00 GMT 2012 amyrivera Red maple Acer rubrum Leaves Dropping (Late) 39.518600000000000 -104.761000000000000 17446
Wed Nov 07 00:00:00 GMT 2012 ChapmanCheetahs Red maple Acer rubrum 50% Color 45.120000000000000 -122.607000000000000 17527
Wed Nov 07 00:00:00 GMT 2012 ChapmanCheetahs Red maple Acer rubrum 50% Color 45.120000000000000 -122.607000000000000 17526
Thu Nov 01 00:00:00 GMT 2012 profholmberg@gmail.com Red maple Acer rubrum Leaves Dropping (Late) 41.795400000000000 -73.123200000000000 17592
Mon Nov 05 00:00:00 GMT 2012 bterry Red maple Acer rubrum 50% Leaf Fall 46.396000000000000 -116.802000000000000 17600
Mon Nov 05 00:00:00 GMT 2012 bterry Red maple Acer rubrum 50% Leaf Fall 46.396000000000000 -116.802000000000000 17599
Mon Nov 05 00:00:00 GMT 2012 bterry Red maple Acer rubrum 50% Leaf Fall 46.396000000000000 -116.802000000000000 17598
Sun Oct 14 00:00:00 GMT 2012 aliciast. sauveur26 Red maple Acer rubrum Leaves Changing Color (Middle) 41.912200000000000 -73.036900000000000 17608
Sun Sep 30 00:00:00 GMT 2012 aliciast. sauveur26 Red maple Acer rubrum Leaves Changing Color (Early) 41.912200000000000 -73.036900000000000 17607
Wed Oct 24 00:00:00 GMT 2012 aliciast. sauveur26 Red maple Acer rubrum Leaves Changing Color (Late) 41.912200000000000 -73.036900000000000 17609
Sun Oct 14 00:00:00 GMT 2012 aliciast. sauveur26 Red maple Acer rubrum Leaves Dropping (Middle) 41.912200000000000 -73.036900000000000 17610
Wed Oct 10 00:00:00 GMT 2012 aliciast. sauveur26 Red maple Acer rubrum Leaves Dropping (Early) 41.912200000000000 -73.036900000000000 17611
Thu Nov 15 00:00:00 GMT 2012 tuckerasso Red maple Acer rubrum 50% Color 37.231600000000000 -76.663600000000000 17652
Sat Dec 01 00:00:00 GMT 2012 tuckerasso Red maple Acer rubrum 50% Leaf Fall 37.231600000000000 -76.663600000000000 17653
Fri Mar 30 00:00:00 GMT 2012 SusannahPrindle Red maple Acer rubrum First Leaf 39.096700000000000 -77.023900000000000 17698
Mon Apr 02 00:00:00 GMT 2012 SusannahPrindle Red maple Acer rubrum All Leaves Unfolded 39.096700000000000 -77.023900000000000 17699
Sat Mar 10 00:00:00 GMT 2012 SusannahPrindle Red maple Acer rubrum First Flower 39.096700000000000 -77.023900000000000 17700
Sat Nov 03 00:00:00 GMT 2012 SusannahPrindle Red maple Acer rubrum 50% Color 39.096700000000000 -77.023900000000000 17701
Sat Sep 29 00:00:00 GMT 2012 lschwab Red maple Acer rubrum 50% Color 39.984700000000000 -105.268000000000000 17733
Sat Oct 27 00:00:00 GMT 2012 lschwab Red maple Acer rubrum 50% Leaf Fall 39.984700000000000 -105.268000000000000 17734
Thu Jan 24 00:00:00 GMT 2013 nacielr Red maple Acer rubrum 50% Leaf Fall 39.155800000000000 -86.526000000000000 17821
Thu Jan 31 00:00:00 GMT 2013 HannahM Red maple Acer rubrum Leaves Dropping (Middle) 42.586300000000000 -83.100100000000000 17937
Thu Feb 07 00:00:00 GMT 2013 mareseatoats Red maple Acer rubrum Bud Burst 38.020100000000000 -78.634400000000000 17948
Fri Feb 08 00:00:00 GMT 2013 mareseatoats Red maple Acer rubrum Flowers (Early) 38.020100000000000 -78.634400000000000 17947
Sat Feb 09 00:00:00 GMT 2013 dragonmom0517 Red maple Acer rubrum Bud Burst 32.352400000000000 -90.070700000000000 17957
Thu Feb 14 00:00:00 GMT 2013 ncmns Red maple Acer rubrum Flowers (Late) 35.783400000000000 -78.641000000000000 17958
Tue Feb 19 00:00:00 GMT 2013 EasternChipmunk Red maple Acer rubrum Flowers (Middle) 37.126500000000000 -80.372900000000000 17982
Sun Mar 03 00:00:00 GMT 2013 mareseatoats Red maple Acer rubrum Full Flower 38.020100000000000 -78.634400000000000 18114
Mon Mar 11 00:00:00 GMT 2013 kwixted0 Red maple Acer rubrum Bud Burst 39.061400000000000 -76.584300000000000 18127
Tue Mar 12 00:00:00 GMT 2013 ncmns Red maple Acer rubrum Flowers (Middle) 35.811700000000000 -78.713900000000000 18139
Sun Mar 10 00:00:00 GMT 2013 dnarango Red maple Acer rubrum Bud Burst 38.437100000000000 -77.737400000000000 18141
Fri Mar 15 00:00:00 GMT 2013 jrfishe1 Red maple Acer rubrum First Flower 38.874100000000000 -77.088800000000000 18165
Fri Mar 15 00:00:00 GMT 2013 PineyBranch Red maple Acer rubrum Bud Burst 39.008600000000000 -77.104700000000000 18167
Mon Mar 18 00:00:00 GMT 2013 kelpmonster Red maple Acer rubrum First Flower 47.707200000000000 -122.311000000000000 18207
Sat Mar 23 00:00:00 GMT 2013 ncmns Red maple Acer rubrum Flowers (Middle) 35.811500000000000 -78.713600000000000 18247
Fri Mar 01 00:00:00 GMT 2013 ggnoma Red maple Acer rubrum Full Flower 38.981900000000000 -77.226300000000000 18253
Thu Mar 21 00:00:00 GMT 2013 ggnoma Red maple Acer rubrum First Flower 38.986600000000000 -77.119000000000000 18251
Sun Mar 24 00:00:00 GMT 2013 kspiv Red maple Acer rubrum Leaves Unfolding (Early) 42.295600000000000 -83.724900000000000 18352
Sun Mar 24 00:00:00 GMT 2013 kspiv Red maple Acer rubrum Leaves Unfolding (Early) 42.295600000000000 -83.724900000000000 18351
Thu Mar 28 00:00:00 GMT 2013 ncmns Red maple Acer rubrum Flowers (Middle) 35.810400000000000 -78.715000000000000 18372
Thu Mar 28 00:00:00 GMT 2013 ncmns Red maple Acer rubrum Flowers (Middle) 35.782700000000000 -78.640400000000000 18367
Fri Mar 29 00:00:00 GMT 2013 mrackmill Red maple Acer rubrum Flowers (Early) 40.749300000000000 -73.821300000000000 18379
Sat Mar 30 00:00:00 GMT 2013 palaback Red maple Acer rubrum First Flower 40.307500000000000 -105.084000000000000 18391
Sun Mar 31 00:00:00 GMT 2013 askinner Red maple Acer rubrum Leaves Unfolding (Early) 37.227900000000000 -80.419500000000000 18405
Sun Mar 31 00:00:00 GMT 2013 palaback Red maple Acer rubrum Full Flower 40.307500000000000 -105.084000000000000 18419
Mon Mar 18 00:00:00 GMT 2013 bterry Red maple Acer rubrum Full Flower 46.396000000000000 -116.802000000000000 18516
Sat Apr 06 00:00:00 GMT 2013 eroyse Red maple Acer rubrum Flowers (Late) 38.956500000000000 -76.942400000000000 18534
Sat Apr 06 00:00:00 GMT 2013 mpgooley Red maple Acer rubrum First Flower 42.355500000000000 -71.249000000000000 18519
Wed Apr 03 00:00:00 GMT 2013 ncesnik Red maple Acer rubrum Bud Burst 39.172700000000000 -86.529400000000000 18572
Thu Mar 28 00:00:00 GMT 2013 ahublar7 Red maple Acer rubrum Bud Burst 39.167200000000000 -86.512500000000000 18540
Thu Apr 04 00:00:00 GMT 2013 opankrat Red maple Acer rubrum Bud Burst 39.165300000000000 -86.526400000000000 18589
Thu Mar 07 00:00:00 GMT 2013 mmcleaster Red maple Acer rubrum Bud Burst 39.165300000000000 -86.526400000000000 18591
Thu Mar 21 00:00:00 GMT 2013 haley Red maple Acer rubrum Bud Burst 39.170000000000000 -86.530000000000000 18599
Tue Mar 19 00:00:00 GMT 2013 jmta Red maple Acer rubrum Bud Burst 39.165300000000000 -86.526400000000000 18600
Wed Apr 03 00:00:00 GMT 2013 haydenh Red maple Acer rubrum Leaves Unfolding (Early) 39.162100000000000 -86.567700000000000 18622
Wed Apr 03 00:00:00 GMT 2013 haydenh Red maple Acer rubrum Leaves Unfolding (Early) 39.162100000000000 -86.567700000000000 18623
Mon Apr 08 00:00:00 GMT 2013 sakeefe Red maple Acer rubrum Flowers (Early) 39.169800000000000 -86.510100000000000 18628
Mon Apr 01 00:00:00 GMT 2013 hnrodrig Red maple Acer rubrum Bud Burst 39.154400000000000 -86.523900000000000 18626
Mon Apr 08 00:00:00 GMT 2013 palaback Red maple Acer rubrum Fruit (Early) 38.882000000000000 -77.033200000000000 18691
Wed Apr 10 00:00:00 GMT 2013 arabella Red maple Acer rubrum Bud Burst 41.271000000000000 -76.115700000000000 18743
Mon Feb 04 00:00:00 GMT 2013 samivy333 Red maple Acer rubrum Bud Burst 39.167300000000000 -86.520000000000000 18747
Sat Mar 30 00:00:00 GMT 2013 samivy333 Red maple Acer rubrum First Leaf 39.167300000000000 -86.520000000000000 18748
Thu Mar 28 00:00:00 GMT 2013 jacobsld1 Red maple Acer rubrum Bud Burst 39.875500000000000 -75.371000000000000 18760
Sat Apr 06 00:00:00 GMT 2013 mareseatoats Red maple Acer rubrum First Leaf 38.020100000000000 -78.634400000000000 18767
Thu Apr 11 00:00:00 GMT 2013 ncmns Red maple Acer rubrum Leaves Unfolding (Early) 35.782800000000000 -78.639300000000000 18792
Mon Apr 08 00:00:00 GMT 2013 adfitzgerald@woodlawnschool.org_Env_Studies_2013_reporter3 Red maple Acer rubrum Bud Burst 35.543200000000000 -80.847300000000000 18806
Fri Apr 12 00:00:00 GMT 2013 arabella Red maple Acer rubrum First Flower 41.271000000000000 -76.115700000000000 18856
Sun Apr 07 00:00:00 GMT 2013 nicholesnow Red maple Acer rubrum Bud Burst 37.389100000000000 -76.715200000000000 18886
Sat Apr 13 00:00:00 GMT 2013 mpgooley Red maple Acer rubrum Full Flower 42.355500000000000 -71.249000000000000 18888
Mon Apr 15 00:00:00 GMT 2013 srstebbi Red maple Acer rubrum First Flower 43.020400000000000 -76.126700000000000 18961
Tue Apr 16 00:00:00 GMT 2013 arabella Red maple Acer rubrum Full Flower 41.271000000000000 -76.115700000000000 18973
Mon Apr 15 00:00:00 GMT 2013 spike@stalux.org Red maple Acer rubrum Bud Burst 43.232100000000000 -70.859600000000000 18991
Sat Apr 20 00:00:00 GMT 2013 ncmns Red maple Acer rubrum Leaves Unfolding (Middle) 35.772100000000000 -78.638600000000000 19050
Sat Apr 20 00:00:00 GMT 2013 ncmns Red maple Acer rubrum Leaves Unfolding (Middle) 35.772100000000000 -78.638600000000000 19051
Sat Apr 20 00:00:00 GMT 2013 ncmns Red maple Acer rubrum Flowers (Late) 35.772100000000000 -78.638600000000000 19052
Wed Apr 24 00:00:00 GMT 2013 eshima Red maple Acer rubrum Bud Burst 42.069800000000000 -87.787800000000000 19216
Sat Apr 27 00:00:00 GMT 2013 ncmns Red maple Acer rubrum Leaves Unfolding (Late) 35.811700000000000 -78.713900000000000 19380
Tue Apr 30 00:00:00 GMT 2013 ncmns Red maple Acer rubrum Leaves Unfolding (Middle) 35.782300000000000 -78.639500000000000 19393
Sat Apr 13 00:00:00 GMT 2013 ncmns Red maple Acer rubrum Leaves Unfolding (Early) 35.811700000000000 -78.713900000000000 19378
Sat Mar 30 00:00:00 GMT 2013 ncmns Red maple Acer rubrum Leaves Unfolding (Early) 35.811700000000000 -78.713900000000000 19363
Wed Apr 24 00:00:00 GMT 2013 eziebold Red maple Acer rubrum First Flower 41.747600000000000 -72.691500000000000 19406
Mon Apr 08 00:00:00 GMT 2013 kwixted0 Red maple Acer rubrum First Leaf 39.061400000000000 -76.584300000000000 19441
Thu Apr 25 00:00:00 GMT 2013 kwixted0 Red maple Acer rubrum All Leaves Unfolded 39.061400000000000 -76.584300000000000 19442
Sat Mar 16 00:00:00 GMT 2013 kwixted0 Red maple Acer rubrum First Flower 39.061400000000000 -76.584300000000000 19443
Mon Mar 18 00:00:00 GMT 2013 kwixted0 Red maple Acer rubrum Full Flower 39.061400000000000 -76.584300000000000 19444
Mon Apr 29 00:00:00 GMT 2013 Prisms Red maple Acer rubrum All Leaves Unfolded 42.375900000000000 -72.705500000000000 19451
Mon Apr 22 00:00:00 GMT 2013 Prisms Red maple Acer rubrum Bud Burst 42.375900000000000 -72.705500000000000 19453
Fri Apr 26 00:00:00 GMT 2013 Prisms Red maple Acer rubrum First Leaf 42.375900000000000 -72.705500000000000 19454
Mon Apr 22 00:00:00 GMT 2013 Prisms Red maple Acer rubrum Bud Burst 42.375900000000000 -72.705500000000000 19460
Fri Apr 26 00:00:00 GMT 2013 Prisms Red maple Acer rubrum First Leaf 42.375900000000000 -72.705500000000000 19461
Mon Apr 15 00:00:00 GMT 2013 SalladeScience_SRHS_Outdoor_Classroom_reporter3 Red maple Acer rubrum Bud Burst 42.912300000000000 -71.069700000000000 19493
Mon Apr 29 00:00:00 GMT 2013 SalladeScience_SRHS_Outdoor_Classroom_reporter3 Red maple Acer rubrum First Leaf 42.912300000000000 -71.069700000000000 19494
Tue Apr 30 00:00:00 GMT 2013 SalladeScience_SRHS_Outdoor_Classroom_reporter3 Red maple Acer rubrum All Leaves Unfolded 42.912300000000000 -71.069700000000000 19495
Fri Apr 19 00:00:00 GMT 2013 SalladeScience_SRHS_Outdoor_Classroom_reporter3 Red maple Acer rubrum First Flower 42.912300000000000 -71.069700000000000 19496
Tue Apr 30 00:00:00 GMT 2013 lschwab Red maple Acer rubrum First Leaf 39.984700000000000 -105.268000000000000 19520
Fri May 03 00:00:00 GMT 2013 uconn Red maple Acer rubrum Flowers (Early) 41.810700000000000 -72.255300000000000 19627
Fri May 03 00:00:00 GMT 2013 uconn Red maple Acer rubrum Leaves Unfolding (Early) 41.810700000000000 -72.255300000000000 19611
Fri May 03 00:00:00 GMT 2013 uconn Red maple Acer rubrum Leaves Unfolding (Early) 41.817600000000000 -72.263300000000000 19613
Wed Apr 10 00:00:00 GMT 2013 uconn Red maple Acer rubrum Flowers (Early) 41.810700000000000 -72.255300000000000 19628
Mon Apr 29 00:00:00 GMT 2013 uconn Red maple Acer rubrum Leaves Unfolding (Early) 41.812700000000000 -72.255800000000000 19612
Fri May 03 00:00:00 GMT 2013 uconn Red maple Acer rubrum Fruit (Middle) 41.812700000000000 -72.255800000000000 19624
Sun May 05 00:00:00 GMT 2013 arabella Red maple Acer rubrum First Leaf 41.271000000000000 -76.115700000000000 19906
Sun May 05 00:00:00 GMT 2013 Maplerun Red maple Acer rubrum Bud Burst 45.696100000000000 -89.633900000000000 19950
Mon May 06 00:00:00 GMT 2013 Maplerun Red maple Acer rubrum First Flower 45.696100000000000 -89.633900000000000 19951
Wed Apr 10 00:00:00 GMT 2013 ggnoma Red maple Acer rubrum Bud Burst 38.986600000000000 -77.119000000000000 20147
Fri Apr 12 00:00:00 GMT 2013 ggnoma Red maple Acer rubrum First Leaf 38.986600000000000 -77.119000000000000 20148
Tue Apr 16 00:00:00 GMT 2013 ggnoma Red maple Acer rubrum All Leaves Unfolded 38.986600000000000 -77.119000000000000 20149
Thu May 09 00:00:00 GMT 2013 arabella Red maple Acer rubrum All Leaves Unfolded 41.271000000000000 -76.115700000000000 20200
Tue May 14 00:00:00 GMT 2013 Maplerun Red maple Acer rubrum First Leaf 45.696100000000000 -89.633900000000000 20448
Sun Mar 24 00:00:00 GMT 2013 Angelyn Red maple Acer rubrum Bud Burst 35.619100000000000 -82.765100000000000 20738
Wed Apr 17 00:00:00 GMT 2013 Angelyn Red maple Acer rubrum First Leaf 35.619100000000000 -82.765100000000000 20739
Sat Apr 20 00:00:00 GMT 2013 Angelyn Red maple Acer rubrum All Leaves Unfolded 35.619100000000000 -82.765100000000000 20740
Wed Mar 27 00:00:00 GMT 2013 Angelyn Red maple Acer rubrum First Flower 35.619100000000000 -82.765100000000000 20741
Mon May 20 00:00:00 GMT 2013 Maplerun Red maple Acer rubrum All Leaves Unfolded 45.696100000000000 -89.633900000000000 20824
Wed May 15 00:00:00 GMT 2013 Maplerun Red maple Acer rubrum Full Flower 45.696100000000000 -89.633900000000000 20825
Fri May 03 00:00:00 GMT 2013 libbyellwood Red maple Acer rubrum First Leaf 42.307400000000000 -71.120800000000000 20827
Fri May 03 00:00:00 GMT 2013 everillp Red maple Acer rubrum Leaves Unfolding (Middle) 42.301200000000000 -71.112100000000000 20832
Wed May 15 00:00:00 GMT 2013 SalladeScience_SRHS_Outdoor_Classroom_reporter3 Red maple Acer rubrum Full Flower 42.912300000000000 -71.069700000000000 20958
Tue May 21 00:00:00 GMT 2013 SalladeScience_SRHS_Outdoor_Classroom_reporter3 Red maple Acer rubrum First Ripe Fruit 42.912300000000000 -71.069700000000000 20959
Sat Apr 06 00:00:00 GMT 2013 SalladeScience_SRHS_Outdoor_Classroom_reporter3 Red maple Acer rubrum Full Fruiting 42.912300000000000 -71.069700000000000 20960
Sat Mar 30 00:00:00 GMT 2013 reinsteinwoods Red maple Acer rubrum Bud Burst 42.886600000000000 -78.718100000000000 21581
Tue Apr 30 00:00:00 GMT 2013 reinsteinwoods Red maple Acer rubrum First Leaf 42.886600000000000 -78.718100000000000 21582
Sun May 05 00:00:00 GMT 2013 reinsteinwoods Red maple Acer rubrum All Leaves Unfolded 42.886600000000000 -78.718100000000000 21583
Wed May 22 00:00:00 GMT 2013 reinsteinwoods Red maple Acer rubrum First Ripe Fruit 42.886600000000000 -78.718100000000000 21584
Mon Jun 24 00:00:00 GMT 2013 reinsteinwoods Red maple Acer rubrum Full Fruiting 42.886600000000000 -78.718100000000000 21585
Mon Mar 04 00:00:00 GMT 2013 SusannahPrindle Red maple Acer rubrum Bud Burst 39.096700000000000 -77.023900000000000 21742
Mon Apr 15 00:00:00 GMT 2013 SusannahPrindle Red maple Acer rubrum First Leaf 39.096700000000000 -77.023900000000000 21743
Sat Apr 20 00:00:00 GMT 2013 SusannahPrindle Red maple Acer rubrum All Leaves Unfolded 39.096700000000000 -77.023900000000000 21744
Wed Mar 20 00:00:00 GMT 2013 SusannahPrindle Red maple Acer rubrum First Flower 39.096700000000000 -77.023900000000000 21745
Wed Mar 27 00:00:00 GMT 2013 SusannahPrindle Red maple Acer rubrum Full Flower 39.096700000000000 -77.023900000000000 21746
Sat Sep 07 00:00:00 GMT 2013 lwieland48 Red maple Acer rubrum 50% Color 44.554600000000000 -73.235200000000000 21979
Mon Sep 09 00:00:00 GMT 2013 teamname Red maple Acer rubrum All Leaves Unfolded 41.372800000000000 -72.862600000000000 21981
Thu Sep 26 00:00:00 GMT 2013 lwieland48 Red maple Acer rubrum 50% Leaf Fall 44.554600000000000 -73.235200000000000 22222
Mon Sep 16 00:00:00 GMT 2013 joshfarley26 Red maple Acer rubrum Leaves Changing Color (Early) 35.413600000000000 -80.206300000000000 22310
Wed Oct 02 00:00:00 GMT 2013 arabella Red maple Acer rubrum 50% Color 41.271000000000000 -76.115700000000000 22330
Sun Sep 22 00:00:00 GMT 2013 jill_epperson Red maple Acer rubrum Leaves Dropping (Early) 36.100800000000000 -79.401400000000000 22331
Fri Oct 04 00:00:00 GMT 2013 dwagner Red maple Acer rubrum All Leaves Unfolded 27.984800000000000 -81.971000000000000 22489
Wed Oct 02 00:00:00 GMT 2013 tfadden Red maple Acer rubrum 50% Color 44.155340000000000 -72.083150000000000 22498
Wed Oct 02 00:00:00 GMT 2013 tfadden Red maple Acer rubrum Leaves Changing Color (Middle) 44.092500000000000 -72.049900000000000 22497
Mon Oct 07 00:00:00 GMT 2013 Susan Red maple Acer rubrum Leaves Changing Color (Middle) 37.558200000000000 -77.947800000000000 22510
Mon Oct 07 00:00:00 GMT 2013 Susan Red maple Acer rubrum Leaves Changing Color (Middle) 37.558200000000000 -77.947800000000000 22511
Sun Oct 06 00:00:00 GMT 2013 bmu south Red maple Acer rubrum Leaves Dropping (Early) 44.033400000000000 -72.126600000000000 22528
Tue Oct 08 00:00:00 GMT 2013 St Paul Tree Trek Red maple Acer rubrum All Leaves Unfolded 27.984800000000000 -81.971000000000000 22529
Tue Oct 15 00:00:00 GMT 2013 Susan Red maple Acer rubrum Leaves Dropping (Early) 37.558200000000000 -77.947800000000000 22592
Tue Oct 22 00:00:00 GMT 2013 rebeccakurson Red maple Acer rubrum 50% Color 40.777300000000000 -74.252300000000000 22729
Tue Oct 22 00:00:00 GMT 2013 mareseatoats Red maple Acer rubrum 50% Color 38.020100000000000 -78.634400000000000 22727
Thu Oct 17 00:00:00 GMT 2013 trumanfurr Red maple Acer rubrum 50% Color 35.359300000000000 -80.192900000000000 22806
Wed Oct 30 00:00:00 GMT 2013 robinv1_Washington_College_reporter2 Red maple Acer rubrum 50% Color 39.219200000000000 -76.069600000000000 22841
Wed Oct 30 00:00:00 GMT 2013 carlsmac4 Red maple Acer rubrum Leaves Changing Color (Middle) 35.109400000000000 -77.519200000000000 22829
Tue Oct 15 00:00:00 GMT 2013 chelslaine5391 Red maple Acer rubrum Leaves Unfolding (Late) 36.642300000000000 -88.738900000000000 22860
Thu Oct 31 00:00:00 GMT 2013 amcricket Red maple Acer rubrum Leaves Dropping (Middle) 40.114700000000000 -74.861800000000000 22897
Thu Oct 31 00:00:00 GMT 2013 amcricket Red maple Acer rubrum Leaves Changing Color (Middle) 40.114700000000000 -74.861800000000000 22896
Wed Oct 30 00:00:00 GMT 2013 Albumx23 Red maple Acer rubrum Leaves Changing Color (Late) 37.001600000000000 -88.458600000000000 22858
Wed Oct 30 00:00:00 GMT 2013 Albumx23 Red maple Acer rubrum Leaves Changing Color (Late) 37.001600000000000 -88.458600000000000 22859
Mon Oct 21 00:00:00 GMT 2013 Albumx23 Red maple Acer rubrum Leaves Changing Color (Middle) 37.001600000000000 -88.458600000000000 22857
Fri Oct 11 00:00:00 GMT 2013 Albumx23 Red maple Acer rubrum Leaves Changing Color (Early) 37.001600000000000 -88.458600000000000 22856
Thu Oct 17 00:00:00 GMT 2013 cyoungblood Red maple Acer rubrum 50% Color 36.981500000000000 -88.642200000000000 22916
Thu Oct 31 00:00:00 GMT 2013 cyoungblood Red maple Acer rubrum 50% Leaf Fall 36.981500000000000 -88.642200000000000 22917
Fri Nov 01 00:00:00 GMT 2013 dwagner Red maple Acer rubrum Leaves Changing Color (Early) 27.984800000000000 -81.971000000000000 22898
Wed Oct 16 00:00:00 GMT 2013 botanygametoostrong Red maple Acer rubrum 50% Color 41.372400000000000 -72.862500000000000 22901
Mon Oct 28 00:00:00 GMT 2013 botanygametoostrong Red maple Acer rubrum 50% Leaf Fall 41.372400000000000 -72.862500000000000 22902
Fri Nov 01 00:00:00 GMT 2013 Team Phoenix Red maple Acer rubrum Leaves Changing Color (Late) 37.906700000000000 -97.778100000000000 22904
Fri Nov 01 00:00:00 GMT 2013 dom121395 Red maple Acer rubrum Leaves Changing Color (Late) 41.374600000000000 -72.864900000000000 22905
Fri Nov 01 00:00:00 GMT 2013 teamname Red maple Acer rubrum 50% Leaf Fall 41.372800000000000 -72.862600000000000 22900
Tue Oct 22 00:00:00 GMT 2013 teamname Red maple Acer rubrum 50% Color 41.372800000000000 -72.862600000000000 22899
Mon Nov 04 00:00:00 GMT 2013 socerwolf Red maple Acer rubrum Leaves Dropping (Middle) 35.775800000000000 -78.856800000000000 22952
Mon Nov 04 00:00:00 GMT 2013 socerwolf Red maple Acer rubrum Leaves Dropping (Middle) 35.775800000000000 -78.856800000000000 22951
Mon Nov 04 00:00:00 GMT 2013 wildpansyks Red maple Acer rubrum 50% Color 35.046100000000000 -79.152800000000000 22948
Tue Nov 05 00:00:00 GMT 2013 taylor14a Red maple Acer rubrum Leaves Changing Color (Late) 35.713900000000000 -82.034500000000000 22975
Sat Oct 26 00:00:00 GMT 2013 iveyemmert Red maple Acer rubrum Bud Burst 36.390000000000000 -78.980000000000000 22958
Sun Oct 27 00:00:00 GMT 2013 iveyemmert Red maple Acer rubrum First Leaf 36.390000000000000 -78.980000000000000 22959
Thu Oct 31 00:00:00 GMT 2013 iveyemmert Red maple Acer rubrum All Leaves Unfolded 36.390000000000000 -78.980000000000000 22960
Wed Oct 30 00:00:00 GMT 2013 iveyemmert Red maple Acer rubrum 50% Color 36.390000000000000 -78.980000000000000 22961
Sat Nov 02 00:00:00 GMT 2013 iveyemmert Red maple Acer rubrum 50% Leaf Fall 36.390000000000000 -78.980000000000000 22962
Tue Nov 05 00:00:00 GMT 2013 audrey Red maple Acer rubrum Leaves Changing Color (Middle) 44.570800000000000 -123.264000000000000 22991
Thu Nov 07 00:00:00 GMT 2013 arabella Red maple Acer rubrum 50% Leaf Fall 41.271000000000000 -76.115700000000000 23017
Wed Sep 04 00:00:00 GMT 2013 marcepat Red maple Acer rubrum Full Fruiting 39.184900000000000 -86.517400000000000 23027
Sun Oct 27 00:00:00 GMT 2013 marcepat Red maple Acer rubrum 50% Color 39.184900000000000 -86.517400000000000 23028
Wed Nov 06 00:00:00 GMT 2013 marcepat Red maple Acer rubrum 50% Leaf Fall 39.184900000000000 -86.517400000000000 23029
Fri Nov 08 00:00:00 GMT 2013 dancyn2005 Red maple Acer rubrum Leaves Changing Color (Late) 36.823100000000000 -84.945100000000000 23024
Thu Nov 07 00:00:00 GMT 2013 ncmns Red maple Acer rubrum Leaves Changing Color (Late) 35.782300000000000 -78.639500000000000 23046
Sat Oct 12 00:00:00 GMT 2013 ncmns Red maple Acer rubrum Leaves Changing Color (Early) 35.811700000000000 -78.713900000000000 23062
Sat Nov 02 00:00:00 GMT 2013 ncmns Red maple Acer rubrum Leaves Changing Color (Early) 35.811700000000000 -78.713900000000000 23056
Wed Oct 16 00:00:00 GMT 2013 bterry Red maple Acer rubrum 50% Color 46.396000000000000 -116.802000000000000 23090
Sat Nov 02 00:00:00 GMT 2013 bterry Red maple Acer rubrum 50% Leaf Fall 46.396000000000000 -116.802000000000000 23091
Wed Oct 16 00:00:00 GMT 2013 bterry Red maple Acer rubrum 50% Color 46.396000000000000 -116.802000000000000 23088
Sat Nov 02 00:00:00 GMT 2013 bterry Red maple Acer rubrum 50% Leaf Fall 46.396000000000000 -116.802000000000000 23089
Thu Nov 07 00:00:00 GMT 2013 Nectarlane Red maple Acer rubrum 50% Leaf Fall 40.168200000000000 -74.813500000000000 23120
Wed Sep 11 00:00:00 GMT 2013 ilikeseep Red maple Acer rubrum Bud Burst 41.372200000000000 -72.863100000000000 23147
Thu Oct 10 00:00:00 GMT 2013 Kfunk Red maple Acer rubrum Leaves Changing Color (Middle) 39.167700000000000 -86.522500000000000 23153
Thu Oct 10 00:00:00 GMT 2013 Kfunk Red maple Acer rubrum Leaves Dropping (Middle) 39.167700000000000 -86.522500000000000 23154
Sat Nov 09 00:00:00 GMT 2013 bberry Red maple Acer rubrum 50% Color 40.766600000000000 -73.974900000000000 23140
Fri Oct 25 00:00:00 GMT 2013 kashrews Red maple Acer rubrum 50% Color 39.152500000000000 -86.491500000000000 23196
Sun Nov 03 00:00:00 GMT 2013 kashrews Red maple Acer rubrum 50% Leaf Fall 39.152500000000000 -86.491500000000000 23197
Wed Oct 23 00:00:00 GMT 2013 kashrews Red maple Acer rubrum 50% Color 39.152500000000000 -86.491900000000000 23194
Mon Nov 04 00:00:00 GMT 2013 kashrews Red maple Acer rubrum 50% Leaf Fall 39.152500000000000 -86.491900000000000 23195
Sat Nov 02 00:00:00 GMT 2013 sisaacso Red maple Acer rubrum 50% Color 39.055600000000000 -86.161100000000000 23202
Tue Nov 12 00:00:00 GMT 2013 sisaacso Red maple Acer rubrum 50% Leaf Fall 39.055600000000000 -86.161100000000000 23203
Mon Sep 09 00:00:00 GMT 2013 jialyu Red maple Acer rubrum 50% Color 39.153900000000000 -86.492600000000000 23255
Mon Nov 04 00:00:00 GMT 2013 jialyu Red maple Acer rubrum 50% Leaf Fall 39.153900000000000 -86.492600000000000 23256
Sun Sep 22 00:00:00 GMT 2013 Tjharnish91 Red maple Acer rubrum 50% Color 39.173900000000000 -86.532700000000000 23300
Mon Oct 21 00:00:00 GMT 2013 Tjharnish91 Red maple Acer rubrum 50% Leaf Fall 39.173900000000000 -86.532700000000000 23301
Thu Oct 17 00:00:00 GMT 2013 Tjharnish91 Red maple Acer rubrum 50% Color 39.173800000000000 -86.532500000000000 23285
Sun Nov 03 00:00:00 GMT 2013 Tjharnish91 Red maple Acer rubrum 50% Leaf Fall 39.173800000000000 -86.532500000000000 23286
Sun Oct 27 00:00:00 GMT 2013 ermmaybe Red maple Acer rubrum 50% Color 39.167200000000000 -86.513200000000000 23500
Sat Nov 02 00:00:00 GMT 2013 ermmaybe Red maple Acer rubrum 50% Leaf Fall 39.167200000000000 -86.513200000000000 23501
Wed Sep 04 00:00:00 GMT 2013 emmehren Red maple Acer rubrum Bud Burst 39.165300000000000 -86.526400000000000 23528
Wed Nov 06 00:00:00 GMT 2013 emmehren Red maple Acer rubrum 50% Color 39.165300000000000 -86.526400000000000 23529
Wed Nov 06 00:00:00 GMT 2013 emmehren Red maple Acer rubrum 50% Leaf Fall 39.165300000000000 -86.526400000000000 23530
Sun Nov 17 00:00:00 GMT 2013 add21792 Red maple Acer rubrum Leaves Changing Color (Middle) 39.184800000000000 -86.532100000000000 23508
Tue Nov 12 00:00:00 GMT 2013 amypalme Red maple Acer rubrum 50% Color 39.166400000000000 -86.510200000000000 23562
Tue Nov 12 00:00:00 GMT 2013 amypalme Red maple Acer rubrum 50% Leaf Fall 39.166400000000000 -86.510200000000000 23563
Tue Oct 01 00:00:00 GMT 2013 amypalme Red maple Acer rubrum 50% Color 39.166300000000000 -86.511600000000000 23566
Tue Oct 15 00:00:00 GMT 2013 amypalme Red maple Acer rubrum 50% Leaf Fall 39.166300000000000 -86.511600000000000 23567
Wed Oct 23 00:00:00 GMT 2013 loshouse Red maple Acer rubrum 50% Color 39.165600000000000 -86.512700000000000 23586
Mon Nov 04 00:00:00 GMT 2013 loshouse Red maple Acer rubrum 50% Leaf Fall 39.165600000000000 -86.512700000000000 23587
Wed Oct 23 00:00:00 GMT 2013 loshouse Red maple Acer rubrum 50% Color 39.165600000000000 -86.512700000000000 23584
Mon Nov 04 00:00:00 GMT 2013 loshouse Red maple Acer rubrum 50% Leaf Fall 39.165600000000000 -86.512700000000000 23585
Tue Sep 03 00:00:00 GMT 2013 amypalme Red maple Acer rubrum Leaves Changing Color (Early) 39.166400000000000 -86.510200000000000 23560
Wed Oct 23 00:00:00 GMT 2013 loshouse Red maple Acer rubrum 50% Color 39.166400000000000 -86.513400000000000 23558
Tue Nov 05 00:00:00 GMT 2013 loshouse Red maple Acer rubrum 50% Leaf Fall 39.166400000000000 -86.513400000000000 23559
Tue Oct 01 00:00:00 GMT 2013 amypalme Red maple Acer rubrum 50% Color 39.166300000000000 -86.511600000000000 23568
Tue Oct 29 00:00:00 GMT 2013 amypalme Red maple Acer rubrum 50% Leaf Fall 39.166300000000000 -86.511600000000000 23569
Sun Oct 13 00:00:00 GMT 2013 owensmt Red maple Acer rubrum 50% Color 39.170300000000000 -86.524000000000000 23607
Mon Nov 04 00:00:00 GMT 2013 owensmt Red maple Acer rubrum 50% Leaf Fall 39.170300000000000 -86.524000000000000 23608
Tue Nov 05 00:00:00 GMT 2013 AmyEsparza Red maple Acer rubrum 50% Color 39.167600000000000 -86.514200000000000 23599
Mon Nov 18 00:00:00 GMT 2013 AmyEsparza Red maple Acer rubrum 50% Leaf Fall 39.167600000000000 -86.514200000000000 23600
Tue Oct 22 00:00:00 GMT 2013 soosup Red maple Acer rubrum 50% Color 39.168000000000000 -86.512700000000000 23626
Fri Nov 01 00:00:00 GMT 2013 soosup Red maple Acer rubrum 50% Leaf Fall 39.168000000000000 -86.512700000000000 23627
Tue Oct 22 00:00:00 GMT 2013 soosup Red maple Acer rubrum First Ripe Fruit 39.168000000000000 -86.512700000000000 23636
Fri Nov 01 00:00:00 GMT 2013 soosup Red maple Acer rubrum Full Fruiting 39.168000000000000 -86.512700000000000 23637
Fri Oct 25 00:00:00 GMT 2013 nshedd Red maple Acer rubrum 50% Color 39.168200000000000 -86.503500000000000 23642
Tue Oct 29 00:00:00 GMT 2013 nshedd Red maple Acer rubrum 50% Leaf Fall 39.168200000000000 -86.503500000000000 23643
Tue Oct 22 00:00:00 GMT 2013 nshedd Red maple Acer rubrum 50% Color 39.168300000000000 -86.507100000000000 23644
Tue Nov 12 00:00:00 GMT 2013 nshedd Red maple Acer rubrum 50% Leaf Fall 39.168300000000000 -86.507100000000000 23645
Mon Nov 18 00:00:00 GMT 2013 wildpansyks Red maple Acer rubrum 50% Leaf Fall 35.046100000000000 -79.152800000000000 23668
Wed Sep 11 00:00:00 GMT 2013 ilikeseep Red maple Acer rubrum First Leaf 41.372200000000000 -72.863100000000000 23675
Fri Oct 18 00:00:00 GMT 2013 ilikeseep Red maple Acer rubrum 50% Color 41.372200000000000 -72.863100000000000 23676
Wed Nov 13 00:00:00 GMT 2013 ilikeseep Red maple Acer rubrum 50% Leaf Fall 41.372200000000000 -72.863100000000000 23677
Thu Nov 14 00:00:00 GMT 2013 rkclark Red maple Acer rubrum 50% Leaf Fall 35.869200000000000 -78.727900000000000 23979
Sat Nov 23 00:00:00 GMT 2013 bberry Red maple Acer rubrum 50% Leaf Fall 40.766600000000000 -73.974900000000000 23997
Mon Nov 04 00:00:00 GMT 2013 robinv1_Washington_College_reporter2 Red maple Acer rubrum 50% Leaf Fall 39.219200000000000 -76.069600000000000 24170
Sun Oct 06 00:00:00 GMT 2013 mpgooley Red maple Acer rubrum 50% Color 42.355500000000000 -71.249000000000000 24199
Sun Nov 10 00:00:00 GMT 2013 robinv1_Washington_College_reporter23 Red maple Acer rubrum 50% Color 39.219200000000000 -76.069600000000000 24253
Thu Nov 07 00:00:00 GMT 2013 robinv1_Washington_College_reporter23 Red maple Acer rubrum 50% Leaf Fall 39.219200000000000 -76.069600000000000 24254
Thu Dec 19 00:00:00 GMT 2013 hcps-sawhneyj Red maple Acer rubrum Leaves Dropping (Late) 37.630700000000000 -77.544000000000000 24503
Wed Dec 18 00:00:00 GMT 2013 dwagner Red maple Acer rubrum 50% Color 27.984800000000000 -81.971000000000000 24574
Thu Apr 04 00:00:00 GMT 2013 tuckerasso Red maple Acer rubrum All Leaves Unfolded 37.231600000000000 -76.663600000000000 24593
Thu Feb 21 00:00:00 GMT 2013 tuckerasso Red maple Acer rubrum First Flower 37.231600000000000 -76.663600000000000 24594
Fri Mar 22 00:00:00 GMT 2013 tuckerasso Red maple Acer rubrum Full Flower 37.231600000000000 -76.663600000000000 24595
Thu Apr 04 00:00:00 GMT 2013 tuckerasso Red maple Acer rubrum Full Fruiting 37.231600000000000 -76.663600000000000 24596
Mon Nov 25 00:00:00 GMT 2013 tuckerasso Red maple Acer rubrum 50% Color 37.231600000000000 -76.663600000000000 24597
Fri Oct 25 00:00:00 GMT 2013 tuckerasso Red maple Acer rubrum 50% Leaf Fall 37.231600000000000 -76.663600000000000 24598
Mon Mar 04 00:00:00 GMT 2013 SusannahPrindle Red maple Acer rubrum Bud Burst 39.096700000000000 -77.023900000000000 24671
Mon Apr 15 00:00:00 GMT 2013 SusannahPrindle Red maple Acer rubrum First Leaf 39.096700000000000 -77.023900000000000 24672
Sat Apr 20 00:00:00 GMT 2013 SusannahPrindle Red maple Acer rubrum All Leaves Unfolded 39.096700000000000 -77.023900000000000 24673
Wed Mar 20 00:00:00 GMT 2013 SusannahPrindle Red maple Acer rubrum First Flower 39.096700000000000 -77.023900000000000 24674
Wed Mar 27 00:00:00 GMT 2013 SusannahPrindle Red maple Acer rubrum Full Flower 39.096700000000000 -77.023900000000000 24675
Sat Nov 02 00:00:00 GMT 2013 SusannahPrindle Red maple Acer rubrum 50% Color 39.096700000000000 -77.023900000000000 24676
Mon Nov 18 00:00:00 GMT 2013 SusannahPrindle Red maple Acer rubrum 50% Leaf Fall 39.096700000000000 -77.023900000000000 24677
Thu Jan 16 00:00:00 GMT 2014 ncmns Red maple Acer rubrum Leaves Unfolding (None) 35.810800000000000 -78.715100000000000 24747
Thu Jan 16 00:00:00 GMT 2014 ncmns Red maple Acer rubrum Leaves Changing Color (None) 35.810800000000000 -78.715100000000000 24748
Thu Jan 16 00:00:00 GMT 2014 ncmns Red maple Acer rubrum Leaves Dropping (Late) 35.810800000000000 -78.715100000000000 24749
Thu Jan 16 00:00:00 GMT 2014 ncmns Red maple Acer rubrum Flowers (None) 35.810800000000000 -78.715100000000000 24750
Thu Jan 16 00:00:00 GMT 2014 ncmns Red maple Acer rubrum Fruit (None) 35.810800000000000 -78.715100000000000 24751
Thu Feb 13 00:00:00 GMT 2014 becky_whitson Red maple Acer rubrum Leaves Unfolding (None) 39.960500000000000 -76.156700000000000 25323
Thu Feb 13 00:00:00 GMT 2014 becky_whitson Red maple Acer rubrum Leaves Changing Color (None) 39.960500000000000 -76.156700000000000 25324
Thu Feb 13 00:00:00 GMT 2014 becky_whitson Red maple Acer rubrum Leaves Dropping (None) 39.960500000000000 -76.156700000000000 25325
Thu Feb 13 00:00:00 GMT 2014 becky_whitson Red maple Acer rubrum Flowers (None) 39.960500000000000 -76.156700000000000 25326
Thu Feb 13 00:00:00 GMT 2014 becky_whitson Red maple Acer rubrum Fruit (None) 39.960500000000000 -76.156700000000000 25327
Tue Feb 18 00:00:00 GMT 2014 StinaDee Red maple Acer rubrum Leaves Unfolding (None) 30.404200000000000 -81.641400000000000 25445
Tue Feb 18 00:00:00 GMT 2014 StinaDee Red maple Acer rubrum Leaves Changing Color (None) 30.404200000000000 -81.641400000000000 25446
Tue Feb 18 00:00:00 GMT 2014 StinaDee Red maple Acer rubrum Leaves Dropping (None) 30.404200000000000 -81.641400000000000 25447
Tue Feb 18 00:00:00 GMT 2014 StinaDee Red maple Acer rubrum Flowers (None) 30.404200000000000 -81.641400000000000 25448
Tue Feb 18 00:00:00 GMT 2014 StinaDee Red maple Acer rubrum Fruit (Early) 30.404200000000000 -81.641400000000000 25449
Wed Jan 15 00:00:00 GMT 2014 mrscaptain Red maple Acer rubrum Bud Burst 35.141000000000000 -77.232400000000000 25589
Sat Nov 02 00:00:00 GMT 2013 Angelyn Red maple Acer rubrum 50% Leaf Fall 35.619100000000000 -82.765100000000000 25611
Tue Feb 25 00:00:00 GMT 2014 naturalist Red maple Acer rubrum Leaves Unfolding (None) 36.101300000000000 -79.487200000000000 25814
Tue Feb 25 00:00:00 GMT 2014 naturalist Red maple Acer rubrum Leaves Changing Color (None) 36.101300000000000 -79.487200000000000 25815
Tue Feb 25 00:00:00 GMT 2014 naturalist Red maple Acer rubrum Leaves Dropping (None) 36.101300000000000 -79.487200000000000 25816
Tue Feb 25 00:00:00 GMT 2014 naturalist Red maple Acer rubrum Flowers (Early) 36.101300000000000 -79.487200000000000 25817
Tue Feb 25 00:00:00 GMT 2014 naturalist Red maple Acer rubrum Fruit (None) 36.101300000000000 -79.487200000000000 25818
Wed Feb 26 00:00:00 GMT 2014 melissaburt Red maple Acer rubrum Leaves Unfolding (None) 35.814800000000000 -89.218700000000000 25824
Wed Feb 26 00:00:00 GMT 2014 melissaburt Red maple Acer rubrum Leaves Changing Color (None) 35.814800000000000 -89.218700000000000 25825
Wed Feb 26 00:00:00 GMT 2014 melissaburt Red maple Acer rubrum Leaves Dropping (None) 35.814800000000000 -89.218700000000000 25826
Wed Feb 26 00:00:00 GMT 2014 melissaburt Red maple Acer rubrum Flowers (Early) 35.814800000000000 -89.218700000000000 25827
Wed Feb 26 00:00:00 GMT 2014 melissaburt Red maple Acer rubrum Fruit (None) 35.814800000000000 -89.218700000000000 25828
Sat Feb 23 00:00:00 GMT 2008 naturalist Red maple Acer rubrum First Flower 35.220000000000000 -80.800000000000000 25849
Sun Feb 23 00:00:00 GMT 2014 bskelton02 Red maple Acer rubrum Bud Burst 35.890400000000000 -79.015700000000000 25879
Fri Mar 07 00:00:00 GMT 2014 Kendall Kohler Red maple Acer rubrum Leaves Unfolding (None) 39.846900000000000 -77.067200000000000 26150
Fri Mar 07 00:00:00 GMT 2014 Kendall Kohler Red maple Acer rubrum Leaves Changing Color (None) 39.846900000000000 -77.067200000000000 26151
Fri Mar 07 00:00:00 GMT 2014 Kendall Kohler Red maple Acer rubrum Leaves Dropping (None) 39.846900000000000 -77.067200000000000 26152
Fri Mar 07 00:00:00 GMT 2014 Kendall Kohler Red maple Acer rubrum Flowers (None) 39.846900000000000 -77.067200000000000 26153
Fri Mar 07 00:00:00 GMT 2014 Kendall Kohler Red maple Acer rubrum Fruit (None) 39.846900000000000 -77.067200000000000 26154
Sat Mar 01 00:00:00 GMT 2014 JoyceHillary Red maple Acer rubrum Leaves Unfolding (None) 40.666000000000000 -73.962100000000000 26200
Sat Mar 01 00:00:00 GMT 2014 JoyceHillary Red maple Acer rubrum Leaves Changing Color (None) 40.666000000000000 -73.962100000000000 26201
Sat Mar 01 00:00:00 GMT 2014 JoyceHillary Red maple Acer rubrum Leaves Dropping (None) 40.666000000000000 -73.962100000000000 26202
Sat Mar 01 00:00:00 GMT 2014 JoyceHillary Red maple Acer rubrum Flowers (None) 40.666000000000000 -73.962100000000000 26203
Sat Mar 01 00:00:00 GMT 2014 JoyceHillary Red maple Acer rubrum Fruit (None) 40.666000000000000 -73.962100000000000 26204
Fri Mar 07 00:00:00 GMT 2014 mgavazzi Red maple Acer rubrum First Flower 35.729700000000000 -78.813700000000000 26206
Sat Mar 01 00:00:00 GMT 2014 armatha Red maple Acer rubrum Leaves Unfolding (None) 40.667800000000000 -73.961500000000000 26843
Sat Mar 01 00:00:00 GMT 2014 armatha Red maple Acer rubrum Leaves Changing Color (Late) 40.667800000000000 -73.961500000000000 26844
Sat Mar 01 00:00:00 GMT 2014 armatha Red maple Acer rubrum Leaves Dropping (Late) 40.667800000000000 -73.961500000000000 26845
Sat Mar 01 00:00:00 GMT 2014 armatha Red maple Acer rubrum Flowers (None) 40.667800000000000 -73.961500000000000 26846
Sat Mar 01 00:00:00 GMT 2014 armatha Red maple Acer rubrum Fruit (None) 40.667800000000000 -73.961500000000000 26847
Sat Mar 15 00:00:00 GMT 2014 JoyceHillary Red maple Acer rubrum Leaves Unfolding (None) 40.666000000000000 -73.962100000000000 26868
Sat Mar 15 00:00:00 GMT 2014 JoyceHillary Red maple Acer rubrum Leaves Changing Color (None) 40.666000000000000 -73.962100000000000 26869
Sat Mar 15 00:00:00 GMT 2014 JoyceHillary Red maple Acer rubrum Leaves Dropping (None) 40.666000000000000 -73.962100000000000 26870
Sat Mar 15 00:00:00 GMT 2014 JoyceHillary Red maple Acer rubrum Flowers (Early) 40.666000000000000 -73.962100000000000 26871
Sat Mar 15 00:00:00 GMT 2014 JoyceHillary Red maple Acer rubrum Fruit (None) 40.666000000000000 -73.962100000000000 26872
Sat Mar 15 00:00:00 GMT 2014 JoyceHillary Red maple Acer rubrum Leaves Unfolding (None) 40.666000000000000 -73.962100000000000 26873
Sat Mar 15 00:00:00 GMT 2014 JoyceHillary Red maple Acer rubrum Leaves Changing Color (None) 40.666000000000000 -73.962100000000000 26874
Sat Mar 15 00:00:00 GMT 2014 JoyceHillary Red maple Acer rubrum Leaves Dropping (None) 40.666000000000000 -73.962100000000000 26875
Sat Mar 15 00:00:00 GMT 2014 JoyceHillary Red maple Acer rubrum Flowers (Early) 40.666000000000000 -73.962100000000000 26876
Sat Mar 15 00:00:00 GMT 2014 JoyceHillary Red maple Acer rubrum Fruit (None) 40.666000000000000 -73.962100000000000 26877
Tue Mar 04 00:00:00 GMT 2014 lbarnett Red maple Acer rubrum Bud Burst 33.863000000000000 -84.291700000000000 26906
Thu Mar 13 00:00:00 GMT 2014 lbarnett Red maple Acer rubrum First Flower 33.863000000000000 -84.291700000000000 26907
Thu Mar 13 00:00:00 GMT 2014 lbarnett Red maple Acer rubrum First Flower 33.863000000000000 -84.291700000000000 26908
Wed Mar 12 00:00:00 GMT 2014 DMH Red maple Acer rubrum First Flower 35.308500000000000 -82.527500000000000 26975
Wed Mar 12 00:00:00 GMT 2014 DMH Red maple Acer rubrum First Flower 35.308500000000000 -82.527500000000000 26976
Wed Mar 19 00:00:00 GMT 2014 bridge11 Red maple Acer rubrum Leaves Unfolding (None) 39.726700000000000 -76.894800000000000 27049
Wed Mar 19 00:00:00 GMT 2014 bridge11 Red maple Acer rubrum Leaves Changing Color (None) 39.726700000000000 -76.894800000000000 27050
Wed Mar 19 00:00:00 GMT 2014 bridge11 Red maple Acer rubrum Leaves Dropping (None) 39.726700000000000 -76.894800000000000 27051
Wed Mar 19 00:00:00 GMT 2014 bridge11 Red maple Acer rubrum Flowers (None) 39.726700000000000 -76.894800000000000 27052
Wed Mar 19 00:00:00 GMT 2014 bridge11 Red maple Acer rubrum Fruit (None) 39.726700000000000 -76.894800000000000 27053
Wed Mar 19 00:00:00 GMT 2014 bridge11 Red maple Acer rubrum Leaves Unfolding (None) 39.726700000000000 -76.894800000000000 27054
Wed Mar 19 00:00:00 GMT 2014 bridge11 Red maple Acer rubrum Leaves Changing Color (None) 39.726700000000000 -76.894800000000000 27055
Wed Mar 19 00:00:00 GMT 2014 bridge11 Red maple Acer rubrum Leaves Dropping (None) 39.726700000000000 -76.894800000000000 27056
Wed Mar 19 00:00:00 GMT 2014 bridge11 Red maple Acer rubrum Flowers (None) 39.726700000000000 -76.894800000000000 27057
Wed Mar 19 00:00:00 GMT 2014 bridge11 Red maple Acer rubrum Fruit (None) 39.726700000000000 -76.894800000000000 27058
Thu Mar 20 00:00:00 GMT 2014 leeann517 Red maple Acer rubrum Leaves Unfolding (None) 39.822900000000000 -77.059500000000000 27089
Thu Mar 20 00:00:00 GMT 2014 leeann517 Red maple Acer rubrum Leaves Changing Color (None) 39.822900000000000 -77.059500000000000 27090
Thu Mar 20 00:00:00 GMT 2014 leeann517 Red maple Acer rubrum Leaves Dropping (None) 39.822900000000000 -77.059500000000000 27091
Thu Mar 20 00:00:00 GMT 2014 leeann517 Red maple Acer rubrum Flowers (None) 39.822900000000000 -77.059500000000000 27092
Thu Mar 20 00:00:00 GMT 2014 leeann517 Red maple Acer rubrum Fruit (None) 39.822900000000000 -77.059500000000000 27093
Thu Mar 20 00:00:00 GMT 2014 palaback Red maple Acer rubrum First Flower 40.307500000000000 -105.084000000000000 27224
Fri Mar 21 00:00:00 GMT 2014 kmoconnor Red maple Acer rubrum Leaves Unfolding (None) 38.174800000000000 -77.214800000000000 27371
Fri Mar 21 00:00:00 GMT 2014 kmoconnor Red maple Acer rubrum Leaves Changing Color (None) 38.174800000000000 -77.214800000000000 27372
Fri Mar 21 00:00:00 GMT 2014 kmoconnor Red maple Acer rubrum Leaves Dropping (None) 38.174800000000000 -77.214800000000000 27373
Fri Mar 21 00:00:00 GMT 2014 kmoconnor Red maple Acer rubrum Flowers (Middle) 38.174800000000000 -77.214800000000000 27374
Fri Mar 21 00:00:00 GMT 2014 kmoconnor Red maple Acer rubrum Fruit (None) 38.174800000000000 -77.214800000000000 27375
Fri Mar 21 00:00:00 GMT 2014 kmoconnor Red maple Acer rubrum Leaves Unfolding (None) 38.261100000000000 -77.339100000000000 27376
Fri Mar 21 00:00:00 GMT 2014 kmoconnor Red maple Acer rubrum Leaves Changing Color (None) 38.261100000000000 -77.339100000000000 27377
Fri Mar 21 00:00:00 GMT 2014 kmoconnor Red maple Acer rubrum Leaves Dropping (None) 38.261100000000000 -77.339100000000000 27378
Fri Mar 21 00:00:00 GMT 2014 kmoconnor Red maple Acer rubrum Flowers (Middle) 38.261100000000000 -77.339100000000000 27379
Fri Mar 21 00:00:00 GMT 2014 kmoconnor Red maple Acer rubrum Fruit (None) 38.261100000000000 -77.339100000000000 27380
Sat Mar 15 00:00:00 GMT 2014 armatha Red maple Acer rubrum Leaves Unfolding (None) 40.667600000000000 -73.961900000000000 27381
Sat Mar 15 00:00:00 GMT 2014 armatha Red maple Acer rubrum Leaves Changing Color (Late) 40.667600000000000 -73.961900000000000 27382
Sat Mar 15 00:00:00 GMT 2014 armatha Red maple Acer rubrum Leaves Dropping (Late) 40.667600000000000 -73.961900000000000 27383
Sat Mar 15 00:00:00 GMT 2014 armatha Red maple Acer rubrum Flowers (None) 40.667600000000000 -73.961900000000000 27384
Sat Mar 15 00:00:00 GMT 2014 armatha Red maple Acer rubrum Fruit (None) 40.667600000000000 -73.961900000000000 27385
Sat Mar 01 00:00:00 GMT 2014 nancyy Red maple Acer rubrum Leaves Unfolding (None) 40.669700000000000 -73.966000000000000 27386
Sat Mar 01 00:00:00 GMT 2014 nancyy Red maple Acer rubrum Leaves Changing Color (None) 40.669700000000000 -73.966000000000000 27387
Sat Mar 01 00:00:00 GMT 2014 nancyy Red maple Acer rubrum Leaves Dropping (Late) 40.669700000000000 -73.966000000000000 27388
Sat Mar 01 00:00:00 GMT 2014 nancyy Red maple Acer rubrum Flowers (None) 40.669700000000000 -73.966000000000000 27389
Sat Mar 01 00:00:00 GMT 2014 nancyy Red maple Acer rubrum Fruit (None) 40.669700000000000 -73.966000000000000 27390
Sat Mar 22 00:00:00 GMT 2014 AllenMoore Red maple Acer rubrum First Flower 35.275000000000000 -83.042100000000000 27456
Sun Mar 30 00:00:00 GMT 2014 Lady444 Red maple Acer rubrum Leaves Unfolding (None) 39.744900000000000 -77.003600000000000 27855
Sun Mar 30 00:00:00 GMT 2014 Lady444 Red maple Acer rubrum Leaves Changing Color (None) 39.744900000000000 -77.003600000000000 27856
Sun Mar 30 00:00:00 GMT 2014 Lady444 Red maple Acer rubrum Leaves Dropping (None) 39.744900000000000 -77.003600000000000 27857
Sun Mar 30 00:00:00 GMT 2014 Lady444 Red maple Acer rubrum Flowers (None) 39.744900000000000 -77.003600000000000 27858
Sun Mar 30 00:00:00 GMT 2014 Lady444 Red maple Acer rubrum Fruit (None) 39.744900000000000 -77.003600000000000 27859
Mon Mar 31 00:00:00 GMT 2014 marymacho Red maple Acer rubrum Leaves Unfolding (None) 45.759600000000000 -93.013000000000000 27947
Mon Mar 31 00:00:00 GMT 2014 marymacho Red maple Acer rubrum Leaves Changing Color (None) 45.759600000000000 -93.013000000000000 27948
Mon Mar 31 00:00:00 GMT 2014 marymacho Red maple Acer rubrum Leaves Dropping (None) 45.759600000000000 -93.013000000000000 27949
Mon Mar 31 00:00:00 GMT 2014 marymacho Red maple Acer rubrum Flowers (None) 45.759600000000000 -93.013000000000000 27950
Mon Mar 31 00:00:00 GMT 2014 marymacho Red maple Acer rubrum Fruit (None) 45.759600000000000 -93.013000000000000 27951
Mon Mar 10 00:00:00 GMT 2014 marymacho Red maple Acer rubrum Leaves Unfolding (None) 45.759600000000000 -93.013000000000000 27942
Mon Mar 10 00:00:00 GMT 2014 marymacho Red maple Acer rubrum Leaves Changing Color (None) 45.759600000000000 -93.013000000000000 27943
Mon Mar 10 00:00:00 GMT 2014 marymacho Red maple Acer rubrum Leaves Dropping (None) 45.759600000000000 -93.013000000000000 27944
Mon Mar 10 00:00:00 GMT 2014 marymacho Red maple Acer rubrum Flowers (None) 45.759600000000000 -93.013000000000000 27945
Mon Mar 10 00:00:00 GMT 2014 marymacho Red maple Acer rubrum Fruit (None) 45.759600000000000 -93.013000000000000 27946
Sat Mar 22 00:00:00 GMT 2014 samlindgren Red maple Acer rubrum Leaves Unfolding (None) 40.114700000000000 -88.257000000000000 27916
Sat Mar 22 00:00:00 GMT 2014 samlindgren Red maple Acer rubrum Leaves Changing Color (None) 40.114700000000000 -88.257000000000000 27917
Sat Mar 22 00:00:00 GMT 2014 samlindgren Red maple Acer rubrum Leaves Dropping (None) 40.114700000000000 -88.257000000000000 27918
Sat Mar 22 00:00:00 GMT 2014 samlindgren Red maple Acer rubrum Flowers (None) 40.114700000000000 -88.257000000000000 27919
Sat Mar 22 00:00:00 GMT 2014 samlindgren Red maple Acer rubrum Fruit (Middle) 40.114700000000000 -88.257000000000000 27920
Tue Apr 01 00:00:00 GMT 2014 hausbaun Red maple Acer rubrum Full Flower 39.218733000000000 -76.645925000000000 27996
Tue Apr 01 00:00:00 GMT 2014 mgavazzi Red maple Acer rubrum First Leaf 35.729700000000000 -78.813700000000000 28081
Tue Apr 01 00:00:00 GMT 2014 amt27 Red maple Acer rubrum Bud Burst 40.264700000000000 -74.955800000000000 28071
Mon Mar 24 00:00:00 GMT 2014 lbarnett Red maple Acer rubrum Full Flower 33.863000000000000 -84.291700000000000 28154
Fri Apr 04 00:00:00 GMT 2014 lbarnett Red maple Acer rubrum First Ripe Fruit 33.863000000000000 -84.291700000000000 28155
Thu Apr 03 00:00:00 GMT 2014 mareseatoats Red maple Acer rubrum Full Flower 38.020100000000000 -78.634400000000000 28144
Tue Apr 01 00:00:00 GMT 2014 woodsedge Red maple Acer rubrum Full Flower 38.565400000000000 -78.926000000000000 28269
Fri Jul 12 00:00:00 GMT 2013 reinsteinwoods Red maple Acer rubrum All Leaves Unfolded 42.886600000000000 -78.718100000000000 28312
Mon Sep 16 00:00:00 GMT 2013 reinsteinwoods Red maple Acer rubrum 50% Color 42.886600000000000 -78.718100000000000 28313
Mon Apr 07 00:00:00 GMT 2014 LanaLaKay Red maple Acer rubrum Leaves Unfolding (Early) 36.727930000000000 -88.645460000000000 28264
Mon Apr 07 00:00:00 GMT 2014 LanaLaKay Red maple Acer rubrum Leaves Changing Color (None) 36.727930000000000 -88.645460000000000 28265
Mon Apr 07 00:00:00 GMT 2014 LanaLaKay Red maple Acer rubrum Leaves Dropping (None) 36.727930000000000 -88.645460000000000 28266
Mon Apr 07 00:00:00 GMT 2014 LanaLaKay Red maple Acer rubrum Flowers (Early) 36.727930000000000 -88.645460000000000 28267
Mon Apr 07 00:00:00 GMT 2014 LanaLaKay Red maple Acer rubrum Fruit (None) 36.727930000000000 -88.645460000000000 28268
Mon Mar 10 00:00:00 GMT 2014 risabrodwin Red maple Acer rubrum Bud Burst 39.165300000000000 -86.513690000000000 28399
Sun Mar 30 00:00:00 GMT 2014 risabrodwin Red maple Acer rubrum First Flower 39.165300000000000 -86.513690000000000 28400
Mon Mar 10 00:00:00 GMT 2014 risabrodwin Red maple Acer rubrum Bud Burst 39.165300000000000 -86.513690000000000 28397
Wed Apr 09 00:00:00 GMT 2014 risabrodwin Red maple Acer rubrum First Flower 39.165300000000000 -86.513690000000000 28398
Wed Apr 09 00:00:00 GMT 2014 danabuchbinder Red maple Acer rubrum Leaves Unfolding (None) 35.902330000000000 -78.888290000000000 28486
Wed Apr 09 00:00:00 GMT 2014 danabuchbinder Red maple Acer rubrum Leaves Changing Color (None) 35.902330000000000 -78.888290000000000 28487
Wed Apr 09 00:00:00 GMT 2014 danabuchbinder Red maple Acer rubrum Leaves Dropping (None) 35.902330000000000 -78.888290000000000 28488
Wed Apr 09 00:00:00 GMT 2014 danabuchbinder Red maple Acer rubrum Flowers (None) 35.902330000000000 -78.888290000000000 28489
Wed Apr 09 00:00:00 GMT 2014 danabuchbinder Red maple Acer rubrum Fruit (Late) 35.902330000000000 -78.888290000000000 28490
Wed Apr 09 00:00:00 GMT 2014 kmoconnor Red maple Acer rubrum First Leaf 38.491900000000000 -77.562700000000000 28585
Sat Mar 22 00:00:00 GMT 2014 kmoconnor Red maple Acer rubrum First Flower 38.491900000000000 -77.562700000000000 28586
Thu Apr 03 00:00:00 GMT 2014 kmoconnor Red maple Acer rubrum Full Flower 38.491900000000000 -77.562700000000000 28587
Sat Apr 05 00:00:00 GMT 2014 kayrihavens Red maple Acer rubrum Full Flower 42.151900000000000 -87.785500000000000 28815
Wed Apr 02 00:00:00 GMT 2014 LanaLaKay Red maple Acer rubrum Leaves Unfolding (Early) 40.000000000000000 -100.000000000000000 28849
Wed Apr 02 00:00:00 GMT 2014 LanaLaKay Red maple Acer rubrum Leaves Changing Color (Middle) 40.000000000000000 -100.000000000000000 28850
Wed Apr 02 00:00:00 GMT 2014 LanaLaKay Red maple Acer rubrum Leaves Dropping (None) 40.000000000000000 -100.000000000000000 28851
Wed Apr 02 00:00:00 GMT 2014 LanaLaKay Red maple Acer rubrum Flowers (Early) 40.000000000000000 -100.000000000000000 28852
Wed Apr 02 00:00:00 GMT 2014 LanaLaKay Red maple Acer rubrum Fruit (None) 40.000000000000000 -100.000000000000000 28853
Sun Apr 06 00:00:00 GMT 2014 becky_whitson Red maple Acer rubrum First Flower 39.960510000000000 -76.156690000000000 28881
Mon Apr 07 00:00:00 GMT 2014 skgutman Red maple Acer rubrum Bud Burst 39.165439000000000 -86.511884000000000 28930
Wed Apr 09 00:00:00 GMT 2014 skgutman Red maple Acer rubrum Full Flower 39.165439000000000 -86.511884000000000 28931
Mon Mar 03 00:00:00 GMT 2014 skgutman Red maple Acer rubrum 50% Color 39.165439000000000 -86.511884000000000 28932
Mon Mar 24 00:00:00 GMT 2014 skgutman Red maple Acer rubrum Bud Burst 39.165439000000000 -86.512012000000000 28927
Mon Mar 31 00:00:00 GMT 2014 skgutman Red maple Acer rubrum First Flower 39.165439000000000 -86.512012000000000 28928
Mon Feb 24 00:00:00 GMT 2014 skgutman Red maple Acer rubrum 50% Color 39.165439000000000 -86.512012000000000 28929
Wed Apr 09 00:00:00 GMT 2014 skgutman Red maple Acer rubrum First Flower 39.165439000000000 -86.511884000000000 28939
Fri Apr 11 00:00:00 GMT 2014 katie98_2000 Red maple Acer rubrum Full Flower 40.838197000000000 -96.793392000000000 28952
Fri Apr 11 00:00:00 GMT 2014 katie98_2000 Red maple Acer rubrum Leaves Unfolding (None) 40.837321000000000 -96.794035000000000 28947
Fri Apr 11 00:00:00 GMT 2014 katie98_2000 Red maple Acer rubrum Leaves Changing Color (None) 40.837321000000000 -96.794035000000000 28948
Fri Apr 11 00:00:00 GMT 2014 katie98_2000 Red maple Acer rubrum Leaves Dropping (None) 40.837321000000000 -96.794035000000000 28949
Fri Apr 11 00:00:00 GMT 2014 katie98_2000 Red maple Acer rubrum Flowers (Middle) 40.837321000000000 -96.794035000000000 28950
Fri Apr 11 00:00:00 GMT 2014 katie98_2000 Red maple Acer rubrum Fruit (None) 40.837321000000000 -96.794035000000000 28951
Wed Apr 09 00:00:00 GMT 2014 katie98_2000 Red maple Acer rubrum Leaves Unfolding (None) 40.816960000000000 -96.705673000000000 28942
Wed Apr 09 00:00:00 GMT 2014 katie98_2000 Red maple Acer rubrum Leaves Changing Color (None) 40.816960000000000 -96.705673000000000 28943
Wed Apr 09 00:00:00 GMT 2014 katie98_2000 Red maple Acer rubrum Leaves Dropping (None) 40.816960000000000 -96.705673000000000 28944
Wed Apr 09 00:00:00 GMT 2014 katie98_2000 Red maple Acer rubrum Flowers (Middle) 40.816960000000000 -96.705673000000000 28945
Wed Apr 09 00:00:00 GMT 2014 katie98_2000 Red maple Acer rubrum Fruit (None) 40.816960000000000 -96.705673000000000 28946
Sun Apr 13 00:00:00 GMT 2014 kmoconnor Red maple Acer rubrum All Leaves Unfolded 38.491900000000000 -77.562700000000000 29226
Mon Apr 14 00:00:00 GMT 2014 DavidHamman Red maple Acer rubrum Leaves Unfolding (Middle) 39.179000000000000 -86.539200000000000 29221
Mon Apr 14 00:00:00 GMT 2014 DavidHamman Red maple Acer rubrum Leaves Changing Color (Early) 39.179000000000000 -86.539200000000000 29222
Mon Apr 14 00:00:00 GMT 2014 DavidHamman Red maple Acer rubrum Leaves Dropping (None) 39.179000000000000 -86.539200000000000 29223
Mon Apr 14 00:00:00 GMT 2014 DavidHamman Red maple Acer rubrum Flowers (Early) 39.179000000000000 -86.539200000000000 29224
Mon Apr 14 00:00:00 GMT 2014 DavidHamman Red maple Acer rubrum Fruit (None) 39.179000000000000 -86.539200000000000 29225
Mon Feb 24 00:00:00 GMT 2014 knreeve Red maple Acer rubrum Bud Burst 39.166271000000000 -86.514140000000000 29019
Wed Feb 05 00:00:00 GMT 2014 kyholdem Red maple Acer rubrum Bud Burst 39.165492000000000 -86.513327000000000 29251
Mon Apr 14 00:00:00 GMT 2014 kyholdem Red maple Acer rubrum Leaves Unfolding (None) 39.161616000000000 -86.515134000000000 29246
Mon Apr 14 00:00:00 GMT 2014 kyholdem Red maple Acer rubrum Leaves Changing Color (None) 39.161616000000000 -86.515134000000000 29247
Mon Apr 14 00:00:00 GMT 2014 kyholdem Red maple Acer rubrum Leaves Dropping (None) 39.161616000000000 -86.515134000000000 29248
Mon Apr 14 00:00:00 GMT 2014 kyholdem Red maple Acer rubrum Flowers (None) 39.161616000000000 -86.515134000000000 29249
Mon Apr 14 00:00:00 GMT 2014 kyholdem Red maple Acer rubrum Fruit (None) 39.161616000000000 -86.515134000000000 29250
Wed Feb 05 00:00:00 GMT 2014 kyholdem Red maple Acer rubrum Bud Burst 39.165618000000000 -86.513609000000000 29244
Mon Apr 14 00:00:00 GMT 2014 kapittman Red maple Acer rubrum Leaves Unfolding (Early) 39.165000000000000 -86.511820000000000 29049
Mon Apr 14 00:00:00 GMT 2014 kapittman Red maple Acer rubrum Leaves Changing Color (None) 39.165000000000000 -86.511820000000000 29050
Mon Apr 14 00:00:00 GMT 2014 kapittman Red maple Acer rubrum Leaves Dropping (None) 39.165000000000000 -86.511820000000000 29051
Mon Apr 14 00:00:00 GMT 2014 kapittman Red maple Acer rubrum Flowers (None) 39.165000000000000 -86.511820000000000 29052
Mon Apr 14 00:00:00 GMT 2014 kapittman Red maple Acer rubrum Fruit (None) 39.165000000000000 -86.511820000000000 29053
Sun Apr 13 00:00:00 GMT 2014 lauracahalan Red maple Acer rubrum Leaves Unfolding (None) 39.167180000000000 -86.512470000000000 29029
Sun Apr 13 00:00:00 GMT 2014 lauracahalan Red maple Acer rubrum Leaves Changing Color (None) 39.167180000000000 -86.512470000000000 29030
Sun Apr 13 00:00:00 GMT 2014 lauracahalan Red maple Acer rubrum Leaves Dropping (None) 39.167180000000000 -86.512470000000000 29031
Sun Apr 13 00:00:00 GMT 2014 lauracahalan Red maple Acer rubrum Flowers (Middle) 39.167180000000000 -86.512470000000000 29032
Sun Apr 13 00:00:00 GMT 2014 lauracahalan Red maple Acer rubrum Fruit (None) 39.167180000000000 -86.512470000000000 29033
Mon Apr 14 00:00:00 GMT 2014 kapittman Red maple Acer rubrum Leaves Unfolding (None) 39.166600000000000 -86.511710000000000 29039
Mon Apr 14 00:00:00 GMT 2014 kapittman Red maple Acer rubrum Leaves Changing Color (None) 39.166600000000000 -86.511710000000000 29040
Mon Apr 14 00:00:00 GMT 2014 kapittman Red maple Acer rubrum Leaves Dropping (None) 39.166600000000000 -86.511710000000000 29041
Mon Apr 14 00:00:00 GMT 2014 kapittman Red maple Acer rubrum Flowers (None) 39.166600000000000 -86.511710000000000 29042
Mon Apr 14 00:00:00 GMT 2014 kapittman Red maple Acer rubrum Fruit (None) 39.166600000000000 -86.511710000000000 29043
Sun Apr 13 00:00:00 GMT 2014 arabella Red maple Acer rubrum Bud Burst 41.271000000000000 -76.115700000000000 29252
Mon Apr 14 00:00:00 GMT 2014 arabella Red maple Acer rubrum First Flower 41.271000000000000 -76.115700000000000 29254
Sat Apr 12 00:00:00 GMT 2014 mpgooley Red maple Acer rubrum Full Flower 42.355500000000000 -71.249000000000000 29267
Mon Apr 14 00:00:00 GMT 2014 bfiedel3 Red maple Acer rubrum Leaves Unfolding (None) 39.103100000000000 -86.307880000000000 29162
Mon Apr 14 00:00:00 GMT 2014 bfiedel3 Red maple Acer rubrum Leaves Changing Color (None) 39.103100000000000 -86.307880000000000 29163
Mon Apr 14 00:00:00 GMT 2014 bfiedel3 Red maple Acer rubrum Leaves Dropping (Early) 39.103100000000000 -86.307880000000000 29164
Mon Apr 14 00:00:00 GMT 2014 bfiedel3 Red maple Acer rubrum Flowers (None) 39.103100000000000 -86.307880000000000 29165
Mon Apr 14 00:00:00 GMT 2014 bfiedel3 Red maple Acer rubrum Fruit (None) 39.103100000000000 -86.307880000000000 29166
Sat Apr 12 00:00:00 GMT 2014 bfiedel3 Red maple Acer rubrum Leaves Unfolding (None) 39.102610000000000 -86.308690000000000 29142
Sat Apr 12 00:00:00 GMT 2014 bfiedel3 Red maple Acer rubrum Leaves Changing Color (None) 39.102610000000000 -86.308690000000000 29143
Sat Apr 12 00:00:00 GMT 2014 bfiedel3 Red maple Acer rubrum Leaves Dropping (None) 39.102610000000000 -86.308690000000000 29144
Sat Apr 12 00:00:00 GMT 2014 bfiedel3 Red maple Acer rubrum Flowers (Early) 39.102610000000000 -86.308690000000000 29145
Sat Apr 12 00:00:00 GMT 2014 bfiedel3 Red maple Acer rubrum Fruit (None) 39.102610000000000 -86.308690000000000 29146
Wed Apr 09 00:00:00 GMT 2014 danabuchbinder Red maple Acer rubrum Leaves Unfolding (None) 35.902330000000000 -78.888290000000000 29347
Wed Apr 09 00:00:00 GMT 2014 danabuchbinder Red maple Acer rubrum Leaves Changing Color (None) 35.902330000000000 -78.888290000000000 29348
Wed Apr 09 00:00:00 GMT 2014 danabuchbinder Red maple Acer rubrum Leaves Dropping (None) 35.902330000000000 -78.888290000000000 29349
Wed Apr 09 00:00:00 GMT 2014 danabuchbinder Red maple Acer rubrum Flowers (None) 35.902330000000000 -78.888290000000000 29350
Wed Apr 09 00:00:00 GMT 2014 danabuchbinder Red maple Acer rubrum Fruit (Middle) 35.902330000000000 -78.888290000000000 29351
Wed Apr 09 00:00:00 GMT 2014 danabuchbinder Red maple Acer rubrum Leaves Unfolding (None) 35.902330000000000 -78.888290000000000 29342
Wed Apr 09 00:00:00 GMT 2014 danabuchbinder Red maple Acer rubrum Leaves Changing Color (None) 35.902330000000000 -78.888290000000000 29343
Wed Apr 09 00:00:00 GMT 2014 danabuchbinder Red maple Acer rubrum Leaves Dropping (None) 35.902330000000000 -78.888290000000000 29344
Wed Apr 09 00:00:00 GMT 2014 danabuchbinder Red maple Acer rubrum Flowers (None) 35.902330000000000 -78.888290000000000 29345
Wed Apr 09 00:00:00 GMT 2014 danabuchbinder Red maple Acer rubrum Fruit (Middle) 35.902330000000000 -78.888290000000000 29346
Sun Apr 13 00:00:00 GMT 2014 Ballstonspa Red maple Acer rubrum Bud Burst 42.936313000000000 -73.797367000000000 29551
Sun Apr 13 00:00:00 GMT 2014 Ballstonspa Red maple Acer rubrum First Flower 42.936313000000000 -73.797367000000000 29552
Sun Apr 13 00:00:00 GMT 2014 Ballstonspa Red maple Acer rubrum Full Flower 42.936313000000000 -73.797367000000000 29553
Wed Apr 16 00:00:00 GMT 2014 arabella Red maple Acer rubrum Full Flower 41.271000000000000 -76.115700000000000 29589
Sat Apr 19 00:00:00 GMT 2014 becky_whitson Red maple Acer rubrum Full Flower 39.960510000000000 -76.156690000000000 29707
Sat Apr 19 00:00:00 GMT 2014 wca27657 Red maple Acer rubrum Leaves Unfolding (Early) 37.257249000000000 -78.925996000000000 29757
Sat Apr 19 00:00:00 GMT 2014 wca27657 Red maple Acer rubrum Leaves Changing Color (None) 37.257249000000000 -78.925996000000000 29758
Sat Apr 19 00:00:00 GMT 2014 wca27657 Red maple Acer rubrum Leaves Dropping (None) 37.257249000000000 -78.925996000000000 29759
Sat Apr 19 00:00:00 GMT 2014 wca27657 Red maple Acer rubrum Flowers (Late) 37.257249000000000 -78.925996000000000 29760
Sat Apr 19 00:00:00 GMT 2014 wca27657 Red maple Acer rubrum Fruit (None) 37.257249000000000 -78.925996000000000 29761
Tue Apr 01 00:00:00 GMT 2014 SLNC Red maple Acer rubrum Leaves Unfolding (None) 40.116841000000000 -74.863329000000000 30140
Tue Apr 01 00:00:00 GMT 2014 SLNC Red maple Acer rubrum Leaves Changing Color (None) 40.116841000000000 -74.863329000000000 30141
Tue Apr 01 00:00:00 GMT 2014 SLNC Red maple Acer rubrum Leaves Dropping (None) 40.116841000000000 -74.863329000000000 30142
Tue Apr 01 00:00:00 GMT 2014 SLNC Red maple Acer rubrum Flowers (Early) 40.116841000000000 -74.863329000000000 30143
Tue Apr 01 00:00:00 GMT 2014 SLNC Red maple Acer rubrum Fruit (None) 40.116841000000000 -74.863329000000000 30144
Sat Apr 12 00:00:00 GMT 2014 SLNC Red maple Acer rubrum Leaves Unfolding (None) 40.116841000000000 -74.863329000000000 30145
Sat Apr 12 00:00:00 GMT 2014 SLNC Red maple Acer rubrum Leaves Changing Color (None) 40.116841000000000 -74.863329000000000 30146
Sat Apr 12 00:00:00 GMT 2014 SLNC Red maple Acer rubrum Leaves Dropping (None) 40.116841000000000 -74.863329000000000 30147
Sat Apr 12 00:00:00 GMT 2014 SLNC Red maple Acer rubrum Flowers (Middle) 40.116841000000000 -74.863329000000000 30148
Sat Apr 12 00:00:00 GMT 2014 SLNC Red maple Acer rubrum Fruit (None) 40.116841000000000 -74.863329000000000 30149
Tue Feb 25 00:00:00 GMT 2014 SLNC Red maple Acer rubrum Leaves Unfolding (None) 40.116841000000000 -74.863329000000000 30135
Tue Feb 25 00:00:00 GMT 2014 SLNC Red maple Acer rubrum Leaves Changing Color (None) 40.116841000000000 -74.863329000000000 30136
Tue Feb 25 00:00:00 GMT 2014 SLNC Red maple Acer rubrum Leaves Dropping (None) 40.116841000000000 -74.863329000000000 30137
Tue Feb 25 00:00:00 GMT 2014 SLNC Red maple Acer rubrum Flowers (None) 40.116841000000000 -74.863329000000000 30138
Tue Feb 25 00:00:00 GMT 2014 SLNC Red maple Acer rubrum Fruit (None) 40.116841000000000 -74.863329000000000 30139
Tue Apr 22 00:00:00 GMT 2014 YakimaAreaArboretum Red maple Acer rubrum All Leaves Unfolded 46.588100000000000 -120.471000000000000 30263
Tue Apr 22 00:00:00 GMT 2014 woodsedge Red maple Acer rubrum First Leaf 38.565400000000000 -78.926000000000000 30436
Tue Apr 01 00:00:00 GMT 2014 saldavis2000_University_of_Indianapolis_reporter2 Red maple Acer rubrum Bud Burst 39.708050000000000 -86.137350000000000 30435
Sun Apr 06 00:00:00 GMT 2014 saldavis2000_University_of_Indianapolis_reporter1 Red maple Acer rubrum Bud Burst 39.708050000000000 -86.137350000000000 30463
Sun Apr 06 00:00:00 GMT 2014 saldavis2000_University_of_Indianapolis_reporter1 Red maple Acer rubrum First Flower 39.708050000000000 -86.137350000000000 30464
Tue Apr 08 00:00:00 GMT 2014 saldavis2000_University_of_Indianapolis_reporter1 Red maple Acer rubrum Full Flower 39.708050000000000 -86.137350000000000 30465
Sun Apr 20 00:00:00 GMT 2014 AllenMoore Red maple Acer rubrum Bud Burst 35.275000000000000 -83.042100000000000 30533
Sun Apr 27 00:00:00 GMT 2014 madmaeb Red maple Acer rubrum Leaves Unfolding (Early) 35.575650000000000 -78.791220000000000 30681
Sun Apr 27 00:00:00 GMT 2014 madmaeb Red maple Acer rubrum Leaves Changing Color (None) 35.575650000000000 -78.791220000000000 30682
Sun Apr 27 00:00:00 GMT 2014 madmaeb Red maple Acer rubrum Leaves Dropping (None) 35.575650000000000 -78.791220000000000 30683
Sun Apr 27 00:00:00 GMT 2014 madmaeb Red maple Acer rubrum Flowers (None) 35.575650000000000 -78.791220000000000 30684
Sun Apr 27 00:00:00 GMT 2014 madmaeb Red maple Acer rubrum Fruit (None) 35.575650000000000 -78.791220000000000 30685
Wed Apr 23 00:00:00 GMT 2014 saldavis2000_University_of_Indianapolis_reporter3 Red maple Acer rubrum Bud Burst 39.708050000000000 -86.137350000000000 30693
Sun Apr 20 00:00:00 GMT 2014 saldavis2000_University_of_Indianapolis_reporter3 Red maple Acer rubrum First Leaf 39.708050000000000 -86.137350000000000 30694
Mon Apr 28 00:00:00 GMT 2014 wildpansyks Red maple Acer rubrum All Leaves Unfolded 35.046100000000000 -79.152800000000000 30718
Thu Mar 20 00:00:00 GMT 2014 NWACCBudBurst Red maple Acer rubrum Leaves Unfolding (None) 36.358200000000000 -94.172500000000000 30839
Thu Mar 20 00:00:00 GMT 2014 NWACCBudBurst Red maple Acer rubrum Leaves Changing Color (None) 36.358200000000000 -94.172500000000000 30840
Thu Mar 20 00:00:00 GMT 2014 NWACCBudBurst Red maple Acer rubrum Leaves Dropping (None) 36.358200000000000 -94.172500000000000 30841
Thu Mar 20 00:00:00 GMT 2014 NWACCBudBurst Red maple Acer rubrum Flowers (Late) 36.358200000000000 -94.172500000000000 30842
Thu Mar 20 00:00:00 GMT 2014 NWACCBudBurst Red maple Acer rubrum Fruit (Late) 36.358200000000000 -94.172500000000000 30843
Fri Apr 25 00:00:00 GMT 2014 laurob_St._John's_University__reporter15 Red maple Acer rubrum Bud Burst 40.721400000000000 -73.793200000000000 30946
Wed Apr 30 00:00:00 GMT 2014 laurob_St._John's_University__reporter15 Red maple Acer rubrum Leaves Unfolding (None) 40.718912000000000 -73.797548000000000 30947
Wed Apr 30 00:00:00 GMT 2014 laurob_St._John's_University__reporter15 Red maple Acer rubrum Leaves Changing Color (None) 40.718912000000000 -73.797548000000000 30948
Wed Apr 30 00:00:00 GMT 2014 laurob_St._John's_University__reporter15 Red maple Acer rubrum Leaves Dropping (None) 40.718912000000000 -73.797548000000000 30949
Wed Apr 30 00:00:00 GMT 2014 laurob_St._John's_University__reporter15 Red maple Acer rubrum Flowers (None) 40.718912000000000 -73.797548000000000 30950
Wed Apr 30 00:00:00 GMT 2014 laurob_St._John's_University__reporter15 Red maple Acer rubrum Fruit (None) 40.718912000000000 -73.797548000000000 30951
Mon Apr 21 00:00:00 GMT 2014 ecm Red maple Acer rubrum Full Flower 42.056500000000000 -80.103660000000000 31209
Sun Apr 13 00:00:00 GMT 2014 ecm Red maple Acer rubrum First Flower 42.056500000000000 -80.103660000000000 31208
Thu Apr 10 00:00:00 GMT 2014 ecm Red maple Acer rubrum Bud Burst 42.056500000000000 -80.103660000000000 31210
Sun Apr 20 00:00:00 GMT 2014 pghbotanicgarden Red maple Acer rubrum Bud Burst 40.417200000000000 -80.169800000000000 31285
Thu Apr 24 00:00:00 GMT 2014 pghbotanicgarden Red maple Acer rubrum First Leaf 40.417200000000000 -80.169800000000000 31286
Thu Apr 24 00:00:00 GMT 2014 pghbotanicgarden Red maple Acer rubrum First Flower 40.417200000000000 -80.169800000000000 31287
Fri May 02 00:00:00 GMT 2014 woodsedge Red maple Acer rubrum All Leaves Unfolded 38.565400000000000 -78.926000000000000 31367
Thu Apr 10 00:00:00 GMT 2014 Shelbey Red maple Acer rubrum Leaves Unfolding (None) 40.197986000000000 -105.146928000000000 31398
Thu Apr 10 00:00:00 GMT 2014 Shelbey Red maple Acer rubrum Leaves Changing Color (None) 40.197986000000000 -105.146928000000000 31399
Thu Apr 10 00:00:00 GMT 2014 Shelbey Red maple Acer rubrum Leaves Dropping (None) 40.197986000000000 -105.146928000000000 31400
Thu Apr 10 00:00:00 GMT 2014 Shelbey Red maple Acer rubrum Flowers (None) 40.197986000000000 -105.146928000000000 31401
Thu Apr 10 00:00:00 GMT 2014 Shelbey Red maple Acer rubrum Fruit (None) 40.197986000000000 -105.146928000000000 31402
Wed Apr 30 00:00:00 GMT 2014 laurob_St._John's_University__reporter15 Red maple Acer rubrum First Leaf 40.721400000000000 -73.793200000000000 31460
Mon Apr 14 00:00:00 GMT 2014 mgavazzi Red maple Acer rubrum All Leaves Unfolded 35.729700000000000 -78.813700000000000 31521
Sun May 04 00:00:00 GMT 2014 pghbotanicgarden Red maple Acer rubrum All Leaves Unfolded 40.417200000000000 -80.169800000000000 31716
Sun Apr 27 00:00:00 GMT 2014 pghbotanicgarden Red maple Acer rubrum Full Flower 40.417200000000000 -80.169800000000000 31717
Fri May 02 00:00:00 GMT 2014 lafave Red maple Acer rubrum Leaves Unfolding (Late) 35.096530000000000 -81.183130000000000 31749
Fri May 02 00:00:00 GMT 2014 lafave Red maple Acer rubrum Leaves Changing Color (None) 35.096530000000000 -81.183130000000000 31750
Fri May 02 00:00:00 GMT 2014 lafave Red maple Acer rubrum Leaves Dropping (None) 35.096530000000000 -81.183130000000000 31751
Fri May 02 00:00:00 GMT 2014 lafave Red maple Acer rubrum Flowers (None) 35.096530000000000 -81.183130000000000 31752
Fri May 02 00:00:00 GMT 2014 lafave Red maple Acer rubrum Fruit (None) 35.096530000000000 -81.183130000000000 31753
Thu May 01 00:00:00 GMT 2014 Audubon Red maple Acer rubrum First Leaf 40.545200000000000 -79.907400000000000 31870
Mon May 05 00:00:00 GMT 2014 Audubon Red maple Acer rubrum All Leaves Unfolded 40.545200000000000 -79.907400000000000 31871
Sun May 11 00:00:00 GMT 2014 hannah123 Red maple Acer rubrum Leaves Unfolding (Middle) 40.103340000000000 -105.167670000000000 32069
Sun May 11 00:00:00 GMT 2014 hannah123 Red maple Acer rubrum Leaves Changing Color (Early) 40.103340000000000 -105.167670000000000 32070
Sun May 11 00:00:00 GMT 2014 hannah123 Red maple Acer rubrum Leaves Dropping (None) 40.103340000000000 -105.167670000000000 32071
Sun May 11 00:00:00 GMT 2014 hannah123 Red maple Acer rubrum Flowers (None) 40.103340000000000 -105.167670000000000 32072
Sun May 11 00:00:00 GMT 2014 hannah123 Red maple Acer rubrum Fruit (None) 40.103340000000000 -105.167670000000000 32073
Tue May 13 00:00:00 GMT 2014 YakimaAreaArboretum Red maple Acer rubrum First Ripe Fruit 46.588100000000000 -120.471000000000000 32238
Thu May 15 00:00:00 GMT 2014 YakimaAreaArboretum Red maple Acer rubrum Full Fruiting 46.588100000000000 -120.471000000000000 32427
Mon May 12 00:00:00 GMT 2014 collegebioproject Red maple Acer rubrum Leaves Unfolding (Early) 45.314725527000000 -93.981817113000000 32526
Mon May 12 00:00:00 GMT 2014 collegebioproject Red maple Acer rubrum Leaves Changing Color (None) 45.314725527000000 -93.981817113000000 32527
Mon May 12 00:00:00 GMT 2014 collegebioproject Red maple Acer rubrum Leaves Dropping (None) 45.314725527000000 -93.981817113000000 32528
Fri May 16 00:00:00 GMT 2014 collegebioproject Red maple Acer rubrum Leaves Unfolding (Middle) 45.314725527000000 -93.981817113000000 32536
Fri May 16 00:00:00 GMT 2014 collegebioproject Red maple Acer rubrum Leaves Changing Color (None) 45.314725527000000 -93.981817113000000 32537
Mon May 12 00:00:00 GMT 2014 collegebioproject Red maple Acer rubrum Flowers (None) 45.314725527000000 -93.981817113000000 32529
Mon May 12 00:00:00 GMT 2014 collegebioproject Red maple Acer rubrum Fruit (None) 45.314725527000000 -93.981817113000000 32530
Fri May 16 00:00:00 GMT 2014 collegebioproject Red maple Acer rubrum Leaves Dropping (None) 45.314725527000000 -93.981817113000000 32538
Fri May 16 00:00:00 GMT 2014 collegebioproject Red maple Acer rubrum Flowers (None) 45.314725527000000 -93.981817113000000 32539
Fri May 16 00:00:00 GMT 2014 collegebioproject Red maple Acer rubrum Fruit (None) 45.314725527000000 -93.981817113000000 32540
Wed May 07 00:00:00 GMT 2014 collegebioproject Red maple Acer rubrum Leaves Unfolding (None) 45.314725527000000 -93.981817113000000 32516
Wed May 07 00:00:00 GMT 2014 collegebioproject Red maple Acer rubrum Leaves Changing Color (None) 45.314725527000000 -93.981817113000000 32517
Wed May 07 00:00:00 GMT 2014 collegebioproject Red maple Acer rubrum Leaves Dropping (None) 45.314725527000000 -93.981817113000000 32518
Wed May 07 00:00:00 GMT 2014 collegebioproject Red maple Acer rubrum Flowers (None) 45.314725527000000 -93.981817113000000 32519
Wed May 07 00:00:00 GMT 2014 collegebioproject Red maple Acer rubrum Fruit (None) 45.314725527000000 -93.981817113000000 32520
Mon May 05 00:00:00 GMT 2014 collegebioproject Red maple Acer rubrum Leaves Unfolding (None) 45.314725527000000 -93.981817113000000 32511
Mon May 05 00:00:00 GMT 2014 collegebioproject Red maple Acer rubrum Leaves Changing Color (None) 45.314725527000000 -93.981817113000000 32512
Mon May 05 00:00:00 GMT 2014 collegebioproject Red maple Acer rubrum Leaves Dropping (None) 45.314725527000000 -93.981817113000000 32513
Mon May 05 00:00:00 GMT 2014 collegebioproject Red maple Acer rubrum Flowers (None) 45.314725527000000 -93.981817113000000 32514
Mon May 05 00:00:00 GMT 2014 collegebioproject Red maple Acer rubrum Fruit (None) 45.314725527000000 -93.981817113000000 32515
Fri May 09 00:00:00 GMT 2014 collegebioproject Red maple Acer rubrum Leaves Unfolding (Early) 45.314725527000000 -93.981817113000000 32521
Fri May 09 00:00:00 GMT 2014 collegebioproject Red maple Acer rubrum Leaves Changing Color (None) 45.314725527000000 -93.981817113000000 32522
Fri May 09 00:00:00 GMT 2014 collegebioproject Red maple Acer rubrum Leaves Dropping (None) 45.314725527000000 -93.981817113000000 32523
Fri May 09 00:00:00 GMT 2014 collegebioproject Red maple Acer rubrum Flowers (None) 45.314725527000000 -93.981817113000000 32524
Fri May 09 00:00:00 GMT 2014 collegebioproject Red maple Acer rubrum Fruit (None) 45.314725527000000 -93.981817113000000 32525
Mon May 05 00:00:00 GMT 2014 collegebioproject Red maple Acer rubrum Leaves Unfolding (None) 45.223970000000000 -94.015690000000000 32553
Mon May 05 00:00:00 GMT 2014 collegebioproject Red maple Acer rubrum Leaves Changing Color (None) 45.223970000000000 -94.015690000000000 32554
Mon May 05 00:00:00 GMT 2014 collegebioproject Red maple Acer rubrum Leaves Dropping (None) 45.223970000000000 -94.015690000000000 32555
Mon May 05 00:00:00 GMT 2014 collegebioproject Red maple Acer rubrum Flowers (None) 45.223970000000000 -94.015690000000000 32556
Mon May 05 00:00:00 GMT 2014 collegebioproject Red maple Acer rubrum Fruit (None) 45.223970000000000 -94.015690000000000 32557
Wed May 14 00:00:00 GMT 2014 collegebioproject Red maple Acer rubrum Leaves Unfolding (Middle) 45.223970000000000 -94.015690000000000 32573
Wed May 14 00:00:00 GMT 2014 collegebioproject Red maple Acer rubrum Leaves Changing Color (Middle) 45.223970000000000 -94.015690000000000 32574
Wed May 14 00:00:00 GMT 2014 collegebioproject Red maple Acer rubrum Leaves Dropping (None) 45.223970000000000 -94.015690000000000 32575
Fri May 09 00:00:00 GMT 2014 collegebioproject Red maple Acer rubrum Leaves Unfolding (Early) 45.223970000000000 -94.015690000000000 32563
Fri May 09 00:00:00 GMT 2014 collegebioproject Red maple Acer rubrum Leaves Changing Color (None) 45.223970000000000 -94.015690000000000 32564
Fri May 09 00:00:00 GMT 2014 collegebioproject Red maple Acer rubrum Leaves Dropping (None) 45.223970000000000 -94.015690000000000 32565
Fri May 09 00:00:00 GMT 2014 collegebioproject Red maple Acer rubrum Flowers (None) 45.223970000000000 -94.015690000000000 32566
Mon May 12 00:00:00 GMT 2014 collegebioproject Red maple Acer rubrum Leaves Unfolding (Middle) 45.223970000000000 -94.015690000000000 32568
Fri May 16 00:00:00 GMT 2014 collegebioproject Red maple Acer rubrum Leaves Unfolding (Middle) 45.223970000000000 -94.015690000000000 32578
Fri May 16 00:00:00 GMT 2014 collegebioproject Red maple Acer rubrum Leaves Changing Color (Middle) 45.223970000000000 -94.015690000000000 32579
Fri May 16 00:00:00 GMT 2014 collegebioproject Red maple Acer rubrum Leaves Dropping (None) 45.223970000000000 -94.015690000000000 32580
Fri May 09 00:00:00 GMT 2014 collegebioproject Red maple Acer rubrum Fruit (None) 45.223970000000000 -94.015690000000000 32567
Mon May 12 00:00:00 GMT 2014 collegebioproject Red maple Acer rubrum Leaves Changing Color (Early) 45.223970000000000 -94.015690000000000 32569
Mon May 12 00:00:00 GMT 2014 collegebioproject Red maple Acer rubrum Leaves Dropping (None) 45.223970000000000 -94.015690000000000 32570
Fri May 16 00:00:00 GMT 2014 collegebioproject Red maple Acer rubrum Flowers (Middle) 45.223970000000000 -94.015690000000000 32581
Fri May 16 00:00:00 GMT 2014 collegebioproject Red maple Acer rubrum Fruit (None) 45.223970000000000 -94.015690000000000 32582
Mon May 12 00:00:00 GMT 2014 collegebioproject Red maple Acer rubrum Flowers (None) 45.223970000000000 -94.015690000000000 32571
Mon May 12 00:00:00 GMT 2014 collegebioproject Red maple Acer rubrum Fruit (None) 45.223970000000000 -94.015690000000000 32572
Wed May 14 00:00:00 GMT 2014 collegebioproject Red maple Acer rubrum Flowers (Early) 45.223970000000000 -94.015690000000000 32576
Wed May 14 00:00:00 GMT 2014 collegebioproject Red maple Acer rubrum Fruit (None) 45.223970000000000 -94.015690000000000 32577
Wed May 07 00:00:00 GMT 2014 collegebioproject Red maple Acer rubrum Leaves Unfolding (Early) 45.223970000000000 -94.015690000000000 32558
Wed May 07 00:00:00 GMT 2014 collegebioproject Red maple Acer rubrum Leaves Changing Color (None) 45.223970000000000 -94.015690000000000 32559
Wed May 07 00:00:00 GMT 2014 collegebioproject Red maple Acer rubrum Leaves Dropping (None) 45.223970000000000 -94.015690000000000 32560
Wed May 07 00:00:00 GMT 2014 collegebioproject Red maple Acer rubrum Flowers (None) 45.223970000000000 -94.015690000000000 32561
Wed May 07 00:00:00 GMT 2014 collegebioproject Red maple Acer rubrum Fruit (None) 45.223970000000000 -94.015690000000000 32562
Mon May 19 00:00:00 GMT 2014 collegebioproject Red maple Acer rubrum Leaves Unfolding (None) 45.314725527000000 -93.981817113000000 32506
Mon May 19 00:00:00 GMT 2014 collegebioproject Red maple Acer rubrum Leaves Changing Color (None) 45.314725527000000 -93.981817113000000 32507
Mon May 19 00:00:00 GMT 2014 collegebioproject Red maple Acer rubrum Leaves Dropping (None) 45.314725527000000 -93.981817113000000 32508
Mon May 19 00:00:00 GMT 2014 collegebioproject Red maple Acer rubrum Flowers (None) 45.314725527000000 -93.981817113000000 32509
Wed May 14 00:00:00 GMT 2014 collegebioproject Red maple Acer rubrum Leaves Unfolding (Middle) 45.314725527000000 -93.981817113000000 32531
Mon May 19 00:00:00 GMT 2014 collegebioproject Red maple Acer rubrum Fruit (None) 45.314725527000000 -93.981817113000000 32510
Wed May 14 00:00:00 GMT 2014 collegebioproject Red maple Acer rubrum Leaves Changing Color (None) 45.314725527000000 -93.981817113000000 32532
Wed May 14 00:00:00 GMT 2014 collegebioproject Red maple Acer rubrum Leaves Dropping (None) 45.314725527000000 -93.981817113000000 32533
Wed May 14 00:00:00 GMT 2014 collegebioproject Red maple Acer rubrum Flowers (None) 45.314725527000000 -93.981817113000000 32534
Wed May 14 00:00:00 GMT 2014 collegebioproject Red maple Acer rubrum Fruit (None) 45.314725527000000 -93.981817113000000 32535
Mon May 12 00:00:00 GMT 2014 ecm Red maple Acer rubrum First Leaf 42.056500000000000 -80.103660000000000 32595
Mon May 19 00:00:00 GMT 2014 ecm Red maple Acer rubrum All Leaves Unfolded 42.056500000000000 -80.103660000000000 32596
Sat May 10 00:00:00 GMT 2014 Maplerun Red maple Acer rubrum Full Flower 45.696100000000000 -89.633900000000000 32603
Sat Apr 26 00:00:00 GMT 2014 ecm Red maple Acer rubrum Bud Burst 42.056289000000000 -80.100055600000000 32610
Mon May 19 00:00:00 GMT 2014 ecm Red maple Acer rubrum All Leaves Unfolded 42.056289000000000 -80.100055600000000 32611
Sun Apr 06 00:00:00 GMT 2014 ecm Red maple Acer rubrum First Ripe Fruit 42.056289000000000 -80.100055600000000 32612
Wed Apr 23 00:00:00 GMT 2014 ecm Red maple Acer rubrum First Flower 42.056289000000000 -80.100055600000000 32622
Sun Apr 27 00:00:00 GMT 2014 ecm Red maple Acer rubrum Full Flower 42.056289000000000 -80.100055600000000 32623
Mon Apr 21 00:00:00 GMT 2014 tuckerasso Red maple Acer rubrum First Leaf 37.231600000000000 -76.663600000000000 32890
Mon Apr 28 00:00:00 GMT 2014 tuckerasso Red maple Acer rubrum All Leaves Unfolded 37.231600000000000 -76.663600000000000 32891
Tue Feb 25 00:00:00 GMT 2014 tuckerasso Red maple Acer rubrum First Flower 37.231600000000000 -76.663600000000000 32892
Thu Mar 20 00:00:00 GMT 2014 tuckerasso Red maple Acer rubrum Full Flower 37.231600000000000 -76.663600000000000 32893
Thu Apr 10 00:00:00 GMT 2014 tuckerasso Red maple Acer rubrum First Ripe Fruit 37.231600000000000 -76.663600000000000 32894
Sat Apr 19 00:00:00 GMT 2014 tuckerasso Red maple Acer rubrum Full Fruiting 37.231600000000000 -76.663600000000000 32895
Wed May 14 00:00:00 GMT 2014 hyurchenco Red maple Acer rubrum Leaves Unfolding (Middle) 44.820320000000000 -73.091800000000000 32973
Wed May 14 00:00:00 GMT 2014 hyurchenco Red maple Acer rubrum Leaves Changing Color (None) 44.820320000000000 -73.091800000000000 32974
Wed May 14 00:00:00 GMT 2014 hyurchenco Red maple Acer rubrum Leaves Dropping (None) 44.820320000000000 -73.091800000000000 32975
Wed May 14 00:00:00 GMT 2014 hyurchenco Red maple Acer rubrum Flowers (None) 44.820320000000000 -73.091800000000000 32976
Wed May 14 00:00:00 GMT 2014 hyurchenco Red maple Acer rubrum Fruit (None) 44.820320000000000 -73.091800000000000 32977
Sun May 25 00:00:00 GMT 2014 bayfawn Red maple Acer rubrum Full Fruiting 39.448260000000000 -76.267280000000000 33722
Tue Jun 10 00:00:00 GMT 2014 Ballstonspa Red maple Acer rubrum Leaves Unfolding (Early) 42.992120000000000 -73.853070000000000 33817
Tue Jun 10 00:00:00 GMT 2014 Ballstonspa Red maple Acer rubrum Leaves Changing Color (Early) 42.992120000000000 -73.853070000000000 33818
Tue Jun 10 00:00:00 GMT 2014 Ballstonspa Red maple Acer rubrum Leaves Dropping (None) 42.992120000000000 -73.853070000000000 33819
Tue Jun 10 00:00:00 GMT 2014 Ballstonspa Red maple Acer rubrum Flowers (None) 42.992120000000000 -73.853070000000000 33820
Tue Jun 10 00:00:00 GMT 2014 Ballstonspa Red maple Acer rubrum Fruit (None) 42.992120000000000 -73.853070000000000 33821
Tue Jun 10 00:00:00 GMT 2014 Ballstonspa Red maple Acer rubrum Leaves Unfolding (Late) 40.000000000000000 -100.000000000000000 33863
Tue Jun 10 00:00:00 GMT 2014 Ballstonspa Red maple Acer rubrum Leaves Changing Color (None) 40.000000000000000 -100.000000000000000 33864
Tue Jun 10 00:00:00 GMT 2014 Ballstonspa Red maple Acer rubrum Leaves Dropping (None) 40.000000000000000 -100.000000000000000 33865
Tue Jun 10 00:00:00 GMT 2014 Ballstonspa Red maple Acer rubrum Flowers (None) 40.000000000000000 -100.000000000000000 33866
Tue Jun 10 00:00:00 GMT 2014 Ballstonspa Red maple Acer rubrum Fruit (None) 40.000000000000000 -100.000000000000000 33867
Tue Jun 10 00:00:00 GMT 2014 Ballstonspa Red maple Acer rubrum Leaves Unfolding (Late) 42.991200000000000 -73.855540000000000 33909
Tue Jun 10 00:00:00 GMT 2014 Ballstonspa Red maple Acer rubrum Leaves Changing Color (None) 42.991200000000000 -73.855540000000000 33910
Tue Jun 10 00:00:00 GMT 2014 Ballstonspa Red maple Acer rubrum Leaves Dropping (None) 42.991200000000000 -73.855540000000000 33911
Tue Jun 10 00:00:00 GMT 2014 Ballstonspa Red maple Acer rubrum Flowers (None) 42.991200000000000 -73.855540000000000 33912
Tue Jun 10 00:00:00 GMT 2014 Ballstonspa Red maple Acer rubrum Fruit (None) 42.991200000000000 -73.855540000000000 33913
Tue Jun 10 00:00:00 GMT 2014 Ballstonspa Red maple Acer rubrum Leaves Dropping (None) 42.991200000000000 -73.855540000000000 33937
Tue Jun 10 00:00:00 GMT 2014 Ballstonspa Red maple Acer rubrum Flowers (Late) 42.991200000000000 -73.855540000000000 33938
Tue Jun 10 00:00:00 GMT 2014 Ballstonspa Red maple Acer rubrum Fruit (Late) 42.991200000000000 -73.855540000000000 33939
Tue Jun 10 00:00:00 GMT 2014 Ballstonspa Red maple Acer rubrum Leaves Unfolding (Late) 42.991200000000000 -73.855540000000000 33935
Tue Jun 10 00:00:00 GMT 2014 Ballstonspa Red maple Acer rubrum Leaves Changing Color (None) 42.991200000000000 -73.855540000000000 33936
Wed Jun 11 00:00:00 GMT 2014 Ballstonspa Red maple Acer rubrum Leaves Unfolding (Late) 42.991213000000000 -73.852887000000000 33996
Wed Jun 11 00:00:00 GMT 2014 Ballstonspa Red maple Acer rubrum Leaves Changing Color (None) 42.991213000000000 -73.852887000000000 33997
Wed Jun 11 00:00:00 GMT 2014 Ballstonspa Red maple Acer rubrum Leaves Dropping (None) 42.991213000000000 -73.852887000000000 33998
Wed Jun 11 00:00:00 GMT 2014 Ballstonspa Red maple Acer rubrum Flowers (None) 42.991213000000000 -73.852887000000000 33999
Wed Jun 11 00:00:00 GMT 2014 Ballstonspa Red maple Acer rubrum Fruit (None) 42.991213000000000 -73.852887000000000 34000
Fri May 23 00:00:00 GMT 2014 ecm Red maple Acer rubrum First Ripe Fruit 42.056500000000000 -80.103660000000000 34032
Mon May 26 00:00:00 GMT 2014 ecm Red maple Acer rubrum Full Fruiting 42.056500000000000 -80.103660000000000 34033
Fri Jun 13 00:00:00 GMT 2014 Ballstonspa Red maple Acer rubrum Leaves Unfolding (Middle) 43.000910000000000 -73.849010000000000 34057
Fri Jun 13 00:00:00 GMT 2014 Ballstonspa Red maple Acer rubrum Leaves Changing Color (None) 43.000910000000000 -73.849010000000000 34058
Fri Jun 13 00:00:00 GMT 2014 Ballstonspa Red maple Acer rubrum Leaves Dropping (None) 43.000910000000000 -73.849010000000000 34059
Fri Jun 13 00:00:00 GMT 2014 Ballstonspa Red maple Acer rubrum Flowers (None) 43.000910000000000 -73.849010000000000 34060
Fri Jun 13 00:00:00 GMT 2014 Ballstonspa Red maple Acer rubrum Fruit (None) 43.000910000000000 -73.849010000000000 34061
Mon Jun 23 00:00:00 GMT 2014 ctfisher42 Red maple Acer rubrum Leaves Unfolding (Late) 42.400556000000000 -85.401667000000000 34274
Mon Jun 23 00:00:00 GMT 2014 ctfisher42 Red maple Acer rubrum Leaves Changing Color (None) 42.400556000000000 -85.401667000000000 34275
Mon Jun 23 00:00:00 GMT 2014 ctfisher42 Red maple Acer rubrum Leaves Dropping (None) 42.400556000000000 -85.401667000000000 34276
Mon Jun 23 00:00:00 GMT 2014 ctfisher42 Red maple Acer rubrum Flowers (None) 42.400556000000000 -85.401667000000000 34277
Mon Jun 23 00:00:00 GMT 2014 ctfisher42 Red maple Acer rubrum Fruit (None) 42.400556000000000 -85.401667000000000 34278
Mon Jun 23 00:00:00 GMT 2014 jlmcmanus Red maple Acer rubrum Leaves Unfolding (Late) 42.400556000000000 -85.401667000000000 34269
Mon Jun 23 00:00:00 GMT 2014 jlmcmanus Red maple Acer rubrum Leaves Changing Color (None) 42.400556000000000 -85.401667000000000 34270
Mon Jun 23 00:00:00 GMT 2014 jlmcmanus Red maple Acer rubrum Leaves Dropping (None) 42.400556000000000 -85.401667000000000 34271
Mon Jun 23 00:00:00 GMT 2014 jlmcmanus Red maple Acer rubrum Flowers (None) 42.400556000000000 -85.401667000000000 34272
Mon Jun 23 00:00:00 GMT 2014 jlmcmanus Red maple Acer rubrum Fruit (None) 42.400556000000000 -85.401667000000000 34273
Mon Apr 14 00:00:00 GMT 2014 reinsteinwoods Red maple Acer rubrum Bud Burst 42.886600000000000 -78.718100000000000 34357
Sun May 11 00:00:00 GMT 2014 reinsteinwoods Red maple Acer rubrum First Leaf 42.886600000000000 -78.718100000000000 34358
Mon May 26 00:00:00 GMT 2014 reinsteinwoods Red maple Acer rubrum All Leaves Unfolded 42.886600000000000 -78.718100000000000 34359
Mon Apr 14 00:00:00 GMT 2014 reinsteinwoods Red maple Acer rubrum First Flower 42.886600000000000 -78.718100000000000 34360
Thu May 01 00:00:00 GMT 2014 reinsteinwoods Red maple Acer rubrum Full Flower 42.886600000000000 -78.718100000000000 34361
Thu Jun 05 00:00:00 GMT 2014 reinsteinwoods Red maple Acer rubrum First Ripe Fruit 42.886600000000000 -78.718100000000000 34362
Tue Jun 17 00:00:00 GMT 2014 reinsteinwoods Red maple Acer rubrum Full Fruiting 42.886600000000000 -78.718100000000000 34363
Wed Jul 16 00:00:00 GMT 2014 mnswjennifer Red maple Acer rubrum Leaves Unfolding (Late) 45.072690000000000 -92.812090000000000 34561
Wed Jul 16 00:00:00 GMT 2014 mnswjennifer Red maple Acer rubrum Leaves Changing Color (Early) 45.072690000000000 -92.812090000000000 34562
Wed Jul 16 00:00:00 GMT 2014 mnswjennifer Red maple Acer rubrum Leaves Dropping (None) 45.072690000000000 -92.812090000000000 34563
Wed Jul 16 00:00:00 GMT 2014 mnswjennifer Red maple Acer rubrum Flowers (None) 45.072690000000000 -92.812090000000000 34564
Wed Jul 16 00:00:00 GMT 2014 mnswjennifer Red maple Acer rubrum Fruit (None) 45.072690000000000 -92.812090000000000 34565
Mon Mar 31 00:00:00 GMT 2014 SusannahPrindle Red maple Acer rubrum Bud Burst 39.096700000000000 -77.023900000000000 34792
Sat Apr 26 00:00:00 GMT 2014 SusannahPrindle Red maple Acer rubrum First Leaf 39.096700000000000 -77.023900000000000 34793
Sat May 03 00:00:00 GMT 2014 SusannahPrindle Red maple Acer rubrum All Leaves Unfolded 39.096700000000000 -77.023900000000000 34794
Mon Mar 31 00:00:00 GMT 2014 SusannahPrindle Red maple Acer rubrum First Flower 39.096700000000000 -77.023900000000000 34795
Wed Apr 02 00:00:00 GMT 2014 SusannahPrindle Red maple Acer rubrum Full Flower 39.096700000000000 -77.023900000000000 34796
Mon Sep 01 00:00:00 GMT 2014 cbbartle Red maple Acer rubrum All Leaves Unfolded 39.168330000000000 -86.515700000000000 35173
Sun Sep 14 00:00:00 GMT 2014 amberkurowski Red maple Acer rubrum Bud Burst 42.275100000000000 -72.673570000000000 35370
Sun Sep 14 00:00:00 GMT 2014 amberkurowski Red maple Acer rubrum All Leaves Unfolded 42.275100000000000 -72.673570000000000 35371
Mon Sep 22 00:00:00 GMT 2014 isabeleturner Red maple Acer rubrum Leaves Unfolding (None) 36.659840000000000 -79.797210000000000 35627
Mon Sep 22 00:00:00 GMT 2014 isabeleturner Red maple Acer rubrum Leaves Changing Color (None) 36.659840000000000 -79.797210000000000 35628
Mon Sep 22 00:00:00 GMT 2014 isabeleturner Red maple Acer rubrum Leaves Dropping (None) 36.659840000000000 -79.797210000000000 35629
Mon Sep 22 00:00:00 GMT 2014 isabeleturner Red maple Acer rubrum Flowers (None) 36.659840000000000 -79.797210000000000 35630
Mon Sep 22 00:00:00 GMT 2014 isabeleturner Red maple Acer rubrum Fruit (None) 36.659840000000000 -79.797210000000000 35631
Mon Sep 22 00:00:00 GMT 2014 isabeleturner Red maple Acer rubrum Leaves Unfolding (None) 36.659840000000000 -79.797210000000000 35617
Mon Sep 22 00:00:00 GMT 2014 isabeleturner Red maple Acer rubrum Leaves Changing Color (None) 36.659840000000000 -79.797210000000000 35618
Mon Sep 22 00:00:00 GMT 2014 isabeleturner Red maple Acer rubrum Leaves Dropping (None) 36.659840000000000 -79.797210000000000 35619
Mon Sep 22 00:00:00 GMT 2014 isabeleturner Red maple Acer rubrum Flowers (None) 36.659840000000000 -79.797210000000000 35620
Mon Sep 22 00:00:00 GMT 2014 isabeleturner Red maple Acer rubrum Fruit (None) 36.659840000000000 -79.797210000000000 35621
Mon Sep 22 00:00:00 GMT 2014 amberkurowski Red maple Acer rubrum First Leaf 42.275100000000000 -72.673570000000000 35571
Mon Sep 22 00:00:00 GMT 2014 Edwardsharp56_Carlisle_School_reporter5 Red maple Acer rubrum Leaves Unfolding (None) 36.659671000000000 -79.796839000000000 35582
Mon Sep 22 00:00:00 GMT 2014 Edwardsharp56_Carlisle_School_reporter5 Red maple Acer rubrum Leaves Changing Color (None) 36.659671000000000 -79.796839000000000 35583
Mon Sep 22 00:00:00 GMT 2014 Edwardsharp56_Carlisle_School_reporter5 Red maple Acer rubrum Leaves Dropping (None) 36.659671000000000 -79.796839000000000 35584
Mon Sep 22 00:00:00 GMT 2014 Edwardsharp56_Carlisle_School_reporter5 Red maple Acer rubrum Flowers (None) 36.659671000000000 -79.796839000000000 35585
Mon Sep 22 00:00:00 GMT 2014 haleykeys Red maple Acer rubrum Leaves Unfolding (None) 36.659840000000000 -79.797210000000000 35592
Mon Sep 22 00:00:00 GMT 2014 haleykeys Red maple Acer rubrum Leaves Changing Color (None) 36.659840000000000 -79.797210000000000 35593
Mon Sep 22 00:00:00 GMT 2014 haleykeys Red maple Acer rubrum Leaves Dropping (None) 36.659840000000000 -79.797210000000000 35594
Mon Sep 22 00:00:00 GMT 2014 haleykeys Red maple Acer rubrum Flowers (None) 36.659840000000000 -79.797210000000000 35595
Mon Sep 22 00:00:00 GMT 2014 haleykeys Red maple Acer rubrum Fruit (None) 36.659840000000000 -79.797210000000000 35596
Mon Sep 22 00:00:00 GMT 2014 Edwardsharp56_Carlisle_School_reporter5 Red maple Acer rubrum Fruit (None) 36.659671000000000 -79.796839000000000 35586
Sat Sep 27 00:00:00 GMT 2014 esmith0338 Red maple Acer rubrum Leaves Unfolding (None) 37.450940000000000 -86.898570000000000 35719
Sat Sep 27 00:00:00 GMT 2014 esmith0338 Red maple Acer rubrum Leaves Changing Color (None) 37.450940000000000 -86.898570000000000 35720
Sat Sep 27 00:00:00 GMT 2014 esmith0338 Red maple Acer rubrum Leaves Dropping (None) 37.450940000000000 -86.898570000000000 35721
Sat Sep 27 00:00:00 GMT 2014 esmith0338 Red maple Acer rubrum Flowers (None) 37.450940000000000 -86.898570000000000 35722
Sat Sep 27 00:00:00 GMT 2014 esmith0338 Red maple Acer rubrum Fruit (None) 37.450940000000000 -86.898570000000000 35723
Tue Sep 30 00:00:00 GMT 2014 amberkurowski Red maple Acer rubrum First Flower 42.275100000000000 -72.673570000000000 35899
Thu Oct 02 00:00:00 GMT 2014 esmith0338 Red maple Acer rubrum Leaves Unfolding (None) 37.450940000000000 -86.898570000000000 35948
Thu Oct 02 00:00:00 GMT 2014 esmith0338 Red maple Acer rubrum Leaves Changing Color (None) 37.450940000000000 -86.898570000000000 35949
Thu Oct 02 00:00:00 GMT 2014 esmith0338 Red maple Acer rubrum Leaves Dropping (Early) 37.450940000000000 -86.898570000000000 35950
Thu Oct 02 00:00:00 GMT 2014 esmith0338 Red maple Acer rubrum Flowers (None) 37.450940000000000 -86.898570000000000 35951
Thu Oct 02 00:00:00 GMT 2014 esmith0338 Red maple Acer rubrum Fruit (None) 37.450940000000000 -86.898570000000000 35952
Fri Oct 03 00:00:00 GMT 2014 BigMac51 Red maple Acer rubrum Leaves Unfolding (Early) 37.091040000000000 -85.062700000000000 35983
Fri Oct 03 00:00:00 GMT 2014 BigMac51 Red maple Acer rubrum Leaves Changing Color (Early) 37.091040000000000 -85.062700000000000 35984
Fri Oct 03 00:00:00 GMT 2014 BigMac51 Red maple Acer rubrum Leaves Dropping (Early) 37.091040000000000 -85.062700000000000 35985
Fri Oct 03 00:00:00 GMT 2014 BigMac51 Red maple Acer rubrum Flowers (Early) 37.091040000000000 -85.062700000000000 35986
Fri Oct 03 00:00:00 GMT 2014 BigMac51 Red maple Acer rubrum Fruit (Early) 37.091040000000000 -85.062700000000000 35987
Tue Sep 30 00:00:00 GMT 2014 tfadden Red maple Acer rubrum 50% Color 44.155340000000000 -72.083150000000000 35993
Sun Sep 28 00:00:00 GMT 2014 mheine0003 Red maple Acer rubrum Leaves Unfolding (None) 37.167500000000000 -88.585690000000000 36030
Sun Oct 05 00:00:00 GMT 2014 mheine0003 Red maple Acer rubrum Leaves Unfolding (None) 37.167500000000000 -88.585690000000000 36035
Sun Oct 05 00:00:00 GMT 2014 mheine0003 Red maple Acer rubrum Leaves Changing Color (Early) 37.167500000000000 -88.585690000000000 36036
Sun Oct 05 00:00:00 GMT 2014 mheine0003 Red maple Acer rubrum Leaves Dropping (Early) 37.167500000000000 -88.585690000000000 36037
Sun Oct 05 00:00:00 GMT 2014 mheine0003 Red maple Acer rubrum Flowers (None) 37.167500000000000 -88.585690000000000 36038
Sun Sep 28 00:00:00 GMT 2014 mheine0003 Red maple Acer rubrum Leaves Changing Color (Early) 37.167500000000000 -88.585690000000000 36031
Sun Sep 28 00:00:00 GMT 2014 mheine0003 Red maple Acer rubrum Leaves Dropping (Early) 37.167500000000000 -88.585690000000000 36032
Sun Sep 28 00:00:00 GMT 2014 mheine0003 Red maple Acer rubrum Flowers (None) 37.167500000000000 -88.585690000000000 36033
Sun Sep 28 00:00:00 GMT 2014 mheine0003 Red maple Acer rubrum Fruit (None) 37.167500000000000 -88.585690000000000 36034
Sun Oct 05 00:00:00 GMT 2014 mheine0003 Red maple Acer rubrum Fruit (None) 37.167500000000000 -88.585690000000000 36039
Sun Oct 05 00:00:00 GMT 2014 jlsnyder335_4H_reporter19 Red maple Acer rubrum Leaves Unfolding (Late) 36.074290000000000 -79.332100000000000 36138
Sun Oct 05 00:00:00 GMT 2014 jlsnyder335_4H_reporter19 Red maple Acer rubrum Leaves Changing Color (Middle) 36.074290000000000 -79.332100000000000 36139
Sun Oct 05 00:00:00 GMT 2014 jlsnyder335_4H_reporter19 Red maple Acer rubrum Leaves Dropping (Middle) 36.074290000000000 -79.332100000000000 36140
Sun Oct 05 00:00:00 GMT 2014 jlsnyder335_4H_reporter19 Red maple Acer rubrum Flowers (None) 36.074290000000000 -79.332100000000000 36141
Sun Oct 05 00:00:00 GMT 2014 jlsnyder335_4H_reporter19 Red maple Acer rubrum Fruit (None) 36.074290000000000 -79.332100000000000 36142
Mon Oct 06 00:00:00 GMT 2014 isabeleturner Red maple Acer rubrum Leaves Unfolding (None) 36.659840000000000 -79.797210000000000 36232
Mon Oct 06 00:00:00 GMT 2014 isabeleturner Red maple Acer rubrum Leaves Changing Color (None) 36.659840000000000 -79.797210000000000 36233
Mon Oct 06 00:00:00 GMT 2014 isabeleturner Red maple Acer rubrum Leaves Dropping (None) 36.659840000000000 -79.797210000000000 36234
Mon Oct 06 00:00:00 GMT 2014 isabeleturner Red maple Acer rubrum Flowers (None) 36.659840000000000 -79.797210000000000 36235
Mon Oct 06 00:00:00 GMT 2014 isabeleturner Red maple Acer rubrum Fruit (None) 36.659840000000000 -79.797210000000000 36236
Mon Oct 06 00:00:00 GMT 2014 esmith0338 Red maple Acer rubrum Leaves Unfolding (None) 37.450940000000000 -86.898570000000000 36247
Mon Oct 06 00:00:00 GMT 2014 esmith0338 Red maple Acer rubrum Leaves Changing Color (Early) 37.450940000000000 -86.898570000000000 36248
Mon Oct 06 00:00:00 GMT 2014 esmith0338 Red maple Acer rubrum Leaves Dropping (Early) 37.450940000000000 -86.898570000000000 36249
Mon Oct 06 00:00:00 GMT 2014 esmith0338 Red maple Acer rubrum Flowers (None) 37.450940000000000 -86.898570000000000 36250
Mon Oct 06 00:00:00 GMT 2014 esmith0338 Red maple Acer rubrum Fruit (None) 37.450940000000000 -86.898570000000000 36251
Mon Oct 06 00:00:00 GMT 2014 Gmalley19 Red maple Acer rubrum Leaves Unfolding (Middle) 42.427440000000000 -71.319740000000000 36406
Mon Oct 06 00:00:00 GMT 2014 Gmalley19 Red maple Acer rubrum Leaves Changing Color (Middle) 42.427440000000000 -71.319740000000000 36407
Mon Oct 06 00:00:00 GMT 2014 Gmalley19 Red maple Acer rubrum Leaves Dropping (Middle) 42.427440000000000 -71.319740000000000 36408
Mon Oct 06 00:00:00 GMT 2014 Gmalley19 Red maple Acer rubrum Flowers (None) 42.427440000000000 -71.319740000000000 36409
Mon Oct 06 00:00:00 GMT 2014 Gmalley19 Red maple Acer rubrum Fruit (None) 42.427440000000000 -71.319740000000000 36410
Thu Oct 09 00:00:00 GMT 2014 esmith0338 Red maple Acer rubrum Leaves Unfolding (None) 37.453070000000000 -86.898220000000000 36488
Thu Oct 09 00:00:00 GMT 2014 esmith0338 Red maple Acer rubrum Leaves Changing Color (Early) 37.453070000000000 -86.898220000000000 36489
Thu Oct 09 00:00:00 GMT 2014 esmith0338 Red maple Acer rubrum Leaves Dropping (Early) 37.453070000000000 -86.898220000000000 36490
Thu Oct 09 00:00:00 GMT 2014 esmith0338 Red maple Acer rubrum Flowers (None) 37.453070000000000 -86.898220000000000 36491
Thu Oct 09 00:00:00 GMT 2014 esmith0338 Red maple Acer rubrum Fruit (None) 37.453070000000000 -86.898220000000000 36492
Thu Oct 09 00:00:00 GMT 2014 jlsnyder335_4H_reporter18 Red maple Acer rubrum Leaves Unfolding (Middle) 40.000000000000000 -100.000000000000000 36501
Thu Oct 09 00:00:00 GMT 2014 jlsnyder335_4H_reporter18 Red maple Acer rubrum Leaves Changing Color (Early) 40.000000000000000 -100.000000000000000 36502
Thu Oct 09 00:00:00 GMT 2014 jlsnyder335_4H_reporter18 Red maple Acer rubrum Leaves Dropping (Early) 40.000000000000000 -100.000000000000000 36503
Thu Oct 09 00:00:00 GMT 2014 jlsnyder335_4H_reporter18 Red maple Acer rubrum Flowers (None) 40.000000000000000 -100.000000000000000 36504
Thu Oct 09 00:00:00 GMT 2014 jlsnyder335_4H_reporter18 Red maple Acer rubrum Fruit (None) 40.000000000000000 -100.000000000000000 36505
Fri Oct 10 00:00:00 GMT 2014 MAC51 Red maple Acer rubrum Leaves Unfolding (Late) 37.091040000000000 -85.062700000000000 36603
Fri Oct 10 00:00:00 GMT 2014 MAC51 Red maple Acer rubrum Leaves Changing Color (Early) 37.091040000000000 -85.062700000000000 36604
Fri Oct 10 00:00:00 GMT 2014 MAC51 Red maple Acer rubrum Leaves Dropping (None) 37.091040000000000 -85.062700000000000 36605
Fri Oct 10 00:00:00 GMT 2014 MAC51 Red maple Acer rubrum Flowers (Early) 37.091040000000000 -85.062700000000000 36606
Fri Oct 10 00:00:00 GMT 2014 MAC51 Red maple Acer rubrum Fruit (None) 37.091040000000000 -85.062700000000000 36607
Fri Sep 26 00:00:00 GMT 2014 MAC51 Red maple Acer rubrum Leaves Unfolding (Late) 37.091040000000000 -85.062700000000000 36618
Fri Sep 26 00:00:00 GMT 2014 MAC51 Red maple Acer rubrum Leaves Changing Color (None) 37.091040000000000 -85.062700000000000 36619
Fri Sep 26 00:00:00 GMT 2014 MAC51 Red maple Acer rubrum Leaves Dropping (None) 37.091040000000000 -85.062700000000000 36620
Fri Sep 26 00:00:00 GMT 2014 MAC51 Red maple Acer rubrum Flowers (None) 37.091040000000000 -85.062700000000000 36621
Fri Sep 26 00:00:00 GMT 2014 MAC51 Red maple Acer rubrum Fruit (None) 37.091040000000000 -85.062700000000000 36622
Fri Sep 26 00:00:00 GMT 2014 MAC51 Red maple Acer rubrum Leaves Unfolding (Late) 37.091040000000000 -85.062700000000000 36633
Fri Sep 26 00:00:00 GMT 2014 MAC51 Red maple Acer rubrum Leaves Changing Color (None) 37.091040000000000 -85.062700000000000 36634
Fri Sep 26 00:00:00 GMT 2014 MAC51 Red maple Acer rubrum Leaves Dropping (None) 37.091040000000000 -85.062700000000000 36635
Fri Sep 26 00:00:00 GMT 2014 MAC51 Red maple Acer rubrum Flowers (None) 37.091040000000000 -85.062700000000000 36636
Fri Sep 26 00:00:00 GMT 2014 MAC51 Red maple Acer rubrum Fruit (None) 37.091040000000000 -85.062700000000000 36637
Fri Oct 03 00:00:00 GMT 2014 MAC51 Red maple Acer rubrum Leaves Unfolding (Late) 37.091040000000000 -85.062700000000000 36638
Fri Oct 03 00:00:00 GMT 2014 MAC51 Red maple Acer rubrum Leaves Changing Color (Early) 37.091040000000000 -85.062700000000000 36639
Fri Oct 03 00:00:00 GMT 2014 MAC51 Red maple Acer rubrum Leaves Dropping (None) 37.091040000000000 -85.062700000000000 36640
Fri Oct 03 00:00:00 GMT 2014 MAC51 Red maple Acer rubrum Flowers (Early) 37.091040000000000 -85.062700000000000 36641
Fri Oct 03 00:00:00 GMT 2014 MAC51 Red maple Acer rubrum Fruit (Early) 37.091040000000000 -85.062700000000000 36642
Fri Oct 03 00:00:00 GMT 2014 MAC51 Red maple Acer rubrum Leaves Unfolding (Late) 37.091040000000000 -85.062700000000000 36623
Fri Oct 03 00:00:00 GMT 2014 MAC51 Red maple Acer rubrum Leaves Changing Color (Early) 37.091040000000000 -85.062700000000000 36624
Fri Oct 03 00:00:00 GMT 2014 MAC51 Red maple Acer rubrum Leaves Dropping (None) 37.091040000000000 -85.062700000000000 36625
Fri Oct 10 00:00:00 GMT 2014 MAC51 Red maple Acer rubrum Leaves Unfolding (Late) 37.091040000000000 -85.062700000000000 36613
Fri Oct 10 00:00:00 GMT 2014 MAC51 Red maple Acer rubrum Leaves Changing Color (Middle) 37.091040000000000 -85.062700000000000 36614
Fri Oct 10 00:00:00 GMT 2014 MAC51 Red maple Acer rubrum Leaves Dropping (Early) 37.091040000000000 -85.062700000000000 36615
Fri Oct 03 00:00:00 GMT 2014 MAC51 Red maple Acer rubrum Flowers (Early) 37.091040000000000 -85.062700000000000 36626
Fri Oct 03 00:00:00 GMT 2014 MAC51 Red maple Acer rubrum Fruit (Early) 37.091040000000000 -85.062700000000000 36627
Fri Oct 10 00:00:00 GMT 2014 MAC51 Red maple Acer rubrum Leaves Unfolding (Late) 37.091040000000000 -85.062700000000000 36643
Fri Oct 10 00:00:00 GMT 2014 MAC51 Red maple Acer rubrum Flowers (Early) 37.091040000000000 -85.062700000000000 36616
Fri Oct 10 00:00:00 GMT 2014 MAC51 Red maple Acer rubrum Fruit (Middle) 37.091040000000000 -85.062700000000000 36617
Fri Oct 10 00:00:00 GMT 2014 MAC51 Red maple Acer rubrum Leaves Changing Color (Early) 37.091040000000000 -85.062700000000000 36644
Fri Oct 10 00:00:00 GMT 2014 MAC51 Red maple Acer rubrum Leaves Dropping (Early) 37.091040000000000 -85.062700000000000 36645
Fri Oct 10 00:00:00 GMT 2014 MAC51 Red maple Acer rubrum Flowers (Early) 37.091040000000000 -85.062700000000000 36646
Fri Oct 10 00:00:00 GMT 2014 MAC51 Red maple Acer rubrum Fruit (Middle) 37.091040000000000 -85.062700000000000 36647
Fri Oct 10 00:00:00 GMT 2014 MAC51 Red maple Acer rubrum Leaves Unfolding (Late) 37.091040000000000 -85.062700000000000 36628
Fri Oct 10 00:00:00 GMT 2014 MAC51 Red maple Acer rubrum Leaves Changing Color (Early) 37.091040000000000 -85.062700000000000 36629
Fri Oct 10 00:00:00 GMT 2014 MAC51 Red maple Acer rubrum Leaves Dropping (Early) 37.091040000000000 -85.062700000000000 36630
Fri Oct 10 00:00:00 GMT 2014 MAC51 Red maple Acer rubrum Flowers (Early) 37.091040000000000 -85.062700000000000 36631
Fri Oct 10 00:00:00 GMT 2014 MAC51 Red maple Acer rubrum Fruit (Early) 37.091040000000000 -85.062700000000000 36632
Fri Oct 03 00:00:00 GMT 2014 MAC51 Red maple Acer rubrum Leaves Unfolding (Late) 37.091040000000000 -85.062700000000000 36608
Fri Oct 03 00:00:00 GMT 2014 MAC51 Red maple Acer rubrum Leaves Changing Color (Early) 37.091040000000000 -85.062700000000000 36609
Fri Oct 03 00:00:00 GMT 2014 MAC51 Red maple Acer rubrum Leaves Dropping (None) 37.091040000000000 -85.062700000000000 36610
Fri Oct 03 00:00:00 GMT 2014 MAC51 Red maple Acer rubrum Flowers (None) 37.091040000000000 -85.062700000000000 36611
Fri Oct 03 00:00:00 GMT 2014 MAC51 Red maple Acer rubrum Fruit (Early) 37.091040000000000 -85.062700000000000 36612
Fri Oct 10 00:00:00 GMT 2014 esmith0338 Red maple Acer rubrum Leaves Unfolding (None) 37.453070000000000 -86.898220000000000 36703
Fri Oct 10 00:00:00 GMT 2014 esmith0338 Red maple Acer rubrum Leaves Changing Color (Middle) 37.453070000000000 -86.898220000000000 36704
Fri Oct 10 00:00:00 GMT 2014 esmith0338 Red maple Acer rubrum Leaves Dropping (Early) 37.453070000000000 -86.898220000000000 36705
Fri Oct 10 00:00:00 GMT 2014 esmith0338 Red maple Acer rubrum Flowers (None) 37.453070000000000 -86.898220000000000 36706
Fri Oct 10 00:00:00 GMT 2014 esmith0338 Red maple Acer rubrum Fruit (None) 37.453070000000000 -86.898220000000000 36707
Sat Oct 11 00:00:00 GMT 2014 amberkurowski Red maple Acer rubrum Leaves Unfolding (Late) 40.000000000000000 -100.000000000000000 36724
Sat Oct 11 00:00:00 GMT 2014 amberkurowski Red maple Acer rubrum Leaves Changing Color (Middle) 40.000000000000000 -100.000000000000000 36725
Sat Oct 11 00:00:00 GMT 2014 amberkurowski Red maple Acer rubrum Leaves Dropping (None) 40.000000000000000 -100.000000000000000 36726
Sat Oct 11 00:00:00 GMT 2014 amberkurowski Red maple Acer rubrum Flowers (None) 40.000000000000000 -100.000000000000000 36727
Sat Oct 11 00:00:00 GMT 2014 amberkurowski Red maple Acer rubrum Fruit (None) 40.000000000000000 -100.000000000000000 36728
Sun Oct 12 00:00:00 GMT 2014 JBarrett Red maple Acer rubrum Leaves Unfolding (Middle) 36.829790000000000 -84.849110000000000 36784
Sun Oct 12 00:00:00 GMT 2014 JBarrett Red maple Acer rubrum Leaves Changing Color (Late) 36.829790000000000 -84.849110000000000 36785
Sun Oct 12 00:00:00 GMT 2014 JBarrett Red maple Acer rubrum Leaves Dropping (Late) 36.829790000000000 -84.849110000000000 36786
Sun Oct 12 00:00:00 GMT 2014 JBarrett Red maple Acer rubrum Flowers (None) 36.829790000000000 -84.849110000000000 36787
Sun Oct 12 00:00:00 GMT 2014 JBarrett Red maple Acer rubrum Fruit (None) 36.829790000000000 -84.849110000000000 36788
Sun Oct 12 00:00:00 GMT 2014 JBarrett Red maple Acer rubrum Leaves Unfolding (Middle) 36.829790000000000 -84.849110000000000 36794
Sun Oct 12 00:00:00 GMT 2014 JBarrett Red maple Acer rubrum Leaves Changing Color (Late) 36.829790000000000 -84.849110000000000 36795
Sun Oct 12 00:00:00 GMT 2014 JBarrett Red maple Acer rubrum Leaves Dropping (Late) 36.829790000000000 -84.849110000000000 36796
Sun Oct 12 00:00:00 GMT 2014 JBarrett Red maple Acer rubrum Flowers (None) 36.829790000000000 -84.849110000000000 36797
Sun Oct 12 00:00:00 GMT 2014 JBarrett Red maple Acer rubrum Fruit (None) 36.829790000000000 -84.849110000000000 36798
Sun Oct 12 00:00:00 GMT 2014 JBarrett Red maple Acer rubrum Leaves Unfolding (Late) 36.829790000000000 -84.849110000000000 36789
Sun Oct 12 00:00:00 GMT 2014 JBarrett Red maple Acer rubrum Leaves Changing Color (Late) 36.829790000000000 -84.849110000000000 36790
Sun Oct 12 00:00:00 GMT 2014 JBarrett Red maple Acer rubrum Leaves Dropping (Late) 36.829790000000000 -84.849110000000000 36791
Sun Oct 12 00:00:00 GMT 2014 JBarrett Red maple Acer rubrum Flowers (None) 36.829790000000000 -84.849110000000000 36792
Sun Oct 12 00:00:00 GMT 2014 JBarrett Red maple Acer rubrum Fruit (None) 36.829790000000000 -84.849110000000000 36793
Mon Oct 06 00:00:00 GMT 2014 ccullen0009 Red maple Acer rubrum Bud Burst 32.931400000000000 -96.450940000000000 36813
Mon Sep 22 00:00:00 GMT 2014 ccullen0009 Red maple Acer rubrum First Leaf 32.931400000000000 -96.450940000000000 36814
Mon Sep 22 00:00:00 GMT 2014 ccullen0009 Red maple Acer rubrum All Leaves Unfolded 32.931400000000000 -96.450940000000000 36815
Mon Sep 22 00:00:00 GMT 2014 ccullen0009 Red maple Acer rubrum First Flower 32.931400000000000 -96.450940000000000 36816
Mon Sep 29 00:00:00 GMT 2014 ccullen0009 Red maple Acer rubrum Full Flower 32.931400000000000 -96.450940000000000 36817
Mon Oct 06 00:00:00 GMT 2014 ccullen0009 Red maple Acer rubrum Bud Burst 32.931400000000000 -96.450940000000000 36808
Mon Sep 22 00:00:00 GMT 2014 ccullen0009 Red maple Acer rubrum First Leaf 32.931400000000000 -96.450940000000000 36809
Mon Sep 22 00:00:00 GMT 2014 ccullen0009 Red maple Acer rubrum All Leaves Unfolded 32.931400000000000 -96.450940000000000 36810
Mon Sep 22 00:00:00 GMT 2014 ccullen0009 Red maple Acer rubrum First Flower 32.931400000000000 -96.450940000000000 36811
Mon Sep 29 00:00:00 GMT 2014 ccullen0009 Red maple Acer rubrum Full Flower 32.931400000000000 -96.450940000000000 36812
Mon Sep 22 00:00:00 GMT 2014 ccullen0009 Red maple Acer rubrum Leaves Unfolding (Early) 32.931400000000000 -96.450940000000000 36855
Mon Sep 22 00:00:00 GMT 2014 ccullen0009 Red maple Acer rubrum Leaves Changing Color (Early) 32.931400000000000 -96.450940000000000 36856
Mon Sep 22 00:00:00 GMT 2014 ccullen0009 Red maple Acer rubrum Leaves Dropping (None) 32.931400000000000 -96.450940000000000 36857
Mon Sep 22 00:00:00 GMT 2014 ccullen0009 Red maple Acer rubrum Flowers (None) 32.931400000000000 -96.450940000000000 36858
Mon Sep 22 00:00:00 GMT 2014 ccullen0009 Red maple Acer rubrum Fruit (None) 32.931400000000000 -96.450940000000000 36859
Mon Sep 22 00:00:00 GMT 2014 ccullen0009 Red maple Acer rubrum Leaves Unfolding (Early) 32.931400000000000 -96.450940000000000 36865
Mon Sep 22 00:00:00 GMT 2014 ccullen0009 Red maple Acer rubrum Leaves Changing Color (Early) 32.931400000000000 -96.450940000000000 36866
Mon Sep 22 00:00:00 GMT 2014 ccullen0009 Red maple Acer rubrum Leaves Dropping (None) 32.931400000000000 -96.450940000000000 36867
Mon Sep 22 00:00:00 GMT 2014 ccullen0009 Red maple Acer rubrum Flowers (None) 32.931400000000000 -96.450940000000000 36868
Mon Sep 22 00:00:00 GMT 2014 ccullen0009 Red maple Acer rubrum Fruit (None) 32.931400000000000 -96.450940000000000 36869
Mon Sep 22 00:00:00 GMT 2014 ccullen0009 Red maple Acer rubrum Bud Burst 32.931400000000000 -96.450940000000000 36847
Mon Sep 22 00:00:00 GMT 2014 ccullen0009 Red maple Acer rubrum First Leaf 32.931400000000000 -96.450940000000000 36848
Mon Sep 22 00:00:00 GMT 2014 ccullen0009 Red maple Acer rubrum All Leaves Unfolded 32.931400000000000 -96.450940000000000 36849
Mon Sep 22 00:00:00 GMT 2014 ccullen0009 Red maple Acer rubrum Leaves Unfolding (Early) 32.931400000000000 -96.450940000000000 36876
Mon Sep 22 00:00:00 GMT 2014 ccullen0009 Red maple Acer rubrum Leaves Changing Color (Early) 32.931400000000000 -96.450940000000000 36878
Mon Sep 22 00:00:00 GMT 2014 ccullen0009 Red maple Acer rubrum Leaves Dropping (None) 32.931400000000000 -96.450940000000000 36879
Mon Sep 22 00:00:00 GMT 2014 ccullen0009 Red maple Acer rubrum Flowers (None) 32.931400000000000 -96.450940000000000 36880
Mon Sep 22 00:00:00 GMT 2014 ccullen0009 Red maple Acer rubrum Fruit (None) 32.931400000000000 -96.450940000000000 36881
Mon Sep 22 00:00:00 GMT 2014 ccullen0009 Red maple Acer rubrum Bud Burst 32.931400000000000 -96.450940000000000 36823
Mon Sep 22 00:00:00 GMT 2014 ccullen0009 Red maple Acer rubrum First Leaf 32.931400000000000 -96.450940000000000 36824
Mon Sep 22 00:00:00 GMT 2014 ccullen0009 Red maple Acer rubrum All Leaves Unfolded 32.931400000000000 -96.450940000000000 36825
Mon Sep 22 00:00:00 GMT 2014 ccullen0009 Red maple Acer rubrum Bud Burst 32.931400000000000 -96.450940000000000 36831
Mon Sep 22 00:00:00 GMT 2014 ccullen0009 Red maple Acer rubrum First Leaf 32.931400000000000 -96.450940000000000 36832
Mon Sep 22 00:00:00 GMT 2014 ccullen0009 Red maple Acer rubrum All Leaves Unfolded 32.931400000000000 -96.450940000000000 36833
Mon Sep 22 00:00:00 GMT 2014 ccullen0009 Red maple Acer rubrum Bud Burst 32.931400000000000 -96.450940000000000 36839
Mon Sep 22 00:00:00 GMT 2014 ccullen0009 Red maple Acer rubrum First Leaf 32.931400000000000 -96.450940000000000 36840
Mon Sep 22 00:00:00 GMT 2014 ccullen0009 Red maple Acer rubrum All Leaves Unfolded 32.931400000000000 -96.450940000000000 36841
Sat Oct 11 00:00:00 GMT 2014 mheine0003 Red maple Acer rubrum Leaves Unfolding (None) 37.167500000000000 -88.585690000000000 36997
Sat Oct 11 00:00:00 GMT 2014 mheine0003 Red maple Acer rubrum Leaves Changing Color (Early) 37.167500000000000 -88.585690000000000 36998
Sat Oct 11 00:00:00 GMT 2014 mheine0003 Red maple Acer rubrum Leaves Dropping (Middle) 37.167500000000000 -88.585690000000000 36999
Sat Oct 11 00:00:00 GMT 2014 mheine0003 Red maple Acer rubrum Flowers (None) 37.167500000000000 -88.585690000000000 37000
Sat Oct 11 00:00:00 GMT 2014 mheine0003 Red maple Acer rubrum Fruit (None) 37.167500000000000 -88.585690000000000 37001
Mon Oct 13 00:00:00 GMT 2014 esmith0338 Red maple Acer rubrum Leaves Unfolding (None) 37.453070000000000 -86.898220000000000 37070
Mon Oct 13 00:00:00 GMT 2014 esmith0338 Red maple Acer rubrum Leaves Changing Color (Early) 37.453070000000000 -86.898220000000000 37071
Mon Oct 13 00:00:00 GMT 2014 esmith0338 Red maple Acer rubrum Leaves Dropping (Early) 37.453070000000000 -86.898220000000000 37072
Mon Oct 13 00:00:00 GMT 2014 esmith0338 Red maple Acer rubrum Flowers (None) 37.453070000000000 -86.898220000000000 37073
Mon Oct 13 00:00:00 GMT 2014 esmith0338 Red maple Acer rubrum Fruit (None) 37.453070000000000 -86.898220000000000 37074
Thu Oct 09 00:00:00 GMT 2014 mheine0003 Red maple Acer rubrum Leaves Unfolding (None) 37.167500000000000 -88.585690000000000 36971
Thu Oct 09 00:00:00 GMT 2014 mheine0003 Red maple Acer rubrum Leaves Changing Color (Early) 37.167500000000000 -88.585690000000000 36972
Thu Oct 09 00:00:00 GMT 2014 mheine0003 Red maple Acer rubrum Leaves Dropping (Early) 37.167500000000000 -88.585690000000000 36973
Thu Oct 09 00:00:00 GMT 2014 mheine0003 Red maple Acer rubrum Flowers (None) 37.167500000000000 -88.585690000000000 36974
Thu Oct 09 00:00:00 GMT 2014 mheine0003 Red maple Acer rubrum Fruit (None) 37.167500000000000 -88.585690000000000 36975
Tue Oct 14 00:00:00 GMT 2014 AkeshandElisa Red maple Acer rubrum Leaves Unfolding (Late) 42.393300000000000 -71.243100000000000 37165
Tue Oct 14 00:00:00 GMT 2014 AkeshandElisa Red maple Acer rubrum Leaves Changing Color (Middle) 42.393300000000000 -71.243100000000000 37166
Tue Oct 14 00:00:00 GMT 2014 AkeshandElisa Red maple Acer rubrum Leaves Dropping (Middle) 42.393300000000000 -71.243100000000000 37167
Tue Oct 14 00:00:00 GMT 2014 AkeshandElisa Red maple Acer rubrum Flowers (None) 42.393300000000000 -71.243100000000000 37168
Tue Oct 14 00:00:00 GMT 2014 AkeshandElisa Red maple Acer rubrum Fruit (None) 42.393300000000000 -71.243100000000000 37169
Tue Oct 14 00:00:00 GMT 2014 pearswag666 Red maple Acer rubrum Leaves Unfolding (Late) 42.658620000000000 -71.408140000000000 37147
Tue Oct 14 00:00:00 GMT 2014 pearswag666 Red maple Acer rubrum Leaves Changing Color (Late) 42.658620000000000 -71.408140000000000 37148
Tue Oct 14 00:00:00 GMT 2014 pearswag666 Red maple Acer rubrum Leaves Dropping (Middle) 42.658620000000000 -71.408140000000000 37149
Tue Oct 14 00:00:00 GMT 2014 pearswag666 Red maple Acer rubrum Flowers (None) 42.658620000000000 -71.408140000000000 37150
Tue Oct 14 00:00:00 GMT 2014 pearswag666 Red maple Acer rubrum Fruit (None) 42.658620000000000 -71.408140000000000 37151
Tue Oct 14 00:00:00 GMT 2014 spencerjamiecarla Red maple Acer rubrum Leaves Unfolding (Late) 42.657129000000000 -71.408837000000000 37137
Tue Oct 14 00:00:00 GMT 2014 spencerjamiecarla Red maple Acer rubrum Leaves Changing Color (Middle) 42.657129000000000 -71.408837000000000 37138
Tue Oct 14 00:00:00 GMT 2014 spencerjamiecarla Red maple Acer rubrum Leaves Dropping (Middle) 42.657129000000000 -71.408837000000000 37139
Tue Oct 14 00:00:00 GMT 2014 spencerjamiecarla Red maple Acer rubrum Flowers (None) 42.657129000000000 -71.408837000000000 37140
Tue Oct 14 00:00:00 GMT 2014 spencerjamiecarla Red maple Acer rubrum Fruit (None) 42.657129000000000 -71.408837000000000 37141
Tue Oct 14 00:00:00 GMT 2014 phantomzack1 Red maple Acer rubrum Leaves Unfolding (Late) 42.658620000000000 -71.408140000000000 37185
Tue Oct 14 00:00:00 GMT 2014 phantomzack1 Red maple Acer rubrum Leaves Changing Color (Late) 42.658620000000000 -71.408140000000000 37186
Tue Oct 14 00:00:00 GMT 2014 phantomzack1 Red maple Acer rubrum Leaves Dropping (Middle) 42.658620000000000 -71.408140000000000 37187
Tue Oct 14 00:00:00 GMT 2014 phantomzack1 Red maple Acer rubrum Flowers (None) 42.658620000000000 -71.408140000000000 37188
Tue Oct 14 00:00:00 GMT 2014 phantomzack1 Red maple Acer rubrum Fruit (None) 42.658620000000000 -71.408140000000000 37189
Tue Sep 02 00:00:00 GMT 2014 pearswag666 Red maple Acer rubrum Leaves Unfolding (Late) 42.658620000000000 -71.408140000000000 37142
Tue Sep 02 00:00:00 GMT 2014 pearswag666 Red maple Acer rubrum Leaves Changing Color (None) 42.658620000000000 -71.408140000000000 37143
Tue Sep 02 00:00:00 GMT 2014 pearswag666 Red maple Acer rubrum Leaves Dropping (None) 42.658620000000000 -71.408140000000000 37144
Tue Sep 02 00:00:00 GMT 2014 pearswag666 Red maple Acer rubrum Flowers (None) 42.658620000000000 -71.408140000000000 37145
Tue Sep 02 00:00:00 GMT 2014 pearswag666 Red maple Acer rubrum Fruit (None) 42.658620000000000 -71.408140000000000 37146
Tue Sep 02 00:00:00 GMT 2014 spencerjamiecarla Red maple Acer rubrum Leaves Unfolding (Late) 42.657129000000000 -71.408966000000000 37157
Tue Sep 02 00:00:00 GMT 2014 spencerjamiecarla Red maple Acer rubrum Leaves Changing Color (None) 42.657129000000000 -71.408966000000000 37158
Tue Sep 02 00:00:00 GMT 2014 spencerjamiecarla Red maple Acer rubrum Leaves Dropping (None) 42.657129000000000 -71.408966000000000 37159
Tue Sep 02 00:00:00 GMT 2014 spencerjamiecarla Red maple Acer rubrum Flowers (None) 42.657129000000000 -71.408966000000000 37160
Tue Sep 02 00:00:00 GMT 2014 spencerjamiecarla Red maple Acer rubrum Fruit (None) 42.657129000000000 -71.408966000000000 37161
Tue Sep 02 00:00:00 GMT 2014 sarahmayotte Red maple Acer rubrum Leaves Unfolding (Middle) 42.659370000000000 -71.406605000000000 37097
Tue Sep 02 00:00:00 GMT 2014 sarahmayotte Red maple Acer rubrum Leaves Changing Color (None) 42.659370000000000 -71.406605000000000 37098
Tue Sep 02 00:00:00 GMT 2014 sarahmayotte Red maple Acer rubrum Leaves Dropping (None) 42.659370000000000 -71.406605000000000 37099
Tue Sep 02 00:00:00 GMT 2014 sarahmayotte Red maple Acer rubrum Flowers (None) 42.659370000000000 -71.406605000000000 37100
Tue Sep 02 00:00:00 GMT 2014 sarahmayotte Red maple Acer rubrum Fruit (None) 42.659370000000000 -71.406605000000000 37101
Tue Oct 14 00:00:00 GMT 2014 sarahmayotte Red maple Acer rubrum Leaves Unfolding (Late) 42.658620000000000 -71.408140000000000 37102
Tue Oct 14 00:00:00 GMT 2014 sarahmayotte Red maple Acer rubrum Leaves Changing Color (Late) 42.658620000000000 -71.408140000000000 37103
Tue Oct 14 00:00:00 GMT 2014 sarahmayotte Red maple Acer rubrum Leaves Dropping (Middle) 42.658620000000000 -71.408140000000000 37104
Tue Oct 14 00:00:00 GMT 2014 sarahmayotte Red maple Acer rubrum Flowers (None) 42.658620000000000 -71.408140000000000 37105
Tue Oct 14 00:00:00 GMT 2014 sarahmayotte Red maple Acer rubrum Fruit (None) 42.658620000000000 -71.408140000000000 37106
Thu Oct 16 00:00:00 GMT 2014 mcdonaldsbeef Red maple Acer rubrum Leaves Unfolding (None) 42.658620000000000 -71.408140000000000 37377
Thu Oct 16 00:00:00 GMT 2014 mcdonaldsbeef Red maple Acer rubrum Leaves Changing Color (Late) 42.658620000000000 -71.408140000000000 37379
Thu Oct 16 00:00:00 GMT 2014 mcdonaldsbeef Red maple Acer rubrum Leaves Dropping (Late) 42.658620000000000 -71.408140000000000 37381
Thu Oct 16 00:00:00 GMT 2014 mcdonaldsbeef Red maple Acer rubrum Flowers (None) 42.658620000000000 -71.408140000000000 37383
Thu Oct 16 00:00:00 GMT 2014 mcdonaldsbeef Red maple Acer rubrum Fruit (None) 42.658620000000000 -71.408140000000000 37385
Thu Oct 16 00:00:00 GMT 2014 ryanandnora Red maple Acer rubrum Bud Burst 42.656939000000000 -71.409202000000000 37370
Thu Oct 16 00:00:00 GMT 2014 ryanandnora Red maple Acer rubrum 50% Color 42.656939000000000 -71.409202000000000 37371
Thu Oct 16 00:00:00 GMT 2014 ryanandnora Red maple Acer rubrum 50% Leaf Fall 42.656939000000000 -71.409202000000000 37372
Thu Oct 16 00:00:00 GMT 2014 MichaelJohn Red maple Acer rubrum Leaves Unfolding (Late) 42.657223000000000 -71.409051000000000 37349
Thu Oct 16 00:00:00 GMT 2014 MichaelJohn Red maple Acer rubrum Leaves Changing Color (Late) 42.657223000000000 -71.409051000000000 37350
Thu Oct 16 00:00:00 GMT 2014 MichaelJohn Red maple Acer rubrum Leaves Dropping (Middle) 42.657223000000000 -71.409051000000000 37351
Thu Oct 16 00:00:00 GMT 2014 MichaelJohn Red maple Acer rubrum Flowers (None) 42.657223000000000 -71.409051000000000 37352
Thu Oct 16 00:00:00 GMT 2014 MichaelJohn Red maple Acer rubrum Fruit (None) 42.657223000000000 -71.409051000000000 37353
Fri Oct 17 00:00:00 GMT 2014 rshuman Red maple Acer rubrum Leaves Unfolding (Late) 44.712080000000000 -73.615410000000000 37863
Fri Oct 17 00:00:00 GMT 2014 rshuman Red maple Acer rubrum Leaves Changing Color (Late) 44.712080000000000 -73.615410000000000 37864
Fri Oct 17 00:00:00 GMT 2014 rshuman Red maple Acer rubrum Leaves Dropping (Middle) 44.712080000000000 -73.615410000000000 37865
Fri Oct 17 00:00:00 GMT 2014 rshuman Red maple Acer rubrum Flowers (Late) 44.712080000000000 -73.615410000000000 37866
Fri Oct 17 00:00:00 GMT 2014 rshuman Red maple Acer rubrum Fruit (None) 44.712080000000000 -73.615410000000000 37867
Fri Oct 17 00:00:00 GMT 2014 rshuman Red maple Acer rubrum Leaves Unfolding (Late) 44.669140000000000 -73.663090000000000 37793
Fri Oct 17 00:00:00 GMT 2014 rshuman Red maple Acer rubrum Leaves Changing Color (Late) 44.669140000000000 -73.663090000000000 37794
Fri Oct 17 00:00:00 GMT 2014 rshuman Red maple Acer rubrum Leaves Dropping (Middle) 44.669140000000000 -73.663090000000000 37795
Fri Oct 17 00:00:00 GMT 2014 rshuman Red maple Acer rubrum Flowers (None) 44.669140000000000 -73.663090000000000 37796
Fri Oct 17 00:00:00 GMT 2014 rshuman Red maple Acer rubrum Fruit (Late) 44.669140000000000 -73.663090000000000 37797
Fri Oct 17 00:00:00 GMT 2014 rshuman Red maple Acer rubrum Leaves Unfolding (Middle) 44.712670000000000 -73.609550000000000 37670
Fri Oct 17 00:00:00 GMT 2014 rshuman Red maple Acer rubrum Leaves Changing Color (Late) 44.712670000000000 -73.609550000000000 37671
Fri Oct 17 00:00:00 GMT 2014 rshuman Red maple Acer rubrum Leaves Dropping (Middle) 44.712670000000000 -73.609550000000000 37672
Fri Oct 17 00:00:00 GMT 2014 rshuman Red maple Acer rubrum Flowers (None) 44.712670000000000 -73.609550000000000 37673
Fri Oct 17 00:00:00 GMT 2014 rshuman Red maple Acer rubrum Fruit (None) 44.712670000000000 -73.609550000000000 37674
Fri Oct 17 00:00:00 GMT 2014 Jesus Red maple Acer rubrum Leaves Unfolding (Late) 42.658620000000000 -71.408140000000000 38089
Fri Oct 17 00:00:00 GMT 2014 Jesus Red maple Acer rubrum Leaves Changing Color (Late) 42.658620000000000 -71.408140000000000 38090
Fri Oct 17 00:00:00 GMT 2014 Jesus Red maple Acer rubrum Leaves Dropping (Middle) 42.658620000000000 -71.408140000000000 38091
Fri Oct 17 00:00:00 GMT 2014 Jesus Red maple Acer rubrum Flowers (None) 42.658620000000000 -71.408140000000000 38092
Fri Oct 17 00:00:00 GMT 2014 Jesus Red maple Acer rubrum Fruit (None) 42.658620000000000 -71.408140000000000 38093
Wed Sep 03 00:00:00 GMT 2014 Jesus Red maple Acer rubrum Leaves Unfolding (Late) 42.658620000000000 -71.408140000000000 38076
Wed Sep 03 00:00:00 GMT 2014 Jesus Red maple Acer rubrum Leaves Changing Color (Early) 42.658620000000000 -71.408140000000000 38077
Wed Sep 03 00:00:00 GMT 2014 Jesus Red maple Acer rubrum Leaves Dropping (None) 42.658620000000000 -71.408140000000000 38078
Wed Sep 03 00:00:00 GMT 2014 Jesus Red maple Acer rubrum Flowers (None) 42.658620000000000 -71.408140000000000 38079
Wed Sep 03 00:00:00 GMT 2014 Jesus Red maple Acer rubrum Fruit (None) 42.658620000000000 -71.408140000000000 38080
Fri Oct 17 00:00:00 GMT 2014 Owen Red maple Acer rubrum Leaves Unfolding (Late) 42.658620000000000 -71.408140000000000 38099
Fri Oct 17 00:00:00 GMT 2014 Owen Red maple Acer rubrum Leaves Changing Color (Late) 42.658620000000000 -71.408140000000000 38100
Fri Oct 17 00:00:00 GMT 2014 Owen Red maple Acer rubrum Leaves Dropping (Late) 42.658620000000000 -71.408140000000000 38101
Fri Oct 17 00:00:00 GMT 2014 Owen Red maple Acer rubrum Flowers (None) 42.658620000000000 -71.408140000000000 38102
Fri Oct 17 00:00:00 GMT 2014 Owen Red maple Acer rubrum Fruit (None) 42.658620000000000 -71.408140000000000 38103
Sat Oct 11 00:00:00 GMT 2014 rshuman Red maple Acer rubrum Leaves Unfolding (Late) 44.731728000000000 -73.689567000000000 38174
Sat Oct 11 00:00:00 GMT 2014 rshuman Red maple Acer rubrum Leaves Changing Color (Late) 44.731728000000000 -73.689567000000000 38175
Sat Oct 11 00:00:00 GMT 2014 rshuman Red maple Acer rubrum Leaves Dropping (Middle) 44.731728000000000 -73.689567000000000 38176
Sat Oct 11 00:00:00 GMT 2014 rshuman Red maple Acer rubrum Flowers (None) 44.731728000000000 -73.689567000000000 38177
Sat Oct 11 00:00:00 GMT 2014 rshuman Red maple Acer rubrum Fruit (None) 44.731728000000000 -73.689567000000000 38178
Fri Oct 17 00:00:00 GMT 2014 rshuman Red maple Acer rubrum Leaves Unfolding (Late) 40.000000000000000 -100.000000000000000 38060
Fri Oct 17 00:00:00 GMT 2014 rshuman Red maple Acer rubrum Leaves Changing Color (Late) 40.000000000000000 -100.000000000000000 38061
Fri Oct 17 00:00:00 GMT 2014 rshuman Red maple Acer rubrum Leaves Dropping (Late) 40.000000000000000 -100.000000000000000 38062
Fri Oct 17 00:00:00 GMT 2014 rshuman Red maple Acer rubrum Flowers (None) 40.000000000000000 -100.000000000000000 38063
Fri Oct 17 00:00:00 GMT 2014 rshuman Red maple Acer rubrum Fruit (None) 40.000000000000000 -100.000000000000000 38064
Sat Oct 11 00:00:00 GMT 2014 rshuman Red maple Acer rubrum Leaves Unfolding (Late) 44.707910000000000 -73.678620000000000 38153
Sat Oct 11 00:00:00 GMT 2014 rshuman Red maple Acer rubrum Leaves Changing Color (Middle) 44.707910000000000 -73.678620000000000 38154
Sat Oct 11 00:00:00 GMT 2014 rshuman Red maple Acer rubrum Leaves Dropping (Late) 44.707910000000000 -73.678620000000000 38155
Sat Oct 11 00:00:00 GMT 2014 rshuman Red maple Acer rubrum Flowers (None) 44.707910000000000 -73.678620000000000 38156
Sat Oct 11 00:00:00 GMT 2014 rshuman Red maple Acer rubrum Fruit (None) 44.707910000000000 -73.678620000000000 38157
Wed Oct 15 00:00:00 GMT 2014 rshuman Red maple Acer rubrum Leaves Unfolding (Late) 44.615710000000000 -73.785310000000000 37930
Wed Oct 15 00:00:00 GMT 2014 rshuman Red maple Acer rubrum Leaves Changing Color (Late) 44.615710000000000 -73.785310000000000 37931
Wed Oct 15 00:00:00 GMT 2014 rshuman Red maple Acer rubrum Leaves Dropping (Early) 44.615710000000000 -73.785310000000000 37932
Wed Oct 15 00:00:00 GMT 2014 rshuman Red maple Acer rubrum Flowers (None) 44.615710000000000 -73.785310000000000 37933
Wed Oct 15 00:00:00 GMT 2014 rshuman Red maple Acer rubrum Fruit (None) 44.615710000000000 -73.785310000000000 37934
Fri Oct 17 00:00:00 GMT 2014 rshuman Red maple Acer rubrum Leaves Unfolding (Late) 44.693448000000000 -73.664903000000000 37935
Fri Oct 17 00:00:00 GMT 2014 rshuman Red maple Acer rubrum Leaves Changing Color (None) 44.693448000000000 -73.664903000000000 37936
Fri Oct 17 00:00:00 GMT 2014 rshuman Red maple Acer rubrum Leaves Dropping (Late) 44.693448000000000 -73.664903000000000 37937
Fri Oct 17 00:00:00 GMT 2014 rshuman Red maple Acer rubrum Flowers (None) 44.693448000000000 -73.664903000000000 37938
Fri Oct 17 00:00:00 GMT 2014 rshuman Red maple Acer rubrum Fruit (None) 44.693448000000000 -73.664903000000000 37939
Fri Oct 17 00:00:00 GMT 2014 rshuman Red maple Acer rubrum Leaves Unfolding (Late) 44.686180000000000 -73.746620000000000 38282
Fri Oct 17 00:00:00 GMT 2014 rshuman Red maple Acer rubrum Leaves Changing Color (Late) 44.686180000000000 -73.746620000000000 38283
Fri Oct 17 00:00:00 GMT 2014 rshuman Red maple Acer rubrum Leaves Dropping (Late) 44.686180000000000 -73.746620000000000 38284
Fri Oct 17 00:00:00 GMT 2014 rshuman Red maple Acer rubrum Flowers (None) 44.686180000000000 -73.746620000000000 38285
Fri Oct 17 00:00:00 GMT 2014 rshuman Red maple Acer rubrum Fruit (None) 44.686180000000000 -73.746620000000000 38286
Fri Oct 17 00:00:00 GMT 2014 rshuman Red maple Acer rubrum Leaves Unfolding (Late) 44.715200000000000 -73.683100000000000 38189
Fri Oct 17 00:00:00 GMT 2014 rshuman Red maple Acer rubrum Leaves Changing Color (Late) 44.715200000000000 -73.683100000000000 38190
Fri Oct 17 00:00:00 GMT 2014 rshuman Red maple Acer rubrum Leaves Dropping (Late) 44.715200000000000 -73.683100000000000 38191
Fri Oct 17 00:00:00 GMT 2014 rshuman Red maple Acer rubrum Flowers (None) 44.715200000000000 -73.683100000000000 38192
Fri Oct 17 00:00:00 GMT 2014 rshuman Red maple Acer rubrum Fruit (None) 44.715200000000000 -73.683100000000000 38193
Mon Oct 06 00:00:00 GMT 2014 rshuman Red maple Acer rubrum Leaves Unfolding (None) 44.684293000000000 -73.561052000000000 38232
Mon Oct 06 00:00:00 GMT 2014 rshuman Red maple Acer rubrum Leaves Changing Color (Early) 44.684293000000000 -73.561052000000000 38233
Mon Oct 06 00:00:00 GMT 2014 rshuman Red maple Acer rubrum Leaves Dropping (Middle) 44.684293000000000 -73.561052000000000 38234
Mon Oct 06 00:00:00 GMT 2014 rshuman Red maple Acer rubrum Flowers (None) 44.684293000000000 -73.561052000000000 38235
Mon Oct 06 00:00:00 GMT 2014 rshuman Red maple Acer rubrum Fruit (Early) 44.684293000000000 -73.561052000000000 38236
Fri Oct 17 00:00:00 GMT 2014 rshuman Red maple Acer rubrum Leaves Unfolding (Late) 44.699510000000000 -73.728700000000000 38502
Fri Oct 17 00:00:00 GMT 2014 rshuman Red maple Acer rubrum Leaves Changing Color (Late) 44.699510000000000 -73.728700000000000 38503
Fri Oct 17 00:00:00 GMT 2014 rshuman Red maple Acer rubrum Leaves Dropping (Middle) 44.699510000000000 -73.728700000000000 38504
Fri Oct 17 00:00:00 GMT 2014 rshuman Red maple Acer rubrum Flowers (None) 44.699510000000000 -73.728700000000000 38505
Fri Oct 17 00:00:00 GMT 2014 rshuman Red maple Acer rubrum Fruit (None) 44.699510000000000 -73.728700000000000 38506
Wed Oct 15 00:00:00 GMT 2014 rshuman Red maple Acer rubrum Leaves Unfolding (Late) 44.000000000000000 -73.000000000000000 38380
Wed Oct 15 00:00:00 GMT 2014 rshuman Red maple Acer rubrum Leaves Changing Color (Late) 44.000000000000000 -73.000000000000000 38381
Wed Oct 15 00:00:00 GMT 2014 rshuman Red maple Acer rubrum Leaves Dropping (Late) 44.000000000000000 -73.000000000000000 38382
Wed Oct 15 00:00:00 GMT 2014 rshuman Red maple Acer rubrum Flowers (None) 44.000000000000000 -73.000000000000000 38383
Wed Oct 15 00:00:00 GMT 2014 rshuman Red maple Acer rubrum Fruit (None) 44.000000000000000 -73.000000000000000 38384
Fri Oct 17 00:00:00 GMT 2014 amberkurowski Red maple Acer rubrum Leaves Unfolding (Late) 42.275100000000000 -72.673570000000000 38353
Fri Oct 17 00:00:00 GMT 2014 amberkurowski Red maple Acer rubrum Leaves Changing Color (Late) 42.275100000000000 -72.673570000000000 38354
Fri Oct 17 00:00:00 GMT 2014 amberkurowski Red maple Acer rubrum Leaves Dropping (Early) 42.275100000000000 -72.673570000000000 38355
Fri Oct 17 00:00:00 GMT 2014 amberkurowski Red maple Acer rubrum Flowers (None) 42.275100000000000 -72.673570000000000 38356
Fri Oct 17 00:00:00 GMT 2014 amberkurowski Red maple Acer rubrum Fruit (None) 42.275100000000000 -72.673570000000000 38357
Fri Oct 17 00:00:00 GMT 2014 dnewell0002 Red maple Acer rubrum Leaves Unfolding (Late) 37.094500000000000 -88.080300000000000 38790
Fri Oct 17 00:00:00 GMT 2014 dnewell0002 Red maple Acer rubrum Leaves Changing Color (Middle) 37.094500000000000 -88.080300000000000 38791
Fri Oct 17 00:00:00 GMT 2014 dnewell0002 Red maple Acer rubrum Leaves Dropping (Late) 37.094500000000000 -88.080300000000000 38792
Fri Oct 17 00:00:00 GMT 2014 dnewell0002 Red maple Acer rubrum Flowers (None) 37.094500000000000 -88.080300000000000 38793
Fri Oct 17 00:00:00 GMT 2014 dnewell0002 Red maple Acer rubrum Fruit (None) 37.094500000000000 -88.080300000000000 38794
Fri Oct 17 00:00:00 GMT 2014 dnewell0002 Red maple Acer rubrum Leaves Unfolding (Late) 37.094500000000000 -88.080300000000000 38795
Fri Oct 17 00:00:00 GMT 2014 dnewell0002 Red maple Acer rubrum Leaves Changing Color (Middle) 37.094500000000000 -88.080300000000000 38796
Fri Oct 17 00:00:00 GMT 2014 dnewell0002 Red maple Acer rubrum Leaves Dropping (Middle) 37.094500000000000 -88.080300000000000 38797
Fri Oct 17 00:00:00 GMT 2014 dnewell0002 Red maple Acer rubrum Flowers (None) 37.094500000000000 -88.080300000000000 38798
Fri Oct 17 00:00:00 GMT 2014 dnewell0002 Red maple Acer rubrum Fruit (None) 37.094500000000000 -88.080300000000000 38799
Wed Oct 15 00:00:00 GMT 2014 rshuman Red maple Acer rubrum Leaves Unfolding (Late) 44.718106000000000 -73.571479000000000 39029
Wed Oct 15 00:00:00 GMT 2014 rshuman Red maple Acer rubrum Leaves Changing Color (Late) 44.718106000000000 -73.571479000000000 39030
Wed Oct 15 00:00:00 GMT 2014 rshuman Red maple Acer rubrum Leaves Dropping (Middle) 44.718106000000000 -73.571479000000000 39031
Wed Oct 15 00:00:00 GMT 2014 rshuman Red maple Acer rubrum Flowers (None) 44.718106000000000 -73.571479000000000 39032
Wed Oct 15 00:00:00 GMT 2014 rshuman Red maple Acer rubrum Fruit (None) 44.718106000000000 -73.571479000000000 39033
Tue Oct 21 00:00:00 GMT 2014 amberkurowski Red maple Acer rubrum Leaves Unfolding (Late) 40.000000000000000 -100.000000000000000 39165
Tue Oct 21 00:00:00 GMT 2014 amberkurowski Red maple Acer rubrum Leaves Changing Color (Late) 40.000000000000000 -100.000000000000000 39166
Tue Oct 21 00:00:00 GMT 2014 amberkurowski Red maple Acer rubrum Leaves Dropping (Middle) 40.000000000000000 -100.000000000000000 39167
Tue Oct 21 00:00:00 GMT 2014 amberkurowski Red maple Acer rubrum Flowers (None) 40.000000000000000 -100.000000000000000 39168
Tue Oct 21 00:00:00 GMT 2014 amberkurowski Red maple Acer rubrum Fruit (None) 40.000000000000000 -100.000000000000000 39169
Mon Oct 06 00:00:00 GMT 2014 haleykeys Red maple Acer rubrum Leaves Changing Color (Early) 40.000000000000000 -100.000000000000000 39206
Mon Oct 06 00:00:00 GMT 2014 haleykeys Red maple Acer rubrum Leaves Dropping (Early) 40.000000000000000 -100.000000000000000 39207
Mon Oct 06 00:00:00 GMT 2014 haleykeys Red maple Acer rubrum Flowers (None) 40.000000000000000 -100.000000000000000 39208
Mon Oct 06 00:00:00 GMT 2014 haleykeys Red maple Acer rubrum Fruit (None) 40.000000000000000 -100.000000000000000 39209
Wed Oct 22 00:00:00 GMT 2014 isabeleturner Red maple Acer rubrum Leaves Unfolding (None) 36.659840000000000 -79.797210000000000 39175
Wed Oct 22 00:00:00 GMT 2014 isabeleturner Red maple Acer rubrum Leaves Changing Color (Middle) 36.659840000000000 -79.797210000000000 39176
Wed Oct 22 00:00:00 GMT 2014 isabeleturner Red maple Acer rubrum Leaves Dropping (None) 36.659840000000000 -79.797210000000000 39177
Wed Oct 22 00:00:00 GMT 2014 isabeleturner Red maple Acer rubrum Flowers (None) 36.659840000000000 -79.797210000000000 39178
Wed Oct 22 00:00:00 GMT 2014 isabeleturner Red maple Acer rubrum Fruit (None) 36.659840000000000 -79.797210000000000 39179
Wed Oct 22 00:00:00 GMT 2014 haleykeys Red maple Acer rubrum Leaves Unfolding (None) 40.000000000000000 -100.000000000000000 39195
Wed Oct 22 00:00:00 GMT 2014 haleykeys Red maple Acer rubrum Leaves Changing Color (Early) 40.000000000000000 -100.000000000000000 39196
Wed Oct 22 00:00:00 GMT 2014 haleykeys Red maple Acer rubrum Leaves Dropping (Early) 40.000000000000000 -100.000000000000000 39197
Wed Oct 22 00:00:00 GMT 2014 haleykeys Red maple Acer rubrum Flowers (None) 40.000000000000000 -100.000000000000000 39198
Wed Oct 22 00:00:00 GMT 2014 haleykeys Red maple Acer rubrum Fruit (None) 40.000000000000000 -100.000000000000000 39199
Mon Oct 06 00:00:00 GMT 2014 haleykeys Red maple Acer rubrum Leaves Unfolding (None) 40.000000000000000 -100.000000000000000 39205
Mon Oct 27 00:00:00 GMT 2014 YakimaAreaArboretum Red maple Acer rubrum 50% Color 46.588100000000000 -120.471000000000000 39444
Mon Oct 27 00:00:00 GMT 2014 JaxZooEdu Red maple Acer rubrum 50% Color 30.402663000000000 -81.641142000000000 39445
Tue Oct 28 00:00:00 GMT 2014 esmith0338 Red maple Acer rubrum Leaves Unfolding (None) 37.453070000000000 -86.898220000000000 39466
Tue Oct 28 00:00:00 GMT 2014 esmith0338 Red maple Acer rubrum Leaves Changing Color (Late) 37.453070000000000 -86.898220000000000 39467
Tue Oct 28 00:00:00 GMT 2014 esmith0338 Red maple Acer rubrum Leaves Dropping (Middle) 37.453070000000000 -86.898220000000000 39468
Tue Oct 28 00:00:00 GMT 2014 esmith0338 Red maple Acer rubrum Flowers (None) 37.453070000000000 -86.898220000000000 39469
Tue Oct 28 00:00:00 GMT 2014 esmith0338 Red maple Acer rubrum Fruit (None) 37.453070000000000 -86.898220000000000 39470
Tue Oct 28 00:00:00 GMT 2014 woodsedge Red maple Acer rubrum 50% Leaf Fall 38.565400000000000 -78.926000000000000 39521
Thu Oct 30 00:00:00 GMT 2014 amberkurowski Red maple Acer rubrum Leaves Unfolding (Late) 42.275100000000000 -72.673570000000000 39577
Thu Oct 30 00:00:00 GMT 2014 amberkurowski Red maple Acer rubrum Leaves Changing Color (Late) 42.275100000000000 -72.673570000000000 39578
Thu Oct 30 00:00:00 GMT 2014 amberkurowski Red maple Acer rubrum Leaves Dropping (Late) 42.275100000000000 -72.673570000000000 39579
Thu Oct 30 00:00:00 GMT 2014 amberkurowski Red maple Acer rubrum Flowers (None) 42.275100000000000 -72.673570000000000 39580
Thu Oct 30 00:00:00 GMT 2014 amberkurowski Red maple Acer rubrum Fruit (None) 42.275100000000000 -72.673570000000000 39581
Fri Oct 31 00:00:00 GMT 2014 isabeleturner Red maple Acer rubrum Leaves Unfolding (None) 40.000000000000000 -100.000000000000000 39597
Fri Oct 31 00:00:00 GMT 2014 isabeleturner Red maple Acer rubrum Leaves Changing Color (Middle) 40.000000000000000 -100.000000000000000 39598
Fri Oct 31 00:00:00 GMT 2014 isabeleturner Red maple Acer rubrum Leaves Dropping (None) 40.000000000000000 -100.000000000000000 39599
Fri Oct 31 00:00:00 GMT 2014 isabeleturner Red maple Acer rubrum Flowers (None) 40.000000000000000 -100.000000000000000 39600
Fri Oct 31 00:00:00 GMT 2014 isabeleturner Red maple Acer rubrum Fruit (None) 40.000000000000000 -100.000000000000000 39601
Sun Nov 02 00:00:00 GMT 2014 bayfawn Red maple Acer rubrum 50% Color 39.448260000000000 -76.267280000000000 39792
Tue Nov 04 00:00:00 GMT 2014 SRHSscience Red maple Acer rubrum Leaves Unfolding (None) 42.911953000000000 -71.073153000000000 39844
Tue Nov 04 00:00:00 GMT 2014 SRHSscience Red maple Acer rubrum Leaves Changing Color (Early) 42.911953000000000 -71.073153000000000 39845
Tue Nov 04 00:00:00 GMT 2014 SRHSscience Red maple Acer rubrum Leaves Dropping (Early) 42.911953000000000 -71.073153000000000 39846
Tue Nov 04 00:00:00 GMT 2014 SRHSscience Red maple Acer rubrum Flowers (None) 42.911953000000000 -71.073153000000000 39847
Tue Nov 04 00:00:00 GMT 2014 SRHSscience Red maple Acer rubrum Fruit (None) 42.911953000000000 -71.073153000000000 39848
Fri Nov 07 00:00:00 GMT 2014 isabeleturner Red maple Acer rubrum Leaves Unfolding (None) 36.659840000000000 -79.797210000000000 39914
Fri Nov 07 00:00:00 GMT 2014 isabeleturner Red maple Acer rubrum Leaves Changing Color (Late) 36.659840000000000 -79.797210000000000 39915
Fri Nov 07 00:00:00 GMT 2014 isabeleturner Red maple Acer rubrum Leaves Dropping (None) 36.659840000000000 -79.797210000000000 39916
Fri Nov 07 00:00:00 GMT 2014 isabeleturner Red maple Acer rubrum Flowers (None) 36.659840000000000 -79.797210000000000 39917
Fri Nov 07 00:00:00 GMT 2014 isabeleturner Red maple Acer rubrum Fruit (None) 36.659840000000000 -79.797210000000000 39918
Wed Oct 22 00:00:00 GMT 2014 bterry Red maple Acer rubrum 50% Color 46.396000000000000 -116.802000000000000 40024
Wed Oct 01 00:00:00 GMT 2014 reinsteinwoods Red maple Acer rubrum 50% Color 42.886600000000000 -78.718100000000000 40101
Mon Oct 27 00:00:00 GMT 2014 reinsteinwoods Red maple Acer rubrum 50% Leaf Fall 42.886600000000000 -78.718100000000000 40102
Fri Nov 07 00:00:00 GMT 2014 bterry Red maple Acer rubrum 50% Leaf Fall 46.396000000000000 -116.802000000000000 40114
Fri Nov 07 00:00:00 GMT 2014 amberkurowski Red maple Acer rubrum Leaves Unfolding (Late) 42.275100000000000 -72.673570000000000 40096
Fri Nov 07 00:00:00 GMT 2014 amberkurowski Red maple Acer rubrum Leaves Changing Color (Late) 42.275100000000000 -72.673570000000000 40097
Fri Nov 07 00:00:00 GMT 2014 amberkurowski Red maple Acer rubrum Leaves Dropping (Late) 42.275100000000000 -72.673570000000000 40098
Fri Nov 07 00:00:00 GMT 2014 amberkurowski Red maple Acer rubrum Flowers (Late) 42.275100000000000 -72.673570000000000 40099
Fri Nov 07 00:00:00 GMT 2014 amberkurowski Red maple Acer rubrum Fruit (Late) 42.275100000000000 -72.673570000000000 40100
Fri May 02 00:00:00 GMT 2014 SRHSscience Red maple Acer rubrum First Leaf 42.912300000000000 -71.069700000000000 40122
Mon May 05 00:00:00 GMT 2014 SRHSscience Red maple Acer rubrum All Leaves Unfolded 42.912300000000000 -71.069700000000000 40123
Tue May 27 00:00:00 GMT 2014 SRHSscience Red maple Acer rubrum First Ripe Fruit 42.912300000000000 -71.069700000000000 40124
Fri May 30 00:00:00 GMT 2014 SRHSscience Red maple Acer rubrum Full Fruiting 42.912300000000000 -71.069700000000000 40125
Mon Nov 10 00:00:00 GMT 2014 akroplin Red maple Acer rubrum Bud Burst 36.923030000000000 -80.016130000000000 40191
Mon Nov 10 00:00:00 GMT 2014 akroplin Red maple Acer rubrum 50% Color 36.923030000000000 -80.016130000000000 40192
Mon Nov 10 00:00:00 GMT 2014 YakimaAreaArboretum Red maple Acer rubrum 50% Leaf Fall 46.588100000000000 -120.471000000000000 40200
Thu Sep 18 00:00:00 GMT 2014 jpberman Red maple Acer rubrum 50% Color 39.163900000000000 -86.522310000000000 40594
Wed Nov 05 00:00:00 GMT 2014 jpberman Red maple Acer rubrum 50% Leaf Fall 39.163900000000000 -86.522310000000000 40595
Sat Sep 20 00:00:00 GMT 2014 rdpgirl7 Red maple Acer rubrum 50% Color 39.168389000000000 -86.522419000000000 40675
Mon Nov 10 00:00:00 GMT 2014 rdpgirl7 Red maple Acer rubrum 50% Leaf Fall 39.168389000000000 -86.522419000000000 40676
Thu Oct 30 00:00:00 GMT 2014 ashears Red maple Acer rubrum 50% Color 39.167381000000000 -86.511535000000000 40664
Thu Oct 30 00:00:00 GMT 2014 ashears Red maple Acer rubrum 50% Leaf Fall 39.167381000000000 -86.511535000000000 40665
Thu Nov 27 00:00:00 GMT 2014 JaxZooEdu Red maple Acer rubrum 50% Leaf Fall 30.402663000000000 -81.641142000000000 42639
Mon Mar 31 00:00:00 GMT 2014 SusannahPrindle Red maple Acer rubrum Bud Burst 39.096700000000000 -77.023900000000000 42990
Sat Apr 26 00:00:00 GMT 2014 SusannahPrindle Red maple Acer rubrum First Leaf 39.096700000000000 -77.023900000000000 42991
Sat May 03 00:00:00 GMT 2014 SusannahPrindle Red maple Acer rubrum All Leaves Unfolded 39.096700000000000 -77.023900000000000 42992
Mon Mar 31 00:00:00 GMT 2014 SusannahPrindle Red maple Acer rubrum First Flower 39.096700000000000 -77.023900000000000 42993
Wed Apr 02 00:00:00 GMT 2014 SusannahPrindle Red maple Acer rubrum Full Flower 39.096700000000000 -77.023900000000000 42994
Sun Nov 02 00:00:00 GMT 2014 SusannahPrindle Red maple Acer rubrum 50% Color 39.096700000000000 -77.023900000000000 42995
Sat Nov 15 00:00:00 GMT 2014 SusannahPrindle Red maple Acer rubrum 50% Leaf Fall 39.096700000000000 -77.023900000000000 42996
Thu Apr 24 00:00:00 GMT 2014 SLNC Red maple Acer rubrum Leaves Unfolding (Early) 40.114413000000000 -74.862170000000000 43147
Thu Apr 24 00:00:00 GMT 2014 SLNC Red maple Acer rubrum Leaves Unfolding (Early) 40.114413000000000 -74.862170000000000 43148
Thu Apr 24 00:00:00 GMT 2014 SLNC Red maple Acer rubrum Leaves Changing Color (None) 40.114413000000000 -74.862170000000000 43149
Thu Apr 24 00:00:00 GMT 2014 SLNC Red maple Acer rubrum Leaves Changing Color (None) 40.114413000000000 -74.862170000000000 43150
Thu Apr 24 00:00:00 GMT 2014 SLNC Red maple Acer rubrum Leaves Dropping (None) 40.114413000000000 -74.862170000000000 43151
Thu Apr 24 00:00:00 GMT 2014 SLNC Red maple Acer rubrum Leaves Dropping (None) 40.114413000000000 -74.862170000000000 43152
Thu Apr 24 00:00:00 GMT 2014 SLNC Red maple Acer rubrum Flowers (Late) 40.114413000000000 -74.862170000000000 43153
Thu Apr 24 00:00:00 GMT 2014 SLNC Red maple Acer rubrum Fruit (Early) 40.114413000000000 -74.862170000000000 43154
Thu Apr 24 00:00:00 GMT 2014 SLNC Red maple Acer rubrum Flowers (Late) 40.114413000000000 -74.862170000000000 43155
Thu Apr 24 00:00:00 GMT 2014 SLNC Red maple Acer rubrum Fruit (Early) 40.114413000000000 -74.862170000000000 43156
Thu Nov 06 00:00:00 GMT 2014 SLNC Red maple Acer rubrum Leaves Unfolding (Late) 40.114413000000000 -74.862170000000000 43132
Thu Nov 06 00:00:00 GMT 2014 SLNC Red maple Acer rubrum Leaves Changing Color (Late) 40.114413000000000 -74.862170000000000 43133
Thu Nov 06 00:00:00 GMT 2014 SLNC Red maple Acer rubrum Leaves Dropping (None) 40.114413000000000 -74.862170000000000 43134
Thu Nov 06 00:00:00 GMT 2014 SLNC Red maple Acer rubrum Flowers (None) 40.114413000000000 -74.862170000000000 43135
Thu Nov 06 00:00:00 GMT 2014 SLNC Red maple Acer rubrum Fruit (None) 40.114413000000000 -74.862170000000000 43136
Tue Apr 01 00:00:00 GMT 2014 SLNC Red maple Acer rubrum Leaves Unfolding (None) 40.114413000000000 -74.862170000000000 43137
Tue Apr 01 00:00:00 GMT 2014 SLNC Red maple Acer rubrum Leaves Changing Color (None) 40.114413000000000 -74.862170000000000 43138
Tue Apr 01 00:00:00 GMT 2014 SLNC Red maple Acer rubrum Leaves Dropping (None) 40.114413000000000 -74.862170000000000 43139
Tue Apr 01 00:00:00 GMT 2014 SLNC Red maple Acer rubrum Flowers (Early) 40.114413000000000 -74.862170000000000 43140
Tue Apr 01 00:00:00 GMT 2014 SLNC Red maple Acer rubrum Fruit (None) 40.114413000000000 -74.862170000000000 43141
Wed Apr 09 00:00:00 GMT 2014 SLNC Red maple Acer rubrum Leaves Unfolding (None) 40.114413000000000 -74.862170000000000 43142
Wed Apr 09 00:00:00 GMT 2014 SLNC Red maple Acer rubrum Leaves Changing Color (None) 40.114413000000000 -74.862170000000000 43143
Wed Apr 09 00:00:00 GMT 2014 SLNC Red maple Acer rubrum Leaves Dropping (None) 40.114413000000000 -74.862170000000000 43144
Wed Apr 09 00:00:00 GMT 2014 SLNC Red maple Acer rubrum Flowers (Late) 40.114413000000000 -74.862170000000000 43145
Wed Apr 09 00:00:00 GMT 2014 SLNC Red maple Acer rubrum Fruit (None) 40.114413000000000 -74.862170000000000 43146
Sat May 10 00:00:00 GMT 2014 SLNC Red maple Acer rubrum Leaves Unfolding (Middle) 40.114774000000000 -74.862041000000000 43238
Sat May 10 00:00:00 GMT 2014 SLNC Red maple Acer rubrum Leaves Changing Color (None) 40.114774000000000 -74.862041000000000 43239
Sat May 10 00:00:00 GMT 2014 SLNC Red maple Acer rubrum Leaves Dropping (None) 40.114774000000000 -74.862041000000000 43240
Sat May 10 00:00:00 GMT 2014 SLNC Red maple Acer rubrum Flowers (Late) 40.114774000000000 -74.862041000000000 43241
Sat May 10 00:00:00 GMT 2014 SLNC Red maple Acer rubrum Fruit (Middle) 40.114774000000000 -74.862041000000000 43242
Sun Feb 01 00:00:00 GMT 2015 jcrusesanders Red maple Acer rubrum Leaves Unfolding (Early) 32.158175000000000 -82.897339000000000 43304
Sun Feb 01 00:00:00 GMT 2015 jcrusesanders Red maple Acer rubrum Leaves Changing Color (None) 32.158175000000000 -82.897339000000000 43305
Sun Feb 01 00:00:00 GMT 2015 jcrusesanders Red maple Acer rubrum Leaves Dropping (None) 32.158175000000000 -82.897339000000000 43306
Sun Feb 01 00:00:00 GMT 2015 jcrusesanders Red maple Acer rubrum Flowers (None) 32.158175000000000 -82.897339000000000 43307
Sun Feb 01 00:00:00 GMT 2015 jcrusesanders Red maple Acer rubrum Fruit (None) 32.158175000000000 -82.897339000000000 43308
Wed Jan 28 00:00:00 GMT 2015 JaxZooEdu Red maple Acer rubrum First Ripe Fruit 30.402663000000000 -81.641142000000000 43398
Tue Feb 10 00:00:00 GMT 2015 StinaDee Red maple Acer rubrum Leaves Unfolding (None) 30.401375000000000 -81.643245000000000 43581
Tue Feb 10 00:00:00 GMT 2015 StinaDee Red maple Acer rubrum Leaves Changing Color (None) 30.401375000000000 -81.643245000000000 43582
Tue Feb 10 00:00:00 GMT 2015 StinaDee Red maple Acer rubrum Leaves Dropping (None) 30.401375000000000 -81.643245000000000 43583
Tue Feb 10 00:00:00 GMT 2015 StinaDee Red maple Acer rubrum Flowers (None) 30.401375000000000 -81.643245000000000 43584
Tue Feb 10 00:00:00 GMT 2015 StinaDee Red maple Acer rubrum Fruit (Early) 30.401375000000000 -81.643245000000000 43585
Mon Jan 26 00:00:00 GMT 2015 jcrusesanders Red maple Acer rubrum Leaves Unfolding (None) 33.832780000000000 -84.304320000000000 43708
Mon Jan 26 00:00:00 GMT 2015 jcrusesanders Red maple Acer rubrum Leaves Changing Color (None) 33.832780000000000 -84.304320000000000 43709
Mon Jan 26 00:00:00 GMT 2015 jcrusesanders Red maple Acer rubrum Leaves Dropping (None) 33.832780000000000 -84.304320000000000 43710
Mon Jan 26 00:00:00 GMT 2015 jcrusesanders Red maple Acer rubrum Flowers (None) 33.832780000000000 -84.304320000000000 43711
Mon Jan 26 00:00:00 GMT 2015 jcrusesanders Red maple Acer rubrum Fruit (None) 33.832780000000000 -84.304320000000000 43712
Sat May 31 00:00:00 GMT 2014 mpgooley Red maple Acer rubrum Full Fruiting 42.355500000000000 -71.249000000000000 44570
Sat Oct 04 00:00:00 GMT 2014 mpgooley Red maple Acer rubrum 50% Color 42.355500000000000 -71.249000000000000 44571
Mon Oct 13 00:00:00 GMT 2014 mpgooley Red maple Acer rubrum 50% Leaf Fall 42.355500000000000 -71.249000000000000 44572
Fri Mar 06 00:00:00 GMT 2015 botanicalmoment Red maple Acer rubrum First Flower 36.232424000000000 -79.185376000000000 44623
Fri Mar 06 00:00:00 GMT 2015 botanicalmoment Red maple Acer rubrum Bud Burst 36.232424000000000 -79.185376000000000 44618
Tue Feb 24 00:00:00 GMT 2015 bterry Red maple Acer rubrum Bud Burst 46.396000000000000 -116.802000000000000 44797
Wed Mar 11 00:00:00 GMT 2015 bterry Red maple Acer rubrum Full Flower 46.396000000000000 -116.802000000000000 44798
Wed Mar 12 00:00:00 GMT 2014 bterry Red maple Acer rubrum Leaves Unfolding (None) 46.395963000000000 -116.801684000000000 44818
Wed Mar 12 00:00:00 GMT 2014 bterry Red maple Acer rubrum Leaves Changing Color (None) 46.395963000000000 -116.801684000000000 44819
Wed Mar 12 00:00:00 GMT 2014 bterry Red maple Acer rubrum Leaves Dropping (None) 46.395963000000000 -116.801684000000000 44820
Wed Mar 12 00:00:00 GMT 2014 bterry Red maple Acer rubrum Flowers (None) 46.395963000000000 -116.801684000000000 44821
Wed Mar 12 00:00:00 GMT 2014 bterry Red maple Acer rubrum Fruit (None) 46.395963000000000 -116.801684000000000 44822
Wed Mar 11 00:00:00 GMT 2015 botanicalmoment Red maple Acer rubrum Full Flower 36.232424000000000 -79.185376000000000 44788
Thu Mar 12 00:00:00 GMT 2015 ncaquarium-ri Red maple Acer rubrum First Flower 35.927500000000000 -75.723500000000000 45007
Mon Mar 16 00:00:00 GMT 2015 O2Factories Red maple Acer rubrum Leaves Unfolding (None) 35.896276300000000 -86.410090300000000 45109
Mon Mar 16 00:00:00 GMT 2015 O2Factories Red maple Acer rubrum Leaves Changing Color (None) 35.896276300000000 -86.410090300000000 45110
Mon Mar 16 00:00:00 GMT 2015 O2Factories Red maple Acer rubrum Leaves Dropping (None) 35.896276300000000 -86.410090300000000 45111
Mon Mar 16 00:00:00 GMT 2015 O2Factories Red maple Acer rubrum Flowers (Early) 35.896276300000000 -86.410090300000000 45112
Mon Mar 16 00:00:00 GMT 2015 O2Factories Red maple Acer rubrum Fruit (None) 35.896276300000000 -86.410090300000000 45113
Sun Mar 08 00:00:00 GMT 2015 mrpicasso Red maple Acer rubrum Bud Burst 37.356080000000000 -121.902120000000000 45169
Sun Mar 15 00:00:00 GMT 2015 mrpicasso Red maple Acer rubrum First Leaf 37.356080000000000 -121.902120000000000 45170
Mon Mar 16 00:00:00 GMT 2015 mrpicasso Red maple Acer rubrum First Flower 37.356080000000000 -121.902120000000000 45171
Sat Mar 21 00:00:00 GMT 2015 LizSE Red maple Acer rubrum Leaves Unfolding (None) 38.219587000000000 -78.643035000000000 45233
Sat Mar 21 00:00:00 GMT 2015 LizSE Red maple Acer rubrum Leaves Changing Color (None) 38.219587000000000 -78.643035000000000 45234
Sat Mar 21 00:00:00 GMT 2015 LizSE Red maple Acer rubrum Leaves Dropping (None) 38.219587000000000 -78.643035000000000 45235
Sat Mar 21 00:00:00 GMT 2015 LizSE Red maple Acer rubrum Flowers (Middle) 38.219587000000000 -78.643035000000000 45236
Sat Mar 21 00:00:00 GMT 2015 LizSE Red maple Acer rubrum Fruit (None) 38.219587000000000 -78.643035000000000 45237
Mon Mar 16 00:00:00 GMT 2015 Angelyn Red maple Acer rubrum Bud Burst 35.619100000000000 -82.765100000000000 45259
Thu Mar 26 00:00:00 GMT 2015 hern1770 Red maple Acer rubrum Leaves Unfolding (None) 39.533340000000000 -95.148730000000000 45368
Thu Mar 26 00:00:00 GMT 2015 hern1770 Red maple Acer rubrum Leaves Changing Color (None) 39.533340000000000 -95.148730000000000 45369
Thu Mar 26 00:00:00 GMT 2015 hern1770 Red maple Acer rubrum Leaves Dropping (None) 39.533340000000000 -95.148730000000000 45370
Thu Mar 26 00:00:00 GMT 2015 hern1770 Red maple Acer rubrum Flowers (Middle) 39.533340000000000 -95.148730000000000 45371
Thu Mar 26 00:00:00 GMT 2015 hern1770 Red maple Acer rubrum Fruit (None) 39.533340000000000 -95.148730000000000 45372
Thu Mar 26 00:00:00 GMT 2015 meghan21 Red maple Acer rubrum Leaves Unfolding (None) 40.000000000000000 -100.000000000000000 45396
Thu Mar 26 00:00:00 GMT 2015 meghan21 Red maple Acer rubrum Leaves Changing Color (None) 40.000000000000000 -100.000000000000000 45397
Thu Mar 26 00:00:00 GMT 2015 meghan21 Red maple Acer rubrum Leaves Dropping (None) 40.000000000000000 -100.000000000000000 45398
Thu Mar 26 00:00:00 GMT 2015 meghan21 Red maple Acer rubrum Flowers (Middle) 40.000000000000000 -100.000000000000000 45399
Thu Mar 26 00:00:00 GMT 2015 meghan21 Red maple Acer rubrum Fruit (None) 40.000000000000000 -100.000000000000000 45400
Thu Mar 26 00:00:00 GMT 2015 phillycitsci Red maple Acer rubrum Bud Burst 40.110790000000000 -75.208740000000000 45402
Sun Mar 29 00:00:00 GMT 2015 bayfawn Red maple Acer rubrum Bud Burst 39.448260000000000 -76.267280000000000 45473
Fri Mar 20 00:00:00 GMT 2015 kikrowe Red maple Acer rubrum Bud Burst 41.664449000000000 -86.221089000000000 45505
Wed Apr 01 00:00:00 GMT 2015 joellenr22 Red maple Acer rubrum Leaves Unfolding (None) 42.365610000000000 -83.631250000000000 45564
Wed Apr 01 00:00:00 GMT 2015 joellenr22 Red maple Acer rubrum Leaves Changing Color (None) 42.365610000000000 -83.631250000000000 45565
Wed Apr 01 00:00:00 GMT 2015 joellenr22 Red maple Acer rubrum Leaves Dropping (None) 42.365610000000000 -83.631250000000000 45566
Wed Apr 01 00:00:00 GMT 2015 joellenr22 Red maple Acer rubrum Flowers (Middle) 42.365610000000000 -83.631250000000000 45567
Wed Apr 01 00:00:00 GMT 2015 joellenr22 Red maple Acer rubrum Fruit (None) 42.365610000000000 -83.631250000000000 45568
Thu Apr 02 00:00:00 GMT 2015 dellgirl01 Red maple Acer rubrum Bud Burst 39.371180000000000 -76.795170000000000 45594
Sat Apr 04 00:00:00 GMT 2015 ThacherStatePark Red maple Acer rubrum Bud Burst 42.659370000000000 -74.042670000000000 45635
Mon Apr 06 00:00:00 GMT 2015 susansteinermhs Red maple Acer rubrum First Leaf 35.100330000000000 -84.016310000000000 45970
Mon Apr 06 00:00:00 GMT 2015 JohnN Red maple Acer rubrum Bud Burst 40.130197000000000 -74.214551000000000 45987
Wed Apr 08 00:00:00 GMT 2015 kretzingera1 Red maple Acer rubrum Leaves Unfolding (Early) 41.408030000000000 -92.916400000000000 46030
Wed Apr 08 00:00:00 GMT 2015 kretzingera1 Red maple Acer rubrum Leaves Changing Color (Early) 41.408030000000000 -92.916400000000000 46031
Wed Apr 08 00:00:00 GMT 2015 kretzingera1 Red maple Acer rubrum Leaves Dropping (None) 41.408030000000000 -92.916400000000000 46032
Wed Apr 08 00:00:00 GMT 2015 kretzingera1 Red maple Acer rubrum Flowers (None) 41.408030000000000 -92.916400000000000 46033
Wed Apr 08 00:00:00 GMT 2015 kretzingera1 Red maple Acer rubrum Fruit (None) 41.408030000000000 -92.916400000000000 46034
Wed Apr 08 00:00:00 GMT 2015 jensena2 Red maple Acer rubrum Leaves Unfolding (Early) 41.408030000000000 -92.916400000000000 46035
Wed Apr 08 00:00:00 GMT 2015 jensena2 Red maple Acer rubrum Leaves Changing Color (Early) 41.408030000000000 -92.916400000000000 46036
Wed Apr 08 00:00:00 GMT 2015 jensena2 Red maple Acer rubrum Leaves Dropping (None) 41.408030000000000 -92.916400000000000 46037
Wed Apr 08 00:00:00 GMT 2015 jensena2 Red maple Acer rubrum Flowers (None) 41.408030000000000 -92.916400000000000 46038
Wed Apr 08 00:00:00 GMT 2015 jensena2 Red maple Acer rubrum Fruit (None) 41.408030000000000 -92.916400000000000 46039
Mon Apr 06 00:00:00 GMT 2015 mnswjennifer Red maple Acer rubrum Bud Burst 45.072690000000000 -92.812090000000000 46061
Sat Mar 28 00:00:00 GMT 2015 woodsedge Red maple Acer rubrum Full Flower 38.565400000000000 -78.926000000000000 46067
Sat Apr 04 00:00:00 GMT 2015 amt27 Red maple Acer rubrum Bud Burst 40.264700000000000 -74.955800000000000 46231
Fri Apr 10 00:00:00 GMT 2015 amt27 Red maple Acer rubrum Full Flower 40.264700000000000 -74.955800000000000 46232
Thu Apr 09 00:00:00 GMT 2015 AutiliaS Red maple Acer rubrum Leaves Unfolding (None) 40.959549000000000 -72.849591000000000 46280
Thu Apr 09 00:00:00 GMT 2015 AutiliaS Red maple Acer rubrum Leaves Changing Color (None) 40.959549000000000 -72.849591000000000 46281
Thu Apr 09 00:00:00 GMT 2015 AutiliaS Red maple Acer rubrum Leaves Dropping (None) 40.959549000000000 -72.849591000000000 46282
Thu Apr 09 00:00:00 GMT 2015 AutiliaS Red maple Acer rubrum Flowers (None) 40.959549000000000 -72.849591000000000 46283
Thu Apr 09 00:00:00 GMT 2015 AutiliaS Red maple Acer rubrum Fruit (None) 40.959549000000000 -72.849591000000000 46284
Fri Apr 10 00:00:00 GMT 2015 AutiliaS Red maple Acer rubrum Leaves Unfolding (None) 40.959484000000000 -72.849720000000000 46270
Fri Apr 10 00:00:00 GMT 2015 AutiliaS Red maple Acer rubrum Leaves Changing Color (None) 40.959484000000000 -72.849720000000000 46271
Fri Apr 10 00:00:00 GMT 2015 AutiliaS Red maple Acer rubrum Leaves Dropping (None) 40.959484000000000 -72.849720000000000 46272
Fri Apr 10 00:00:00 GMT 2015 AutiliaS Red maple Acer rubrum Flowers (None) 40.959484000000000 -72.849720000000000 46273
Fri Apr 10 00:00:00 GMT 2015 AutiliaS Red maple Acer rubrum Fruit (None) 40.959484000000000 -72.849720000000000 46274
Sat Apr 11 00:00:00 GMT 2015 AutiliaS Red maple Acer rubrum Leaves Unfolding (None) 40.959387000000000 -72.849591000000000 46275
Sat Apr 11 00:00:00 GMT 2015 AutiliaS Red maple Acer rubrum Leaves Changing Color (None) 40.959387000000000 -72.849591000000000 46276
Sat Apr 11 00:00:00 GMT 2015 AutiliaS Red maple Acer rubrum Leaves Dropping (None) 40.959387000000000 -72.849591000000000 46277
Sat Apr 11 00:00:00 GMT 2015 AutiliaS Red maple Acer rubrum Flowers (None) 40.959387000000000 -72.849591000000000 46278
Sat Apr 11 00:00:00 GMT 2015 AutiliaS Red maple Acer rubrum Fruit (None) 40.959387000000000 -72.849591000000000 46279
Sun Apr 12 00:00:00 GMT 2015 kfedoyle Red maple Acer rubrum Leaves Unfolding (None) 39.164280000000000 -86.524260000000000 46349
Sun Apr 12 00:00:00 GMT 2015 kfedoyle Red maple Acer rubrum Leaves Changing Color (None) 39.164280000000000 -86.524260000000000 46350
Sun Apr 12 00:00:00 GMT 2015 kfedoyle Red maple Acer rubrum Leaves Dropping (None) 39.164280000000000 -86.524260000000000 46351
Sun Apr 12 00:00:00 GMT 2015 kfedoyle Red maple Acer rubrum Flowers (None) 39.164280000000000 -86.524260000000000 46352
Sun Apr 12 00:00:00 GMT 2015 kfedoyle Red maple Acer rubrum Fruit (None) 39.164280000000000 -86.524260000000000 46353
Sun Apr 12 00:00:00 GMT 2015 lcforbes Red maple Acer rubrum Leaves Unfolding (None) 39.166160000000000 -86.524415000000000 46354
Sun Apr 12 00:00:00 GMT 2015 lcforbes Red maple Acer rubrum Leaves Changing Color (None) 39.166160000000000 -86.524415000000000 46355
Sun Apr 12 00:00:00 GMT 2015 lcforbes Red maple Acer rubrum Leaves Dropping (None) 39.166160000000000 -86.524415000000000 46356
Sun Apr 12 00:00:00 GMT 2015 lcforbes Red maple Acer rubrum Flowers (None) 39.166160000000000 -86.524415000000000 46357
Sun Apr 12 00:00:00 GMT 2015 lcforbes Red maple Acer rubrum Fruit (None) 39.166160000000000 -86.524415000000000 46358
Sun Apr 12 00:00:00 GMT 2015 lcforbes Red maple Acer rubrum Leaves Unfolding (None) 39.156987000000000 -86.515102000000000 46364
Sun Apr 12 00:00:00 GMT 2015 lcforbes Red maple Acer rubrum Leaves Changing Color (None) 39.156987000000000 -86.515102000000000 46365
Sun Apr 12 00:00:00 GMT 2015 lcforbes Red maple Acer rubrum Leaves Dropping (None) 39.156987000000000 -86.515102000000000 46366
Sun Apr 12 00:00:00 GMT 2015 lcforbes Red maple Acer rubrum Flowers (None) 39.156987000000000 -86.515102000000000 46367
Sun Apr 12 00:00:00 GMT 2015 lcforbes Red maple Acer rubrum Fruit (None) 39.156987000000000 -86.515102000000000 46368
Sun Apr 12 00:00:00 GMT 2015 lcforbes Red maple Acer rubrum Leaves Unfolding (None) 39.157625000000000 -86.510854000000000 46369
Sun Apr 12 00:00:00 GMT 2015 lcforbes Red maple Acer rubrum Leaves Changing Color (None) 39.157625000000000 -86.510854000000000 46370
Sun Apr 12 00:00:00 GMT 2015 lcforbes Red maple Acer rubrum Leaves Dropping (None) 39.157625000000000 -86.510854000000000 46371
Sun Apr 12 00:00:00 GMT 2015 lcforbes Red maple Acer rubrum Flowers (None) 39.157625000000000 -86.510854000000000 46372
Sun Apr 12 00:00:00 GMT 2015 lcforbes Red maple Acer rubrum Fruit (None) 39.157625000000000 -86.510854000000000 46373
Wed Mar 25 00:00:00 GMT 2015 aschmidt Red maple Acer rubrum Leaves Unfolding (None) 39.166609000000000 -86.512399000000000 46381
Wed Mar 25 00:00:00 GMT 2015 aschmidt Red maple Acer rubrum Leaves Changing Color (None) 39.166609000000000 -86.512399000000000 46382
Wed Mar 25 00:00:00 GMT 2015 aschmidt Red maple Acer rubrum Leaves Dropping (None) 39.166609000000000 -86.512399000000000 46383
Wed Mar 25 00:00:00 GMT 2015 aschmidt Red maple Acer rubrum Flowers (None) 39.166609000000000 -86.512399000000000 46384
Wed Mar 25 00:00:00 GMT 2015 aschmidt Red maple Acer rubrum Fruit (None) 39.166609000000000 -86.512399000000000 46385
Tue Apr 07 00:00:00 GMT 2015 angiepick11 Red maple Acer rubrum Bud Burst 39.165330000000000 -86.526390000000000 46603
Mon Apr 13 00:00:00 GMT 2015 Xiaoyuweng1 Red maple Acer rubrum Leaves Unfolding (Middle) 39.154260000000000 -86.492910000000000 46497
Mon Apr 13 00:00:00 GMT 2015 Xiaoyuweng1 Red maple Acer rubrum Leaves Changing Color (Early) 39.154260000000000 -86.492910000000000 46498
Mon Apr 13 00:00:00 GMT 2015 Xiaoyuweng1 Red maple Acer rubrum Leaves Dropping (None) 39.154260000000000 -86.492910000000000 46499
Mon Apr 13 00:00:00 GMT 2015 Xiaoyuweng1 Red maple Acer rubrum Flowers (Early) 39.154260000000000 -86.492910000000000 46500
Mon Apr 13 00:00:00 GMT 2015 Xiaoyuweng1 Red maple Acer rubrum Fruit (None) 39.154260000000000 -86.492910000000000 46501
Sat Mar 28 00:00:00 GMT 2015 skinney5 Red maple Acer rubrum Bud Burst 39.165330000000000 -86.526390000000000 46503
Sat Mar 28 00:00:00 GMT 2015 skinney5 Red maple Acer rubrum Bud Burst 39.165330000000000 -86.526390000000000 46505
Wed Apr 01 00:00:00 GMT 2015 gbuckner17 Red maple Acer rubrum Leaves Unfolding (Early) 39.165771000000000 -86.521132000000000 46531
Wed Apr 01 00:00:00 GMT 2015 gbuckner17 Red maple Acer rubrum Leaves Changing Color (None) 39.165771000000000 -86.521132000000000 46532
Wed Apr 01 00:00:00 GMT 2015 gbuckner17 Red maple Acer rubrum Leaves Dropping (None) 39.165771000000000 -86.521132000000000 46533
Wed Apr 01 00:00:00 GMT 2015 gbuckner17 Red maple Acer rubrum Flowers (None) 39.165771000000000 -86.521132000000000 46534
Wed Apr 01 00:00:00 GMT 2015 gbuckner17 Red maple Acer rubrum Fruit (None) 39.165771000000000 -86.521132000000000 46535
Sat Mar 28 00:00:00 GMT 2015 gbuckner17 Red maple Acer rubrum Bud Burst 39.165905000000000 -86.523407000000000 46551
Wed Apr 01 00:00:00 GMT 2015 gbuckner17 Red maple Acer rubrum First Leaf 39.165905000000000 -86.523407000000000 46552
Wed Apr 01 00:00:00 GMT 2015 kgrande6 Red maple Acer rubrum Bud Burst 39.170120000000000 -86.512806000000000 46652
Wed Apr 08 00:00:00 GMT 2015 kgrande6 Red maple Acer rubrum First Leaf 39.170120000000000 -86.512806000000000 46653
Fri Apr 10 00:00:00 GMT 2015 kikrowe Red maple Acer rubrum First Leaf 41.664449000000000 -86.221089000000000 46708
Fri Apr 03 00:00:00 GMT 2015 mollygalbrecht Red maple Acer rubrum Leaves Unfolding (None) 38.856290000000000 -94.764490000000000 46729
Fri Apr 03 00:00:00 GMT 2015 mollygalbrecht Red maple Acer rubrum Leaves Changing Color (None) 38.856290000000000 -94.764490000000000 46730
Fri Apr 03 00:00:00 GMT 2015 mollygalbrecht Red maple Acer rubrum Leaves Dropping (None) 38.856290000000000 -94.764490000000000 46731
Fri Apr 03 00:00:00 GMT 2015 mollygalbrecht Red maple Acer rubrum Flowers (None) 38.856290000000000 -94.764490000000000 46732
Fri Apr 03 00:00:00 GMT 2015 mollygalbrecht Red maple Acer rubrum Fruit (None) 38.856290000000000 -94.764490000000000 46733
Tue Apr 07 00:00:00 GMT 2015 mollygalbrecht Red maple Acer rubrum Leaves Unfolding (None) 38.952050000000000 -94.882400000000000 46724
Tue Apr 07 00:00:00 GMT 2015 mollygalbrecht Red maple Acer rubrum Leaves Changing Color (None) 38.952050000000000 -94.882400000000000 46725
Tue Apr 07 00:00:00 GMT 2015 mollygalbrecht Red maple Acer rubrum Leaves Dropping (None) 38.952050000000000 -94.882400000000000 46726
Tue Apr 07 00:00:00 GMT 2015 mollygalbrecht Red maple Acer rubrum Flowers (None) 38.952050000000000 -94.882400000000000 46727
Tue Apr 07 00:00:00 GMT 2015 mollygalbrecht Red maple Acer rubrum Fruit (None) 38.952050000000000 -94.882400000000000 46728
Tue Apr 14 00:00:00 GMT 2015 doumanation12 Red maple Acer rubrum Leaves Unfolding (Early) 41.400912000000000 -92.920979000000000 46790
Tue Apr 14 00:00:00 GMT 2015 doumanation12 Red maple Acer rubrum Leaves Changing Color (Early) 41.400912000000000 -92.920979000000000 46791
Tue Apr 14 00:00:00 GMT 2015 doumanation12 Red maple Acer rubrum Leaves Dropping (None) 41.400912000000000 -92.920979000000000 46792
Tue Apr 14 00:00:00 GMT 2015 doumanation12 Red maple Acer rubrum Flowers (Middle) 41.400912000000000 -92.920979000000000 46793
Tue Apr 14 00:00:00 GMT 2015 doumanation12 Red maple Acer rubrum Fruit (None) 41.400912000000000 -92.920979000000000 46794
Fri Apr 17 00:00:00 GMT 2015 woodsedge Red maple Acer rubrum First Leaf 38.565400000000000 -78.926000000000000 46913
Sun Apr 05 00:00:00 GMT 2015 kgarbach_Loyola_University_Chicago_reporter159 Red maple Acer rubrum Leaves Unfolding (None) 41.998284000000000 -87.655106000000000 46921
Sun Apr 05 00:00:00 GMT 2015 kgarbach_Loyola_University_Chicago_reporter159 Red maple Acer rubrum Leaves Changing Color (None) 41.998284000000000 -87.655106000000000 46922
Sun Apr 05 00:00:00 GMT 2015 kgarbach_Loyola_University_Chicago_reporter159 Red maple Acer rubrum Leaves Dropping (None) 41.998284000000000 -87.655106000000000 46923
Sun Apr 05 00:00:00 GMT 2015 kgarbach_Loyola_University_Chicago_reporter159 Red maple Acer rubrum Flowers (None) 41.998284000000000 -87.655106000000000 46924
Sun Apr 05 00:00:00 GMT 2015 kgarbach_Loyola_University_Chicago_reporter159 Red maple Acer rubrum Fruit (None) 41.998284000000000 -87.655106000000000 46925
Sat Apr 18 00:00:00 GMT 2015 kgarbach_Loyola_University_Chicago_reporter159 Red maple Acer rubrum Leaves Unfolding (Early) 41.998316000000000 -87.655149000000000 46926
Sat Apr 18 00:00:00 GMT 2015 kgarbach_Loyola_University_Chicago_reporter159 Red maple Acer rubrum Leaves Changing Color (None) 41.998316000000000 -87.655149000000000 46927
Sat Apr 18 00:00:00 GMT 2015 kgarbach_Loyola_University_Chicago_reporter159 Red maple Acer rubrum Leaves Dropping (Early) 41.998316000000000 -87.655149000000000 46928
Sat Apr 18 00:00:00 GMT 2015 kgarbach_Loyola_University_Chicago_reporter159 Red maple Acer rubrum Flowers (None) 41.998316000000000 -87.655149000000000 46929
Sat Apr 18 00:00:00 GMT 2015 kgarbach_Loyola_University_Chicago_reporter159 Red maple Acer rubrum Fruit (None) 41.998316000000000 -87.655149000000000 46930
Sun Apr 19 00:00:00 GMT 2015 mollygalbrecht Red maple Acer rubrum Leaves Unfolding (Middle) 38.860220000000000 -94.794610000000000 46935
Sun Apr 19 00:00:00 GMT 2015 mollygalbrecht Red maple Acer rubrum Leaves Changing Color (None) 38.860220000000000 -94.794610000000000 46936
Sun Apr 19 00:00:00 GMT 2015 mollygalbrecht Red maple Acer rubrum Leaves Dropping (None) 38.860220000000000 -94.794610000000000 46937
Sun Apr 19 00:00:00 GMT 2015 mollygalbrecht Red maple Acer rubrum Flowers (None) 38.860220000000000 -94.794610000000000 46938
Sun Apr 19 00:00:00 GMT 2015 mollygalbrecht Red maple Acer rubrum Fruit (None) 38.860220000000000 -94.794610000000000 46939
Sun Apr 19 00:00:00 GMT 2015 brogers Red maple Acer rubrum Leaves Unfolding (None) 42.307890000000000 -85.672321000000000 46954
Sun Apr 19 00:00:00 GMT 2015 brogers Red maple Acer rubrum Leaves Changing Color (None) 42.307890000000000 -85.672321000000000 46955
Sun Apr 19 00:00:00 GMT 2015 brogers Red maple Acer rubrum Leaves Dropping (None) 42.307890000000000 -85.672321000000000 46956
Sun Apr 19 00:00:00 GMT 2015 brogers Red maple Acer rubrum Flowers (Middle) 42.307890000000000 -85.672321000000000 46957
Sun Apr 19 00:00:00 GMT 2015 brogers Red maple Acer rubrum Fruit (None) 42.307890000000000 -85.672321000000000 46958
Sun Apr 05 00:00:00 GMT 2015 bayfawn Red maple Acer rubrum First Flower 39.448260000000000 -76.267280000000000 46960
Tue Mar 31 00:00:00 GMT 2015 KatieMichael Red maple Acer rubrum Bud Burst 41.665660000000000 -86.221960000000000 47268
Sun Apr 19 00:00:00 GMT 2015 avand286 Red maple Acer rubrum Leaves Unfolding (None) 44.470390000000000 -88.340790000000000 47427
Sun Apr 19 00:00:00 GMT 2015 avand286 Red maple Acer rubrum Leaves Changing Color (None) 44.470390000000000 -88.340790000000000 47428
Sun Apr 19 00:00:00 GMT 2015 avand286 Red maple Acer rubrum Leaves Dropping (None) 44.470390000000000 -88.340790000000000 47429
Sun Apr 19 00:00:00 GMT 2015 avand286 Red maple Acer rubrum Flowers (Middle) 44.470390000000000 -88.340790000000000 47430
Sun Apr 19 00:00:00 GMT 2015 avand286 Red maple Acer rubrum Fruit (None) 44.470390000000000 -88.340790000000000 47431
Thu Apr 23 00:00:00 GMT 2015 wxdude225 Red maple Acer rubrum Bud Burst 43.641470000000000 -70.240880000000000 47590
Thu Apr 02 00:00:00 GMT 2015 muskrattown Red maple Acer rubrum Bud Burst 38.449744000000000 -75.136163000000000 47499
Sun Apr 19 00:00:00 GMT 2015 muskrattown Red maple Acer rubrum First Leaf 38.449744000000000 -75.136163000000000 47500
Mon Apr 20 00:00:00 GMT 2015 muskrattown Red maple Acer rubrum All Leaves Unfolded 38.449744000000000 -75.136163000000000 47501
Thu Apr 09 00:00:00 GMT 2015 muskrattown Red maple Acer rubrum First Flower 38.449744000000000 -75.136163000000000 47502
Fri Apr 10 00:00:00 GMT 2015 muskrattown Red maple Acer rubrum Full Flower 38.449744000000000 -75.136163000000000 47503
Wed Apr 22 00:00:00 GMT 2015 mmartinez Red maple Acer rubrum Leaves Unfolding (Middle) 39.164880000000000 -86.512450000000000 47378
Wed Apr 22 00:00:00 GMT 2015 mmartinez Red maple Acer rubrum Leaves Changing Color (None) 39.164880000000000 -86.512450000000000 47379
Wed Apr 22 00:00:00 GMT 2015 mmartinez Red maple Acer rubrum Leaves Dropping (Early) 39.164880000000000 -86.512450000000000 47380
Wed Apr 22 00:00:00 GMT 2015 mmartinez Red maple Acer rubrum Flowers (None) 39.164880000000000 -86.512450000000000 47381
Wed Apr 22 00:00:00 GMT 2015 mmartinez Red maple Acer rubrum Fruit (None) 39.164880000000000 -86.512450000000000 47382
Wed Apr 22 00:00:00 GMT 2015 mmartinez Red maple Acer rubrum Leaves Unfolding (Early) 39.166600000000000 -86.511710000000000 47373
Wed Apr 22 00:00:00 GMT 2015 mmartinez Red maple Acer rubrum Leaves Changing Color (None) 39.166600000000000 -86.511710000000000 47374
Wed Apr 22 00:00:00 GMT 2015 mmartinez Red maple Acer rubrum Leaves Dropping (None) 39.166600000000000 -86.511710000000000 47375
Wed Apr 22 00:00:00 GMT 2015 mmartinez Red maple Acer rubrum Flowers (None) 39.166600000000000 -86.511710000000000 47376
Wed Apr 22 00:00:00 GMT 2015 mmartinez Red maple Acer rubrum Fruit (None) 39.166600000000000 -86.511710000000000 47377
Thu Apr 16 00:00:00 GMT 2015 KChapman Red maple Acer rubrum Leaves Unfolding (None) 41.677000000000000 -87.801100000000000 47738
Thu Apr 16 00:00:00 GMT 2015 KChapman Red maple Acer rubrum Leaves Changing Color (None) 41.677000000000000 -87.801100000000000 47739
Thu Apr 16 00:00:00 GMT 2015 KChapman Red maple Acer rubrum Leaves Dropping (None) 41.677000000000000 -87.801100000000000 47740
Thu Apr 16 00:00:00 GMT 2015 KChapman Red maple Acer rubrum Flowers (Early) 41.677000000000000 -87.801100000000000 47741
Thu Apr 16 00:00:00 GMT 2015 KChapman Red maple Acer rubrum Fruit (None) 41.677000000000000 -87.801100000000000 47742
Fri Apr 24 00:00:00 GMT 2015 jontwalsh Red maple Acer rubrum Leaves Unfolding (Middle) 41.395089000000000 -92.956417000000000 47841
Fri Apr 24 00:00:00 GMT 2015 jontwalsh Red maple Acer rubrum Leaves Changing Color (None) 41.395089000000000 -92.956417000000000 47842
Fri Apr 24 00:00:00 GMT 2015 jontwalsh Red maple Acer rubrum Leaves Dropping (None) 41.395089000000000 -92.956417000000000 47843
Fri Apr 24 00:00:00 GMT 2015 jontwalsh Red maple Acer rubrum Flowers (None) 41.395089000000000 -92.956417000000000 47844
Fri Apr 24 00:00:00 GMT 2015 jontwalsh Red maple Acer rubrum Fruit (None) 41.395089000000000 -92.956417000000000 47845
Sun Apr 26 00:00:00 GMT 2015 dajana Red maple Acer rubrum Leaves Unfolding (Early) 35.220000000000000 -80.800000000000000 47846
Sun Apr 26 00:00:00 GMT 2015 dajana Red maple Acer rubrum Leaves Changing Color (Middle) 35.220000000000000 -80.800000000000000 47847
Sun Apr 26 00:00:00 GMT 2015 dajana Red maple Acer rubrum Leaves Dropping (Early) 35.220000000000000 -80.800000000000000 47848
Sun Apr 26 00:00:00 GMT 2015 dajana Red maple Acer rubrum Flowers (None) 35.220000000000000 -80.800000000000000 47849
Sun Apr 26 00:00:00 GMT 2015 dajana Red maple Acer rubrum Fruit (None) 35.220000000000000 -80.800000000000000 47850
Tue Apr 28 00:00:00 GMT 2015 hbjerke Red maple Acer rubrum Leaves Unfolding (Middle) 40.191250000000000 -88.406990000000000 48209
Tue Apr 28 00:00:00 GMT 2015 hbjerke Red maple Acer rubrum Leaves Changing Color (None) 40.191250000000000 -88.406990000000000 48210
Tue Apr 28 00:00:00 GMT 2015 hbjerke Red maple Acer rubrum Leaves Dropping (None) 40.191250000000000 -88.406990000000000 48211
Tue Apr 28 00:00:00 GMT 2015 hbjerke Red maple Acer rubrum Flowers (Late) 40.191250000000000 -88.406990000000000 48212
Tue Apr 28 00:00:00 GMT 2015 hbjerke Red maple Acer rubrum Fruit (None) 40.191250000000000 -88.406990000000000 48213
Sat Mar 14 00:00:00 GMT 2015 baum1557 Red maple Acer rubrum Bud Burst 39.576850000000000 -95.110166000000000 48389
Mon Apr 13 00:00:00 GMT 2015 baum1557 Red maple Acer rubrum All Leaves Unfolded 39.576850000000000 -95.110166000000000 48390
Mon Mar 16 00:00:00 GMT 2015 baum1557 Red maple Acer rubrum Full Flower 39.576850000000000 -95.110166000000000 48391
Thu Apr 02 00:00:00 GMT 2015 baum1557 Red maple Acer rubrum First Ripe Fruit 39.576850000000000 -95.110166000000000 48392
Wed Apr 08 00:00:00 GMT 2015 KatieMichael Red maple Acer rubrum First Leaf 41.665660000000000 -86.221960000000000 48512
Wed Apr 15 00:00:00 GMT 2015 KatieMichael Red maple Acer rubrum All Leaves Unfolded 41.665660000000000 -86.221960000000000 48513
Thu Apr 30 00:00:00 GMT 2015 newlondon Red maple Acer rubrum Fruit (None) 44.389520000000000 -88.739420000000000 48631
Thu Apr 30 00:00:00 GMT 2015 newlondon Red maple Acer rubrum Leaves Unfolding (Early) 44.389520000000000 -88.739420000000000 48624
Thu Apr 30 00:00:00 GMT 2015 newlondon Red maple Acer rubrum Leaves Changing Color (None) 44.389520000000000 -88.739420000000000 48625
Thu Apr 30 00:00:00 GMT 2015 newlondon Red maple Acer rubrum Leaves Dropping (None) 44.389520000000000 -88.739420000000000 48626
Thu Apr 30 00:00:00 GMT 2015 newlondon Red maple Acer rubrum Flowers (Middle) 44.389520000000000 -88.739420000000000 48627
Sun May 03 00:00:00 GMT 2015 MDtoBE Red maple Acer rubrum Leaves Unfolding (Late) 36.813614000000000 -119.749110000000000 48938
Sun May 03 00:00:00 GMT 2015 MDtoBE Red maple Acer rubrum Leaves Changing Color (None) 36.813614000000000 -119.749110000000000 48939
Sun May 03 00:00:00 GMT 2015 MDtoBE Red maple Acer rubrum Leaves Dropping (None) 36.813614000000000 -119.749110000000000 48940
Sun May 03 00:00:00 GMT 2015 MDtoBE Red maple Acer rubrum Flowers (None) 36.813614000000000 -119.749110000000000 48941
Sun May 03 00:00:00 GMT 2015 MDtoBE Red maple Acer rubrum Fruit (Early) 36.813614000000000 -119.749110000000000 48942
Mon Apr 13 00:00:00 GMT 2015 ShaeRogers Red maple Acer rubrum Leaves Unfolding (Early) 41.400795000000000 -92.920883000000000 48972
Mon Apr 13 00:00:00 GMT 2015 ShaeRogers Red maple Acer rubrum Leaves Changing Color (Early) 41.400795000000000 -92.920883000000000 48973
Mon Apr 13 00:00:00 GMT 2015 ShaeRogers Red maple Acer rubrum Leaves Dropping (None) 41.400795000000000 -92.920883000000000 48974
Mon Apr 13 00:00:00 GMT 2015 ShaeRogers Red maple Acer rubrum Flowers (Early) 41.400795000000000 -92.920883000000000 48975
Mon Apr 13 00:00:00 GMT 2015 ShaeRogers Red maple Acer rubrum Fruit (None) 41.400795000000000 -92.920883000000000 48976
Fri Apr 10 00:00:00 GMT 2015 central Red maple Acer rubrum Leaves Unfolding (Early) 41.401082000000000 -92.920730000000000 48977
Fri Apr 10 00:00:00 GMT 2015 central Red maple Acer rubrum Leaves Changing Color (None) 41.401082000000000 -92.920730000000000 48978
Fri Apr 10 00:00:00 GMT 2015 central Red maple Acer rubrum Leaves Dropping (None) 41.401082000000000 -92.920730000000000 48979
Fri Apr 10 00:00:00 GMT 2015 central Red maple Acer rubrum Flowers (None) 41.401082000000000 -92.920730000000000 48980
Fri Apr 10 00:00:00 GMT 2015 central Red maple Acer rubrum Fruit (None) 41.401082000000000 -92.920730000000000 48981
Wed Apr 15 00:00:00 GMT 2015 pearsong1 Red maple Acer rubrum Leaves Unfolding (Early) 41.401068000000000 -92.921189000000000 49064
Wed Apr 15 00:00:00 GMT 2015 pearsong1 Red maple Acer rubrum Leaves Changing Color (None) 41.401068000000000 -92.921189000000000 49065
Wed Apr 15 00:00:00 GMT 2015 pearsong1 Red maple Acer rubrum Leaves Dropping (None) 41.401068000000000 -92.921189000000000 49066
Wed Apr 15 00:00:00 GMT 2015 pearsong1 Red maple Acer rubrum Flowers (None) 41.401068000000000 -92.921189000000000 49067
Wed Apr 15 00:00:00 GMT 2015 pearsong1 Red maple Acer rubrum Fruit (None) 41.401068000000000 -92.921189000000000 49068
Tue Apr 28 00:00:00 GMT 2015 kaitlinkaalberg Red maple Acer rubrum Leaves Unfolding (Late) 41.401075000000000 -92.920920000000000 49211
Tue Apr 28 00:00:00 GMT 2015 kaitlinkaalberg Red maple Acer rubrum Leaves Changing Color (Late) 41.401075000000000 -92.920920000000000 49212
Tue Apr 28 00:00:00 GMT 2015 kaitlinkaalberg Red maple Acer rubrum Leaves Dropping (None) 41.401075000000000 -92.920920000000000 49213
Tue Apr 28 00:00:00 GMT 2015 kaitlinkaalberg Red maple Acer rubrum Flowers (None) 41.401075000000000 -92.920920000000000 49214
Tue Apr 28 00:00:00 GMT 2015 kaitlinkaalberg Red maple Acer rubrum Fruit (None) 41.401075000000000 -92.920920000000000 49215
Sun Apr 19 00:00:00 GMT 2015 wildseeds Red maple Acer rubrum Bud Burst 44.064460000000000 -69.590240000000000 49216
Tue May 05 00:00:00 GMT 2015 wildseeds Red maple Acer rubrum Full Flower 44.064460000000000 -69.590240000000000 49217
Wed Apr 15 00:00:00 GMT 2015 palm_shelby Red maple Acer rubrum Leaves Unfolding (Early) 41.402143000000000 -92.921587000000000 49276
Wed Apr 15 00:00:00 GMT 2015 palm_shelby Red maple Acer rubrum Leaves Changing Color (None) 41.402143000000000 -92.921587000000000 49277
Wed Apr 15 00:00:00 GMT 2015 palm_shelby Red maple Acer rubrum Leaves Dropping (None) 41.402143000000000 -92.921587000000000 49278
Wed Apr 15 00:00:00 GMT 2015 palm_shelby Red maple Acer rubrum Flowers (None) 41.402143000000000 -92.921587000000000 49279
Wed Apr 15 00:00:00 GMT 2015 palm_shelby Red maple Acer rubrum Fruit (None) 41.402143000000000 -92.921587000000000 49280
Fri Apr 10 00:00:00 GMT 2015 laurob_St._John's_University__reporter15 Red maple Acer rubrum Bud Burst 40.721400000000000 -73.793200000000000 49374
Wed Apr 29 00:00:00 GMT 2015 laurob_St._John's_University__reporter15 Red maple Acer rubrum First Leaf 40.721400000000000 -73.793200000000000 49375
Sat May 02 00:00:00 GMT 2015 laurob_St._John's_University__reporter15 Red maple Acer rubrum All Leaves Unfolded 40.721400000000000 -73.793200000000000 49376
Sat May 02 00:00:00 GMT 2015 laurob_St._John's_University__reporter15 Red maple Acer rubrum 50% Color 40.721400000000000 -73.793200000000000 49377
Mon May 04 00:00:00 GMT 2015 timmytimtim Red maple Acer rubrum Leaves Unfolding (None) 42.848980000000000 -70.929500000000000 49488
Mon May 04 00:00:00 GMT 2015 timmytimtim Red maple Acer rubrum Leaves Changing Color (None) 42.848980000000000 -70.929500000000000 49489
Mon May 04 00:00:00 GMT 2015 timmytimtim Red maple Acer rubrum Leaves Dropping (None) 42.848980000000000 -70.929500000000000 49490
Mon May 04 00:00:00 GMT 2015 timmytimtim Red maple Acer rubrum Flowers (None) 42.848980000000000 -70.929500000000000 49491
Mon May 04 00:00:00 GMT 2015 timmytimtim Red maple Acer rubrum Fruit (None) 42.848980000000000 -70.929500000000000 49492
Sun May 03 00:00:00 GMT 2015 woodsedge Red maple Acer rubrum All Leaves Unfolded 38.565400000000000 -78.926000000000000 49418
Wed Apr 15 00:00:00 GMT 2015 bayfawn Red maple Acer rubrum Full Flower 39.448260000000000 -76.267280000000000 49522
Thu May 14 00:00:00 GMT 2015 wxdude225 Red maple Acer rubrum First Leaf 43.641470000000000 -70.240880000000000 50269
Sun May 10 00:00:00 GMT 2015 bayfawn Red maple Acer rubrum Full Fruiting 39.448260000000000 -76.267280000000000 50411
Wed Apr 08 00:00:00 GMT 2015 bterry Red maple Acer rubrum Full Fruiting 46.396000000000000 -116.802000000000000 50502
Tue Apr 08 00:00:00 GMT 2014 bterry Red maple Acer rubrum Leaves Unfolding (Early) 46.395874000000000 -116.802027000000000 50513
Tue Apr 08 00:00:00 GMT 2014 bterry Red maple Acer rubrum Leaves Changing Color (None) 46.395874000000000 -116.802027000000000 50514
Tue Apr 08 00:00:00 GMT 2014 bterry Red maple Acer rubrum Leaves Dropping (None) 46.395874000000000 -116.802027000000000 50515
Tue Apr 08 00:00:00 GMT 2014 bterry Red maple Acer rubrum Flowers (Late) 46.395874000000000 -116.802027000000000 50516
Tue Apr 08 00:00:00 GMT 2014 bterry Red maple Acer rubrum Fruit (None) 46.395874000000000 -116.802027000000000 50517
Wed Mar 12 00:00:00 GMT 2014 bterry Red maple Acer rubrum Leaves Unfolding (None) 46.396141000000000 -116.802156000000000 50503
Wed Mar 12 00:00:00 GMT 2014 bterry Red maple Acer rubrum Leaves Changing Color (None) 46.396141000000000 -116.802156000000000 50504
Wed Mar 12 00:00:00 GMT 2014 bterry Red maple Acer rubrum Leaves Dropping (None) 46.396141000000000 -116.802156000000000 50505
Wed Mar 12 00:00:00 GMT 2014 bterry Red maple Acer rubrum Flowers (None) 46.396141000000000 -116.802156000000000 50506
Wed Mar 12 00:00:00 GMT 2014 bterry Red maple Acer rubrum Fruit (None) 46.396141000000000 -116.802156000000000 50507
Wed May 06 00:00:00 GMT 2015 KChapman Red maple Acer rubrum Leaves Unfolding (Middle) 41.676810000000000 -87.801220000000000 50669
Wed May 06 00:00:00 GMT 2015 KChapman Red maple Acer rubrum Leaves Changing Color (None) 41.676810000000000 -87.801220000000000 50670
Wed May 06 00:00:00 GMT 2015 KChapman Red maple Acer rubrum Leaves Dropping (None) 41.676810000000000 -87.801220000000000 50671
Wed May 06 00:00:00 GMT 2015 KChapman Red maple Acer rubrum Flowers (None) 41.676810000000000 -87.801220000000000 50672
Wed May 06 00:00:00 GMT 2015 KChapman Red maple Acer rubrum Fruit (None) 41.676810000000000 -87.801220000000000 50673
Fri May 15 00:00:00 GMT 2015 KChapman Red maple Acer rubrum Leaves Unfolding (Late) 41.676810000000000 -87.801220000000000 50726
Fri May 15 00:00:00 GMT 2015 KChapman Red maple Acer rubrum Leaves Changing Color (None) 41.676810000000000 -87.801220000000000 50727
Fri May 15 00:00:00 GMT 2015 KChapman Red maple Acer rubrum Leaves Dropping (None) 41.676810000000000 -87.801220000000000 50728
Fri May 15 00:00:00 GMT 2015 KChapman Red maple Acer rubrum Flowers (None) 41.676810000000000 -87.801220000000000 50729
Fri May 15 00:00:00 GMT 2015 KChapman Red maple Acer rubrum Fruit (None) 41.676810000000000 -87.801220000000000 50730
Sun May 03 00:00:00 GMT 2015 bayfawn Red maple Acer rubrum First Ripe Fruit 39.448260000000000 -76.267280000000000 50798
Wed Jun 03 00:00:00 GMT 2015 Bholycross Red maple Acer rubrum Leaves Unfolding (Middle) 41.664352000000000 -86.220794000000000 50853
Wed Jun 03 00:00:00 GMT 2015 Bholycross Red maple Acer rubrum Leaves Changing Color (Early) 41.664352000000000 -86.220794000000000 50854
Wed Jun 03 00:00:00 GMT 2015 Bholycross Red maple Acer rubrum Leaves Dropping (None) 41.664352000000000 -86.220794000000000 50855
Wed Jun 03 00:00:00 GMT 2015 Bholycross Red maple Acer rubrum Flowers (None) 41.664352000000000 -86.220794000000000 50856
Wed Jun 03 00:00:00 GMT 2015 Bholycross Red maple Acer rubrum Fruit (Early) 41.664352000000000 -86.220794000000000 50857
Wed Jun 10 00:00:00 GMT 2015 Bholycross Red maple Acer rubrum Leaves Unfolding (Late) 41.664320000000000 -86.220832000000000 51102
Wed Jun 10 00:00:00 GMT 2015 Bholycross Red maple Acer rubrum Leaves Changing Color (Middle) 41.664320000000000 -86.220832000000000 51103
Wed Jun 10 00:00:00 GMT 2015 Bholycross Red maple Acer rubrum Leaves Dropping (Early) 41.664320000000000 -86.220832000000000 51104
Wed Jun 10 00:00:00 GMT 2015 Bholycross Red maple Acer rubrum Flowers (Early) 41.664320000000000 -86.220832000000000 51105
Wed Jun 10 00:00:00 GMT 2015 Bholycross Red maple Acer rubrum Fruit (Early) 41.664320000000000 -86.220832000000000 51106
Fri Jun 12 00:00:00 GMT 2015 wxdude225 Red maple Acer rubrum All Leaves Unfolded 43.641470000000000 -70.240880000000000 51243
Fri Jun 12 00:00:00 GMT 2015 wxdude225 Red maple Acer rubrum First Flower 43.641470000000000 -70.240880000000000 51244
Sun Jun 14 00:00:00 GMT 2015 wxdude225 Red maple Acer rubrum Full Flower 43.641470000000000 -70.240880000000000 51245
Sun Jun 14 00:00:00 GMT 2015 wxdude225 Red maple Acer rubrum First Ripe Fruit 43.641470000000000 -70.240880000000000 51246
Sun Jun 14 00:00:00 GMT 2015 wxdude225 Red maple Acer rubrum Full Fruiting 43.641470000000000 -70.240880000000000 51247
Mon Jun 22 00:00:00 GMT 2015 Jkoyensvt Red maple Acer rubrum Leaves Unfolding (Late) 42.375587000000000 -71.394449000000000 51344
Mon Jun 22 00:00:00 GMT 2015 Jkoyensvt Red maple Acer rubrum Leaves Changing Color (None) 42.375587000000000 -71.394449000000000 51345
Mon Jun 22 00:00:00 GMT 2015 Jkoyensvt Red maple Acer rubrum Leaves Dropping (None) 42.375587000000000 -71.394449000000000 51346
Mon Jun 22 00:00:00 GMT 2015 Jkoyensvt Red maple Acer rubrum Flowers (None) 42.375587000000000 -71.394449000000000 51347
Mon Jun 22 00:00:00 GMT 2015 Jkoyensvt Red maple Acer rubrum Fruit (Late) 42.375587000000000 -71.394449000000000 51348
Thu Apr 23 00:00:00 GMT 2015 SRHSscience Red maple Acer rubrum Bud Burst 42.912300000000000 -71.069700000000000 51397
Mon May 04 00:00:00 GMT 2015 SRHSscience Red maple Acer rubrum First Leaf 42.912300000000000 -71.069700000000000 51398
Wed May 06 00:00:00 GMT 2015 SRHSscience Red maple Acer rubrum All Leaves Unfolded 42.912300000000000 -71.069700000000000 51399
Thu Apr 23 00:00:00 GMT 2015 SRHSscience Red maple Acer rubrum First Flower 42.912300000000000 -71.069700000000000 51400
Sat Jul 11 00:00:00 GMT 2015 dsavage Red maple Acer rubrum Leaves Unfolding (Late) 38.836954000000000 -77.646767000000000 51745
Sat Jul 11 00:00:00 GMT 2015 dsavage Red maple Acer rubrum Leaves Changing Color (None) 38.836954000000000 -77.646767000000000 51746
Sat Jul 11 00:00:00 GMT 2015 dsavage Red maple Acer rubrum Leaves Dropping (None) 38.836954000000000 -77.646767000000000 51747
Sat Jul 11 00:00:00 GMT 2015 dsavage Red maple Acer rubrum Flowers (None) 38.836954000000000 -77.646767000000000 51748
Sat Jul 11 00:00:00 GMT 2015 dsavage Red maple Acer rubrum Fruit (None) 38.836954000000000 -77.646767000000000 51749
Wed Apr 01 00:00:00 GMT 2015 SusannahPrindle Red maple Acer rubrum Bud Burst 39.096700000000000 -77.023900000000000 51856
Wed Apr 01 00:00:00 GMT 2015 SusannahPrindle Red maple Acer rubrum First Leaf 39.096700000000000 -77.023900000000000 51857
Fri May 15 00:00:00 GMT 2015 SusannahPrindle Red maple Acer rubrum All Leaves Unfolded 39.096700000000000 -77.023900000000000 51858
Sun May 31 00:00:00 GMT 2015 SusannahPrindle Red maple Acer rubrum Full Fruiting 39.096700000000000 -77.023900000000000 51859
Mon Jul 20 00:00:00 GMT 2015 mnswjennifer Red maple Acer rubrum 50% Color 45.072690000000000 -92.812090000000000 51889
Thu Jul 23 00:00:00 GMT 2015 epagarigan Red maple Acer rubrum Leaves Unfolding (Late) 39.328455000000000 -76.506729000000000 51926
Thu Jul 23 00:00:00 GMT 2015 epagarigan Red maple Acer rubrum Leaves Changing Color (None) 39.328455000000000 -76.506729000000000 51927
Thu Jul 23 00:00:00 GMT 2015 epagarigan Red maple Acer rubrum Leaves Dropping (None) 39.328455000000000 -76.506729000000000 51928
Thu Jul 23 00:00:00 GMT 2015 epagarigan Red maple Acer rubrum Flowers (None) 39.328455000000000 -76.506729000000000 51929
Thu Jul 23 00:00:00 GMT 2015 epagarigan Red maple Acer rubrum Fruit (None) 39.328455000000000 -76.506729000000000 51930
Tue Aug 04 00:00:00 GMT 2015 seekerscience Red maple Acer rubrum Leaves Unfolding (Late) 38.551910000000000 -90.638620000000000 52121
Tue Aug 04 00:00:00 GMT 2015 seekerscience Red maple Acer rubrum Leaves Changing Color (None) 38.551910000000000 -90.638620000000000 52122
Tue Aug 04 00:00:00 GMT 2015 seekerscience Red maple Acer rubrum Leaves Dropping (None) 38.551910000000000 -90.638620000000000 52123
Tue Aug 04 00:00:00 GMT 2015 seekerscience Red maple Acer rubrum Flowers (Late) 38.551910000000000 -90.638620000000000 52124
Tue Aug 04 00:00:00 GMT 2015 seekerscience Red maple Acer rubrum Fruit (None) 38.551910000000000 -90.638620000000000 52125
Thu Mar 13 00:00:00 GMT 2014 ncmns Red maple Acer rubrum Leaves Unfolding (None) 35.811680000000000 -78.713930000000000 52289
Thu Mar 13 00:00:00 GMT 2014 ncmns Red maple Acer rubrum Leaves Changing Color (None) 35.811680000000000 -78.713930000000000 52290
Thu Mar 13 00:00:00 GMT 2014 ncmns Red maple Acer rubrum Leaves Dropping (None) 35.811680000000000 -78.713930000000000 52291
Thu Mar 13 00:00:00 GMT 2014 ncmns Red maple Acer rubrum Flowers (Middle) 35.811680000000000 -78.713930000000000 52292
Thu Mar 13 00:00:00 GMT 2014 ncmns Red maple Acer rubrum Fruit (None) 35.811680000000000 -78.713930000000000 52293
Fri Aug 21 00:00:00 GMT 2015 ncmns Red maple Acer rubrum Leaves Unfolding (None) 35.811680000000000 -78.713930000000000 52284
Fri Aug 21 00:00:00 GMT 2015 ncmns Red maple Acer rubrum Leaves Changing Color (None) 35.811680000000000 -78.713930000000000 52285
Fri Aug 21 00:00:00 GMT 2015 ncmns Red maple Acer rubrum Leaves Dropping (None) 35.811680000000000 -78.713930000000000 52286
Fri Aug 21 00:00:00 GMT 2015 ncmns Red maple Acer rubrum Flowers (None) 35.811680000000000 -78.713930000000000 52287
Fri Aug 21 00:00:00 GMT 2015 ncmns Red maple Acer rubrum Fruit (Middle) 35.811680000000000 -78.713930000000000 52288
Fri Aug 21 00:00:00 GMT 2015 ncmns Red maple Acer rubrum Leaves Unfolding (None) 35.811680000000000 -78.713930000000000 52404
Fri Aug 21 00:00:00 GMT 2015 ncmns Red maple Acer rubrum Leaves Changing Color (None) 35.811680000000000 -78.713930000000000 52405
Fri Aug 21 00:00:00 GMT 2015 ncmns Red maple Acer rubrum Leaves Dropping (None) 35.811680000000000 -78.713930000000000 52406
Fri Aug 21 00:00:00 GMT 2015 ncmns Red maple Acer rubrum Flowers (Middle) 35.811680000000000 -78.713930000000000 52407
Fri Aug 21 00:00:00 GMT 2015 ncmns Red maple Acer rubrum Fruit (None) 35.811680000000000 -78.713930000000000 52408
Sat Oct 11 00:00:00 GMT 2014 ncmns Red maple Acer rubrum Leaves Unfolding (None) 35.811680000000000 -78.713930000000000 52329
Sat Oct 11 00:00:00 GMT 2014 ncmns Red maple Acer rubrum Leaves Changing Color (Middle) 35.811680000000000 -78.713930000000000 52330
Sat Oct 11 00:00:00 GMT 2014 ncmns Red maple Acer rubrum Leaves Dropping (Early) 35.811680000000000 -78.713930000000000 52331
Sat Oct 11 00:00:00 GMT 2014 ncmns Red maple Acer rubrum Flowers (None) 35.811680000000000 -78.713930000000000 52332
Sat Oct 11 00:00:00 GMT 2014 ncmns Red maple Acer rubrum Fruit (None) 35.811680000000000 -78.713930000000000 52333
Sat Sep 06 00:00:00 GMT 2014 ncmns Red maple Acer rubrum Leaves Unfolding (None) 35.811680000000000 -78.713930000000000 52479
Sat Sep 06 00:00:00 GMT 2014 ncmns Red maple Acer rubrum Leaves Changing Color (Early) 35.811680000000000 -78.713930000000000 52480
Sat Sep 06 00:00:00 GMT 2014 ncmns Red maple Acer rubrum Leaves Dropping (None) 35.811680000000000 -78.713930000000000 52481
Sat Sep 06 00:00:00 GMT 2014 ncmns Red maple Acer rubrum Flowers (None) 35.811680000000000 -78.713930000000000 52482
Sat Sep 06 00:00:00 GMT 2014 ncmns Red maple Acer rubrum Fruit (None) 35.811680000000000 -78.713930000000000 52483
Sat Sep 20 00:00:00 GMT 2014 ncmns Red maple Acer rubrum Leaves Unfolding (None) 35.811680000000000 -78.713930000000000 52514
Sat Sep 20 00:00:00 GMT 2014 ncmns Red maple Acer rubrum Leaves Changing Color (Early) 35.811680000000000 -78.713930000000000 52515
Sat Sep 20 00:00:00 GMT 2014 ncmns Red maple Acer rubrum Leaves Dropping (None) 35.811680000000000 -78.713930000000000 52516
Sat Sep 20 00:00:00 GMT 2014 ncmns Red maple Acer rubrum Flowers (None) 35.811680000000000 -78.713930000000000 52517
Sat Sep 20 00:00:00 GMT 2014 ncmns Red maple Acer rubrum Fruit (None) 35.811680000000000 -78.713930000000000 52518
Sat Apr 12 00:00:00 GMT 2014 ncmns Red maple Acer rubrum Leaves Unfolding (None) 35.811680000000000 -78.713930000000000 52444
Sat Apr 12 00:00:00 GMT 2014 ncmns Red maple Acer rubrum Leaves Changing Color (None) 35.811680000000000 -78.713930000000000 52445
Sat Apr 12 00:00:00 GMT 2014 ncmns Red maple Acer rubrum Leaves Dropping (None) 35.811680000000000 -78.713930000000000 52446
Sat Apr 12 00:00:00 GMT 2014 ncmns Red maple Acer rubrum Flowers (Late) 35.811680000000000 -78.713930000000000 52447
Sat Apr 12 00:00:00 GMT 2014 ncmns Red maple Acer rubrum Fruit (Late) 35.811680000000000 -78.713930000000000 52448
Thu Sep 03 00:00:00 GMT 2015 beenature Red maple Acer rubrum Leaves Unfolding (None) 34.088290000000000 -84.641820000000000 52748
Thu Sep 03 00:00:00 GMT 2015 beenature Red maple Acer rubrum Leaves Changing Color (Early) 34.088290000000000 -84.641820000000000 52749
Thu Sep 03 00:00:00 GMT 2015 beenature Red maple Acer rubrum Leaves Dropping (None) 34.088290000000000 -84.641820000000000 52750
Thu Sep 03 00:00:00 GMT 2015 beenature Red maple Acer rubrum Flowers (None) 34.088290000000000 -84.641820000000000 52751
Thu Sep 03 00:00:00 GMT 2015 beenature Red maple Acer rubrum Fruit (None) 34.088290000000000 -84.641820000000000 52752
Wed Sep 02 00:00:00 GMT 2015 beenature Red maple Acer rubrum Leaves Unfolding (None) 34.088290000000000 -84.641820000000000 52743
Wed Sep 02 00:00:00 GMT 2015 beenature Red maple Acer rubrum Leaves Changing Color (Early) 34.088290000000000 -84.641820000000000 52744
Wed Sep 02 00:00:00 GMT 2015 beenature Red maple Acer rubrum Leaves Dropping (None) 34.088290000000000 -84.641820000000000 52745
Wed Sep 02 00:00:00 GMT 2015 beenature Red maple Acer rubrum Flowers (None) 34.088290000000000 -84.641820000000000 52746
Wed Sep 02 00:00:00 GMT 2015 beenature Red maple Acer rubrum Fruit (None) 34.088290000000000 -84.641820000000000 52747
Tue Sep 15 00:00:00 GMT 2015 TremontBudBurst Red maple Acer rubrum Leaves Unfolding (Late) 35.635376197204610 -83.701478052064320 53183
Tue Sep 15 00:00:00 GMT 2015 TremontBudBurst Red maple Acer rubrum Leaves Changing Color (None) 35.635376197204610 -83.701478052064320 53184
Tue Sep 15 00:00:00 GMT 2015 TremontBudBurst Red maple Acer rubrum Leaves Dropping (None) 35.635376197204610 -83.701478052064320 53185
Tue Sep 15 00:00:00 GMT 2015 TremontBudBurst Red maple Acer rubrum Flowers (None) 35.635376197204610 -83.701478052064320 53186
Tue Sep 15 00:00:00 GMT 2015 TremontBudBurst Red maple Acer rubrum Fruit (None) 35.635376197204610 -83.701478052064320 53187
Tue Sep 22 00:00:00 GMT 2015 shannastingu Red maple Acer rubrum Leaves Unfolding (Late) 26.462468000000000 -81.771911000000000 53303
Tue Sep 22 00:00:00 GMT 2015 shannastingu Red maple Acer rubrum Leaves Changing Color (Middle) 26.462468000000000 -81.771911000000000 53304
Tue Sep 22 00:00:00 GMT 2015 shannastingu Red maple Acer rubrum Leaves Dropping (None) 26.462468000000000 -81.771911000000000 53305
Tue Sep 22 00:00:00 GMT 2015 shannastingu Red maple Acer rubrum Flowers (None) 26.462468000000000 -81.771911000000000 53306
Tue Sep 22 00:00:00 GMT 2015 shannastingu Red maple Acer rubrum Fruit (None) 26.462468000000000 -81.771911000000000 53307
Tue Sep 15 00:00:00 GMT 2015 conner929 Red maple Acer rubrum Leaves Unfolding (Middle) 26.460133000000000 -81.772498000000000 53308
Tue Sep 15 00:00:00 GMT 2015 conner929 Red maple Acer rubrum Leaves Changing Color (Early) 26.460133000000000 -81.772498000000000 53309
Tue Sep 15 00:00:00 GMT 2015 conner929 Red maple Acer rubrum Leaves Dropping (Early) 26.460133000000000 -81.772498000000000 53310
Tue Sep 15 00:00:00 GMT 2015 conner929 Red maple Acer rubrum Flowers (None) 26.460133000000000 -81.772498000000000 53311
Tue Sep 15 00:00:00 GMT 2015 conner929 Red maple Acer rubrum Fruit (None) 26.460133000000000 -81.772498000000000 53312
Tue Sep 22 00:00:00 GMT 2015 lauboo1 Red maple Acer rubrum Flowers (None) 42.588256000000000 -72.596734000000000 53277
Tue Sep 22 00:00:00 GMT 2015 lauboo1 Red maple Acer rubrum Fruit (Early) 42.588256000000000 -72.596734000000000 53278
Tue Sep 22 00:00:00 GMT 2015 lauboo1 Red maple Acer rubrum Leaves Unfolding (Middle) 42.588256000000000 -72.596734000000000 53274
Tue Sep 22 00:00:00 GMT 2015 lauboo1 Red maple Acer rubrum Leaves Changing Color (Early) 42.588256000000000 -72.596734000000000 53275
Tue Sep 22 00:00:00 GMT 2015 lauboo1 Red maple Acer rubrum Leaves Dropping (Early) 42.588256000000000 -72.596734000000000 53276
Thu Sep 17 00:00:00 GMT 2015 KChapman Red maple Acer rubrum Leaves Unfolding (Late) 41.676810000000000 -87.801220000000000 53378
Thu Sep 17 00:00:00 GMT 2015 KChapman Red maple Acer rubrum Leaves Changing Color (Early) 41.676810000000000 -87.801220000000000 53379
Thu Sep 17 00:00:00 GMT 2015 KChapman Red maple Acer rubrum Leaves Dropping (None) 41.676810000000000 -87.801220000000000 53380
Thu Sep 17 00:00:00 GMT 2015 KChapman Red maple Acer rubrum Flowers (None) 41.676810000000000 -87.801220000000000 53381
Thu Sep 17 00:00:00 GMT 2015 KChapman Red maple Acer rubrum Fruit (None) 41.676810000000000 -87.801220000000000 53382
Thu Sep 24 00:00:00 GMT 2015 kingofswag Red maple Acer rubrum Bud Burst 39.278990000000000 -76.836850000000000 53391
Fri Sep 25 00:00:00 GMT 2015 KChapman Red maple Acer rubrum Leaves Unfolding (Late) 41.676810000000000 -87.801220000000000 53486
Fri Sep 25 00:00:00 GMT 2015 KChapman Red maple Acer rubrum Flowers (None) 41.676810000000000 -87.801220000000000 53489
Fri Sep 25 00:00:00 GMT 2015 KChapman Red maple Acer rubrum Fruit (None) 41.676810000000000 -87.801220000000000 53490
Fri Sep 25 00:00:00 GMT 2015 KChapman Red maple Acer rubrum Leaves Changing Color (Early) 41.676810000000000 -87.801220000000000 53487
Fri Sep 25 00:00:00 GMT 2015 KChapman Red maple Acer rubrum Leaves Dropping (None) 41.676810000000000 -87.801220000000000 53488
Wed Sep 23 00:00:00 GMT 2015 robinv1 Red maple Acer rubrum 50% Color 39.273500000000000 -76.159500000000000 53553
Fri Aug 28 00:00:00 GMT 2015 MrsPavlovic_DCS_Trail_-_Red_Oak_Flats_reporter5 Red maple Acer rubrum Leaves Unfolding (Late) 41.639822000000000 -87.052950000000000 53696
Fri Aug 28 00:00:00 GMT 2015 MrsPavlovic_DCS_Trail_-_Red_Oak_Flats_reporter5 Red maple Acer rubrum Leaves Changing Color (None) 41.639822000000000 -87.052950000000000 53697
Fri Aug 28 00:00:00 GMT 2015 MrsPavlovic_DCS_Trail_-_Red_Oak_Flats_reporter5 Red maple Acer rubrum Leaves Dropping (None) 41.639822000000000 -87.052950000000000 53698
Fri Aug 28 00:00:00 GMT 2015 MrsPavlovic_DCS_Trail_-_Red_Oak_Flats_reporter5 Red maple Acer rubrum Flowers (None) 41.639822000000000 -87.052950000000000 53699
Fri Aug 28 00:00:00 GMT 2015 MrsPavlovic_DCS_Trail_-_Red_Oak_Flats_reporter5 Red maple Acer rubrum Fruit (None) 41.639822000000000 -87.052950000000000 53700
Mon Sep 21 00:00:00 GMT 2015 MrsPavlovic_DCS_Trail_-_Red_Oak_Flats_reporter5 Red maple Acer rubrum Leaves Unfolding (Late) 41.638680000000000 -87.052570000000000 53720
Mon Sep 21 00:00:00 GMT 2015 MrsPavlovic_DCS_Trail_-_Red_Oak_Flats_reporter5 Red maple Acer rubrum Leaves Changing Color (None) 41.638680000000000 -87.052570000000000 53721
Mon Sep 21 00:00:00 GMT 2015 MrsPavlovic_DCS_Trail_-_Red_Oak_Flats_reporter5 Red maple Acer rubrum Leaves Dropping (None) 41.638680000000000 -87.052570000000000 53722
Mon Sep 21 00:00:00 GMT 2015 MrsPavlovic_DCS_Trail_-_Red_Oak_Flats_reporter5 Red maple Acer rubrum Flowers (None) 41.638680000000000 -87.052570000000000 53723
Mon Sep 21 00:00:00 GMT 2015 MrsPavlovic_DCS_Trail_-_Red_Oak_Flats_reporter5 Red maple Acer rubrum Fruit (None) 41.638680000000000 -87.052570000000000 53724
Tue Oct 06 00:00:00 GMT 2015 lauboo1 Red maple Acer rubrum Leaves Unfolding (Late) 42.578240000000000 -72.601850000000000 53772
Tue Oct 06 00:00:00 GMT 2015 lauboo1 Red maple Acer rubrum Leaves Changing Color (Early) 42.578240000000000 -72.601850000000000 53773
Tue Oct 06 00:00:00 GMT 2015 lauboo1 Red maple Acer rubrum Leaves Dropping (Middle) 42.578240000000000 -72.601850000000000 53774
Tue Oct 06 00:00:00 GMT 2015 lauboo1 Red maple Acer rubrum Flowers (Late) 42.578240000000000 -72.601850000000000 53775
Tue Oct 06 00:00:00 GMT 2015 lauboo1 Red maple Acer rubrum Fruit (Late) 42.578240000000000 -72.601850000000000 53776
Thu Oct 08 00:00:00 GMT 2015 kwright Red maple Acer rubrum Leaves Unfolding (Late) 40.627270000000000 -74.851770000000000 53868
Thu Oct 08 00:00:00 GMT 2015 kwright Red maple Acer rubrum Leaves Changing Color (Early) 40.627270000000000 -74.851770000000000 53869
Thu Oct 08 00:00:00 GMT 2015 kwright Red maple Acer rubrum Leaves Dropping (Early) 40.627270000000000 -74.851770000000000 53870
Thu Oct 08 00:00:00 GMT 2015 kwright Red maple Acer rubrum Flowers (None) 40.627270000000000 -74.851770000000000 53871
Thu Oct 08 00:00:00 GMT 2015 kwright Red maple Acer rubrum Fruit (None) 40.627270000000000 -74.851770000000000 53872
Thu Oct 08 00:00:00 GMT 2015 jaydenkai15 Red maple Acer rubrum Leaves Unfolding (Early) 40.627270000000000 -74.851770000000000 53888
Thu Oct 08 00:00:00 GMT 2015 jaydenkai15 Red maple Acer rubrum Leaves Changing Color (Late) 40.627270000000000 -74.851770000000000 53889
Thu Oct 08 00:00:00 GMT 2015 jaydenkai15 Red maple Acer rubrum Leaves Dropping (Middle) 40.627270000000000 -74.851770000000000 53890
Thu Oct 08 00:00:00 GMT 2015 jaydenkai15 Red maple Acer rubrum Flowers (None) 40.627270000000000 -74.851770000000000 53891
Thu Oct 08 00:00:00 GMT 2015 jaydenkai15 Red maple Acer rubrum Fruit (None) 40.627270000000000 -74.851770000000000 53892
Thu Oct 08 00:00:00 GMT 2015 rosy Red maple Acer rubrum Leaves Unfolding (Late) 40.627270000000000 -74.851770000000000 53863
Thu Oct 08 00:00:00 GMT 2015 rosy Red maple Acer rubrum Leaves Changing Color (Early) 40.627270000000000 -74.851770000000000 53864
Thu Oct 08 00:00:00 GMT 2015 rosy Red maple Acer rubrum Leaves Dropping (Early) 40.627270000000000 -74.851770000000000 53865
Thu Oct 08 00:00:00 GMT 2015 rosy Red maple Acer rubrum Flowers (None) 40.627270000000000 -74.851770000000000 53866
Thu Oct 08 00:00:00 GMT 2015 rosy Red maple Acer rubrum Fruit (None) 40.627270000000000 -74.851770000000000 53867
Thu Oct 08 00:00:00 GMT 2015 stephthesizzler Red maple Acer rubrum Leaves Unfolding (Late) 40.627270000000000 -74.851770000000000 53843
Thu Oct 08 00:00:00 GMT 2015 stephthesizzler Red maple Acer rubrum Leaves Changing Color (Early) 40.627270000000000 -74.851770000000000 53844
Thu Oct 08 00:00:00 GMT 2015 stephthesizzler Red maple Acer rubrum Leaves Dropping (Middle) 40.627270000000000 -74.851770000000000 53845
Thu Oct 08 00:00:00 GMT 2015 stephthesizzler Red maple Acer rubrum Flowers (None) 40.627270000000000 -74.851770000000000 53847
Thu Oct 08 00:00:00 GMT 2015 stephthesizzler Red maple Acer rubrum Fruit (None) 40.627270000000000 -74.851770000000000 53849
Thu Oct 08 00:00:00 GMT 2015 ellab33 Red maple Acer rubrum Leaves Unfolding (None) 40.627270000000000 -74.851770000000000 53938
Thu Oct 08 00:00:00 GMT 2015 ellab33 Red maple Acer rubrum Leaves Changing Color (Middle) 40.627270000000000 -74.851770000000000 53939
Thu Oct 08 00:00:00 GMT 2015 ellab33 Red maple Acer rubrum Leaves Dropping (Middle) 40.627270000000000 -74.851770000000000 53940
Thu Oct 08 00:00:00 GMT 2015 ellab33 Red maple Acer rubrum Flowers (None) 40.627270000000000 -74.851770000000000 53941
Thu Oct 08 00:00:00 GMT 2015 ellab33 Red maple Acer rubrum Fruit (None) 40.627270000000000 -74.851770000000000 53942
Thu Oct 08 00:00:00 GMT 2015 gavcos123 Red maple Acer rubrum Leaves Unfolding (Late) 40.627270000000000 -74.851770000000000 53943
Thu Oct 08 00:00:00 GMT 2015 gavcos123 Red maple Acer rubrum Leaves Changing Color (Middle) 40.627270000000000 -74.851770000000000 53944
Thu Oct 08 00:00:00 GMT 2015 gavcos123 Red maple Acer rubrum Leaves Dropping (Middle) 40.627270000000000 -74.851770000000000 53945
Thu Oct 08 00:00:00 GMT 2015 gavcos123 Red maple Acer rubrum Flowers (None) 40.627270000000000 -74.851770000000000 53946
Thu Oct 08 00:00:00 GMT 2015 gavcos123 Red maple Acer rubrum Fruit (None) 40.627270000000000 -74.851770000000000 53947
Thu Oct 08 00:00:00 GMT 2015 stephaniegollop Red maple Acer rubrum Leaves Unfolding (None) 40.627270000000000 -74.851770000000000 54018
Thu Oct 08 00:00:00 GMT 2015 stephaniegollop Red maple Acer rubrum Leaves Changing Color (Middle) 40.627270000000000 -74.851770000000000 54019
Thu Oct 08 00:00:00 GMT 2015 stephaniegollop Red maple Acer rubrum Leaves Dropping (Middle) 40.627270000000000 -74.851770000000000 54020
Thu Oct 08 00:00:00 GMT 2015 stephaniegollop Red maple Acer rubrum Flowers (None) 40.627270000000000 -74.851770000000000 54021
Thu Oct 08 00:00:00 GMT 2015 stephaniegollop Red maple Acer rubrum Fruit (None) 40.627270000000000 -74.851770000000000 54022
Wed Oct 07 00:00:00 GMT 2015 amarikay Red maple Acer rubrum Leaves Unfolding (None) 40.627270000000000 -74.851770000000000 54028
Wed Oct 07 00:00:00 GMT 2015 amarikay Red maple Acer rubrum Leaves Changing Color (Early) 40.627270000000000 -74.851770000000000 54029
Wed Oct 07 00:00:00 GMT 2015 amarikay Red maple Acer rubrum Leaves Dropping (Middle) 40.627270000000000 -74.851770000000000 54030
Wed Oct 07 00:00:00 GMT 2015 amarikay Red maple Acer rubrum Flowers (None) 40.627270000000000 -74.851770000000000 54031
Wed Oct 07 00:00:00 GMT 2015 amarikay Red maple Acer rubrum Fruit (None) 40.627270000000000 -74.851770000000000 54032
Thu Oct 08 00:00:00 GMT 2015 steph_squidgy Red maple Acer rubrum Leaves Unfolding (Middle) 40.627270000000000 -74.851770000000000 53988
Thu Oct 08 00:00:00 GMT 2015 steph_squidgy Red maple Acer rubrum Leaves Changing Color (Late) 40.627270000000000 -74.851770000000000 53989
Thu Oct 08 00:00:00 GMT 2015 steph_squidgy Red maple Acer rubrum Leaves Dropping (Middle) 40.627270000000000 -74.851770000000000 53990
Thu Oct 08 00:00:00 GMT 2015 steph_squidgy Red maple Acer rubrum Flowers (None) 40.627270000000000 -74.851770000000000 53991
Thu Oct 08 00:00:00 GMT 2015 steph_squidgy Red maple Acer rubrum Fruit (None) 40.627270000000000 -74.851770000000000 53992
Fri Oct 09 00:00:00 GMT 2015 MOsman_Bellevue_State_Park_reporter12 Red maple Acer rubrum Leaves Unfolding (Middle) 39.783970000000000 -75.495100000000000 54104
Fri Oct 09 00:00:00 GMT 2015 MOsman_Bellevue_State_Park_reporter12 Red maple Acer rubrum Leaves Changing Color (None) 39.783970000000000 -75.495100000000000 54105
Fri Oct 09 00:00:00 GMT 2015 MOsman_Bellevue_State_Park_reporter12 Red maple Acer rubrum Leaves Dropping (Early) 39.783970000000000 -75.495100000000000 54106
Fri Oct 09 00:00:00 GMT 2015 MOsman_Bellevue_State_Park_reporter12 Red maple Acer rubrum Flowers (None) 39.783970000000000 -75.495100000000000 54107
Fri Oct 09 00:00:00 GMT 2015 MOsman_Bellevue_State_Park_reporter12 Red maple Acer rubrum Fruit (None) 39.783970000000000 -75.495100000000000 54109
Fri Oct 09 00:00:00 GMT 2015 dsavage Red maple Acer rubrum Leaves Unfolding (Late) 38.916751000000000 -77.536421000000000 54169
Fri Oct 09 00:00:00 GMT 2015 dsavage Red maple Acer rubrum Leaves Changing Color (None) 38.916751000000000 -77.536421000000000 54170
Fri Oct 09 00:00:00 GMT 2015 dsavage Red maple Acer rubrum Leaves Dropping (None) 38.916751000000000 -77.536421000000000 54171
Fri Oct 09 00:00:00 GMT 2015 dsavage Red maple Acer rubrum Flowers (None) 38.916751000000000 -77.536421000000000 54172
Fri Oct 09 00:00:00 GMT 2015 dsavage Red maple Acer rubrum Fruit (None) 38.916751000000000 -77.536421000000000 54173
Fri Oct 09 00:00:00 GMT 2015 dsavage Red maple Acer rubrum Leaves Unfolding (Late) 38.917070000000000 -77.536362000000000 54174
Fri Oct 09 00:00:00 GMT 2015 dsavage Red maple Acer rubrum Leaves Changing Color (None) 38.917070000000000 -77.536362000000000 54175
Fri Oct 09 00:00:00 GMT 2015 dsavage Red maple Acer rubrum Leaves Dropping (None) 38.917070000000000 -77.536362000000000 54176
Fri Oct 09 00:00:00 GMT 2015 dsavage Red maple Acer rubrum Flowers (None) 38.917070000000000 -77.536362000000000 54177
Fri Oct 09 00:00:00 GMT 2015 dsavage Red maple Acer rubrum Fruit (None) 38.917070000000000 -77.536362000000000 54178
Sun Oct 11 00:00:00 GMT 2015 dsavage Red maple Acer rubrum Leaves Unfolding (Late) 38.911640000000000 -77.536960000000000 54186
Sun Oct 11 00:00:00 GMT 2015 dsavage Red maple Acer rubrum Leaves Changing Color (Early) 38.911640000000000 -77.536960000000000 54187
Sun Oct 11 00:00:00 GMT 2015 dsavage Red maple Acer rubrum Leaves Dropping (None) 38.911640000000000 -77.536960000000000 54188
Sun Oct 11 00:00:00 GMT 2015 dsavage Red maple Acer rubrum Flowers (None) 38.911640000000000 -77.536960000000000 54189
Sun Oct 11 00:00:00 GMT 2015 dsavage Red maple Acer rubrum Fruit (None) 38.911640000000000 -77.536960000000000 54190
Sun Oct 11 00:00:00 GMT 2015 Angelyn Red maple Acer rubrum 50% Color 35.619100000000000 -82.765100000000000 54220
Sun Oct 11 00:00:00 GMT 2015 dsavage Red maple Acer rubrum Leaves Unfolding (Late) 38.913517000000000 -77.537240000000000 54191
Sun Oct 11 00:00:00 GMT 2015 dsavage Red maple Acer rubrum Leaves Changing Color (Early) 38.913517000000000 -77.537240000000000 54192
Sun Oct 11 00:00:00 GMT 2015 dsavage Red maple Acer rubrum Leaves Dropping (None) 38.913517000000000 -77.537240000000000 54193
Sun Oct 11 00:00:00 GMT 2015 dsavage Red maple Acer rubrum Flowers (None) 38.913517000000000 -77.537240000000000 54194
Sun Oct 11 00:00:00 GMT 2015 dsavage Red maple Acer rubrum Fruit (None) 38.913517000000000 -77.537240000000000 54195
Tue Oct 13 00:00:00 GMT 2015 Dutch_2736 Red maple Acer rubrum Leaves Unfolding (Middle) 41.401280000000000 -92.923671000000000 54233
Tue Oct 13 00:00:00 GMT 2015 Dutch_2736 Red maple Acer rubrum Leaves Changing Color (Middle) 41.401280000000000 -92.923671000000000 54234
Tue Oct 13 00:00:00 GMT 2015 Dutch_2736 Red maple Acer rubrum Leaves Dropping (Early) 41.401280000000000 -92.923671000000000 54235
Tue Oct 13 00:00:00 GMT 2015 Dutch_2736 Red maple Acer rubrum Flowers (None) 41.401280000000000 -92.923671000000000 54236
Tue Oct 13 00:00:00 GMT 2015 Dutch_2736 Red maple Acer rubrum Fruit (None) 41.401280000000000 -92.923671000000000 54237
Wed Oct 14 00:00:00 GMT 2015 dsavage Red maple Acer rubrum Leaves Changing Color (Early) 38.916751000000000 -77.536421000000000 54254
Wed Oct 14 00:00:00 GMT 2015 dsavage Red maple Acer rubrum Leaves Dropping (None) 38.916751000000000 -77.536421000000000 54255
Wed Oct 14 00:00:00 GMT 2015 dsavage Red maple Acer rubrum Flowers (None) 38.916751000000000 -77.536421000000000 54256
Wed Oct 14 00:00:00 GMT 2015 dsavage Red maple Acer rubrum Fruit (None) 38.916751000000000 -77.536421000000000 54257
Wed Oct 14 00:00:00 GMT 2015 dsavage Red maple Acer rubrum Leaves Unfolding (None) 38.916751000000000 -77.536421000000000 54253
Wed Oct 14 00:00:00 GMT 2015 dsavage Red maple Acer rubrum Leaves Unfolding (None) 38.917070000000000 -77.536362000000000 54258
Wed Oct 14 00:00:00 GMT 2015 dsavage Red maple Acer rubrum Leaves Changing Color (None) 38.917070000000000 -77.536362000000000 54259
Wed Oct 14 00:00:00 GMT 2015 dsavage Red maple Acer rubrum Leaves Dropping (None) 38.917070000000000 -77.536362000000000 54260
Wed Oct 14 00:00:00 GMT 2015 dsavage Red maple Acer rubrum Flowers (None) 38.917070000000000 -77.536362000000000 54261
Wed Oct 14 00:00:00 GMT 2015 dsavage Red maple Acer rubrum Fruit (None) 38.917070000000000 -77.536362000000000 54262
Thu Oct 15 00:00:00 GMT 2015 StPaulEagles Red maple Acer rubrum Leaves Unfolding (None) 27.900000000000000 -81.900000000000000 54288
Thu Oct 15 00:00:00 GMT 2015 StPaulEagles Red maple Acer rubrum Leaves Changing Color (Early) 27.900000000000000 -81.900000000000000 54289
Thu Oct 15 00:00:00 GMT 2015 StPaulEagles Red maple Acer rubrum Leaves Dropping (None) 27.900000000000000 -81.900000000000000 54290
Thu Oct 15 00:00:00 GMT 2015 StPaulEagles Red maple Acer rubrum Flowers (None) 27.900000000000000 -81.900000000000000 54291
Thu Oct 15 00:00:00 GMT 2015 StPaulEagles Red maple Acer rubrum Fruit (None) 27.900000000000000 -81.900000000000000 54292
Thu Oct 08 00:00:00 GMT 2015 Vermontree_Red_Core_reporter6 Red maple Acer rubrum 50% Color 44.255456000000000 -72.784477000000000 54311
Fri Oct 09 00:00:00 GMT 2015 Vermontree_Red_Core_reporter6 Red maple Acer rubrum 50% Leaf Fall 44.255456000000000 -72.784477000000000 54312
Thu Oct 08 00:00:00 GMT 2015 Vermontree_Yellow_Core_reporter4 Red maple Acer rubrum 50% Leaf Fall 44.252496000000000 -72.784392000000000 54323
Thu Oct 15 00:00:00 GMT 2015 KChapman Red maple Acer rubrum Leaves Unfolding (Late) 41.676810000000000 -87.801220000000000 54389
Thu Oct 15 00:00:00 GMT 2015 KChapman Red maple Acer rubrum Leaves Changing Color (Middle) 41.676810000000000 -87.801220000000000 54390
Thu Oct 15 00:00:00 GMT 2015 KChapman Red maple Acer rubrum Leaves Dropping (Early) 41.676810000000000 -87.801220000000000 54391
Thu Oct 15 00:00:00 GMT 2015 KChapman Red maple Acer rubrum Flowers (None) 41.676810000000000 -87.801220000000000 54392
Thu Oct 15 00:00:00 GMT 2015 KChapman Red maple Acer rubrum Fruit (None) 41.676810000000000 -87.801220000000000 54393
Thu Oct 01 00:00:00 GMT 2015 KChapman Red maple Acer rubrum Leaves Unfolding (None) 41.676810000000000 -87.801220000000000 54351
Thu Oct 01 00:00:00 GMT 2015 KChapman Red maple Acer rubrum Leaves Dropping (None) 41.676810000000000 -87.801220000000000 54353
Thu Oct 01 00:00:00 GMT 2015 KChapman Red maple Acer rubrum Flowers (None) 41.676810000000000 -87.801220000000000 54354
Thu Oct 01 00:00:00 GMT 2015 KChapman Red maple Acer rubrum Fruit (None) 41.676810000000000 -87.801220000000000 54355
Mon Oct 12 00:00:00 GMT 2015 TC_HRT145Observer5 Red maple Acer rubrum Leaves Unfolding (Late) 41.673640000000000 -88.001730000000000 54499
Mon Oct 12 00:00:00 GMT 2015 TC_HRT145Observer5 Red maple Acer rubrum Leaves Changing Color (Middle) 41.673640000000000 -88.001730000000000 54500
Mon Oct 12 00:00:00 GMT 2015 TC_HRT145Observer5 Red maple Acer rubrum Leaves Dropping (None) 41.673640000000000 -88.001730000000000 54501
Mon Oct 12 00:00:00 GMT 2015 TC_HRT145Observer5 Red maple Acer rubrum Flowers (Late) 41.673640000000000 -88.001730000000000 54502
Mon Oct 12 00:00:00 GMT 2015 TC_HRT145Observer5 Red maple Acer rubrum Fruit (Late) 41.673640000000000 -88.001730000000000 54503
Fri Oct 09 00:00:00 GMT 2015 TC_HRT145Observer5 Red maple Acer rubrum All Leaves Unfolded 41.878110000000000 -87.629800000000000 54504
Fri Oct 09 00:00:00 GMT 2015 TC_HRT145Observer5 Red maple Acer rubrum 50% Color 41.878110000000000 -87.629800000000000 54505
Mon Oct 19 00:00:00 GMT 2015 TC_HRT145Observer5 Red maple Acer rubrum Leaves Unfolding (Late) 41.673640000000000 -88.001730000000000 54506
Mon Oct 19 00:00:00 GMT 2015 TC_HRT145Observer5 Red maple Acer rubrum Leaves Changing Color (Late) 41.673640000000000 -88.001730000000000 54507
Mon Oct 19 00:00:00 GMT 2015 TC_HRT145Observer5 Red maple Acer rubrum Leaves Dropping (None) 41.673640000000000 -88.001730000000000 54508
Mon Oct 19 00:00:00 GMT 2015 TC_HRT145Observer5 Red maple Acer rubrum Flowers (Late) 41.673640000000000 -88.001730000000000 54509
Mon Oct 19 00:00:00 GMT 2015 TC_HRT145Observer5 Red maple Acer rubrum Fruit (Late) 41.673640000000000 -88.001730000000000 54510
Mon Oct 19 00:00:00 GMT 2015 TC_HRT145Observer5 Red maple Acer rubrum Leaves Unfolding (Late) 41.878110000000000 -87.629800000000000 54511
Mon Oct 19 00:00:00 GMT 2015 TC_HRT145Observer5 Red maple Acer rubrum Leaves Changing Color (Middle) 41.878110000000000 -87.629800000000000 54512
Mon Oct 19 00:00:00 GMT 2015 TC_HRT145Observer5 Red maple Acer rubrum Leaves Dropping (Early) 41.878110000000000 -87.629800000000000 54513
Mon Oct 19 00:00:00 GMT 2015 TC_HRT145Observer5 Red maple Acer rubrum Flowers (Late) 41.878110000000000 -87.629800000000000 54514
Mon Oct 19 00:00:00 GMT 2015 TC_HRT145Observer5 Red maple Acer rubrum Fruit (Late) 41.878110000000000 -87.629800000000000 54515
Fri Oct 09 00:00:00 GMT 2015 TC_HRT145Observer5 Red maple Acer rubrum Leaves Unfolding (Late) 41.878110000000000 -87.629800000000000 54494
Fri Oct 09 00:00:00 GMT 2015 TC_HRT145Observer5 Red maple Acer rubrum Leaves Changing Color (Middle) 41.878110000000000 -87.629800000000000 54495
Fri Oct 09 00:00:00 GMT 2015 TC_HRT145Observer5 Red maple Acer rubrum Leaves Dropping (None) 41.878110000000000 -87.629800000000000 54496
Fri Oct 09 00:00:00 GMT 2015 TC_HRT145Observer5 Red maple Acer rubrum Flowers (Late) 41.878110000000000 -87.629800000000000 54497
Fri Oct 09 00:00:00 GMT 2015 TC_HRT145Observer5 Red maple Acer rubrum Fruit (Late) 41.878110000000000 -87.629800000000000 54498
Sun Oct 18 00:00:00 GMT 2015 mollyewells Red maple Acer rubrum Leaves Unfolding (Late) 35.614910000000000 -77.350260000000000 54530
Sun Oct 18 00:00:00 GMT 2015 mollyewells Red maple Acer rubrum Leaves Changing Color (Late) 35.614910000000000 -77.350260000000000 54531
Sun Oct 18 00:00:00 GMT 2015 mollyewells Red maple Acer rubrum Leaves Dropping (Early) 35.614910000000000 -77.350260000000000 54532
Sun Oct 18 00:00:00 GMT 2015 mollyewells Red maple Acer rubrum Flowers (None) 35.614910000000000 -77.350260000000000 54533
Sun Oct 18 00:00:00 GMT 2015 mollyewells Red maple Acer rubrum Fruit (None) 35.614910000000000 -77.350260000000000 54534
Tue Oct 13 00:00:00 GMT 2015 dsavage Red maple Acer rubrum Leaves Unfolding (None) 38.911640000000000 -77.536965000000000 54564
Tue Oct 13 00:00:00 GMT 2015 dsavage Red maple Acer rubrum Leaves Changing Color (Early) 38.911640000000000 -77.536965000000000 54565
Tue Oct 13 00:00:00 GMT 2015 dsavage Red maple Acer rubrum Leaves Dropping (None) 38.911640000000000 -77.536965000000000 54566
Tue Oct 13 00:00:00 GMT 2015 dsavage Red maple Acer rubrum Flowers (None) 38.911640000000000 -77.536965000000000 54567
Tue Oct 13 00:00:00 GMT 2015 dsavage Red maple Acer rubrum Fruit (None) 38.911640000000000 -77.536965000000000 54568
Tue Oct 20 00:00:00 GMT 2015 dsavage Red maple Acer rubrum Leaves Unfolding (None) 38.913517000000000 -77.537240000000000 54600
Tue Oct 20 00:00:00 GMT 2015 dsavage Red maple Acer rubrum Leaves Changing Color (Early) 38.913517000000000 -77.537240000000000 54601
Tue Oct 20 00:00:00 GMT 2015 dsavage Red maple Acer rubrum Leaves Dropping (None) 38.913517000000000 -77.537240000000000 54602
Tue Oct 20 00:00:00 GMT 2015 dsavage Red maple Acer rubrum Flowers (None) 38.913517000000000 -77.537240000000000 54603
Tue Oct 20 00:00:00 GMT 2015 dsavage Red maple Acer rubrum Fruit (None) 38.913517000000000 -77.537240000000000 54604
Sun Oct 25 00:00:00 GMT 2015 elsgs Red maple Acer rubrum Leaves Unfolding (None) 38.988127000000000 -77.197473000000000 54944
Sun Oct 25 00:00:00 GMT 2015 elsgs Red maple Acer rubrum Leaves Changing Color (Late) 38.988127000000000 -77.197473000000000 54945
Sun Oct 25 00:00:00 GMT 2015 elsgs Red maple Acer rubrum Leaves Dropping (Late) 38.988127000000000 -77.197473000000000 54946
Sun Oct 25 00:00:00 GMT 2015 elsgs Red maple Acer rubrum Flowers (None) 38.988127000000000 -77.197473000000000 54947
Sun Oct 25 00:00:00 GMT 2015 elsgs Red maple Acer rubrum Fruit (None) 38.988127000000000 -77.197473000000000 54948
Sun Oct 25 00:00:00 GMT 2015 elsgs Red maple Acer rubrum Leaves Unfolding (None) 38.860532000000000 -77.433786000000000 54949
Sun Oct 25 00:00:00 GMT 2015 elsgs Red maple Acer rubrum Leaves Changing Color (Middle) 38.860532000000000 -77.433786000000000 54950
Sun Oct 25 00:00:00 GMT 2015 elsgs Red maple Acer rubrum Leaves Dropping (Middle) 38.860532000000000 -77.433786000000000 54951
Sun Oct 25 00:00:00 GMT 2015 elsgs Red maple Acer rubrum Flowers (None) 38.860532000000000 -77.433786000000000 54952
Sun Oct 25 00:00:00 GMT 2015 elsgs Red maple Acer rubrum Fruit (None) 38.860532000000000 -77.433786000000000 54953
Thu Oct 22 00:00:00 GMT 2015 MOsman_Bellevue_State_Park_reporter24 Red maple Acer rubrum Leaves Unfolding (Late) 39.774868000000000 -75.503712000000000 54978
Thu Oct 22 00:00:00 GMT 2015 MOsman_Bellevue_State_Park_reporter24 Red maple Acer rubrum Leaves Changing Color (None) 39.774868000000000 -75.503712000000000 54979
Thu Oct 22 00:00:00 GMT 2015 MOsman_Bellevue_State_Park_reporter24 Red maple Acer rubrum Leaves Dropping (None) 39.774868000000000 -75.503712000000000 54980
Thu Oct 22 00:00:00 GMT 2015 MOsman_Bellevue_State_Park_reporter24 Red maple Acer rubrum Flowers (Late) 39.774868000000000 -75.503712000000000 54981
Thu Oct 22 00:00:00 GMT 2015 MOsman_Bellevue_State_Park_reporter24 Red maple Acer rubrum Fruit (Late) 39.774868000000000 -75.503712000000000 54982
Thu Sep 17 00:00:00 GMT 2015 wxdude225 Red maple Acer rubrum 50% Color 43.641470000000000 -70.240880000000000 54997
Wed Oct 07 00:00:00 GMT 2015 wxdude225 Red maple Acer rubrum 50% Leaf Fall 43.641470000000000 -70.240880000000000 54998
Mon Oct 26 00:00:00 GMT 2015 Dutch_2736 Red maple Acer rubrum Leaves Unfolding (Late) 41.401270000000000 -92.923683000000000 54987
Mon Oct 26 00:00:00 GMT 2015 Dutch_2736 Red maple Acer rubrum Leaves Changing Color (Late) 41.401270000000000 -92.923683000000000 54988
Mon Oct 26 00:00:00 GMT 2015 Dutch_2736 Red maple Acer rubrum Leaves Dropping (Middle) 41.401270000000000 -92.923683000000000 54989
Mon Oct 26 00:00:00 GMT 2015 Dutch_2736 Red maple Acer rubrum Flowers (None) 41.401270000000000 -92.923683000000000 54990
Mon Oct 26 00:00:00 GMT 2015 Dutch_2736 Red maple Acer rubrum Fruit (None) 41.401270000000000 -92.923683000000000 54991
Wed Oct 28 00:00:00 GMT 2015 WildwoodAdmin Red maple Acer rubrum 50% Leaf Fall 42.751200000000000 -72.009800000000000 55070
Thu Oct 29 00:00:00 GMT 2015 dsavage Red maple Acer rubrum Leaves Unfolding (None) 38.911640000000000 -77.536965000000000 55142
Thu Oct 29 00:00:00 GMT 2015 dsavage Red maple Acer rubrum Leaves Changing Color (Late) 38.911640000000000 -77.536965000000000 55143
Thu Oct 29 00:00:00 GMT 2015 dsavage Red maple Acer rubrum Leaves Dropping (Middle) 38.911640000000000 -77.536965000000000 55144
Thu Oct 29 00:00:00 GMT 2015 dsavage Red maple Acer rubrum Flowers (None) 38.911640000000000 -77.536965000000000 55145
Thu Oct 29 00:00:00 GMT 2015 dsavage Red maple Acer rubrum Fruit (None) 38.911640000000000 -77.536965000000000 55146
Thu Oct 29 00:00:00 GMT 2015 kingofswag Red maple Acer rubrum 50% Color 39.278990000000000 -76.836850000000000 55234
Sun Nov 01 00:00:00 GMT 2015 Vermontree Red maple Acer rubrum Leaves Unfolding (Late) 44.254136000000000 -72.784590000000000 55258
Sun Nov 01 00:00:00 GMT 2015 Vermontree Red maple Acer rubrum Leaves Changing Color (Middle) 44.254136000000000 -72.784590000000000 55259
Sun Nov 01 00:00:00 GMT 2015 Vermontree Red maple Acer rubrum Leaves Dropping (Early) 44.254136000000000 -72.784590000000000 55260
Sun Nov 01 00:00:00 GMT 2015 Vermontree Red maple Acer rubrum Flowers (Late) 44.254136000000000 -72.784590000000000 55261
Sun Nov 01 00:00:00 GMT 2015 Vermontree Red maple Acer rubrum Fruit (Late) 44.254136000000000 -72.784590000000000 55262
Mon Nov 02 00:00:00 GMT 2015 dhanniga Red maple Acer rubrum Leaves Unfolding (Late) 42.568980000000000 -83.197410000000000 55295
Mon Nov 02 00:00:00 GMT 2015 dhanniga Red maple Acer rubrum Leaves Changing Color (Late) 42.568980000000000 -83.197410000000000 55296
Mon Nov 02 00:00:00 GMT 2015 dhanniga Red maple Acer rubrum Leaves Dropping (Late) 42.568980000000000 -83.197410000000000 55297
Mon Nov 02 00:00:00 GMT 2015 dhanniga Red maple Acer rubrum Flowers (None) 42.568980000000000 -83.197410000000000 55298
Mon Nov 02 00:00:00 GMT 2015 dhanniga Red maple Acer rubrum Fruit (None) 42.568980000000000 -83.197410000000000 55299
Mon Nov 02 00:00:00 GMT 2015 Ryl3e_11 Red maple Acer rubrum Leaves Unfolding (Late) 44.667635000000000 -73.600110000000000 55305
Mon Nov 02 00:00:00 GMT 2015 Ryl3e_11 Red maple Acer rubrum Leaves Changing Color (Middle) 44.667635000000000 -73.600110000000000 55306
Mon Nov 02 00:00:00 GMT 2015 Ryl3e_11 Red maple Acer rubrum Leaves Dropping (Early) 44.667635000000000 -73.600110000000000 55307
Mon Nov 02 00:00:00 GMT 2015 Ryl3e_11 Red maple Acer rubrum Flowers (None) 44.667635000000000 -73.600110000000000 55308
Mon Nov 02 00:00:00 GMT 2015 Ryl3e_11 Red maple Acer rubrum Fruit (None) 44.667635000000000 -73.600110000000000 55309
Thu Apr 30 00:00:00 GMT 2015 reinsteinwoods Red maple Acer rubrum Bud Burst 42.886600000000000 -78.718100000000000 55369
Tue May 12 00:00:00 GMT 2015 reinsteinwoods Red maple Acer rubrum First Leaf 42.886600000000000 -78.718100000000000 55370
Sun Jun 21 00:00:00 GMT 2015 reinsteinwoods Red maple Acer rubrum All Leaves Unfolded 42.886600000000000 -78.718100000000000 55371
Thu Jul 02 00:00:00 GMT 2015 reinsteinwoods Red maple Acer rubrum First Flower 42.886600000000000 -78.718100000000000 55372
Wed Jul 15 00:00:00 GMT 2015 reinsteinwoods Red maple Acer rubrum Full Flower 42.886600000000000 -78.718100000000000 55373
Wed Jul 29 00:00:00 GMT 2015 reinsteinwoods Red maple Acer rubrum First Ripe Fruit 42.886600000000000 -78.718100000000000 55374
Wed Aug 05 00:00:00 GMT 2015 reinsteinwoods Red maple Acer rubrum Full Fruiting 42.886600000000000 -78.718100000000000 55375
Tue Oct 13 00:00:00 GMT 2015 reinsteinwoods Red maple Acer rubrum 50% Color 42.886600000000000 -78.718100000000000 55376
Tue Oct 27 00:00:00 GMT 2015 reinsteinwoods Red maple Acer rubrum 50% Leaf Fall 42.886600000000000 -78.718100000000000 55377
Mon Nov 02 00:00:00 GMT 2015 rshuman Red maple Acer rubrum Leaves Unfolding (Late) 44.697536000000000 -73.463670000000000 55429
Mon Nov 02 00:00:00 GMT 2015 rshuman Red maple Acer rubrum Leaves Changing Color (Late) 44.697536000000000 -73.463670000000000 55430
Mon Nov 02 00:00:00 GMT 2015 rshuman Red maple Acer rubrum Leaves Dropping (Late) 44.697536000000000 -73.463670000000000 55431
Mon Nov 02 00:00:00 GMT 2015 rshuman Red maple Acer rubrum Flowers (None) 44.697536000000000 -73.463670000000000 55432
Mon Nov 02 00:00:00 GMT 2015 rshuman Red maple Acer rubrum Fruit (None) 44.697536000000000 -73.463670000000000 55433
Wed Nov 04 00:00:00 GMT 2015 rshuman Red maple Acer rubrum Leaves Unfolding (None) 44.665430000000000 -73.729870000000000 55890
Wed Nov 04 00:00:00 GMT 2015 rshuman Red maple Acer rubrum Leaves Changing Color (Late) 44.665430000000000 -73.729870000000000 55891
Wed Nov 04 00:00:00 GMT 2015 rshuman Red maple Acer rubrum Leaves Dropping (Late) 44.665430000000000 -73.729870000000000 55892
Wed Nov 04 00:00:00 GMT 2015 rshuman Red maple Acer rubrum Flowers (None) 44.665430000000000 -73.729870000000000 55893
Wed Nov 04 00:00:00 GMT 2015 rshuman Red maple Acer rubrum Fruit (None) 44.665430000000000 -73.729870000000000 55894
Wed Oct 28 00:00:00 GMT 2015 rshuman Red maple Acer rubrum Leaves Unfolding (None) 44.665430000000000 -73.729870000000000 55941
Wed Oct 28 00:00:00 GMT 2015 rshuman Red maple Acer rubrum Leaves Changing Color (Middle) 44.665430000000000 -73.729870000000000 55942
Wed Oct 28 00:00:00 GMT 2015 rshuman Red maple Acer rubrum Leaves Dropping (Early) 44.665430000000000 -73.729870000000000 55943
Wed Oct 28 00:00:00 GMT 2015 rshuman Red maple Acer rubrum Flowers (None) 44.665430000000000 -73.729870000000000 55944
Wed Oct 28 00:00:00 GMT 2015 rshuman Red maple Acer rubrum Fruit (None) 44.665430000000000 -73.729870000000000 55945
Wed Nov 04 00:00:00 GMT 2015 rshuman Red maple Acer rubrum Leaves Unfolding (None) 44.665430000000000 -73.729870000000000 56137
Wed Nov 04 00:00:00 GMT 2015 rshuman Red maple Acer rubrum Leaves Changing Color (Late) 44.665430000000000 -73.729870000000000 56138
Wed Nov 04 00:00:00 GMT 2015 rshuman Red maple Acer rubrum Leaves Dropping (Late) 44.665430000000000 -73.729870000000000 56139
Wed Nov 04 00:00:00 GMT 2015 rshuman Red maple Acer rubrum Flowers (None) 44.665430000000000 -73.729870000000000 56140
Wed Nov 04 00:00:00 GMT 2015 rshuman Red maple Acer rubrum Fruit (None) 44.665430000000000 -73.729870000000000 56141
Wed Nov 04 00:00:00 GMT 2015 rshuman Red maple Acer rubrum Leaves Unfolding (None) 44.689520000000000 -73.662090000000000 56152
Wed Nov 04 00:00:00 GMT 2015 rshuman Red maple Acer rubrum Leaves Changing Color (Late) 44.689520000000000 -73.662090000000000 56153
Wed Nov 04 00:00:00 GMT 2015 rshuman Red maple Acer rubrum Leaves Dropping (Late) 44.689520000000000 -73.662090000000000 56154
Wed Nov 04 00:00:00 GMT 2015 rshuman Red maple Acer rubrum Flowers (None) 44.689520000000000 -73.662090000000000 56155
Wed Nov 04 00:00:00 GMT 2015 rshuman Red maple Acer rubrum Fruit (None) 44.689520000000000 -73.662090000000000 56156
Wed Nov 04 00:00:00 GMT 2015 rshuman Red maple Acer rubrum Leaves Unfolding (None) 44.721430000000000 -73.723750000000000 56282
Wed Nov 04 00:00:00 GMT 2015 rshuman Red maple Acer rubrum Leaves Changing Color (Late) 44.721430000000000 -73.723750000000000 56284
Wed Nov 04 00:00:00 GMT 2015 rshuman Red maple Acer rubrum Leaves Dropping (Late) 44.721430000000000 -73.723750000000000 56286
Wed Nov 04 00:00:00 GMT 2015 rshuman Red maple Acer rubrum Flowers (None) 44.721430000000000 -73.723750000000000 56288
Wed Nov 04 00:00:00 GMT 2015 rshuman Red maple Acer rubrum Fruit (None) 44.721430000000000 -73.723750000000000 56290
Thu Nov 05 00:00:00 GMT 2015 briggs5B Red maple Acer rubrum Leaves Unfolding (Late) 42.615070000000000 -71.928020000000000 56492
Thu Nov 05 00:00:00 GMT 2015 briggs5B Red maple Acer rubrum Leaves Changing Color (Late) 42.615070000000000 -71.928020000000000 56493
Thu Nov 05 00:00:00 GMT 2015 briggs5B Red maple Acer rubrum Leaves Dropping (Late) 42.615070000000000 -71.928020000000000 56494
Thu Nov 05 00:00:00 GMT 2015 briggs5B Red maple Acer rubrum Flowers (None) 42.615070000000000 -71.928020000000000 56495
Thu Nov 05 00:00:00 GMT 2015 briggs5B Red maple Acer rubrum Fruit (None) 42.615070000000000 -71.928020000000000 56496
Thu Nov 05 00:00:00 GMT 2015 villanuevas1 Red maple Acer rubrum Leaves Unfolding (Early) 41.401069000000000 -92.920690000000000 56513
Thu Nov 05 00:00:00 GMT 2015 villanuevas1 Red maple Acer rubrum Leaves Changing Color (Middle) 41.401069000000000 -92.920690000000000 56514
Thu Nov 05 00:00:00 GMT 2015 villanuevas1 Red maple Acer rubrum Leaves Dropping (Middle) 41.401069000000000 -92.920690000000000 56515
Thu Nov 05 00:00:00 GMT 2015 villanuevas1 Red maple Acer rubrum Flowers (Middle) 41.401069000000000 -92.920690000000000 56516
Thu Nov 05 00:00:00 GMT 2015 villanuevas1 Red maple Acer rubrum Fruit (Middle) 41.401069000000000 -92.920690000000000 56517
Sat Nov 07 00:00:00 GMT 2015 kingofswag Red maple Acer rubrum 50% Leaf Fall 39.278990000000000 -76.836850000000000 56593
Wed Nov 11 00:00:00 GMT 2015 tginder Red maple Acer rubrum Leaves Unfolding (Late) 39.777410000000000 -86.163490000000000 56664
Wed Nov 11 00:00:00 GMT 2015 tginder Red maple Acer rubrum Leaves Changing Color (Early) 39.777410000000000 -86.163490000000000 56665
Wed Nov 11 00:00:00 GMT 2015 tginder Red maple Acer rubrum Leaves Dropping (Late) 39.777410000000000 -86.163490000000000 56666
Wed Nov 11 00:00:00 GMT 2015 tginder Red maple Acer rubrum Flowers (Middle) 39.777410000000000 -86.163490000000000 56667
Wed Nov 11 00:00:00 GMT 2015 tginder Red maple Acer rubrum Fruit (Late) 39.777410000000000 -86.163490000000000 56668
Wed Nov 11 00:00:00 GMT 2015 cmcdonald Red maple Acer rubrum Leaves Unfolding (Late) 39.168850000000000 -86.516470000000000 56674
Wed Nov 11 00:00:00 GMT 2015 cmcdonald Red maple Acer rubrum Leaves Changing Color (Late) 39.168850000000000 -86.516470000000000 56675
Wed Nov 11 00:00:00 GMT 2015 cmcdonald Red maple Acer rubrum Leaves Dropping (Late) 39.168850000000000 -86.516470000000000 56676
Wed Nov 11 00:00:00 GMT 2015 cmcdonald Red maple Acer rubrum Flowers (Late) 39.168850000000000 -86.516470000000000 56677
Wed Nov 11 00:00:00 GMT 2015 cmcdonald Red maple Acer rubrum Fruit (Late) 39.168850000000000 -86.516470000000000 56678
Thu Nov 12 00:00:00 GMT 2015 Parsley Red maple Acer rubrum Bud Burst 39.243735000000000 -76.595120000000000 57098
Thu Nov 12 00:00:00 GMT 2015 Parsley Red maple Acer rubrum 50% Color 39.243735000000000 -76.595120000000000 57099
Tue Oct 27 00:00:00 GMT 2015 aes3 Red maple Acer rubrum 50% Color 39.166600000000000 -86.511710000000000 57143
Thu Oct 29 00:00:00 GMT 2015 aes3 Red maple Acer rubrum 50% Leaf Fall 39.166600000000000 -86.511710000000000 57144
Mon Oct 05 00:00:00 GMT 2015 katyw5 Red maple Acer rubrum 50% Color 39.146366000000000 -86.491435000000000 57245
Thu Oct 29 00:00:00 GMT 2015 katyw5 Red maple Acer rubrum 50% Leaf Fall 39.146366000000000 -86.491435000000000 57246
Tue May 05 00:00:00 GMT 2015 Audubon Red maple Acer rubrum All Leaves Unfolded 40.545200000000000 -79.907400000000000 57314
Tue Oct 13 00:00:00 GMT 2015 Audubon Red maple Acer rubrum 50% Color 40.545200000000000 -79.907400000000000 57315
Tue Oct 27 00:00:00 GMT 2015 echenderson Red maple Acer rubrum 50% Color 39.162180000000000 -86.515260000000000 57340
Sun Oct 04 00:00:00 GMT 2015 echenderson Red maple Acer rubrum 50% Leaf Fall 39.162180000000000 -86.515260000000000 57341
Tue Oct 13 00:00:00 GMT 2015 kelseynewhouse7 Red maple Acer rubrum 50% Color 40.000000000000000 -100.000000000000000 57378
Fri Nov 13 00:00:00 GMT 2015 kelseynewhouse7 Red maple Acer rubrum 50% Leaf Fall 40.000000000000000 -100.000000000000000 57379
Thu Sep 03 00:00:00 GMT 2015 macschul Red maple Acer rubrum All Leaves Unfolded 39.179050000000000 -86.518990000000000 57574
Sat Oct 03 00:00:00 GMT 2015 macschul Red maple Acer rubrum 50% Color 39.179050000000000 -86.518990000000000 57575
Tue Oct 13 00:00:00 GMT 2015 macschul Red maple Acer rubrum 50% Leaf Fall 39.179050000000000 -86.518990000000000 57576
Wed Sep 16 00:00:00 GMT 2015 aroebbel Red maple Acer rubrum 50% Color 39.167888000000000 -86.513485000000000 57445
Wed Oct 14 00:00:00 GMT 2015 aroebbel Red maple Acer rubrum 50% Leaf Fall 39.167888000000000 -86.513485000000000 57446
Fri Oct 16 00:00:00 GMT 2015 Danisolman Red maple Acer rubrum 50% Color 39.167460000000000 -86.523570000000000 57510
Sun Oct 18 00:00:00 GMT 2015 Danisolman Red maple Acer rubrum 50% Leaf Fall 39.167460000000000 -86.523570000000000 57511
Sun Oct 25 00:00:00 GMT 2015 mmeril Red maple Acer rubrum 50% Color 40.000000000000000 -100.000000000000000 57518
Mon Nov 09 00:00:00 GMT 2015 mmeril Red maple Acer rubrum 50% Leaf Fall 40.000000000000000 -100.000000000000000 57519
Thu Oct 22 00:00:00 GMT 2015 sonji13 Red maple Acer rubrum 50% Color 40.178873000000000 -86.418457000000000 57532
Thu Oct 29 00:00:00 GMT 2015 sonji13 Red maple Acer rubrum 50% Leaf Fall 40.178873000000000 -86.418457000000000 57533
Mon Oct 12 00:00:00 GMT 2015 akjordan Red maple Acer rubrum 50% Color 39.095963000000000 -86.473389000000000 57546
Fri Oct 30 00:00:00 GMT 2015 akjordan Red maple Acer rubrum 50% Leaf Fall 39.095963000000000 -86.473389000000000 57547
Mon Oct 05 00:00:00 GMT 2015 greidenb Red maple Acer rubrum 50% Color 39.167060000000000 -86.512620000000000 57406
Mon Oct 26 00:00:00 GMT 2015 greidenb Red maple Acer rubrum 50% Leaf Fall 39.167060000000000 -86.512620000000000 57407
Wed Nov 04 00:00:00 GMT 2015 brooklyn2014 Red maple Acer rubrum Leaves Unfolding (Late) 38.814700000000000 -82.930600000000000 57671
Wed Nov 04 00:00:00 GMT 2015 brooklyn2014 Red maple Acer rubrum Leaves Changing Color (Late) 38.814700000000000 -82.930600000000000 57672
Wed Nov 04 00:00:00 GMT 2015 brooklyn2014 Red maple Acer rubrum Leaves Dropping (Middle) 38.814700000000000 -82.930600000000000 57673
Wed Nov 04 00:00:00 GMT 2015 brooklyn2014 Red maple Acer rubrum Flowers (None) 38.814700000000000 -82.930600000000000 57674
Wed Nov 04 00:00:00 GMT 2015 brooklyn2014 Red maple Acer rubrum Fruit (None) 38.814700000000000 -82.930600000000000 57675
Wed Nov 18 00:00:00 GMT 2015 brooklyn2014 Red maple Acer rubrum Leaves Unfolding (Late) 38.814700000000000 -82.930600000000000 57682
Wed Nov 18 00:00:00 GMT 2015 brooklyn2014 Red maple Acer rubrum Leaves Changing Color (Late) 38.814700000000000 -82.930600000000000 57683
Wed Nov 18 00:00:00 GMT 2015 brooklyn2014 Red maple Acer rubrum Leaves Dropping (Late) 38.814700000000000 -82.930600000000000 57684
Wed Nov 18 00:00:00 GMT 2015 brooklyn2014 Red maple Acer rubrum Flowers (Late) 38.814700000000000 -82.930600000000000 57685
Wed Nov 18 00:00:00 GMT 2015 brooklyn2014 Red maple Acer rubrum Fruit (None) 38.814700000000000 -82.930600000000000 57686
Mon Oct 12 00:00:00 GMT 2015 robinv1_Washington_College_reporter55 Red maple Acer rubrum Leaves Unfolding (Late) 39.217300000000000 -76.068650000000000 57979
Mon Oct 12 00:00:00 GMT 2015 robinv1_Washington_College_reporter55 Red maple Acer rubrum Leaves Changing Color (None) 39.217300000000000 -76.068650000000000 57980
Mon Oct 12 00:00:00 GMT 2015 robinv1_Washington_College_reporter55 Red maple Acer rubrum Leaves Dropping (None) 39.217300000000000 -76.068650000000000 57981
Mon Oct 12 00:00:00 GMT 2015 robinv1_Washington_College_reporter55 Red maple Acer rubrum Flowers (None) 39.217300000000000 -76.068650000000000 57982
Mon Oct 12 00:00:00 GMT 2015 robinv1_Washington_College_reporter55 Red maple Acer rubrum Fruit (None) 39.217300000000000 -76.068650000000000 57983
Mon Oct 05 00:00:00 GMT 2015 robinv1_Washington_College_reporter55 Red maple Acer rubrum Leaves Unfolding (Late) 39.217300000000000 -76.068650000000000 57974
Mon Oct 05 00:00:00 GMT 2015 robinv1_Washington_College_reporter55 Red maple Acer rubrum Leaves Changing Color (None) 39.217300000000000 -76.068650000000000 57975
Mon Oct 05 00:00:00 GMT 2015 robinv1_Washington_College_reporter55 Red maple Acer rubrum Leaves Dropping (None) 39.217300000000000 -76.068650000000000 57976
Mon Oct 05 00:00:00 GMT 2015 robinv1_Washington_College_reporter55 Red maple Acer rubrum Flowers (None) 39.217300000000000 -76.068650000000000 57977
Mon Oct 05 00:00:00 GMT 2015 robinv1_Washington_College_reporter55 Red maple Acer rubrum Fruit (None) 39.217300000000000 -76.068650000000000 57978
Mon Sep 28 00:00:00 GMT 2015 robinv1_Washington_College_reporter55 Red maple Acer rubrum Leaves Unfolding (Late) 39.217300000000000 -76.068650000000000 57969
Mon Sep 28 00:00:00 GMT 2015 robinv1_Washington_College_reporter55 Red maple Acer rubrum Leaves Changing Color (None) 39.217300000000000 -76.068650000000000 57970
Mon Sep 28 00:00:00 GMT 2015 robinv1_Washington_College_reporter55 Red maple Acer rubrum Leaves Dropping (None) 39.217300000000000 -76.068650000000000 57971
Mon Sep 28 00:00:00 GMT 2015 robinv1_Washington_College_reporter55 Red maple Acer rubrum Flowers (None) 39.217300000000000 -76.068650000000000 57972
Mon Sep 28 00:00:00 GMT 2015 robinv1_Washington_College_reporter55 Red maple Acer rubrum Fruit (None) 39.217300000000000 -76.068650000000000 57973
Mon Oct 19 00:00:00 GMT 2015 robinv1_Washington_College_reporter55 Red maple Acer rubrum Leaves Unfolding (Late) 39.217300000000000 -76.068650000000000 57984
Mon Oct 19 00:00:00 GMT 2015 robinv1_Washington_College_reporter55 Red maple Acer rubrum Leaves Changing Color (None) 39.217300000000000 -76.068650000000000 57985
Mon Oct 19 00:00:00 GMT 2015 robinv1_Washington_College_reporter55 Red maple Acer rubrum Leaves Dropping (None) 39.217300000000000 -76.068650000000000 57986
Mon Oct 19 00:00:00 GMT 2015 robinv1_Washington_College_reporter55 Red maple Acer rubrum Flowers (None) 39.217300000000000 -76.068650000000000 57987
Mon Oct 19 00:00:00 GMT 2015 robinv1_Washington_College_reporter55 Red maple Acer rubrum Fruit (None) 39.217300000000000 -76.068650000000000 57988
Mon Oct 26 00:00:00 GMT 2015 robinv1_Washington_College_reporter55 Red maple Acer rubrum Leaves Unfolding (Late) 39.217300000000000 -76.068650000000000 57989
Mon Oct 26 00:00:00 GMT 2015 robinv1_Washington_College_reporter55 Red maple Acer rubrum Leaves Changing Color (None) 39.217300000000000 -76.068650000000000 57990
Mon Oct 26 00:00:00 GMT 2015 robinv1_Washington_College_reporter55 Red maple Acer rubrum Leaves Dropping (None) 39.217300000000000 -76.068650000000000 57991
Mon Oct 26 00:00:00 GMT 2015 robinv1_Washington_College_reporter55 Red maple Acer rubrum Flowers (None) 39.217300000000000 -76.068650000000000 57992
Mon Oct 26 00:00:00 GMT 2015 robinv1_Washington_College_reporter55 Red maple Acer rubrum Fruit (None) 39.217300000000000 -76.068650000000000 57993
Mon Nov 02 00:00:00 GMT 2015 robinv1_Washington_College_reporter55 Red maple Acer rubrum Leaves Unfolding (Late) 39.217300000000000 -76.068650000000000 57994
Mon Nov 02 00:00:00 GMT 2015 robinv1_Washington_College_reporter55 Red maple Acer rubrum Leaves Changing Color (Middle) 39.217300000000000 -76.068650000000000 57995
Mon Nov 02 00:00:00 GMT 2015 robinv1_Washington_College_reporter55 Red maple Acer rubrum Leaves Dropping (None) 39.217300000000000 -76.068650000000000 57996
Mon Nov 02 00:00:00 GMT 2015 robinv1_Washington_College_reporter55 Red maple Acer rubrum Flowers (None) 39.217300000000000 -76.068650000000000 57997
Mon Nov 02 00:00:00 GMT 2015 robinv1_Washington_College_reporter55 Red maple Acer rubrum Fruit (None) 39.217300000000000 -76.068650000000000 57998
Mon Nov 09 00:00:00 GMT 2015 robinv1_Washington_College_reporter55 Red maple Acer rubrum Leaves Unfolding (Late) 39.217300000000000 -76.068650000000000 57999
Mon Nov 09 00:00:00 GMT 2015 robinv1_Washington_College_reporter55 Red maple Acer rubrum Leaves Changing Color (Middle) 39.217300000000000 -76.068650000000000 58000
Mon Nov 09 00:00:00 GMT 2015 robinv1_Washington_College_reporter55 Red maple Acer rubrum Leaves Dropping (Middle) 39.217300000000000 -76.068650000000000 58001
Mon Nov 09 00:00:00 GMT 2015 robinv1_Washington_College_reporter55 Red maple Acer rubrum Flowers (None) 39.217300000000000 -76.068650000000000 58002
Mon Nov 09 00:00:00 GMT 2015 robinv1_Washington_College_reporter55 Red maple Acer rubrum Fruit (None) 39.217300000000000 -76.068650000000000 58003
Mon Nov 30 00:00:00 GMT 2015 robinv1_Washington_College_reporter55 Red maple Acer rubrum Leaves Unfolding (Late) 39.217300000000000 -76.068650000000000 58004
Mon Nov 30 00:00:00 GMT 2015 robinv1_Washington_College_reporter55 Red maple Acer rubrum Leaves Changing Color (Late) 39.217300000000000 -76.068650000000000 58005
Mon Nov 30 00:00:00 GMT 2015 robinv1_Washington_College_reporter55 Red maple Acer rubrum Leaves Dropping (Late) 39.217300000000000 -76.068650000000000 58006
Mon Nov 30 00:00:00 GMT 2015 robinv1_Washington_College_reporter55 Red maple Acer rubrum Flowers (None) 39.217300000000000 -76.068650000000000 58007
Mon Nov 30 00:00:00 GMT 2015 robinv1_Washington_College_reporter55 Red maple Acer rubrum Fruit (None) 39.217300000000000 -76.068650000000000 58008
Sun Oct 04 00:00:00 GMT 2015 robinv1_Washington_College_reporter49 Red maple Acer rubrum Leaves Unfolding (None) 39.218870000000000 -76.069000000000000 59220
Sun Oct 04 00:00:00 GMT 2015 robinv1_Washington_College_reporter49 Red maple Acer rubrum Leaves Changing Color (None) 39.218870000000000 -76.069000000000000 59221
Sun Oct 04 00:00:00 GMT 2015 robinv1_Washington_College_reporter49 Red maple Acer rubrum Leaves Dropping (Early) 39.218870000000000 -76.069000000000000 59222
Sun Oct 04 00:00:00 GMT 2015 robinv1_Washington_College_reporter49 Red maple Acer rubrum Flowers (Early) 39.218870000000000 -76.069000000000000 59223
Sun Oct 04 00:00:00 GMT 2015 robinv1_Washington_College_reporter49 Red maple Acer rubrum Fruit (Early) 39.218870000000000 -76.069000000000000 59224
Sun Oct 11 00:00:00 GMT 2015 robinv1_Washington_College_reporter49 Red maple Acer rubrum Leaves Unfolding (None) 39.218870000000000 -76.069000000000000 59225
Sun Oct 11 00:00:00 GMT 2015 robinv1_Washington_College_reporter49 Red maple Acer rubrum Leaves Changing Color (None) 39.218870000000000 -76.069000000000000 59226
Sun Oct 11 00:00:00 GMT 2015 robinv1_Washington_College_reporter49 Red maple Acer rubrum Leaves Dropping (Early) 39.218870000000000 -76.069000000000000 59227
Sun Oct 11 00:00:00 GMT 2015 robinv1_Washington_College_reporter49 Red maple Acer rubrum Flowers (Early) 39.218870000000000 -76.069000000000000 59228
Sun Oct 11 00:00:00 GMT 2015 robinv1_Washington_College_reporter49 Red maple Acer rubrum Fruit (Early) 39.218870000000000 -76.069000000000000 59229
Sun Oct 18 00:00:00 GMT 2015 robinv1_Washington_College_reporter49 Red maple Acer rubrum Leaves Unfolding (None) 39.218870000000000 -76.069000000000000 59230
Sun Oct 18 00:00:00 GMT 2015 robinv1_Washington_College_reporter49 Red maple Acer rubrum Leaves Changing Color (Early) 39.218870000000000 -76.069000000000000 59231
Sun Oct 18 00:00:00 GMT 2015 robinv1_Washington_College_reporter49 Red maple Acer rubrum Leaves Dropping (Early) 39.218870000000000 -76.069000000000000 59232
Sun Oct 18 00:00:00 GMT 2015 robinv1_Washington_College_reporter49 Red maple Acer rubrum Flowers (Early) 39.218870000000000 -76.069000000000000 59233
Sun Oct 18 00:00:00 GMT 2015 robinv1_Washington_College_reporter49 Red maple Acer rubrum Fruit (Early) 39.218870000000000 -76.069000000000000 59234
Sun Oct 25 00:00:00 GMT 2015 robinv1_Washington_College_reporter49 Red maple Acer rubrum Leaves Unfolding (None) 39.218870000000000 -76.069000000000000 59235
Sun Oct 25 00:00:00 GMT 2015 robinv1_Washington_College_reporter49 Red maple Acer rubrum Leaves Changing Color (Early) 39.218870000000000 -76.069000000000000 59236
Sun Oct 25 00:00:00 GMT 2015 robinv1_Washington_College_reporter49 Red maple Acer rubrum Leaves Dropping (Early) 39.218870000000000 -76.069000000000000 59237
Sun Oct 25 00:00:00 GMT 2015 robinv1_Washington_College_reporter49 Red maple Acer rubrum Flowers (Middle) 39.218870000000000 -76.069000000000000 59238
Sun Oct 25 00:00:00 GMT 2015 robinv1_Washington_College_reporter49 Red maple Acer rubrum Fruit (Early) 39.218870000000000 -76.069000000000000 59239
Sun Nov 01 00:00:00 GMT 2015 robinv1_Washington_College_reporter49 Red maple Acer rubrum Leaves Unfolding (None) 39.218870000000000 -76.069000000000000 59240
Sun Nov 01 00:00:00 GMT 2015 robinv1_Washington_College_reporter49 Red maple Acer rubrum Leaves Changing Color (Early) 39.218870000000000 -76.069000000000000 59241
Sun Nov 01 00:00:00 GMT 2015 robinv1_Washington_College_reporter49 Red maple Acer rubrum Leaves Dropping (Early) 39.218870000000000 -76.069000000000000 59242
Sun Nov 01 00:00:00 GMT 2015 robinv1_Washington_College_reporter49 Red maple Acer rubrum Flowers (Middle) 39.218870000000000 -76.069000000000000 59243
Sun Nov 01 00:00:00 GMT 2015 robinv1_Washington_College_reporter49 Red maple Acer rubrum Fruit (Middle) 39.218870000000000 -76.069000000000000 59244
Sun Nov 08 00:00:00 GMT 2015 robinv1_Washington_College_reporter49 Red maple Acer rubrum Leaves Unfolding (None) 39.218870000000000 -76.069000000000000 59246
Sun Nov 08 00:00:00 GMT 2015 robinv1_Washington_College_reporter49 Red maple Acer rubrum Leaves Changing Color (Early) 39.218870000000000 -76.069000000000000 59247
Sun Nov 08 00:00:00 GMT 2015 robinv1_Washington_College_reporter49 Red maple Acer rubrum Leaves Dropping (Middle) 39.218870000000000 -76.069000000000000 59248
Sun Nov 08 00:00:00 GMT 2015 robinv1_Washington_College_reporter49 Red maple Acer rubrum Flowers (Middle) 39.218870000000000 -76.069000000000000 59249
Sun Nov 08 00:00:00 GMT 2015 robinv1_Washington_College_reporter49 Red maple Acer rubrum Fruit (Middle) 39.218870000000000 -76.069000000000000 59250
Sun Nov 15 00:00:00 GMT 2015 robinv1_Washington_College_reporter49 Red maple Acer rubrum Leaves Unfolding (None) 39.218870000000000 -76.069000000000000 59266
Sun Nov 15 00:00:00 GMT 2015 robinv1_Washington_College_reporter49 Red maple Acer rubrum Leaves Changing Color (Middle) 39.218870000000000 -76.069000000000000 59267
Sun Nov 15 00:00:00 GMT 2015 robinv1_Washington_College_reporter49 Red maple Acer rubrum Leaves Dropping (Middle) 39.218870000000000 -76.069000000000000 59268
Sun Nov 15 00:00:00 GMT 2015 robinv1_Washington_College_reporter49 Red maple Acer rubrum Flowers (Middle) 39.218870000000000 -76.069000000000000 59269
Sun Nov 15 00:00:00 GMT 2015 robinv1_Washington_College_reporter49 Red maple Acer rubrum Fruit (Middle) 39.218870000000000 -76.069000000000000 59270
Sun Nov 29 00:00:00 GMT 2015 robinv1_Washington_College_reporter49 Red maple Acer rubrum Leaves Unfolding (None) 39.218870000000000 -76.069000000000000 59276
Sun Nov 29 00:00:00 GMT 2015 robinv1_Washington_College_reporter49 Red maple Acer rubrum Leaves Changing Color (Late) 39.218870000000000 -76.069000000000000 59277
Sun Nov 29 00:00:00 GMT 2015 robinv1_Washington_College_reporter49 Red maple Acer rubrum Leaves Dropping (Late) 39.218870000000000 -76.069000000000000 59278
Sun Nov 29 00:00:00 GMT 2015 robinv1_Washington_College_reporter49 Red maple Acer rubrum Flowers (Middle) 39.218870000000000 -76.069000000000000 59280
Sun Nov 29 00:00:00 GMT 2015 robinv1_Washington_College_reporter49 Red maple Acer rubrum Fruit (Late) 39.218870000000000 -76.069000000000000 59283
Sun Dec 06 00:00:00 GMT 2015 robinv1_Washington_College_reporter49 Red maple Acer rubrum Leaves Unfolding (None) 39.218870000000000 -76.069000000000000 59291
Sun Dec 06 00:00:00 GMT 2015 robinv1_Washington_College_reporter49 Red maple Acer rubrum Leaves Changing Color (Late) 39.218870000000000 -76.069000000000000 59292
Sun Dec 06 00:00:00 GMT 2015 robinv1_Washington_College_reporter49 Red maple Acer rubrum Leaves Dropping (Late) 39.218870000000000 -76.069000000000000 59293
Sun Dec 06 00:00:00 GMT 2015 robinv1_Washington_College_reporter49 Red maple Acer rubrum Flowers (Late) 39.218870000000000 -76.069000000000000 59294
Sun Dec 06 00:00:00 GMT 2015 robinv1_Washington_College_reporter49 Red maple Acer rubrum Fruit (Late) 39.218870000000000 -76.069000000000000 59295
Mon Oct 12 00:00:00 GMT 2015 robinv1_Washington_College_reporter43 Red maple Acer rubrum Bud Burst 39.219200000000000 -76.069600000000000 59685
Mon Oct 19 00:00:00 GMT 2015 robinv1_Washington_College_reporter43 Red maple Acer rubrum First Leaf 39.219200000000000 -76.069600000000000 59686
Mon Nov 02 00:00:00 GMT 2015 robinv1_Washington_College_reporter43 Red maple Acer rubrum All Leaves Unfolded 39.219200000000000 -76.069600000000000 59687
Mon Oct 19 00:00:00 GMT 2015 robinv1_Washington_College_reporter43 Red maple Acer rubrum First Flower 39.219200000000000 -76.069600000000000 59688
Mon Nov 02 00:00:00 GMT 2015 robinv1_Washington_College_reporter43 Red maple Acer rubrum Full Flower 39.219200000000000 -76.069600000000000 59689
Mon Nov 09 00:00:00 GMT 2015 robinv1_Washington_College_reporter43 Red maple Acer rubrum First Ripe Fruit 39.219200000000000 -76.069600000000000 59690
Mon Nov 16 00:00:00 GMT 2015 robinv1_Washington_College_reporter43 Red maple Acer rubrum Full Fruiting 39.219200000000000 -76.069600000000000 59691
Mon Oct 26 00:00:00 GMT 2015 robinv1_Washington_College_reporter43 Red maple Acer rubrum 50% Color 39.219200000000000 -76.069600000000000 59692
Mon Oct 26 00:00:00 GMT 2015 robinv1_Washington_College_reporter43 Red maple Acer rubrum 50% Leaf Fall 39.219200000000000 -76.069600000000000 59693
Mon Dec 14 00:00:00 GMT 2015 finan214 Red maple Acer rubrum Leaves Unfolding (Late) 32.935500000000000 -96.551650000000000 61089
Mon Dec 14 00:00:00 GMT 2015 finan214 Red maple Acer rubrum Leaves Changing Color (Late) 32.935500000000000 -96.551650000000000 61090
Mon Dec 14 00:00:00 GMT 2015 finan214 Red maple Acer rubrum Leaves Dropping (Early) 32.935500000000000 -96.551650000000000 61091
Mon Dec 14 00:00:00 GMT 2015 finan214 Red maple Acer rubrum Flowers (None) 32.935500000000000 -96.551650000000000 61092
Mon Dec 14 00:00:00 GMT 2015 finan214 Red maple Acer rubrum Fruit (None) 32.935500000000000 -96.551650000000000 61093
Mon Dec 14 00:00:00 GMT 2015 finan214 Red maple Acer rubrum Leaves Unfolding (Late) 32.935500000000000 -96.551650000000000 61094
Mon Dec 14 00:00:00 GMT 2015 finan214 Red maple Acer rubrum Leaves Changing Color (Late) 32.935500000000000 -96.551650000000000 61095
Mon Dec 14 00:00:00 GMT 2015 finan214 Red maple Acer rubrum Leaves Dropping (Early) 32.935500000000000 -96.551650000000000 61096
Mon Dec 14 00:00:00 GMT 2015 finan214 Red maple Acer rubrum Flowers (None) 32.935500000000000 -96.551650000000000 61097
Mon Dec 14 00:00:00 GMT 2015 finan214 Red maple Acer rubrum Fruit (None) 32.935500000000000 -96.551650000000000 61098
Mon Dec 14 00:00:00 GMT 2015 finan214 Red maple Acer rubrum Leaves Unfolding (Late) 32.935500000000000 -96.551650000000000 61099
Mon Dec 14 00:00:00 GMT 2015 finan214 Red maple Acer rubrum Leaves Changing Color (Late) 32.935500000000000 -96.551650000000000 61100
Mon Dec 14 00:00:00 GMT 2015 finan214 Red maple Acer rubrum Leaves Dropping (Early) 32.935500000000000 -96.551650000000000 61101
Mon Dec 14 00:00:00 GMT 2015 finan214 Red maple Acer rubrum Flowers (None) 32.935500000000000 -96.551650000000000 61102
Mon Dec 14 00:00:00 GMT 2015 finan214 Red maple Acer rubrum Fruit (None) 32.935500000000000 -96.551650000000000 61103
Sat Dec 05 00:00:00 GMT 2015 TremontBudBurst Red maple Acer rubrum Leaves Unfolding (None) 35.640771077114536 -83.692406936506560 61242
Sat Dec 05 00:00:00 GMT 2015 TremontBudBurst Red maple Acer rubrum Leaves Changing Color (Late) 35.640771077114536 -83.692406936506560 61243
Sat Dec 05 00:00:00 GMT 2015 TremontBudBurst Red maple Acer rubrum Leaves Dropping (Late) 35.640771077114536 -83.692406936506560 61244
Sat Dec 05 00:00:00 GMT 2015 TremontBudBurst Red maple Acer rubrum Flowers (None) 35.640771077114536 -83.692406936506560 61245
Sat Dec 05 00:00:00 GMT 2015 TremontBudBurst Red maple Acer rubrum Fruit (None) 35.640771077114536 -83.692406936506560 61246
Sun Nov 13 00:00:00 GMT 2016 jrseck4 Red maple Acer rubrum 50% Leaf Fall 33.983083000000000 -84.384044000000000 74489
Wed Nov 30 00:00:00 GMT 2016 LinuxMan Red maple Acer rubrum 50% Leaf Fall 33.991130000000000 -84.451810000000000 74498
Wed Feb 08 00:00:00 GMT 2017 berryan Red maple Acer rubrum First Flower 34.742565000000000 -79.482761000000000 74816
Thu Feb 09 00:00:00 GMT 2017 gmesiemore Red maple Acer rubrum Bud Burst 35.202147000000000 -81.141093000000000 74817
Sat Feb 11 00:00:00 GMT 2017 charflet Red maple Acer rubrum Leaves Unfolding (None) 35.177740000000000 -80.848750000000000 74835
Sat Feb 11 00:00:00 GMT 2017 charflet Red maple Acer rubrum Leaves Changing Color (None) 35.177740000000000 -80.848750000000000 74836
Sat Feb 11 00:00:00 GMT 2017 charflet Red maple Acer rubrum Leaves Dropping (None) 35.177740000000000 -80.848750000000000 74837
Sat Feb 11 00:00:00 GMT 2017 charflet Red maple Acer rubrum Flowers (Early) 35.177740000000000 -80.848750000000000 74838
Sat Feb 11 00:00:00 GMT 2017 charflet Red maple Acer rubrum Fruit (None) 35.177740000000000 -80.848750000000000 74839
Wed Feb 15 00:00:00 GMT 2017 keb015 Red maple Acer rubrum Leaves Unfolding (None) 39.582990000000000 -77.003680000000000 74927
Wed Feb 15 00:00:00 GMT 2017 keb015 Red maple Acer rubrum Leaves Changing Color (None) 39.582990000000000 -77.003680000000000 74928
Wed Feb 15 00:00:00 GMT 2017 keb015 Red maple Acer rubrum Leaves Dropping (Late) 39.582990000000000 -77.003680000000000 74929
Wed Feb 15 00:00:00 GMT 2017 keb015 Red maple Acer rubrum Flowers (None) 39.582990000000000 -77.003680000000000 74930
Wed Feb 15 00:00:00 GMT 2017 keb015 Red maple Acer rubrum Fruit (None) 39.582990000000000 -77.003680000000000 74931
Wed Feb 15 00:00:00 GMT 2017 keb015 Red maple Acer rubrum Bud Burst 39.582990000000000 -77.003680000000000 74932
Mon Feb 20 00:00:00 GMT 2017 CarolPelizzari Red maple Acer rubrum Leaves Unfolding (None) 41.917110000000000 -73.070700000000000 74977
Mon Feb 20 00:00:00 GMT 2017 CarolPelizzari Red maple Acer rubrum Leaves Unfolding (None) 41.917110000000000 -73.070700000000000 74978
Mon Feb 20 00:00:00 GMT 2017 CarolPelizzari Red maple Acer rubrum Leaves Changing Color (None) 41.917110000000000 -73.070700000000000 74979
Mon Feb 20 00:00:00 GMT 2017 CarolPelizzari Red maple Acer rubrum Leaves Dropping (Late) 41.917110000000000 -73.070700000000000 74980
Mon Feb 20 00:00:00 GMT 2017 CarolPelizzari Red maple Acer rubrum Leaves Changing Color (None) 41.917110000000000 -73.070700000000000 74981
Mon Feb 20 00:00:00 GMT 2017 CarolPelizzari Red maple Acer rubrum Flowers (None) 41.917110000000000 -73.070700000000000 74982
Mon Feb 20 00:00:00 GMT 2017 CarolPelizzari Red maple Acer rubrum Leaves Dropping (Late) 41.917110000000000 -73.070700000000000 74983
Mon Feb 20 00:00:00 GMT 2017 CarolPelizzari Red maple Acer rubrum Fruit (None) 41.917110000000000 -73.070700000000000 74984
Mon Feb 20 00:00:00 GMT 2017 CarolPelizzari Red maple Acer rubrum Flowers (None) 41.917110000000000 -73.070700000000000 74985
Mon Feb 20 00:00:00 GMT 2017 CarolPelizzari Red maple Acer rubrum Fruit (None) 41.917110000000000 -73.070700000000000 74986
Thu Feb 23 00:00:00 GMT 2017 bthomps1 Red maple Acer rubrum First Flower 38.195980000000000 -85.534280000000000 75030
Tue Feb 21 00:00:00 GMT 2017 rsafron Red maple Acer rubrum Leaves Unfolding (None) 41.362730000000000 -82.004570000000000 75069
Tue Feb 21 00:00:00 GMT 2017 rsafron Red maple Acer rubrum Leaves Changing Color (None) 41.362730000000000 -82.004570000000000 75070
Tue Feb 21 00:00:00 GMT 2017 rsafron Red maple Acer rubrum Leaves Dropping (None) 41.362730000000000 -82.004570000000000 75071
Tue Feb 21 00:00:00 GMT 2017 rsafron Red maple Acer rubrum Flowers (Early) 41.362730000000000 -82.004570000000000 75072
Tue Feb 21 00:00:00 GMT 2017 rsafron Red maple Acer rubrum Fruit (None) 41.362730000000000 -82.004570000000000 75073
Sat Feb 18 00:00:00 GMT 2017 watershedconnections Red maple Acer rubrum Bud Burst 38.590309000000000 -77.161231000000000 75082
Sat Feb 25 00:00:00 GMT 2017 watershedconnections Red maple Acer rubrum Full Flower 38.590309000000000 -77.161231000000000 75083
Tue Feb 28 00:00:00 GMT 2017 keb015 Red maple Acer rubrum First Leaf 39.582990000000000 -77.003680000000000 75142
Thu Mar 02 00:00:00 GMT 2017 bkanoy_MS_Gail_Walker_Garden_reporter6 Red maple Acer rubrum Bud Burst 35.968516000000000 -78.944390000000000 75158
Thu Mar 02 00:00:00 GMT 2017 bkanoy_MS_Gail_Walker_Garden_reporter6 Red maple Acer rubrum All Leaves Unfolded 35.968516000000000 -78.944390000000000 75159
Mon Feb 27 00:00:00 GMT 2017 bkanoy_MS_Gail_Walker_Garden_reporter6 Red maple Acer rubrum 50% Color 35.968516000000000 -78.944390000000000 75160
Wed Mar 01 00:00:00 GMT 2017 amt27 Red maple Acer rubrum Bud Burst 40.264700000000000 -74.955800000000000 75161
Thu Mar 02 00:00:00 GMT 2017 schroe Red maple Acer rubrum Leaves Unfolding (None) 38.805190000000000 -77.306560000000000 75174
Thu Mar 02 00:00:00 GMT 2017 schroe Red maple Acer rubrum Leaves Changing Color (None) 38.805190000000000 -77.306560000000000 75175
Thu Mar 02 00:00:00 GMT 2017 schroe Red maple Acer rubrum Leaves Dropping (None) 38.805190000000000 -77.306560000000000 75176
Thu Mar 02 00:00:00 GMT 2017 schroe Red maple Acer rubrum Flowers (Middle) 38.805190000000000 -77.306560000000000 75177
Thu Mar 02 00:00:00 GMT 2017 schroe Red maple Acer rubrum Fruit (None) 38.805190000000000 -77.306560000000000 75178
Wed Mar 01 00:00:00 GMT 2017 muskrattown Red maple Acer rubrum First Flower 38.449744000000000 -75.136163000000000 75186
Wed Mar 01 00:00:00 GMT 2017 bthomps1 Red maple Acer rubrum Full Flower 38.195980000000000 -85.534280000000000 75192
Thu Feb 23 00:00:00 GMT 2017 Audubon Red maple Acer rubrum Bud Burst 40.545200000000000 -79.907400000000000 75202
Mon Feb 27 00:00:00 GMT 2017 Audubon Red maple Acer rubrum First Flower 40.545200000000000 -79.907400000000000 75203
Fri Mar 03 00:00:00 GMT 2017 Audubon Red maple Acer rubrum Full Flower 40.545200000000000 -79.907400000000000 75204
Mon Mar 06 00:00:00 GMT 2017 kayrihavens Red maple Acer rubrum Full Flower 42.151900000000000 -87.785500000000000 75315
Fri Mar 10 00:00:00 GMT 2017 esermon Red maple Acer rubrum Bud Burst 47.682350000000000 -122.256780000000000 75421
Wed Mar 08 00:00:00 GMT 2017 woodsedge Red maple Acer rubrum Full Flower 38.565400000000000 -78.926000000000000 75462
Wed Mar 01 00:00:00 GMT 2017 berryan Red maple Acer rubrum Full Flower 34.742565000000000 -79.482761000000000 75498
Thu Mar 09 00:00:00 GMT 2017 BookmanESOL Red maple Acer rubrum Leaves Unfolding (Late) 34.051237000000000 -80.951407000000000 75634
Thu Mar 09 00:00:00 GMT 2017 BookmanESOL Red maple Acer rubrum Leaves Changing Color (None) 34.051237000000000 -80.951407000000000 75635
Thu Mar 09 00:00:00 GMT 2017 BookmanESOL Red maple Acer rubrum Leaves Dropping (None) 34.051237000000000 -80.951407000000000 75636
Thu Mar 09 00:00:00 GMT 2017 BookmanESOL Red maple Acer rubrum Flowers (Late) 34.051237000000000 -80.951407000000000 75637
Thu Mar 09 00:00:00 GMT 2017 BookmanESOL Red maple Acer rubrum Fruit (None) 34.051237000000000 -80.951407000000000 75638
Mon Mar 20 00:00:00 GMT 2017 jonahfischer8 Red maple Acer rubrum Leaves Unfolding (None) 42.385937000000000 -71.228657000000000 75722
Mon Mar 20 00:00:00 GMT 2017 jonahfischer8 Red maple Acer rubrum Leaves Changing Color (Late) 42.385937000000000 -71.228657000000000 75723
Mon Mar 20 00:00:00 GMT 2017 jonahfischer8 Red maple Acer rubrum Leaves Dropping (Late) 42.385937000000000 -71.228657000000000 75724
Mon Mar 20 00:00:00 GMT 2017 jonahfischer8 Red maple Acer rubrum Flowers (None) 42.385937000000000 -71.228657000000000 75725
Mon Mar 20 00:00:00 GMT 2017 jonahfischer8 Red maple Acer rubrum Fruit (None) 42.385937000000000 -71.228657000000000 75726
Wed Mar 22 00:00:00 GMT 2017 robin Red maple Acer rubrum Leaves Unfolding (None) 42.324225000000000 -72.531537000000000 76144
Wed Mar 22 00:00:00 GMT 2017 robin Red maple Acer rubrum Leaves Changing Color (None) 42.324225000000000 -72.531537000000000 76145
Wed Mar 22 00:00:00 GMT 2017 robin Red maple Acer rubrum Leaves Dropping (None) 42.324225000000000 -72.531537000000000 76146
Wed Mar 22 00:00:00 GMT 2017 robin Red maple Acer rubrum Flowers (Early) 42.324225000000000 -72.531537000000000 76147
Wed Mar 22 00:00:00 GMT 2017 robin Red maple Acer rubrum Fruit (None) 42.324225000000000 -72.531537000000000 76148
Thu Mar 23 00:00:00 GMT 2017 jbrannon Red maple Acer rubrum Bud Burst 35.099470000000000 -83.104370000000000 76188

*All downloadable materials require the free Adobe Reader.